<?xml version="1.0" encoding="UTF-8" standalone="no" ?>
<gpx xmlns="http://www.topografix.com/GPX/1/1" xmlns:xsi="http://www.w3.org/2001/XMLSchema-instance" xsi:schemaLocation="http://www.topografix.com/GPX/1/1 http://www.topografix.com/GPX/1/1/gpx.xsd" version="1.1" creator="VisuGPX - https://www.visugpx.com">
  <metadata>
    <name>Cornillon  Boucles</name>
    <desc><![CDATA[Boucles autour des ecuries de Cornillon 
projet pour juillet 2017]]></desc>
  </metadata>
  <trk>
    <name><![CDATA[Cornillon B2 25km]]></name>
    <trkseg>
      <trkpt lat="44.83406" lon="5.70908">
        <ele>846</ele>
        <time>2013-07-12T09:42:39Z</time>
      </trkpt>
      <trkpt lat="44.83415" lon="5.7092">
        <ele>844</ele>
        <time>2013-07-12T09:42:52Z</time>
      </trkpt>
      <trkpt lat="44.83415" lon="5.70943">
        <ele>843</ele>
        <time>2013-07-12T09:43:05Z</time>
      </trkpt>
      <trkpt lat="44.83407" lon="5.70964">
        <ele>842</ele>
        <time>2013-07-12T09:43:17Z</time>
      </trkpt>
      <trkpt lat="44.83407" lon="5.70985">
        <ele>840</ele>
        <time>2013-07-12T09:43:31Z</time>
      </trkpt>
      <trkpt lat="44.83407" lon="5.70991">
        <ele>846</ele>
        <time>2013-07-12T09:43:34Z</time>
      </trkpt>
      <trkpt lat="44.83406" lon="5.70994">
        <ele>851</ele>
        <time>2013-07-12T09:43:36Z</time>
      </trkpt>
      <trkpt lat="44.83406" lon="5.70997">
        <ele>855</ele>
        <time>2013-07-12T09:43:38Z</time>
      </trkpt>
      <trkpt lat="44.83405" lon="5.71001">
        <ele>859</ele>
        <time>2013-07-12T09:43:40Z</time>
      </trkpt>
      <trkpt lat="44.83405" lon="5.71003">
        <ele>862</ele>
        <time>2013-07-12T09:43:42Z</time>
      </trkpt>
      <trkpt lat="44.83405" lon="5.71006">
        <ele>865</ele>
        <time>2013-07-12T09:43:44Z</time>
      </trkpt>
      <trkpt lat="44.83402" lon="5.71013">
        <ele>871</ele>
        <time>2013-07-12T09:43:48Z</time>
      </trkpt>
      <trkpt lat="44.83401" lon="5.71019">
        <ele>875</ele>
        <time>2013-07-12T09:43:52Z</time>
      </trkpt>
      <trkpt lat="44.83401" lon="5.7102">
        <ele>876</ele>
        <time>2013-07-12T09:43:53Z</time>
      </trkpt>
      <trkpt lat="44.83398" lon="5.71027">
        <ele>879</ele>
        <time>2013-07-12T09:43:57Z</time>
      </trkpt>
      <trkpt lat="44.83395" lon="5.71034">
        <ele>882</ele>
        <time>2013-07-12T09:44:01Z</time>
      </trkpt>
      <trkpt lat="44.83395" lon="5.71037">
        <ele>883</ele>
        <time>2013-07-12T09:44:03Z</time>
      </trkpt>
      <trkpt lat="44.83397" lon="5.71052">
        <ele>886</ele>
        <time>2013-07-12T09:44:13Z</time>
      </trkpt>
      <trkpt lat="44.83397" lon="5.71061">
        <ele>888</ele>
        <time>2013-07-12T09:44:18Z</time>
      </trkpt>
      <trkpt lat="44.834" lon="5.71066">
        <ele>888</ele>
        <time>2013-07-12T09:44:22Z</time>
      </trkpt>
      <trkpt lat="44.83405" lon="5.71074">
        <ele>890</ele>
        <time>2013-07-12T09:44:30Z</time>
      </trkpt>
      <trkpt lat="44.83415" lon="5.71093">
        <ele>891</ele>
        <time>2013-07-12T09:44:43Z</time>
      </trkpt>
      <trkpt lat="44.83425" lon="5.71108">
        <ele>890</ele>
        <time>2013-07-12T09:44:56Z</time>
      </trkpt>
      <trkpt lat="44.83433" lon="5.71123">
        <ele>890</ele>
        <time>2013-07-12T09:45:06Z</time>
      </trkpt>
      <trkpt lat="44.83438" lon="5.7115">
        <ele>891</ele>
        <time>2013-07-12T09:45:20Z</time>
      </trkpt>
      <trkpt lat="44.83438" lon="5.71162">
        <ele>891</ele>
        <time>2013-07-12T09:45:26Z</time>
      </trkpt>
      <trkpt lat="44.83434" lon="5.71187">
        <ele>890</ele>
        <time>2013-07-12T09:45:40Z</time>
      </trkpt>
      <trkpt lat="44.83429" lon="5.71208">
        <ele>889</ele>
        <time>2013-07-12T09:45:51Z</time>
      </trkpt>
      <trkpt lat="44.83426" lon="5.71233">
        <ele>888</ele>
        <time>2013-07-12T09:46:06Z</time>
      </trkpt>
      <trkpt lat="44.83429" lon="5.71248">
        <ele>888</ele>
        <time>2013-07-12T09:46:17Z</time>
      </trkpt>
      <trkpt lat="44.83427" lon="5.71255">
        <ele>888</ele>
        <time>2013-07-12T09:46:21Z</time>
      </trkpt>
      <trkpt lat="44.83427" lon="5.71268">
        <ele>887</ele>
        <time>2013-07-12T09:46:29Z</time>
      </trkpt>
      <trkpt lat="44.83428" lon="5.71275">
        <ele>887</ele>
        <time>2013-07-12T09:46:34Z</time>
      </trkpt>
      <trkpt lat="44.83427" lon="5.71278">
        <ele>887</ele>
        <time>2013-07-12T09:46:36Z</time>
      </trkpt>
      <trkpt lat="44.83426" lon="5.71287">
        <ele>887</ele>
        <time>2013-07-12T09:46:42Z</time>
      </trkpt>
      <trkpt lat="44.83427" lon="5.71298">
        <ele>887</ele>
        <time>2013-07-12T09:46:48Z</time>
      </trkpt>
      <trkpt lat="44.83424" lon="5.7133">
        <ele>885</ele>
        <time>2013-07-12T09:47:04Z</time>
      </trkpt>
      <trkpt lat="44.8342" lon="5.71356">
        <ele>885</ele>
        <time>2013-07-12T09:47:18Z</time>
      </trkpt>
      <trkpt lat="44.8342" lon="5.71361">
        <ele>884</ele>
        <time>2013-07-12T09:47:21Z</time>
      </trkpt>
      <trkpt lat="44.8342" lon="5.71381">
        <ele>883</ele>
        <time>2013-07-12T09:47:35Z</time>
      </trkpt>
      <trkpt lat="44.8342" lon="5.714">
        <ele>883</ele>
        <time>2013-07-12T09:47:45Z</time>
      </trkpt>
      <trkpt lat="44.83422" lon="5.71418">
        <ele>883</ele>
        <time>2013-07-12T09:47:54Z</time>
      </trkpt>
      <trkpt lat="44.83422" lon="5.71426">
        <ele>883</ele>
        <time>2013-07-12T09:47:57Z</time>
      </trkpt>
      <trkpt lat="44.83423" lon="5.71431">
        <ele>882</ele>
        <time>2013-07-12T09:48:00Z</time>
      </trkpt>
      <trkpt lat="44.83421" lon="5.71434">
        <ele>882</ele>
        <time>2013-07-12T09:48:07Z</time>
      </trkpt>
      <trkpt lat="44.83422" lon="5.71441">
        <ele>882</ele>
        <time>2013-07-12T09:48:12Z</time>
      </trkpt>
      <trkpt lat="44.83422" lon="5.71461">
        <ele>882</ele>
        <time>2013-07-12T09:48:22Z</time>
      </trkpt>
      <trkpt lat="44.83423" lon="5.71474">
        <ele>881</ele>
        <time>2013-07-12T09:48:30Z</time>
      </trkpt>
      <trkpt lat="44.83425" lon="5.71498">
        <ele>880</ele>
        <time>2013-07-12T09:48:43Z</time>
      </trkpt>
      <trkpt lat="44.83426" lon="5.71503">
        <ele>880</ele>
        <time>2013-07-12T09:48:45Z</time>
      </trkpt>
      <trkpt lat="44.83426" lon="5.71513">
        <ele>879</ele>
        <time>2013-07-12T09:48:51Z</time>
      </trkpt>
      <trkpt lat="44.83432" lon="5.71538">
        <ele>879</ele>
        <time>2013-07-12T09:49:06Z</time>
      </trkpt>
      <trkpt lat="44.83433" lon="5.71545">
        <ele>878</ele>
        <time>2013-07-12T09:49:11Z</time>
      </trkpt>
      <trkpt lat="44.8343" lon="5.71558">
        <ele>877</ele>
        <time>2013-07-12T09:49:18Z</time>
      </trkpt>
      <trkpt lat="44.83429" lon="5.71563">
        <ele>877</ele>
        <time>2013-07-12T09:49:21Z</time>
      </trkpt>
      <trkpt lat="44.83432" lon="5.71574">
        <ele>876</ele>
        <time>2013-07-12T09:49:29Z</time>
      </trkpt>
      <trkpt lat="44.83431" lon="5.71595">
        <ele>875</ele>
        <time>2013-07-12T09:49:40Z</time>
      </trkpt>
      <trkpt lat="44.83432" lon="5.71598">
        <ele>875</ele>
        <time>2013-07-12T09:49:42Z</time>
      </trkpt>
      <trkpt lat="44.83432" lon="5.71622">
        <ele>873</ele>
        <time>2013-07-12T09:49:56Z</time>
      </trkpt>
      <trkpt lat="44.83436" lon="5.71645">
        <ele>871</ele>
        <time>2013-07-12T09:50:10Z</time>
      </trkpt>
      <trkpt lat="44.83436" lon="5.7167">
        <ele>870</ele>
        <time>2013-07-12T09:50:23Z</time>
      </trkpt>
      <trkpt lat="44.83436" lon="5.71671">
        <ele>870</ele>
        <time>2013-07-12T09:50:24Z</time>
      </trkpt>
      <trkpt lat="44.8343" lon="5.7168">
        <ele>869</ele>
        <time>2013-07-12T09:50:30Z</time>
      </trkpt>
      <trkpt lat="44.83426" lon="5.71686">
        <ele>869</ele>
        <time>2013-07-12T09:50:34Z</time>
      </trkpt>
      <trkpt lat="44.83426" lon="5.71707">
        <ele>869</ele>
        <time>2013-07-12T09:50:46Z</time>
      </trkpt>
      <trkpt lat="44.83423" lon="5.7172">
        <ele>868</ele>
        <time>2013-07-12T09:50:52Z</time>
      </trkpt>
      <trkpt lat="44.83428" lon="5.71744">
        <ele>869</ele>
        <time>2013-07-12T09:51:07Z</time>
      </trkpt>
      <trkpt lat="44.83427" lon="5.71753">
        <ele>869</ele>
        <time>2013-07-12T09:51:20Z</time>
      </trkpt>
      <trkpt lat="44.83427" lon="5.71753">
        <ele>869</ele>
        <time>2013-07-12T09:51:36Z</time>
      </trkpt>
      <trkpt lat="44.83427" lon="5.71753">
        <ele>869</ele>
        <time>2013-07-12T09:51:49Z</time>
      </trkpt>
      <trkpt lat="44.83427" lon="5.71753">
        <ele>869</ele>
        <time>2013-07-12T09:52:07Z</time>
      </trkpt>
      <trkpt lat="44.83426" lon="5.71753">
        <ele>869</ele>
        <time>2013-07-12T09:52:20Z</time>
      </trkpt>
      <trkpt lat="44.83426" lon="5.71753">
        <ele>868</ele>
        <time>2013-07-12T09:52:34Z</time>
      </trkpt>
      <trkpt lat="44.83426" lon="5.71753">
        <ele>868</ele>
        <time>2013-07-12T09:52:41Z</time>
      </trkpt>
      <trkpt lat="44.83428" lon="5.71757">
        <ele>868</ele>
        <time>2013-07-12T09:52:47Z</time>
      </trkpt>
      <trkpt lat="44.83429" lon="5.71758">
        <ele>869</ele>
        <time>2013-07-12T09:52:58Z</time>
      </trkpt>
      <trkpt lat="44.83429" lon="5.71758">
        <ele>868</ele>
        <time>2013-07-12T09:53:10Z</time>
      </trkpt>
      <trkpt lat="44.83428" lon="5.71758">
        <ele>867</ele>
        <time>2013-07-12T09:53:28Z</time>
      </trkpt>
      <trkpt lat="44.83428" lon="5.71758">
        <ele>868</ele>
        <time>2013-07-12T09:53:42Z</time>
      </trkpt>
      <trkpt lat="44.83423" lon="5.71755">
        <ele>867</ele>
        <time>2013-07-12T09:53:55Z</time>
      </trkpt>
      <trkpt lat="44.83423" lon="5.71755">
        <ele>868</ele>
        <time>2013-07-12T09:54:07Z</time>
      </trkpt>
      <trkpt lat="44.83423" lon="5.71755">
        <ele>868</ele>
        <time>2013-07-12T09:54:17Z</time>
      </trkpt>
      <trkpt lat="44.83425" lon="5.71761">
        <ele>868</ele>
        <time>2013-07-12T09:54:22Z</time>
      </trkpt>
      <trkpt lat="44.83447" lon="5.71781">
        <ele>869</ele>
        <time>2013-07-12T09:54:38Z</time>
      </trkpt>
      <trkpt lat="44.83468" lon="5.71796">
        <ele>869</ele>
        <time>2013-07-12T09:54:52Z</time>
      </trkpt>
      <trkpt lat="44.83476" lon="5.71802">
        <ele>870</ele>
        <time>2013-07-12T09:54:58Z</time>
      </trkpt>
      <trkpt lat="44.83488" lon="5.71811">
        <ele>870</ele>
        <time>2013-07-12T09:55:11Z</time>
      </trkpt>
      <trkpt lat="44.8349" lon="5.71813">
        <ele>870</ele>
        <time>2013-07-12T09:55:13Z</time>
      </trkpt>
      <trkpt lat="44.83495" lon="5.71819">
        <ele>870</ele>
        <time>2013-07-12T09:55:17Z</time>
      </trkpt>
      <trkpt lat="44.835" lon="5.71824">
        <ele>871</ele>
        <time>2013-07-12T09:55:21Z</time>
      </trkpt>
      <trkpt lat="44.83515" lon="5.71838">
        <ele>871</ele>
        <time>2013-07-12T09:55:33Z</time>
      </trkpt>
      <trkpt lat="44.83515" lon="5.71838">
        <ele>872</ele>
        <time>2013-07-12T09:55:40Z</time>
      </trkpt>
      <trkpt lat="44.83524" lon="5.71843">
        <ele>872</ele>
        <time>2013-07-12T09:55:47Z</time>
      </trkpt>
      <trkpt lat="44.83539" lon="5.71849">
        <ele>872</ele>
        <time>2013-07-12T09:55:58Z</time>
      </trkpt>
      <trkpt lat="44.83541" lon="5.7185">
        <ele>872</ele>
        <time>2013-07-12T09:56:04Z</time>
      </trkpt>
      <trkpt lat="44.83555" lon="5.71849">
        <ele>873</ele>
        <time>2013-07-12T09:56:14Z</time>
      </trkpt>
      <trkpt lat="44.83562" lon="5.71849">
        <ele>873</ele>
        <time>2013-07-12T09:56:19Z</time>
      </trkpt>
      <trkpt lat="44.83565" lon="5.71849">
        <ele>873</ele>
        <time>2013-07-12T09:56:22Z</time>
      </trkpt>
      <trkpt lat="44.83572" lon="5.71849">
        <ele>873</ele>
        <time>2013-07-12T09:56:27Z</time>
      </trkpt>
      <trkpt lat="44.83583" lon="5.71856">
        <ele>873</ele>
        <time>2013-07-12T09:56:39Z</time>
      </trkpt>
      <trkpt lat="44.83585" lon="5.71854">
        <ele>873</ele>
        <time>2013-07-12T09:56:42Z</time>
      </trkpt>
      <trkpt lat="44.83611" lon="5.71855">
        <ele>874</ele>
        <time>2013-07-12T09:56:59Z</time>
      </trkpt>
      <trkpt lat="44.83639" lon="5.71858">
        <ele>874</ele>
        <time>2013-07-12T09:57:16Z</time>
      </trkpt>
      <trkpt lat="44.83671" lon="5.71861">
        <ele>874</ele>
        <time>2013-07-12T09:57:35Z</time>
      </trkpt>
      <trkpt lat="44.83693" lon="5.71861">
        <ele>875</ele>
        <time>2013-07-12T09:57:49Z</time>
      </trkpt>
      <trkpt lat="44.83718" lon="5.71864">
        <ele>876</ele>
        <time>2013-07-12T09:58:04Z</time>
      </trkpt>
      <trkpt lat="44.83743" lon="5.71868">
        <ele>876</ele>
        <time>2013-07-12T09:58:19Z</time>
      </trkpt>
      <trkpt lat="44.83758" lon="5.71873">
        <ele>877</ele>
        <time>2013-07-12T09:58:32Z</time>
      </trkpt>
      <trkpt lat="44.8378" lon="5.71881">
        <ele>877</ele>
        <time>2013-07-12T09:58:49Z</time>
      </trkpt>
      <trkpt lat="44.83788" lon="5.71885">
        <ele>877</ele>
        <time>2013-07-12T09:58:54Z</time>
      </trkpt>
      <trkpt lat="44.83809" lon="5.71894">
        <ele>878</ele>
        <time>2013-07-12T09:59:10Z</time>
      </trkpt>
      <trkpt lat="44.83834" lon="5.71905">
        <ele>878</ele>
        <time>2013-07-12T09:59:27Z</time>
      </trkpt>
      <trkpt lat="44.83839" lon="5.71906">
        <ele>878</ele>
        <time>2013-07-12T09:59:32Z</time>
      </trkpt>
      <trkpt lat="44.83864" lon="5.71916">
        <ele>879</ele>
        <time>2013-07-12T09:59:50Z</time>
      </trkpt>
      <trkpt lat="44.83888" lon="5.71929">
        <ele>879</ele>
        <time>2013-07-12T10:00:07Z</time>
      </trkpt>
      <trkpt lat="44.8391" lon="5.71944">
        <ele>879</ele>
        <time>2013-07-12T10:00:23Z</time>
      </trkpt>
      <trkpt lat="44.83932" lon="5.71962">
        <ele>879</ele>
        <time>2013-07-12T10:00:41Z</time>
      </trkpt>
      <trkpt lat="44.83944" lon="5.71981">
        <ele>879</ele>
        <time>2013-07-12T10:00:56Z</time>
      </trkpt>
      <trkpt lat="44.83944" lon="5.71981">
        <ele>879</ele>
        <time>2013-07-12T10:00:59Z</time>
      </trkpt>
      <trkpt lat="44.83946" lon="5.71984">
        <ele>879</ele>
        <time>2013-07-12T10:01:02Z</time>
      </trkpt>
      <trkpt lat="44.8397" lon="5.71994">
        <ele>879</ele>
        <time>2013-07-12T10:01:18Z</time>
      </trkpt>
      <trkpt lat="44.83988" lon="5.72016">
        <ele>878</ele>
        <time>2013-07-12T10:01:34Z</time>
      </trkpt>
      <trkpt lat="44.84006" lon="5.72039">
        <ele>878</ele>
        <time>2013-07-12T10:01:51Z</time>
      </trkpt>
      <trkpt lat="44.84014" lon="5.7205">
        <ele>877</ele>
        <time>2013-07-12T10:01:58Z</time>
      </trkpt>
      <trkpt lat="44.84028" lon="5.72075">
        <ele>877</ele>
        <time>2013-07-12T10:02:13Z</time>
      </trkpt>
      <trkpt lat="44.84043" lon="5.72094">
        <ele>877</ele>
        <time>2013-07-12T10:02:28Z</time>
      </trkpt>
      <trkpt lat="44.84044" lon="5.72095">
        <ele>876</ele>
        <time>2013-07-12T10:02:30Z</time>
      </trkpt>
      <trkpt lat="44.84051" lon="5.72106">
        <ele>876</ele>
        <time>2013-07-12T10:02:39Z</time>
      </trkpt>
      <trkpt lat="44.84065" lon="5.72128">
        <ele>876</ele>
        <time>2013-07-12T10:02:52Z</time>
      </trkpt>
      <trkpt lat="44.84075" lon="5.72145">
        <ele>875</ele>
        <time>2013-07-12T10:03:03Z</time>
      </trkpt>
      <trkpt lat="44.84091" lon="5.72169">
        <ele>874</ele>
        <time>2013-07-12T10:03:19Z</time>
      </trkpt>
      <trkpt lat="44.84107" lon="5.72192">
        <ele>874</ele>
        <time>2013-07-12T10:03:35Z</time>
      </trkpt>
      <trkpt lat="44.84127" lon="5.72218">
        <ele>873</ele>
        <time>2013-07-12T10:03:53Z</time>
      </trkpt>
      <trkpt lat="44.84144" lon="5.7224">
        <ele>872</ele>
        <time>2013-07-12T10:04:10Z</time>
      </trkpt>
      <trkpt lat="44.84161" lon="5.72256">
        <ele>870</ele>
        <time>2013-07-12T10:04:23Z</time>
      </trkpt>
      <trkpt lat="44.84179" lon="5.72271">
        <ele>869</ele>
        <time>2013-07-12T10:04:37Z</time>
      </trkpt>
      <trkpt lat="44.842" lon="5.7229">
        <ele>867</ele>
        <time>2013-07-12T10:04:55Z</time>
      </trkpt>
      <trkpt lat="44.84216" lon="5.72306">
        <ele>866</ele>
        <time>2013-07-12T10:05:10Z</time>
      </trkpt>
      <trkpt lat="44.84235" lon="5.72326">
        <ele>864</ele>
        <time>2013-07-12T10:05:27Z</time>
      </trkpt>
      <trkpt lat="44.84243" lon="5.72349">
        <ele>861</ele>
        <time>2013-07-12T10:05:41Z</time>
      </trkpt>
      <trkpt lat="44.84245" lon="5.72353">
        <ele>861</ele>
        <time>2013-07-12T10:05:55Z</time>
      </trkpt>
      <trkpt lat="44.84245" lon="5.72353">
        <ele>860</ele>
        <time>2013-07-12T10:06:22Z</time>
      </trkpt>
      <trkpt lat="44.84248" lon="5.72353">
        <ele>860</ele>
        <time>2013-07-12T10:06:46Z</time>
      </trkpt>
      <trkpt lat="44.8425" lon="5.72354">
        <ele>860</ele>
        <time>2013-07-12T10:07:04Z</time>
      </trkpt>
      <trkpt lat="44.84254" lon="5.72368">
        <ele>859</ele>
        <time>2013-07-12T10:07:22Z</time>
      </trkpt>
      <trkpt lat="44.84259" lon="5.72379">
        <ele>857</ele>
        <time>2013-07-12T10:07:31Z</time>
      </trkpt>
      <trkpt lat="44.84261" lon="5.72382">
        <ele>856</ele>
        <time>2013-07-12T10:07:33Z</time>
      </trkpt>
      <trkpt lat="44.84273" lon="5.72401">
        <ele>854</ele>
        <time>2013-07-12T10:07:45Z</time>
      </trkpt>
      <trkpt lat="44.84278" lon="5.72413">
        <ele>852</ele>
        <time>2013-07-12T10:07:52Z</time>
      </trkpt>
      <trkpt lat="44.84291" lon="5.72435">
        <ele>849</ele>
        <time>2013-07-12T10:08:05Z</time>
      </trkpt>
      <trkpt lat="44.84306" lon="5.72445">
        <ele>848</ele>
        <time>2013-07-12T10:08:19Z</time>
      </trkpt>
      <trkpt lat="44.84319" lon="5.72462">
        <ele>845</ele>
        <time>2013-07-12T10:08:33Z</time>
      </trkpt>
      <trkpt lat="44.8433" lon="5.72487">
        <ele>842</ele>
        <time>2013-07-12T10:08:49Z</time>
      </trkpt>
      <trkpt lat="44.84336" lon="5.72503">
        <ele>841</ele>
        <time>2013-07-12T10:08:58Z</time>
      </trkpt>
      <trkpt lat="44.84347" lon="5.72514">
        <ele>839</ele>
        <time>2013-07-12T10:09:08Z</time>
      </trkpt>
      <trkpt lat="44.8436" lon="5.72532">
        <ele>836</ele>
        <time>2013-07-12T10:09:23Z</time>
      </trkpt>
      <trkpt lat="44.84363" lon="5.72537">
        <ele>836</ele>
        <time>2013-07-12T10:09:26Z</time>
      </trkpt>
      <trkpt lat="44.84367" lon="5.72543">
        <ele>836</ele>
        <time>2013-07-12T10:09:30Z</time>
      </trkpt>
      <trkpt lat="44.84371" lon="5.72549">
        <ele>834</ele>
        <time>2013-07-12T10:09:35Z</time>
      </trkpt>
      <trkpt lat="44.84373" lon="5.72556">
        <ele>833</ele>
        <time>2013-07-12T10:09:40Z</time>
      </trkpt>
      <trkpt lat="44.84375" lon="5.72563">
        <ele>832</ele>
        <time>2013-07-12T10:09:45Z</time>
      </trkpt>
      <trkpt lat="44.84383" lon="5.72589">
        <ele>829</ele>
        <time>2013-07-12T10:10:00Z</time>
      </trkpt>
      <trkpt lat="44.84384" lon="5.72596">
        <ele>828</ele>
        <time>2013-07-12T10:10:05Z</time>
      </trkpt>
      <trkpt lat="44.84387" lon="5.72604">
        <ele>827</ele>
        <time>2013-07-12T10:10:09Z</time>
      </trkpt>
      <trkpt lat="44.8439" lon="5.72617">
        <ele>826</ele>
        <time>2013-07-12T10:10:16Z</time>
      </trkpt>
      <trkpt lat="44.84396" lon="5.72647">
        <ele>824</ele>
        <time>2013-07-12T10:10:33Z</time>
      </trkpt>
      <trkpt lat="44.84401" lon="5.72673">
        <ele>822</ele>
        <time>2013-07-12T10:10:50Z</time>
      </trkpt>
      <trkpt lat="44.84405" lon="5.7269">
        <ele>820</ele>
        <time>2013-07-12T10:11:01Z</time>
      </trkpt>
      <trkpt lat="44.84413" lon="5.7271">
        <ele>818</ele>
        <time>2013-07-12T10:11:15Z</time>
      </trkpt>
      <trkpt lat="44.84424" lon="5.72726">
        <ele>814</ele>
        <time>2013-07-12T10:11:28Z</time>
      </trkpt>
      <trkpt lat="44.84437" lon="5.72748">
        <ele>813</ele>
        <time>2013-07-12T10:11:42Z</time>
      </trkpt>
      <trkpt lat="44.84444" lon="5.72768">
        <ele>811</ele>
        <time>2013-07-12T10:11:52Z</time>
      </trkpt>
      <trkpt lat="44.84453" lon="5.7278">
        <ele>810</ele>
        <time>2013-07-12T10:12:00Z</time>
      </trkpt>
      <trkpt lat="44.84456" lon="5.72784">
        <ele>810</ele>
        <time>2013-07-12T10:12:03Z</time>
      </trkpt>
      <trkpt lat="44.84463" lon="5.728">
        <ele>808</ele>
        <time>2013-07-12T10:12:13Z</time>
      </trkpt>
      <trkpt lat="44.84477" lon="5.72826">
        <ele>807</ele>
        <time>2013-07-12T10:12:29Z</time>
      </trkpt>
      <trkpt lat="44.84484" lon="5.72853">
        <ele>805</ele>
        <time>2013-07-12T10:12:44Z</time>
      </trkpt>
      <trkpt lat="44.84494" lon="5.72881">
        <ele>803</ele>
        <time>2013-07-12T10:12:59Z</time>
      </trkpt>
      <trkpt lat="44.84503" lon="5.7291">
        <ele>801</ele>
        <time>2013-07-12T10:13:14Z</time>
      </trkpt>
      <trkpt lat="44.84509" lon="5.72924">
        <ele>800</ele>
        <time>2013-07-12T10:13:22Z</time>
      </trkpt>
      <trkpt lat="44.84511" lon="5.72933">
        <ele>799</ele>
        <time>2013-07-12T10:13:27Z</time>
      </trkpt>
      <trkpt lat="44.84521" lon="5.72955">
        <ele>798</ele>
        <time>2013-07-12T10:13:40Z</time>
      </trkpt>
      <trkpt lat="44.8453" lon="5.7298">
        <ele>796</ele>
        <time>2013-07-12T10:13:53Z</time>
      </trkpt>
      <trkpt lat="44.84533" lon="5.72989">
        <ele>795</ele>
        <time>2013-07-12T10:13:57Z</time>
      </trkpt>
      <trkpt lat="44.84533" lon="5.72994">
        <ele>795</ele>
        <time>2013-07-12T10:13:59Z</time>
      </trkpt>
      <trkpt lat="44.8454" lon="5.73022">
        <ele>793</ele>
        <time>2013-07-12T10:14:13Z</time>
      </trkpt>
      <trkpt lat="44.8454" lon="5.73025">
        <ele>793</ele>
        <time>2013-07-12T10:14:15Z</time>
      </trkpt>
      <trkpt lat="44.84542" lon="5.73032">
        <ele>792</ele>
        <time>2013-07-12T10:14:19Z</time>
      </trkpt>
      <trkpt lat="44.84544" lon="5.73048">
        <ele>792</ele>
        <time>2013-07-12T10:14:27Z</time>
      </trkpt>
      <trkpt lat="44.84556" lon="5.73079">
        <ele>790</ele>
        <time>2013-07-12T10:14:44Z</time>
      </trkpt>
      <trkpt lat="44.84557" lon="5.73084">
        <ele>790</ele>
        <time>2013-07-12T10:14:48Z</time>
      </trkpt>
      <trkpt lat="44.8456" lon="5.73088">
        <ele>790</ele>
        <time>2013-07-12T10:14:51Z</time>
      </trkpt>
      <trkpt lat="44.8457" lon="5.7312">
        <ele>788</ele>
        <time>2013-07-12T10:15:07Z</time>
      </trkpt>
      <trkpt lat="44.84576" lon="5.73125">
        <ele>788</ele>
        <time>2013-07-12T10:15:23Z</time>
      </trkpt>
      <trkpt lat="44.84575" lon="5.73125">
        <ele>788</ele>
        <time>2013-07-12T10:15:24Z</time>
      </trkpt>
      <trkpt lat="44.84578" lon="5.7315">
        <ele>786</ele>
        <time>2013-07-12T10:15:38Z</time>
      </trkpt>
      <trkpt lat="44.84594" lon="5.73171">
        <ele>785</ele>
        <time>2013-07-12T10:15:51Z</time>
      </trkpt>
      <trkpt lat="44.84605" lon="5.73196">
        <ele>783</ele>
        <time>2013-07-12T10:16:03Z</time>
      </trkpt>
      <trkpt lat="44.84611" lon="5.73225">
        <ele>783</ele>
        <time>2013-07-12T10:16:16Z</time>
      </trkpt>
      <trkpt lat="44.84612" lon="5.7323">
        <ele>783</ele>
        <time>2013-07-12T10:16:18Z</time>
      </trkpt>
      <trkpt lat="44.84616" lon="5.73251">
        <ele>782</ele>
        <time>2013-07-12T10:16:29Z</time>
      </trkpt>
      <trkpt lat="44.84616" lon="5.73256">
        <ele>782</ele>
        <time>2013-07-12T10:16:37Z</time>
      </trkpt>
      <trkpt lat="44.84617" lon="5.7326">
        <ele>782</ele>
        <time>2013-07-12T10:16:40Z</time>
      </trkpt>
      <trkpt lat="44.8462" lon="5.73286">
        <ele>782</ele>
        <time>2013-07-12T10:16:51Z</time>
      </trkpt>
      <trkpt lat="44.84626" lon="5.73301">
        <ele>782</ele>
        <time>2013-07-12T10:16:58Z</time>
      </trkpt>
      <trkpt lat="44.84637" lon="5.73319">
        <ele>781</ele>
        <time>2013-07-12T10:17:11Z</time>
      </trkpt>
      <trkpt lat="44.84637" lon="5.73319">
        <ele>781</ele>
        <time>2013-07-12T10:17:39Z</time>
      </trkpt>
      <trkpt lat="44.84637" lon="5.73319">
        <ele>781</ele>
        <time>2013-07-12T10:18:04Z</time>
      </trkpt>
      <trkpt lat="44.84637" lon="5.73319">
        <ele>781</ele>
        <time>2013-07-12T10:18:20Z</time>
      </trkpt>
      <trkpt lat="44.84639" lon="5.73321">
        <ele>780</ele>
        <time>2013-07-12T10:18:23Z</time>
      </trkpt>
      <trkpt lat="44.84651" lon="5.73344">
        <ele>780</ele>
        <time>2013-07-12T10:18:41Z</time>
      </trkpt>
      <trkpt lat="44.84666" lon="5.73368">
        <ele>778</ele>
        <time>2013-07-12T10:18:59Z</time>
      </trkpt>
      <trkpt lat="44.84682" lon="5.73393">
        <ele>776</ele>
        <time>2013-07-12T10:19:17Z</time>
      </trkpt>
      <trkpt lat="44.847" lon="5.73415">
        <ele>774</ele>
        <time>2013-07-12T10:19:34Z</time>
      </trkpt>
      <trkpt lat="44.8471" lon="5.73426">
        <ele>774</ele>
        <time>2013-07-12T10:19:44Z</time>
      </trkpt>
      <trkpt lat="44.84726" lon="5.73428">
        <ele>774</ele>
        <time>2013-07-12T10:20:00Z</time>
      </trkpt>
      <trkpt lat="44.84743" lon="5.73426">
        <ele>775</ele>
        <time>2013-07-12T10:20:14Z</time>
      </trkpt>
      <trkpt lat="44.84764" lon="5.73431">
        <ele>776</ele>
        <time>2013-07-12T10:20:28Z</time>
      </trkpt>
      <trkpt lat="44.84778" lon="5.7344">
        <ele>775</ele>
        <time>2013-07-12T10:20:40Z</time>
      </trkpt>
      <trkpt lat="44.84788" lon="5.73452">
        <ele>775</ele>
        <time>2013-07-12T10:20:51Z</time>
      </trkpt>
      <trkpt lat="44.84792" lon="5.73457">
        <ele>775</ele>
        <time>2013-07-12T10:20:55Z</time>
      </trkpt>
      <trkpt lat="44.84811" lon="5.73456">
        <ele>777</ele>
        <time>2013-07-12T10:21:09Z</time>
      </trkpt>
      <trkpt lat="44.84816" lon="5.73458">
        <ele>777</ele>
        <time>2013-07-12T10:21:16Z</time>
      </trkpt>
      <trkpt lat="44.84832" lon="5.73466">
        <ele>777</ele>
        <time>2013-07-12T10:21:32Z</time>
      </trkpt>
      <trkpt lat="44.84834" lon="5.73465">
        <ele>778</ele>
        <time>2013-07-12T10:21:34Z</time>
      </trkpt>
      <trkpt lat="44.84836" lon="5.73462">
        <ele>778</ele>
        <time>2013-07-12T10:21:36Z</time>
      </trkpt>
      <trkpt lat="44.84851" lon="5.73443">
        <ele>779</ele>
        <time>2013-07-12T10:21:52Z</time>
      </trkpt>
      <trkpt lat="44.84869" lon="5.73438">
        <ele>779</ele>
        <time>2013-07-12T10:22:06Z</time>
      </trkpt>
      <trkpt lat="44.84885" lon="5.73451">
        <ele>776</ele>
        <time>2013-07-12T10:22:21Z</time>
      </trkpt>
      <trkpt lat="44.849" lon="5.73473">
        <ele>774</ele>
        <time>2013-07-12T10:22:37Z</time>
      </trkpt>
      <trkpt lat="44.84916" lon="5.73489">
        <ele>770</ele>
        <time>2013-07-12T10:22:51Z</time>
      </trkpt>
      <trkpt lat="44.84916" lon="5.7349">
        <ele>770</ele>
        <time>2013-07-12T10:22:52Z</time>
      </trkpt>
      <trkpt lat="44.84929" lon="5.73501">
        <ele>767</ele>
        <time>2013-07-12T10:23:03Z</time>
      </trkpt>
      <trkpt lat="44.8493" lon="5.73504">
        <ele>767</ele>
        <time>2013-07-12T10:23:05Z</time>
      </trkpt>
      <trkpt lat="44.8494" lon="5.73521">
        <ele>764</ele>
        <time>2013-07-12T10:23:18Z</time>
      </trkpt>
      <trkpt lat="44.84946" lon="5.73544">
        <ele>762</ele>
        <time>2013-07-12T10:23:31Z</time>
      </trkpt>
      <trkpt lat="44.84951" lon="5.73566">
        <ele>760</ele>
        <time>2013-07-12T10:23:44Z</time>
      </trkpt>
      <trkpt lat="44.84959" lon="5.73589">
        <ele>757</ele>
        <time>2013-07-12T10:23:59Z</time>
      </trkpt>
      <trkpt lat="44.84963" lon="5.736">
        <ele>755</ele>
        <time>2013-07-12T10:24:07Z</time>
      </trkpt>
      <trkpt lat="44.8497" lon="5.73621">
        <ele>753</ele>
        <time>2013-07-12T10:24:20Z</time>
      </trkpt>
      <trkpt lat="44.8498" lon="5.73645">
        <ele>749</ele>
        <time>2013-07-12T10:24:35Z</time>
      </trkpt>
      <trkpt lat="44.84994" lon="5.73666">
        <ele>747</ele>
        <time>2013-07-12T10:24:49Z</time>
      </trkpt>
      <trkpt lat="44.85005" lon="5.73688">
        <ele>745</ele>
        <time>2013-07-12T10:25:06Z</time>
      </trkpt>
      <trkpt lat="44.85017" lon="5.73711">
        <ele>743</ele>
        <time>2013-07-12T10:25:21Z</time>
      </trkpt>
      <trkpt lat="44.85034" lon="5.73728">
        <ele>744</ele>
        <time>2013-07-12T10:25:37Z</time>
      </trkpt>
      <trkpt lat="44.85051" lon="5.7374">
        <ele>745</ele>
        <time>2013-07-12T10:25:49Z</time>
      </trkpt>
      <trkpt lat="44.85074" lon="5.73757">
        <ele>746</ele>
        <time>2013-07-12T10:26:05Z</time>
      </trkpt>
      <trkpt lat="44.85092" lon="5.73774">
        <ele>747</ele>
        <time>2013-07-12T10:26:19Z</time>
      </trkpt>
      <trkpt lat="44.85109" lon="5.73794">
        <ele>749</ele>
        <time>2013-07-12T10:26:34Z</time>
      </trkpt>
      <trkpt lat="44.85123" lon="5.73813">
        <ele>749</ele>
        <time>2013-07-12T10:26:46Z</time>
      </trkpt>
      <trkpt lat="44.85136" lon="5.73832">
        <ele>753</ele>
        <time>2013-07-12T10:26:59Z</time>
      </trkpt>
      <trkpt lat="44.85147" lon="5.73851">
        <ele>754</ele>
        <time>2013-07-12T10:27:11Z</time>
      </trkpt>
      <trkpt lat="44.85151" lon="5.73854">
        <ele>754</ele>
        <time>2013-07-12T10:27:14Z</time>
      </trkpt>
      <trkpt lat="44.85166" lon="5.73865">
        <ele>753</ele>
        <time>2013-07-12T10:27:28Z</time>
      </trkpt>
      <trkpt lat="44.85182" lon="5.73875">
        <ele>753</ele>
        <time>2013-07-12T10:27:41Z</time>
      </trkpt>
      <trkpt lat="44.85195" lon="5.73885">
        <ele>753</ele>
        <time>2013-07-12T10:27:53Z</time>
      </trkpt>
      <trkpt lat="44.85219" lon="5.73896">
        <ele>753</ele>
        <time>2013-07-12T10:28:09Z</time>
      </trkpt>
      <trkpt lat="44.85224" lon="5.739">
        <ele>753</ele>
        <time>2013-07-12T10:28:12Z</time>
      </trkpt>
      <trkpt lat="44.85233" lon="5.73909">
        <ele>754</ele>
        <time>2013-07-12T10:28:19Z</time>
      </trkpt>
      <trkpt lat="44.85242" lon="5.73925">
        <ele>754</ele>
        <time>2013-07-12T10:28:28Z</time>
      </trkpt>
      <trkpt lat="44.85252" lon="5.73963">
        <ele>753</ele>
        <time>2013-07-12T10:28:47Z</time>
      </trkpt>
      <trkpt lat="44.85254" lon="5.7398">
        <ele>753</ele>
        <time>2013-07-12T10:28:56Z</time>
      </trkpt>
      <trkpt lat="44.8525" lon="5.73998">
        <ele>754</ele>
        <time>2013-07-12T10:29:04Z</time>
      </trkpt>
      <trkpt lat="44.85239" lon="5.74025">
        <ele>755</ele>
        <time>2013-07-12T10:29:17Z</time>
      </trkpt>
      <trkpt lat="44.85231" lon="5.74041">
        <ele>756</ele>
        <time>2013-07-12T10:29:25Z</time>
      </trkpt>
      <trkpt lat="44.85226" lon="5.74052">
        <ele>757</ele>
        <time>2013-07-12T10:29:31Z</time>
      </trkpt>
      <trkpt lat="44.8522" lon="5.74071">
        <ele>759</ele>
        <time>2013-07-12T10:29:40Z</time>
      </trkpt>
      <trkpt lat="44.85215" lon="5.74086">
        <ele>759</ele>
        <time>2013-07-12T10:29:48Z</time>
      </trkpt>
      <trkpt lat="44.85214" lon="5.74097">
        <ele>760</ele>
        <time>2013-07-12T10:29:53Z</time>
      </trkpt>
      <trkpt lat="44.85207" lon="5.74134">
        <ele>762</ele>
        <time>2013-07-12T10:30:10Z</time>
      </trkpt>
      <trkpt lat="44.85199" lon="5.74164">
        <ele>763</ele>
        <time>2013-07-12T10:30:24Z</time>
      </trkpt>
      <trkpt lat="44.85194" lon="5.74175">
        <ele>764</ele>
        <time>2013-07-12T10:30:32Z</time>
      </trkpt>
      <trkpt lat="44.85193" lon="5.74183">
        <ele>764</ele>
        <time>2013-07-12T10:30:36Z</time>
      </trkpt>
      <trkpt lat="44.85196" lon="5.74191">
        <ele>765</ele>
        <time>2013-07-12T10:30:41Z</time>
      </trkpt>
      <trkpt lat="44.85204" lon="5.74222">
        <ele>768</ele>
        <time>2013-07-12T10:30:57Z</time>
      </trkpt>
      <trkpt lat="44.85215" lon="5.74251">
        <ele>771</ele>
        <time>2013-07-12T10:31:12Z</time>
      </trkpt>
      <trkpt lat="44.85229" lon="5.74286">
        <ele>772</ele>
        <time>2013-07-12T10:31:30Z</time>
      </trkpt>
      <trkpt lat="44.85234" lon="5.74299">
        <ele>773</ele>
        <time>2013-07-12T10:31:37Z</time>
      </trkpt>
      <trkpt lat="44.85235" lon="5.74307">
        <ele>773</ele>
        <time>2013-07-12T10:31:41Z</time>
      </trkpt>
      <trkpt lat="44.85229" lon="5.74339">
        <ele>774</ele>
        <time>2013-07-12T10:31:57Z</time>
      </trkpt>
      <trkpt lat="44.85225" lon="5.74364">
        <ele>774</ele>
        <time>2013-07-12T10:32:10Z</time>
      </trkpt>
      <trkpt lat="44.85219" lon="5.74387">
        <ele>775</ele>
        <time>2013-07-12T10:32:20Z</time>
      </trkpt>
      <trkpt lat="44.85218" lon="5.74401">
        <ele>775</ele>
        <time>2013-07-12T10:32:28Z</time>
      </trkpt>
      <trkpt lat="44.85223" lon="5.74416">
        <ele>774</ele>
        <time>2013-07-12T10:32:43Z</time>
      </trkpt>
      <trkpt lat="44.85223" lon="5.74415">
        <ele>774</ele>
        <time>2013-07-12T10:32:57Z</time>
      </trkpt>
      <trkpt lat="44.85224" lon="5.74419">
        <ele>774</ele>
        <time>2013-07-12T10:33:15Z</time>
      </trkpt>
      <trkpt lat="44.85225" lon="5.74423">
        <ele>774</ele>
        <time>2013-07-12T10:33:18Z</time>
      </trkpt>
      <trkpt lat="44.85244" lon="5.74443">
        <ele>773</ele>
        <time>2013-07-12T10:33:34Z</time>
      </trkpt>
      <trkpt lat="44.85265" lon="5.74465">
        <ele>773</ele>
        <time>2013-07-12T10:33:50Z</time>
      </trkpt>
      <trkpt lat="44.85286" lon="5.74486">
        <ele>772</ele>
        <time>2013-07-12T10:34:00Z</time>
      </trkpt>
      <trkpt lat="44.85316" lon="5.74514">
        <ele>773</ele>
        <time>2013-07-12T10:34:08Z</time>
      </trkpt>
      <trkpt lat="44.85366" lon="5.74536">
        <ele>775</ele>
        <time>2013-07-12T10:34:19Z</time>
      </trkpt>
      <trkpt lat="44.85381" lon="5.74539">
        <ele>776</ele>
        <time>2013-07-12T10:34:22Z</time>
      </trkpt>
      <trkpt lat="44.85431" lon="5.74545">
        <ele>779</ele>
        <time>2013-07-12T10:34:32Z</time>
      </trkpt>
      <trkpt lat="44.85436" lon="5.74545">
        <ele>779</ele>
        <time>2013-07-12T10:34:33Z</time>
      </trkpt>
      <trkpt lat="44.85473" lon="5.74547">
        <ele>781</ele>
        <time>2013-07-12T10:34:44Z</time>
      </trkpt>
      <trkpt lat="44.85489" lon="5.74552">
        <ele>781</ele>
        <time>2013-07-12T10:34:56Z</time>
      </trkpt>
      <trkpt lat="44.85512" lon="5.74567">
        <ele>783</ele>
        <time>2013-07-12T10:35:11Z</time>
      </trkpt>
      <trkpt lat="44.85523" lon="5.74585">
        <ele>782</ele>
        <time>2013-07-12T10:35:26Z</time>
      </trkpt>
      <trkpt lat="44.85538" lon="5.74612">
        <ele>780</ele>
        <time>2013-07-12T10:35:42Z</time>
      </trkpt>
      <trkpt lat="44.85558" lon="5.74624">
        <ele>779</ele>
        <time>2013-07-12T10:35:54Z</time>
      </trkpt>
      <trkpt lat="44.85571" lon="5.74638">
        <ele>778</ele>
        <time>2013-07-12T10:36:03Z</time>
      </trkpt>
      <trkpt lat="44.85591" lon="5.74653">
        <ele>777</ele>
        <time>2013-07-12T10:36:17Z</time>
      </trkpt>
      <trkpt lat="44.85592" lon="5.74654">
        <ele>777</ele>
        <time>2013-07-12T10:36:18Z</time>
      </trkpt>
      <trkpt lat="44.85593" lon="5.74656">
        <ele>777</ele>
        <time>2013-07-12T10:36:19Z</time>
      </trkpt>
      <trkpt lat="44.85594" lon="5.74658">
        <ele>777</ele>
        <time>2013-07-12T10:36:20Z</time>
      </trkpt>
      <trkpt lat="44.85595" lon="5.7466">
        <ele>777</ele>
        <time>2013-07-12T10:36:21Z</time>
      </trkpt>
      <trkpt lat="44.85595" lon="5.74662">
        <ele>776</ele>
        <time>2013-07-12T10:36:22Z</time>
      </trkpt>
      <trkpt lat="44.85596" lon="5.74664">
        <ele>777</ele>
        <time>2013-07-12T10:36:23Z</time>
      </trkpt>
      <trkpt lat="44.85611" lon="5.7468">
        <ele>779</ele>
        <time>2013-07-12T10:36:35Z</time>
      </trkpt>
      <trkpt lat="44.85624" lon="5.74697">
        <ele>782</ele>
        <time>2013-07-12T10:36:47Z</time>
      </trkpt>
      <trkpt lat="44.85641" lon="5.74716">
        <ele>783</ele>
        <time>2013-07-12T10:37:00Z</time>
      </trkpt>
      <trkpt lat="44.85651" lon="5.74736">
        <ele>786</ele>
        <time>2013-07-12T10:37:14Z</time>
      </trkpt>
      <trkpt lat="44.85651" lon="5.74737">
        <ele>785</ele>
        <time>2013-07-12T10:37:28Z</time>
      </trkpt>
      <trkpt lat="44.85651" lon="5.74737">
        <ele>778</ele>
        <time>2013-07-12T10:37:54Z</time>
      </trkpt>
      <trkpt lat="44.85651" lon="5.74737">
        <ele>773</ele>
        <time>2013-07-12T10:37:55Z</time>
      </trkpt>
      <trkpt lat="44.85651" lon="5.74737">
        <ele>810</ele>
        <time>2013-07-12T10:37:56Z</time>
      </trkpt>
      <trkpt lat="44.85651" lon="5.74737">
        <ele>786</ele>
        <time>2013-07-12T10:37:57Z</time>
      </trkpt>
      <trkpt lat="44.85651" lon="5.74737">
        <ele>784</ele>
        <time>2013-07-12T10:38:00Z</time>
      </trkpt>
      <trkpt lat="44.85651" lon="5.74737">
        <ele>784</ele>
        <time>2013-07-12T10:38:18Z</time>
      </trkpt>
      <trkpt lat="44.85652" lon="5.74746">
        <ele>781</ele>
        <time>2013-07-12T10:38:33Z</time>
      </trkpt>
      <trkpt lat="44.8565" lon="5.74753">
        <ele>777</ele>
        <time>2013-07-12T10:38:43Z</time>
      </trkpt>
      <trkpt lat="44.85644" lon="5.74766">
        <ele>777</ele>
        <time>2013-07-12T10:38:57Z</time>
      </trkpt>
      <trkpt lat="44.85633" lon="5.74783">
        <ele>775</ele>
        <time>2013-07-12T10:39:11Z</time>
      </trkpt>
      <trkpt lat="44.8562" lon="5.74796">
        <ele>776</ele>
        <time>2013-07-12T10:39:24Z</time>
      </trkpt>
      <trkpt lat="44.85619" lon="5.74797">
        <ele>775</ele>
        <time>2013-07-12T10:39:25Z</time>
      </trkpt>
      <trkpt lat="44.85615" lon="5.74801">
        <ele>775</ele>
        <time>2013-07-12T10:39:30Z</time>
      </trkpt>
      <trkpt lat="44.85605" lon="5.74811">
        <ele>777</ele>
        <time>2013-07-12T10:39:44Z</time>
      </trkpt>
      <trkpt lat="44.85604" lon="5.74811">
        <ele>778</ele>
        <time>2013-07-12T10:40:07Z</time>
      </trkpt>
      <trkpt lat="44.856" lon="5.74796">
        <ele>777</ele>
        <time>2013-07-12T10:40:26Z</time>
      </trkpt>
      <trkpt lat="44.85599" lon="5.74796">
        <ele>778</ele>
        <time>2013-07-12T10:40:52Z</time>
      </trkpt>
      <trkpt lat="44.85599" lon="5.74796">
        <ele>774</ele>
        <time>2013-07-12T10:40:56Z</time>
      </trkpt>
      <trkpt lat="44.85599" lon="5.74796">
        <ele>778</ele>
        <time>2013-07-12T10:40:57Z</time>
      </trkpt>
      <trkpt lat="44.85599" lon="5.74796">
        <ele>777</ele>
        <time>2013-07-12T10:41:02Z</time>
      </trkpt>
      <trkpt lat="44.856" lon="5.74796">
        <ele>777</ele>
        <time>2013-07-12T10:41:27Z</time>
      </trkpt>
      <trkpt lat="44.856" lon="5.74796">
        <ele>776</ele>
        <time>2013-07-12T10:41:56Z</time>
      </trkpt>
      <trkpt lat="44.856" lon="5.74796">
        <ele>777</ele>
        <time>2013-07-12T10:42:27Z</time>
      </trkpt>
      <trkpt lat="44.85599" lon="5.74803">
        <ele>777</ele>
        <time>2013-07-12T10:42:41Z</time>
      </trkpt>
      <trkpt lat="44.85593" lon="5.7482">
        <ele>780</ele>
        <time>2013-07-12T10:42:49Z</time>
      </trkpt>
      <trkpt lat="44.8559" lon="5.74844">
        <ele>781</ele>
        <time>2013-07-12T10:43:03Z</time>
      </trkpt>
      <trkpt lat="44.85589" lon="5.74864">
        <ele>782</ele>
        <time>2013-07-12T10:43:18Z</time>
      </trkpt>
      <trkpt lat="44.85585" lon="5.74884">
        <ele>785</ele>
        <time>2013-07-12T10:43:27Z</time>
      </trkpt>
      <trkpt lat="44.85589" lon="5.74908">
        <ele>786</ele>
        <time>2013-07-12T10:43:35Z</time>
      </trkpt>
      <trkpt lat="44.85592" lon="5.74914">
        <ele>785</ele>
        <time>2013-07-12T10:43:38Z</time>
      </trkpt>
      <trkpt lat="44.85593" lon="5.74916">
        <ele>785</ele>
        <time>2013-07-12T10:43:39Z</time>
      </trkpt>
      <trkpt lat="44.85594" lon="5.74918">
        <ele>785</ele>
        <time>2013-07-12T10:43:40Z</time>
      </trkpt>
      <trkpt lat="44.85596" lon="5.74921">
        <ele>785</ele>
        <time>2013-07-12T10:43:41Z</time>
      </trkpt>
      <trkpt lat="44.85597" lon="5.74922">
        <ele>785</ele>
        <time>2013-07-12T10:43:42Z</time>
      </trkpt>
      <trkpt lat="44.85597" lon="5.74924">
        <ele>786</ele>
        <time>2013-07-12T10:43:43Z</time>
      </trkpt>
      <trkpt lat="44.85606" lon="5.74952">
        <ele>788</ele>
        <time>2013-07-12T10:43:57Z</time>
      </trkpt>
      <trkpt lat="44.85619" lon="5.74978">
        <ele>788</ele>
        <time>2013-07-12T10:44:13Z</time>
      </trkpt>
      <trkpt lat="44.85632" lon="5.75003">
        <ele>789</ele>
        <time>2013-07-12T10:44:26Z</time>
      </trkpt>
      <trkpt lat="44.85649" lon="5.75015">
        <ele>788</ele>
        <time>2013-07-12T10:44:45Z</time>
      </trkpt>
      <trkpt lat="44.85671" lon="5.75032">
        <ele>786</ele>
        <time>2013-07-12T10:45:03Z</time>
      </trkpt>
      <trkpt lat="44.85679" lon="5.75065">
        <ele>787</ele>
        <time>2013-07-12T10:45:18Z</time>
      </trkpt>
      <trkpt lat="44.85682" lon="5.75091">
        <ele>784</ele>
        <time>2013-07-12T10:45:30Z</time>
      </trkpt>
      <trkpt lat="44.85682" lon="5.75093">
        <ele>789</ele>
        <time>2013-07-12T10:45:31Z</time>
      </trkpt>
      <trkpt lat="44.85679" lon="5.75105">
        <ele>787</ele>
        <time>2013-07-12T10:45:38Z</time>
      </trkpt>
      <trkpt lat="44.85666" lon="5.75133">
        <ele>787</ele>
        <time>2013-07-12T10:45:54Z</time>
      </trkpt>
      <trkpt lat="44.85664" lon="5.7514">
        <ele>786</ele>
        <time>2013-07-12T10:45:59Z</time>
      </trkpt>
      <trkpt lat="44.8566" lon="5.75149">
        <ele>786</ele>
        <time>2013-07-12T10:46:05Z</time>
      </trkpt>
      <trkpt lat="44.85647" lon="5.75167">
        <ele>786</ele>
        <time>2013-07-12T10:46:20Z</time>
      </trkpt>
      <trkpt lat="44.85641" lon="5.75174">
        <ele>786</ele>
        <time>2013-07-12T10:46:26Z</time>
      </trkpt>
      <trkpt lat="44.85634" lon="5.75188">
        <ele>785</ele>
        <time>2013-07-12T10:46:33Z</time>
      </trkpt>
      <trkpt lat="44.85629" lon="5.752">
        <ele>786</ele>
        <time>2013-07-12T10:46:39Z</time>
      </trkpt>
      <trkpt lat="44.85614" lon="5.75216">
        <ele>788</ele>
        <time>2013-07-12T10:46:51Z</time>
      </trkpt>
      <trkpt lat="44.85606" lon="5.75224">
        <ele>788</ele>
        <time>2013-07-12T10:46:58Z</time>
      </trkpt>
      <trkpt lat="44.85599" lon="5.75233">
        <ele>790</ele>
        <time>2013-07-12T10:47:03Z</time>
      </trkpt>
      <trkpt lat="44.85581" lon="5.75255">
        <ele>793</ele>
        <time>2013-07-12T10:47:17Z</time>
      </trkpt>
      <trkpt lat="44.85576" lon="5.75265">
        <ele>793</ele>
        <time>2013-07-12T10:47:22Z</time>
      </trkpt>
      <trkpt lat="44.85565" lon="5.75278">
        <ele>796</ele>
        <time>2013-07-12T10:47:31Z</time>
      </trkpt>
      <trkpt lat="44.85551" lon="5.75296">
        <ele>798</ele>
        <time>2013-07-12T10:47:45Z</time>
      </trkpt>
      <trkpt lat="44.85541" lon="5.75316">
        <ele>798</ele>
        <time>2013-07-12T10:47:59Z</time>
      </trkpt>
      <trkpt lat="44.8554" lon="5.75317">
        <ele>798</ele>
        <time>2013-07-12T10:48:01Z</time>
      </trkpt>
      <trkpt lat="44.85536" lon="5.75326">
        <ele>799</ele>
        <time>2013-07-12T10:48:16Z</time>
      </trkpt>
      <trkpt lat="44.85536" lon="5.75326">
        <ele>799</ele>
        <time>2013-07-12T10:48:28Z</time>
      </trkpt>
      <trkpt lat="44.8553" lon="5.7534">
        <ele>800</ele>
        <time>2013-07-12T10:48:36Z</time>
      </trkpt>
      <trkpt lat="44.85524" lon="5.75354">
        <ele>802</ele>
        <time>2013-07-12T10:48:42Z</time>
      </trkpt>
      <trkpt lat="44.85514" lon="5.75381">
        <ele>804</ele>
        <time>2013-07-12T10:48:57Z</time>
      </trkpt>
      <trkpt lat="44.85497" lon="5.75408">
        <ele>807</ele>
        <time>2013-07-12T10:49:14Z</time>
      </trkpt>
      <trkpt lat="44.85493" lon="5.75415">
        <ele>808</ele>
        <time>2013-07-12T10:49:19Z</time>
      </trkpt>
      <trkpt lat="44.85491" lon="5.75424">
        <ele>808</ele>
        <time>2013-07-12T10:49:24Z</time>
      </trkpt>
      <trkpt lat="44.85488" lon="5.75434">
        <ele>810</ele>
        <time>2013-07-12T10:49:27Z</time>
      </trkpt>
      <trkpt lat="44.85487" lon="5.75452">
        <ele>811</ele>
        <time>2013-07-12T10:49:37Z</time>
      </trkpt>
      <trkpt lat="44.85482" lon="5.75476">
        <ele>814</ele>
        <time>2013-07-12T10:49:51Z</time>
      </trkpt>
      <trkpt lat="44.85469" lon="5.75496">
        <ele>816</ele>
        <time>2013-07-12T10:50:05Z</time>
      </trkpt>
      <trkpt lat="44.85468" lon="5.75497">
        <ele>816</ele>
        <time>2013-07-12T10:50:06Z</time>
      </trkpt>
      <trkpt lat="44.85465" lon="5.75517">
        <ele>818</ele>
        <time>2013-07-12T10:50:16Z</time>
      </trkpt>
      <trkpt lat="44.85467" lon="5.75551">
        <ele>819</ele>
        <time>2013-07-12T10:50:34Z</time>
      </trkpt>
      <trkpt lat="44.85453" lon="5.75581">
        <ele>819</ele>
        <time>2013-07-12T10:50:53Z</time>
      </trkpt>
      <trkpt lat="44.85441" lon="5.75595">
        <ele>819</ele>
        <time>2013-07-12T10:51:04Z</time>
      </trkpt>
      <trkpt lat="44.85436" lon="5.75604">
        <ele>820</ele>
        <time>2013-07-12T10:51:09Z</time>
      </trkpt>
      <trkpt lat="44.85414" lon="5.75613">
        <ele>821</ele>
        <time>2013-07-12T10:51:26Z</time>
      </trkpt>
      <trkpt lat="44.854" lon="5.75596">
        <ele>821</ele>
        <time>2013-07-12T10:51:39Z</time>
      </trkpt>
      <trkpt lat="44.85378" lon="5.75598">
        <ele>821</ele>
        <time>2013-07-12T10:51:54Z</time>
      </trkpt>
      <trkpt lat="44.85369" lon="5.75619">
        <ele>822</ele>
        <time>2013-07-12T10:52:08Z</time>
      </trkpt>
      <trkpt lat="44.85365" lon="5.75654">
        <ele>822</ele>
        <time>2013-07-12T10:52:24Z</time>
      </trkpt>
      <trkpt lat="44.85357" lon="5.7568">
        <ele>823</ele>
        <time>2013-07-12T10:52:38Z</time>
      </trkpt>
      <trkpt lat="44.85343" lon="5.75706">
        <ele>824</ele>
        <time>2013-07-12T10:52:55Z</time>
      </trkpt>
      <trkpt lat="44.85336" lon="5.75733">
        <ele>825</ele>
        <time>2013-07-12T10:53:08Z</time>
      </trkpt>
      <trkpt lat="44.8534" lon="5.75771">
        <ele>825</ele>
        <time>2013-07-12T10:53:25Z</time>
      </trkpt>
      <trkpt lat="44.85349" lon="5.75801">
        <ele>825</ele>
        <time>2013-07-12T10:53:41Z</time>
      </trkpt>
      <trkpt lat="44.85349" lon="5.75823">
        <ele>825</ele>
        <time>2013-07-12T10:53:52Z</time>
      </trkpt>
      <trkpt lat="44.85347" lon="5.75855">
        <ele>825</ele>
        <time>2013-07-12T10:54:10Z</time>
      </trkpt>
      <trkpt lat="44.85344" lon="5.75881">
        <ele>825</ele>
        <time>2013-07-12T10:54:27Z</time>
      </trkpt>
      <trkpt lat="44.85342" lon="5.7589">
        <ele>825</ele>
        <time>2013-07-12T10:54:34Z</time>
      </trkpt>
      <trkpt lat="44.85332" lon="5.75923">
        <ele>824</ele>
        <time>2013-07-12T10:54:52Z</time>
      </trkpt>
      <trkpt lat="44.85326" lon="5.75936">
        <ele>825</ele>
        <time>2013-07-12T10:55:00Z</time>
      </trkpt>
      <trkpt lat="44.85314" lon="5.75954">
        <ele>825</ele>
        <time>2013-07-12T10:55:13Z</time>
      </trkpt>
      <trkpt lat="44.85303" lon="5.75977">
        <ele>825</ele>
        <time>2013-07-12T10:55:27Z</time>
      </trkpt>
      <trkpt lat="44.853" lon="5.75989">
        <ele>825</ele>
        <time>2013-07-12T10:55:33Z</time>
      </trkpt>
      <trkpt lat="44.853" lon="5.75997">
        <ele>824</ele>
        <time>2013-07-12T10:55:37Z</time>
      </trkpt>
      <trkpt lat="44.853" lon="5.76024">
        <ele>825</ele>
        <time>2013-07-12T10:55:51Z</time>
      </trkpt>
      <trkpt lat="44.85305" lon="5.76051">
        <ele>825</ele>
        <time>2013-07-12T10:56:05Z</time>
      </trkpt>
      <trkpt lat="44.85307" lon="5.76076">
        <ele>825</ele>
        <time>2013-07-12T10:56:20Z</time>
      </trkpt>
      <trkpt lat="44.85307" lon="5.76076">
        <ele>825</ele>
        <time>2013-07-12T10:56:46Z</time>
      </trkpt>
      <trkpt lat="44.85307" lon="5.76077">
        <ele>825</ele>
        <time>2013-07-12T10:57:11Z</time>
      </trkpt>
      <trkpt lat="44.85307" lon="5.76077">
        <ele>825</ele>
        <time>2013-07-12T10:57:37Z</time>
      </trkpt>
      <trkpt lat="44.85308" lon="5.76078">
        <ele>825</ele>
        <time>2013-07-12T10:57:50Z</time>
      </trkpt>
      <trkpt lat="44.85308" lon="5.76078">
        <ele>825</ele>
        <time>2013-07-12T10:58:15Z</time>
      </trkpt>
      <trkpt lat="44.85305" lon="5.76076">
        <ele>825</ele>
        <time>2013-07-12T10:58:43Z</time>
      </trkpt>
      <trkpt lat="44.85302" lon="5.76077">
        <ele>825</ele>
        <time>2013-07-12T10:59:00Z</time>
      </trkpt>
      <trkpt lat="44.85301" lon="5.76075">
        <ele>825</ele>
        <time>2013-07-12T10:59:18Z</time>
      </trkpt>
      <trkpt lat="44.85302" lon="5.76072">
        <ele>825</ele>
        <time>2013-07-12T10:59:35Z</time>
      </trkpt>
      <trkpt lat="44.85308" lon="5.76076">
        <ele>825</ele>
        <time>2013-07-12T10:59:49Z</time>
      </trkpt>
      <trkpt lat="44.85309" lon="5.76077">
        <ele>825</ele>
        <time>2013-07-12T11:00:04Z</time>
      </trkpt>
      <trkpt lat="44.8531" lon="5.76076">
        <ele>825</ele>
        <time>2013-07-12T11:00:07Z</time>
      </trkpt>
      <trkpt lat="44.85309" lon="5.76069">
        <ele>826</ele>
        <time>2013-07-12T11:00:12Z</time>
      </trkpt>
      <trkpt lat="44.85312" lon="5.76072">
        <ele>825</ele>
        <time>2013-07-12T11:00:16Z</time>
      </trkpt>
      <trkpt lat="44.85309" lon="5.76068">
        <ele>825</ele>
        <time>2013-07-12T11:00:21Z</time>
      </trkpt>
      <trkpt lat="44.85316" lon="5.76063">
        <ele>825</ele>
        <time>2013-07-12T11:00:26Z</time>
      </trkpt>
      <trkpt lat="44.85323" lon="5.76059">
        <ele>826</ele>
        <time>2013-07-12T11:00:31Z</time>
      </trkpt>
      <trkpt lat="44.85336" lon="5.76048">
        <ele>825</ele>
        <time>2013-07-12T11:00:42Z</time>
      </trkpt>
      <trkpt lat="44.85355" lon="5.76042">
        <ele>826</ele>
        <time>2013-07-12T11:00:55Z</time>
      </trkpt>
      <trkpt lat="44.85368" lon="5.76035">
        <ele>825</ele>
        <time>2013-07-12T11:01:05Z</time>
      </trkpt>
      <trkpt lat="44.85375" lon="5.76038">
        <ele>825</ele>
        <time>2013-07-12T11:01:10Z</time>
      </trkpt>
      <trkpt lat="44.85399" lon="5.76054">
        <ele>825</ele>
        <time>2013-07-12T11:01:28Z</time>
      </trkpt>
      <trkpt lat="44.85415" lon="5.76062">
        <ele>824</ele>
        <time>2013-07-12T11:01:43Z</time>
      </trkpt>
      <trkpt lat="44.85415" lon="5.76065">
        <ele>824</ele>
        <time>2013-07-12T11:01:47Z</time>
      </trkpt>
      <trkpt lat="44.85427" lon="5.76078">
        <ele>825</ele>
        <time>2013-07-12T11:01:58Z</time>
      </trkpt>
      <trkpt lat="44.85432" lon="5.76083">
        <ele>825</ele>
        <time>2013-07-12T11:02:03Z</time>
      </trkpt>
      <trkpt lat="44.85448" lon="5.76101">
        <ele>825</ele>
        <time>2013-07-12T11:02:18Z</time>
      </trkpt>
      <trkpt lat="44.85468" lon="5.76115">
        <ele>825</ele>
        <time>2013-07-12T11:02:33Z</time>
      </trkpt>
      <trkpt lat="44.8549" lon="5.76122">
        <ele>825</ele>
        <time>2013-07-12T11:02:49Z</time>
      </trkpt>
      <trkpt lat="44.85514" lon="5.76126">
        <ele>825</ele>
        <time>2013-07-12T11:03:05Z</time>
      </trkpt>
      <trkpt lat="44.85539" lon="5.7613">
        <ele>826</ele>
        <time>2013-07-12T11:03:22Z</time>
      </trkpt>
      <trkpt lat="44.8555" lon="5.76152">
        <ele>826</ele>
        <time>2013-07-12T11:03:37Z</time>
      </trkpt>
      <trkpt lat="44.85565" lon="5.76174">
        <ele>826</ele>
        <time>2013-07-12T11:03:52Z</time>
      </trkpt>
      <trkpt lat="44.8559" lon="5.76192">
        <ele>826</ele>
        <time>2013-07-12T11:04:10Z</time>
      </trkpt>
      <trkpt lat="44.85609" lon="5.76208">
        <ele>826</ele>
        <time>2013-07-12T11:04:28Z</time>
      </trkpt>
      <trkpt lat="44.85623" lon="5.76232">
        <ele>826</ele>
        <time>2013-07-12T11:04:44Z</time>
      </trkpt>
      <trkpt lat="44.85636" lon="5.76257">
        <ele>826</ele>
        <time>2013-07-12T11:05:00Z</time>
      </trkpt>
      <trkpt lat="44.85653" lon="5.76273">
        <ele>826</ele>
        <time>2013-07-12T11:05:15Z</time>
      </trkpt>
      <trkpt lat="44.85674" lon="5.76293">
        <ele>826</ele>
        <time>2013-07-12T11:05:31Z</time>
      </trkpt>
      <trkpt lat="44.85696" lon="5.76313">
        <ele>826</ele>
        <time>2013-07-12T11:05:49Z</time>
      </trkpt>
      <trkpt lat="44.85715" lon="5.76325">
        <ele>825</ele>
        <time>2013-07-12T11:06:05Z</time>
      </trkpt>
      <trkpt lat="44.85727" lon="5.76349">
        <ele>826</ele>
        <time>2013-07-12T11:06:19Z</time>
      </trkpt>
      <trkpt lat="44.85736" lon="5.76383">
        <ele>825</ele>
        <time>2013-07-12T11:06:37Z</time>
      </trkpt>
      <trkpt lat="44.85739" lon="5.76408">
        <ele>826</ele>
        <time>2013-07-12T11:06:51Z</time>
      </trkpt>
      <trkpt lat="44.85754" lon="5.76431">
        <ele>825</ele>
        <time>2013-07-12T11:07:07Z</time>
      </trkpt>
      <trkpt lat="44.85759" lon="5.76459">
        <ele>825</ele>
        <time>2013-07-12T11:07:22Z</time>
      </trkpt>
      <trkpt lat="44.85765" lon="5.76491">
        <ele>825</ele>
        <time>2013-07-12T11:07:38Z</time>
      </trkpt>
      <trkpt lat="44.85767" lon="5.76522">
        <ele>824</ele>
        <time>2013-07-12T11:07:54Z</time>
      </trkpt>
      <trkpt lat="44.8577" lon="5.76547">
        <ele>823</ele>
        <time>2013-07-12T11:08:08Z</time>
      </trkpt>
      <trkpt lat="44.85773" lon="5.7657">
        <ele>822</ele>
        <time>2013-07-12T11:08:22Z</time>
      </trkpt>
      <trkpt lat="44.85777" lon="5.76597">
        <ele>822</ele>
        <time>2013-07-12T11:08:37Z</time>
      </trkpt>
      <trkpt lat="44.85782" lon="5.76613">
        <ele>822</ele>
        <time>2013-07-12T11:08:44Z</time>
      </trkpt>
      <trkpt lat="44.85783" lon="5.7662">
        <ele>822</ele>
        <time>2013-07-12T11:08:47Z</time>
      </trkpt>
      <trkpt lat="44.85793" lon="5.76658">
        <ele>821</ele>
        <time>2013-07-12T11:09:00Z</time>
      </trkpt>
      <trkpt lat="44.85797" lon="5.76666">
        <ele>821</ele>
        <time>2013-07-12T11:09:04Z</time>
      </trkpt>
      <trkpt lat="44.85811" lon="5.76695">
        <ele>819</ele>
        <time>2013-07-12T11:09:20Z</time>
      </trkpt>
      <trkpt lat="44.85824" lon="5.76717">
        <ele>817</ele>
        <time>2013-07-12T11:09:33Z</time>
      </trkpt>
      <trkpt lat="44.85831" lon="5.76728">
        <ele>816</ele>
        <time>2013-07-12T11:09:40Z</time>
      </trkpt>
      <trkpt lat="44.85845" lon="5.76754">
        <ele>815</ele>
        <time>2013-07-12T11:09:54Z</time>
      </trkpt>
      <trkpt lat="44.85849" lon="5.76762">
        <ele>814</ele>
        <time>2013-07-12T11:09:56Z</time>
      </trkpt>
      <trkpt lat="44.85891" lon="5.76831">
        <ele>812</ele>
        <time>2013-07-12T11:10:09Z</time>
      </trkpt>
      <trkpt lat="44.85915" lon="5.76874">
        <ele>812</ele>
        <time>2013-07-12T11:10:19Z</time>
      </trkpt>
      <trkpt lat="44.85928" lon="5.76902">
        <ele>812</ele>
        <time>2013-07-12T11:10:31Z</time>
      </trkpt>
      <trkpt lat="44.85941" lon="5.76927">
        <ele>811</ele>
        <time>2013-07-12T11:10:44Z</time>
      </trkpt>
      <trkpt lat="44.85952" lon="5.7695">
        <ele>811</ele>
        <time>2013-07-12T11:10:56Z</time>
      </trkpt>
      <trkpt lat="44.85961" lon="5.76977">
        <ele>809</ele>
        <time>2013-07-12T11:11:10Z</time>
      </trkpt>
      <trkpt lat="44.85965" lon="5.77007">
        <ele>808</ele>
        <time>2013-07-12T11:11:24Z</time>
      </trkpt>
      <trkpt lat="44.85971" lon="5.77038">
        <ele>807</ele>
        <time>2013-07-12T11:11:38Z</time>
      </trkpt>
      <trkpt lat="44.85977" lon="5.7707">
        <ele>805</ele>
        <time>2013-07-12T11:11:52Z</time>
      </trkpt>
      <trkpt lat="44.8599" lon="5.77097">
        <ele>804</ele>
        <time>2013-07-12T11:12:06Z</time>
      </trkpt>
      <trkpt lat="44.86015" lon="5.77125">
        <ele>802</ele>
        <time>2013-07-12T11:12:17Z</time>
      </trkpt>
      <trkpt lat="44.86044" lon="5.77157">
        <ele>802</ele>
        <time>2013-07-12T11:12:28Z</time>
      </trkpt>
      <trkpt lat="44.86075" lon="5.77194">
        <ele>803</ele>
        <time>2013-07-12T11:12:40Z</time>
      </trkpt>
      <trkpt lat="44.86106" lon="5.77235">
        <ele>803</ele>
        <time>2013-07-12T11:12:54Z</time>
      </trkpt>
      <trkpt lat="44.86123" lon="5.77252">
        <ele>803</ele>
        <time>2013-07-12T11:13:02Z</time>
      </trkpt>
      <trkpt lat="44.86124" lon="5.77253">
        <ele>802</ele>
        <time>2013-07-12T11:13:03Z</time>
      </trkpt>
      <trkpt lat="44.86125" lon="5.77254">
        <ele>803</ele>
        <time>2013-07-12T11:13:04Z</time>
      </trkpt>
      <trkpt lat="44.86141" lon="5.77271">
        <ele>800</ele>
        <time>2013-07-12T11:13:17Z</time>
      </trkpt>
      <trkpt lat="44.86144" lon="5.77276">
        <ele>800</ele>
        <time>2013-07-12T11:13:20Z</time>
      </trkpt>
      <trkpt lat="44.86145" lon="5.77278">
        <ele>799</ele>
        <time>2013-07-12T11:13:21Z</time>
      </trkpt>
      <trkpt lat="44.86146" lon="5.77279">
        <ele>799</ele>
        <time>2013-07-12T11:13:22Z</time>
      </trkpt>
      <trkpt lat="44.86151" lon="5.77288">
        <ele>798</ele>
        <time>2013-07-12T11:13:27Z</time>
      </trkpt>
      <trkpt lat="44.86152" lon="5.77289">
        <ele>798</ele>
        <time>2013-07-12T11:13:28Z</time>
      </trkpt>
      <trkpt lat="44.86153" lon="5.77291">
        <ele>798</ele>
        <time>2013-07-12T11:13:29Z</time>
      </trkpt>
      <trkpt lat="44.86159" lon="5.77299">
        <ele>797</ele>
        <time>2013-07-12T11:13:34Z</time>
      </trkpt>
      <trkpt lat="44.8616" lon="5.77301">
        <ele>797</ele>
        <time>2013-07-12T11:13:35Z</time>
      </trkpt>
      <trkpt lat="44.86161" lon="5.77303">
        <ele>796</ele>
        <time>2013-07-12T11:13:36Z</time>
      </trkpt>
      <trkpt lat="44.86163" lon="5.77305">
        <ele>797</ele>
        <time>2013-07-12T11:13:37Z</time>
      </trkpt>
      <trkpt lat="44.86164" lon="5.77307">
        <ele>796</ele>
        <time>2013-07-12T11:13:38Z</time>
      </trkpt>
      <trkpt lat="44.86165" lon="5.77309">
        <ele>797</ele>
        <time>2013-07-12T11:13:39Z</time>
      </trkpt>
      <trkpt lat="44.86166" lon="5.7731">
        <ele>796</ele>
        <time>2013-07-12T11:13:40Z</time>
      </trkpt>
      <trkpt lat="44.86167" lon="5.77312">
        <ele>795</ele>
        <time>2013-07-12T11:13:42Z</time>
      </trkpt>
      <trkpt lat="44.86168" lon="5.77314">
        <ele>795</ele>
        <time>2013-07-12T11:13:43Z</time>
      </trkpt>
      <trkpt lat="44.86169" lon="5.77316">
        <ele>795</ele>
        <time>2013-07-12T11:13:44Z</time>
      </trkpt>
      <trkpt lat="44.86185" lon="5.77339">
        <ele>793</ele>
        <time>2013-07-12T11:13:58Z</time>
      </trkpt>
      <trkpt lat="44.86188" lon="5.77345">
        <ele>792</ele>
        <time>2013-07-12T11:14:01Z</time>
      </trkpt>
      <trkpt lat="44.86189" lon="5.77347">
        <ele>792</ele>
        <time>2013-07-12T11:14:02Z</time>
      </trkpt>
      <trkpt lat="44.86191" lon="5.77349">
        <ele>792</ele>
        <time>2013-07-12T11:14:03Z</time>
      </trkpt>
      <trkpt lat="44.86204" lon="5.77367">
        <ele>792</ele>
        <time>2013-07-12T11:14:14Z</time>
      </trkpt>
      <trkpt lat="44.86221" lon="5.77383">
        <ele>790</ele>
        <time>2013-07-12T11:14:27Z</time>
      </trkpt>
      <trkpt lat="44.86234" lon="5.77406">
        <ele>789</ele>
        <time>2013-07-12T11:14:43Z</time>
      </trkpt>
      <trkpt lat="44.86238" lon="5.77412">
        <ele>789</ele>
        <time>2013-07-12T11:14:47Z</time>
      </trkpt>
      <trkpt lat="44.8624" lon="5.77413">
        <ele>789</ele>
        <time>2013-07-12T11:14:48Z</time>
      </trkpt>
      <trkpt lat="44.86241" lon="5.77414">
        <ele>789</ele>
        <time>2013-07-12T11:14:49Z</time>
      </trkpt>
      <trkpt lat="44.86243" lon="5.77415">
        <ele>789</ele>
        <time>2013-07-12T11:14:50Z</time>
      </trkpt>
      <trkpt lat="44.86245" lon="5.77415">
        <ele>789</ele>
        <time>2013-07-12T11:14:51Z</time>
      </trkpt>
      <trkpt lat="44.86247" lon="5.77416">
        <ele>789</ele>
        <time>2013-07-12T11:14:52Z</time>
      </trkpt>
      <trkpt lat="44.86248" lon="5.77418">
        <ele>789</ele>
        <time>2013-07-12T11:14:53Z</time>
      </trkpt>
      <trkpt lat="44.86255" lon="5.77424">
        <ele>789</ele>
        <time>2013-07-12T11:14:57Z</time>
      </trkpt>
      <trkpt lat="44.86255" lon="5.77426">
        <ele>788</ele>
        <time>2013-07-12T11:14:58Z</time>
      </trkpt>
      <trkpt lat="44.86262" lon="5.77442">
        <ele>786</ele>
        <time>2013-07-12T11:15:07Z</time>
      </trkpt>
      <trkpt lat="44.86268" lon="5.77455">
        <ele>786</ele>
        <time>2013-07-12T11:15:15Z</time>
      </trkpt>
      <trkpt lat="44.86257" lon="5.77465">
        <ele>790</ele>
        <time>2013-07-12T11:15:22Z</time>
      </trkpt>
      <trkpt lat="44.86252" lon="5.77468">
        <ele>791</ele>
        <time>2013-07-12T11:15:24Z</time>
      </trkpt>
      <trkpt lat="44.86247" lon="5.77473">
        <ele>793</ele>
        <time>2013-07-12T11:15:27Z</time>
      </trkpt>
      <trkpt lat="44.86237" lon="5.77489">
        <ele>796</ele>
        <time>2013-07-12T11:15:37Z</time>
      </trkpt>
      <trkpt lat="44.86227" lon="5.77505">
        <ele>799</ele>
        <time>2013-07-12T11:15:46Z</time>
      </trkpt>
      <trkpt lat="44.86216" lon="5.77523">
        <ele>802</ele>
        <time>2013-07-12T11:15:56Z</time>
      </trkpt>
      <trkpt lat="44.86208" lon="5.77536">
        <ele>805</ele>
        <time>2013-07-12T11:16:01Z</time>
      </trkpt>
      <trkpt lat="44.86207" lon="5.77539">
        <ele>806</ele>
        <time>2013-07-12T11:16:02Z</time>
      </trkpt>
      <trkpt lat="44.86204" lon="5.77545">
        <ele>807</ele>
        <time>2013-07-12T11:16:05Z</time>
      </trkpt>
      <trkpt lat="44.86198" lon="5.77559">
        <ele>810</ele>
        <time>2013-07-12T11:16:18Z</time>
      </trkpt>
      <trkpt lat="44.86197" lon="5.77562">
        <ele>810</ele>
        <time>2013-07-12T11:16:20Z</time>
      </trkpt>
      <trkpt lat="44.86193" lon="5.77579">
        <ele>813</ele>
        <time>2013-07-12T11:16:31Z</time>
      </trkpt>
      <trkpt lat="44.86189" lon="5.77592">
        <ele>815</ele>
        <time>2013-07-12T11:16:49Z</time>
      </trkpt>
      <trkpt lat="44.86188" lon="5.77598">
        <ele>816</ele>
        <time>2013-07-12T11:17:04Z</time>
      </trkpt>
      <trkpt lat="44.86187" lon="5.77602">
        <ele>816</ele>
        <time>2013-07-12T11:17:06Z</time>
      </trkpt>
      <trkpt lat="44.86185" lon="5.77619">
        <ele>820</ele>
        <time>2013-07-12T11:17:14Z</time>
      </trkpt>
      <trkpt lat="44.86187" lon="5.77631">
        <ele>822</ele>
        <time>2013-07-12T11:17:20Z</time>
      </trkpt>
      <trkpt lat="44.86189" lon="5.77644">
        <ele>825</ele>
        <time>2013-07-12T11:17:27Z</time>
      </trkpt>
      <trkpt lat="44.86188" lon="5.77646">
        <ele>825</ele>
        <time>2013-07-12T11:17:28Z</time>
      </trkpt>
      <trkpt lat="44.86186" lon="5.77648">
        <ele>826</ele>
        <time>2013-07-12T11:17:30Z</time>
      </trkpt>
      <trkpt lat="44.8618" lon="5.77655">
        <ele>827</ele>
        <time>2013-07-12T11:17:36Z</time>
      </trkpt>
      <trkpt lat="44.86167" lon="5.77667">
        <ele>831</ele>
        <time>2013-07-12T11:17:48Z</time>
      </trkpt>
      <trkpt lat="44.86152" lon="5.77672">
        <ele>832</ele>
        <time>2013-07-12T11:18:00Z</time>
      </trkpt>
      <trkpt lat="44.8613" lon="5.77678">
        <ele>834</ele>
        <time>2013-07-12T11:18:14Z</time>
      </trkpt>
      <trkpt lat="44.86113" lon="5.77686">
        <ele>836</ele>
        <time>2013-07-12T11:18:26Z</time>
      </trkpt>
      <trkpt lat="44.86091" lon="5.77695">
        <ele>837</ele>
        <time>2013-07-12T11:18:40Z</time>
      </trkpt>
      <trkpt lat="44.86086" lon="5.77698">
        <ele>837</ele>
        <time>2013-07-12T11:18:58Z</time>
      </trkpt>
      <trkpt lat="44.86086" lon="5.77698">
        <ele>836</ele>
        <time>2013-07-12T11:19:22Z</time>
      </trkpt>
      <trkpt lat="44.86086" lon="5.77698">
        <ele>837</ele>
        <time>2013-07-12T11:19:50Z</time>
      </trkpt>
      <trkpt lat="44.86086" lon="5.77698">
        <ele>837</ele>
        <time>2013-07-12T11:20:18Z</time>
      </trkpt>
      <trkpt lat="44.86086" lon="5.77698">
        <ele>837</ele>
        <time>2013-07-12T11:20:47Z</time>
      </trkpt>
      <trkpt lat="44.86086" lon="5.77698">
        <ele>836</ele>
        <time>2013-07-12T11:21:17Z</time>
      </trkpt>
      <trkpt lat="44.86086" lon="5.77698">
        <ele>836</ele>
        <time>2013-07-12T11:21:35Z</time>
      </trkpt>
      <trkpt lat="44.86086" lon="5.77698">
        <ele>836</ele>
        <time>2013-07-12T11:21:52Z</time>
      </trkpt>
      <trkpt lat="44.86087" lon="5.77698">
        <ele>836</ele>
        <time>2013-07-12T11:22:17Z</time>
      </trkpt>
      <trkpt lat="44.86087" lon="5.77698">
        <ele>837</ele>
        <time>2013-07-12T11:22:38Z</time>
      </trkpt>
      <trkpt lat="44.86084" lon="5.77695">
        <ele>837</ele>
        <time>2013-07-12T11:22:48Z</time>
      </trkpt>
      <trkpt lat="44.86084" lon="5.77695">
        <ele>837</ele>
        <time>2013-07-12T11:23:07Z</time>
      </trkpt>
      <trkpt lat="44.86083" lon="5.77696">
        <ele>837</ele>
        <time>2013-07-12T11:23:08Z</time>
      </trkpt>
      <trkpt lat="44.86066" lon="5.77713">
        <ele>837</ele>
        <time>2013-07-12T11:23:19Z</time>
      </trkpt>
      <trkpt lat="44.86066" lon="5.77714">
        <ele>837</ele>
        <time>2013-07-12T11:23:36Z</time>
      </trkpt>
      <trkpt lat="44.86066" lon="5.77714">
        <ele>837</ele>
        <time>2013-07-12T11:23:40Z</time>
      </trkpt>
      <trkpt lat="44.86058" lon="5.77719">
        <ele>837</ele>
        <time>2013-07-12T11:23:45Z</time>
      </trkpt>
      <trkpt lat="44.86047" lon="5.77727">
        <ele>838</ele>
        <time>2013-07-12T11:23:53Z</time>
      </trkpt>
      <trkpt lat="44.8604" lon="5.77735">
        <ele>839</ele>
        <time>2013-07-12T11:24:02Z</time>
      </trkpt>
      <trkpt lat="44.86023" lon="5.77752">
        <ele>841</ele>
        <time>2013-07-12T11:24:18Z</time>
      </trkpt>
      <trkpt lat="44.86018" lon="5.77756">
        <ele>842</ele>
        <time>2013-07-12T11:24:23Z</time>
      </trkpt>
      <trkpt lat="44.86009" lon="5.77777">
        <ele>844</ele>
        <time>2013-07-12T11:24:36Z</time>
      </trkpt>
      <trkpt lat="44.86008" lon="5.77786">
        <ele>844</ele>
        <time>2013-07-12T11:24:39Z</time>
      </trkpt>
      <trkpt lat="44.86009" lon="5.77787">
        <ele>844</ele>
        <time>2013-07-12T11:24:41Z</time>
      </trkpt>
      <trkpt lat="44.86018" lon="5.77777">
        <ele>844</ele>
        <time>2013-07-12T11:24:52Z</time>
      </trkpt>
      <trkpt lat="44.86037" lon="5.77762">
        <ele>843</ele>
        <time>2013-07-12T11:25:06Z</time>
      </trkpt>
      <trkpt lat="44.8605" lon="5.7775">
        <ele>842</ele>
        <time>2013-07-12T11:25:17Z</time>
      </trkpt>
      <trkpt lat="44.86065" lon="5.77745">
        <ele>841</ele>
        <time>2013-07-12T11:25:33Z</time>
      </trkpt>
      <trkpt lat="44.86065" lon="5.77745">
        <ele>842</ele>
        <time>2013-07-12T11:25:51Z</time>
      </trkpt>
      <trkpt lat="44.86065" lon="5.77745">
        <ele>842</ele>
        <time>2013-07-12T11:26:02Z</time>
      </trkpt>
      <trkpt lat="44.86069" lon="5.77744">
        <ele>841</ele>
        <time>2013-07-12T11:26:16Z</time>
      </trkpt>
      <trkpt lat="44.8607" lon="5.77743">
        <ele>842</ele>
        <time>2013-07-12T11:26:35Z</time>
      </trkpt>
      <trkpt lat="44.86078" lon="5.77739">
        <ele>841</ele>
        <time>2013-07-12T11:26:48Z</time>
      </trkpt>
      <trkpt lat="44.86099" lon="5.77739">
        <ele>840</ele>
        <time>2013-07-12T11:27:03Z</time>
      </trkpt>
      <trkpt lat="44.86102" lon="5.7774">
        <ele>840</ele>
        <time>2013-07-12T11:27:05Z</time>
      </trkpt>
      <trkpt lat="44.86112" lon="5.77743">
        <ele>840</ele>
        <time>2013-07-12T11:27:17Z</time>
      </trkpt>
      <trkpt lat="44.86139" lon="5.77755">
        <ele>840</ele>
        <time>2013-07-12T11:27:34Z</time>
      </trkpt>
      <trkpt lat="44.86161" lon="5.77762">
        <ele>840</ele>
        <time>2013-07-12T11:27:49Z</time>
      </trkpt>
      <trkpt lat="44.86164" lon="5.77764">
        <ele>839</ele>
        <time>2013-07-12T11:27:51Z</time>
      </trkpt>
      <trkpt lat="44.86185" lon="5.77774">
        <ele>840</ele>
        <time>2013-07-12T11:28:07Z</time>
      </trkpt>
      <trkpt lat="44.86205" lon="5.77795">
        <ele>840</ele>
        <time>2013-07-12T11:28:24Z</time>
      </trkpt>
      <trkpt lat="44.86218" lon="5.77817">
        <ele>843</ele>
        <time>2013-07-12T11:28:38Z</time>
      </trkpt>
      <trkpt lat="44.8622" lon="5.77836">
        <ele>846</ele>
        <time>2013-07-12T11:28:46Z</time>
      </trkpt>
      <trkpt lat="44.86219" lon="5.77842">
        <ele>847</ele>
        <time>2013-07-12T11:28:48Z</time>
      </trkpt>
      <trkpt lat="44.8623" lon="5.77866">
        <ele>849</ele>
        <time>2013-07-12T11:29:01Z</time>
      </trkpt>
      <trkpt lat="44.86242" lon="5.77889">
        <ele>852</ele>
        <time>2013-07-12T11:29:18Z</time>
      </trkpt>
      <trkpt lat="44.86254" lon="5.77913">
        <ele>854</ele>
        <time>2013-07-12T11:29:35Z</time>
      </trkpt>
      <trkpt lat="44.86257" lon="5.77924">
        <ele>857</ele>
        <time>2013-07-12T11:29:43Z</time>
      </trkpt>
      <trkpt lat="44.86273" lon="5.7795">
        <ele>859</ele>
        <time>2013-07-12T11:29:59Z</time>
      </trkpt>
      <trkpt lat="44.8629" lon="5.77968">
        <ele>862</ele>
        <time>2013-07-12T11:30:15Z</time>
      </trkpt>
      <trkpt lat="44.86298" lon="5.77973">
        <ele>862</ele>
        <time>2013-07-12T11:30:22Z</time>
      </trkpt>
      <trkpt lat="44.86306" lon="5.77979">
        <ele>862</ele>
        <time>2013-07-12T11:30:29Z</time>
      </trkpt>
      <trkpt lat="44.8631" lon="5.77982">
        <ele>863</ele>
        <time>2013-07-12T11:30:32Z</time>
      </trkpt>
      <trkpt lat="44.86322" lon="5.77988">
        <ele>864</ele>
        <time>2013-07-12T11:30:40Z</time>
      </trkpt>
      <trkpt lat="44.86329" lon="5.77989">
        <ele>864</ele>
        <time>2013-07-12T11:30:56Z</time>
      </trkpt>
      <trkpt lat="44.8633" lon="5.77989">
        <ele>865</ele>
        <time>2013-07-12T11:31:10Z</time>
      </trkpt>
      <trkpt lat="44.86345" lon="5.77995">
        <ele>866</ele>
        <time>2013-07-12T11:31:24Z</time>
      </trkpt>
      <trkpt lat="44.86367" lon="5.78">
        <ele>868</ele>
        <time>2013-07-12T11:31:39Z</time>
      </trkpt>
      <trkpt lat="44.86378" lon="5.77999">
        <ele>867</ele>
        <time>2013-07-12T11:31:48Z</time>
      </trkpt>
      <trkpt lat="44.86387" lon="5.78">
        <ele>867</ele>
        <time>2013-07-12T11:31:54Z</time>
      </trkpt>
      <trkpt lat="44.86401" lon="5.78008">
        <ele>865</ele>
        <time>2013-07-12T11:32:07Z</time>
      </trkpt>
      <trkpt lat="44.86413" lon="5.78015">
        <ele>863</ele>
        <time>2013-07-12T11:32:18Z</time>
      </trkpt>
      <trkpt lat="44.86414" lon="5.78019">
        <ele>863</ele>
        <time>2013-07-12T11:32:20Z</time>
      </trkpt>
      <trkpt lat="44.86419" lon="5.78039">
        <ele>866</ele>
        <time>2013-07-12T11:32:33Z</time>
      </trkpt>
      <trkpt lat="44.86441" lon="5.78062">
        <ele>865</ele>
        <time>2013-07-12T11:32:48Z</time>
      </trkpt>
      <trkpt lat="44.86441" lon="5.7807">
        <ele>865</ele>
        <time>2013-07-12T11:32:52Z</time>
      </trkpt>
      <trkpt lat="44.86443" lon="5.78077">
        <ele>866</ele>
        <time>2013-07-12T11:32:56Z</time>
      </trkpt>
      <trkpt lat="44.86448" lon="5.78087">
        <ele>866</ele>
        <time>2013-07-12T11:33:01Z</time>
      </trkpt>
      <trkpt lat="44.86456" lon="5.78105">
        <ele>866</ele>
        <time>2013-07-12T11:33:15Z</time>
      </trkpt>
      <trkpt lat="44.8646" lon="5.78115">
        <ele>863</ele>
        <time>2013-07-12T11:33:23Z</time>
      </trkpt>
      <trkpt lat="44.86464" lon="5.7813">
        <ele>862</ele>
        <time>2013-07-12T11:33:36Z</time>
      </trkpt>
      <trkpt lat="44.86474" lon="5.78144">
        <ele>863</ele>
        <time>2013-07-12T11:33:46Z</time>
      </trkpt>
      <trkpt lat="44.8648" lon="5.78157">
        <ele>862</ele>
        <time>2013-07-12T11:33:55Z</time>
      </trkpt>
      <trkpt lat="44.86487" lon="5.78182">
        <ele>863</ele>
        <time>2013-07-12T11:34:09Z</time>
      </trkpt>
      <trkpt lat="44.86487" lon="5.78183">
        <ele>863</ele>
        <time>2013-07-12T11:34:10Z</time>
      </trkpt>
      <trkpt lat="44.86492" lon="5.78207">
        <ele>864</ele>
        <time>2013-07-12T11:34:25Z</time>
      </trkpt>
      <trkpt lat="44.86499" lon="5.78226">
        <ele>865</ele>
        <time>2013-07-12T11:34:35Z</time>
      </trkpt>
      <trkpt lat="44.86508" lon="5.78245">
        <ele>866</ele>
        <time>2013-07-12T11:34:44Z</time>
      </trkpt>
      <trkpt lat="44.86512" lon="5.78266">
        <ele>866</ele>
        <time>2013-07-12T11:34:59Z</time>
      </trkpt>
      <trkpt lat="44.86516" lon="5.78277">
        <ele>866</ele>
        <time>2013-07-12T11:35:03Z</time>
      </trkpt>
      <trkpt lat="44.86518" lon="5.78282">
        <ele>867</ele>
        <time>2013-07-12T11:35:05Z</time>
      </trkpt>
      <trkpt lat="44.86522" lon="5.78293">
        <ele>871</ele>
        <time>2013-07-12T11:35:10Z</time>
      </trkpt>
      <trkpt lat="44.86525" lon="5.78298">
        <ele>872</ele>
        <time>2013-07-12T11:35:12Z</time>
      </trkpt>
      <trkpt lat="44.86535" lon="5.78318">
        <ele>872</ele>
        <time>2013-07-12T11:35:24Z</time>
      </trkpt>
      <trkpt lat="44.8654" lon="5.78329">
        <ele>872</ele>
        <time>2013-07-12T11:35:33Z</time>
      </trkpt>
      <trkpt lat="44.86542" lon="5.78336">
        <ele>872</ele>
        <time>2013-07-12T11:35:47Z</time>
      </trkpt>
      <trkpt lat="44.86542" lon="5.78339">
        <ele>872</ele>
        <time>2013-07-12T11:36:01Z</time>
      </trkpt>
      <trkpt lat="44.86549" lon="5.78354">
        <ele>871</ele>
        <time>2013-07-12T11:36:14Z</time>
      </trkpt>
      <trkpt lat="44.86563" lon="5.78375">
        <ele>870</ele>
        <time>2013-07-12T11:36:29Z</time>
      </trkpt>
      <trkpt lat="44.86567" lon="5.78381">
        <ele>870</ele>
        <time>2013-07-12T11:36:46Z</time>
      </trkpt>
      <trkpt lat="44.86567" lon="5.78381">
        <ele>870</ele>
        <time>2013-07-12T11:37:13Z</time>
      </trkpt>
      <trkpt lat="44.8657" lon="5.78392">
        <ele>871</ele>
        <time>2013-07-12T11:37:32Z</time>
      </trkpt>
      <trkpt lat="44.86587" lon="5.7841">
        <ele>871</ele>
        <time>2013-07-12T11:37:46Z</time>
      </trkpt>
      <trkpt lat="44.86592" lon="5.78416">
        <ele>872</ele>
        <time>2013-07-12T11:37:51Z</time>
      </trkpt>
      <trkpt lat="44.86598" lon="5.78422">
        <ele>872</ele>
        <time>2013-07-12T11:37:56Z</time>
      </trkpt>
      <trkpt lat="44.86611" lon="5.78434">
        <ele>871</ele>
        <time>2013-07-12T11:38:09Z</time>
      </trkpt>
      <trkpt lat="44.86626" lon="5.78447">
        <ele>872</ele>
        <time>2013-07-12T11:38:23Z</time>
      </trkpt>
      <trkpt lat="44.86641" lon="5.78457">
        <ele>871</ele>
        <time>2013-07-12T11:38:37Z</time>
      </trkpt>
      <trkpt lat="44.86648" lon="5.78457">
        <ele>871</ele>
        <time>2013-07-12T11:38:40Z</time>
      </trkpt>
      <trkpt lat="44.86653" lon="5.78455">
        <ele>871</ele>
        <time>2013-07-12T11:38:43Z</time>
      </trkpt>
      <trkpt lat="44.86659" lon="5.78455">
        <ele>872</ele>
        <time>2013-07-12T11:38:48Z</time>
      </trkpt>
      <trkpt lat="44.86675" lon="5.78462">
        <ele>873</ele>
        <time>2013-07-12T11:39:03Z</time>
      </trkpt>
      <trkpt lat="44.86676" lon="5.78463">
        <ele>874</ele>
        <time>2013-07-12T11:39:04Z</time>
      </trkpt>
      <trkpt lat="44.86684" lon="5.7847">
        <ele>875</ele>
        <time>2013-07-12T11:39:17Z</time>
      </trkpt>
      <trkpt lat="44.86686" lon="5.7847">
        <ele>875</ele>
        <time>2013-07-12T11:39:20Z</time>
      </trkpt>
      <trkpt lat="44.86694" lon="5.78476">
        <ele>875</ele>
        <time>2013-07-12T11:39:29Z</time>
      </trkpt>
      <trkpt lat="44.86702" lon="5.78475">
        <ele>874</ele>
        <time>2013-07-12T11:39:33Z</time>
      </trkpt>
      <trkpt lat="44.86714" lon="5.78472">
        <ele>875</ele>
        <time>2013-07-12T11:39:39Z</time>
      </trkpt>
      <trkpt lat="44.86731" lon="5.78455">
        <ele>875</ele>
        <time>2013-07-12T11:39:55Z</time>
      </trkpt>
      <trkpt lat="44.86745" lon="5.78452">
        <ele>875</ele>
        <time>2013-07-12T11:40:08Z</time>
      </trkpt>
      <trkpt lat="44.86755" lon="5.78448">
        <ele>875</ele>
        <time>2013-07-12T11:40:19Z</time>
      </trkpt>
      <trkpt lat="44.86755" lon="5.78448">
        <ele>876</ele>
        <time>2013-07-12T11:40:37Z</time>
      </trkpt>
      <trkpt lat="44.86756" lon="5.78447">
        <ele>876</ele>
        <time>2013-07-12T11:40:46Z</time>
      </trkpt>
      <trkpt lat="44.86759" lon="5.78446">
        <ele>876</ele>
        <time>2013-07-12T11:41:02Z</time>
      </trkpt>
      <trkpt lat="44.86761" lon="5.78445">
        <ele>877</ele>
        <time>2013-07-12T11:41:19Z</time>
      </trkpt>
      <trkpt lat="44.86769" lon="5.78447">
        <ele>877</ele>
        <time>2013-07-12T11:41:27Z</time>
      </trkpt>
      <trkpt lat="44.86773" lon="5.78448">
        <ele>879</ele>
        <time>2013-07-12T11:41:31Z</time>
      </trkpt>
      <trkpt lat="44.86782" lon="5.78446">
        <ele>880</ele>
        <time>2013-07-12T11:41:38Z</time>
      </trkpt>
      <trkpt lat="44.8679" lon="5.78445">
        <ele>881</ele>
        <time>2013-07-12T11:41:45Z</time>
      </trkpt>
      <trkpt lat="44.86794" lon="5.78443">
        <ele>881</ele>
        <time>2013-07-12T11:41:48Z</time>
      </trkpt>
      <trkpt lat="44.86814" lon="5.78439">
        <ele>883</ele>
        <time>2013-07-12T11:42:03Z</time>
      </trkpt>
      <trkpt lat="44.86815" lon="5.78439">
        <ele>883</ele>
        <time>2013-07-12T11:42:04Z</time>
      </trkpt>
      <trkpt lat="44.86818" lon="5.7844">
        <ele>884</ele>
        <time>2013-07-12T11:42:07Z</time>
      </trkpt>
      <trkpt lat="44.86824" lon="5.78438">
        <ele>884</ele>
        <time>2013-07-12T11:42:11Z</time>
      </trkpt>
      <trkpt lat="44.86828" lon="5.78436">
        <ele>885</ele>
        <time>2013-07-12T11:42:15Z</time>
      </trkpt>
      <trkpt lat="44.8683" lon="5.78434">
        <ele>886</ele>
        <time>2013-07-12T11:42:27Z</time>
      </trkpt>
      <trkpt lat="44.86832" lon="5.78433">
        <ele>885</ele>
        <time>2013-07-12T11:42:29Z</time>
      </trkpt>
      <trkpt lat="44.8684" lon="5.78425">
        <ele>887</ele>
        <time>2013-07-12T11:42:38Z</time>
      </trkpt>
      <trkpt lat="44.86853" lon="5.78411">
        <ele>887</ele>
        <time>2013-07-12T11:42:50Z</time>
      </trkpt>
      <trkpt lat="44.8686" lon="5.78393">
        <ele>887</ele>
        <time>2013-07-12T11:43:03Z</time>
      </trkpt>
      <trkpt lat="44.86861" lon="5.78393">
        <ele>886</ele>
        <time>2013-07-12T11:43:20Z</time>
      </trkpt>
      <trkpt lat="44.86861" lon="5.78393">
        <ele>887</ele>
        <time>2013-07-12T11:43:21Z</time>
      </trkpt>
      <trkpt lat="44.86872" lon="5.7838">
        <ele>886</ele>
        <time>2013-07-12T11:43:34Z</time>
      </trkpt>
      <trkpt lat="44.86874" lon="5.78379">
        <ele>886</ele>
        <time>2013-07-12T11:43:36Z</time>
      </trkpt>
      <trkpt lat="44.86884" lon="5.78388">
        <ele>889</ele>
        <time>2013-07-12T11:43:48Z</time>
      </trkpt>
      <trkpt lat="44.86888" lon="5.7839">
        <ele>889</ele>
        <time>2013-07-12T11:43:51Z</time>
      </trkpt>
      <trkpt lat="44.86889" lon="5.78394">
        <ele>890</ele>
        <time>2013-07-12T11:43:53Z</time>
      </trkpt>
      <trkpt lat="44.86894" lon="5.78409">
        <ele>893</ele>
        <time>2013-07-12T11:44:01Z</time>
      </trkpt>
      <trkpt lat="44.86898" lon="5.78416">
        <ele>893</ele>
        <time>2013-07-12T11:44:19Z</time>
      </trkpt>
      <trkpt lat="44.86902" lon="5.7842">
        <ele>893</ele>
        <time>2013-07-12T11:44:25Z</time>
      </trkpt>
      <trkpt lat="44.86913" lon="5.78436">
        <ele>895</ele>
        <time>2013-07-12T11:44:38Z</time>
      </trkpt>
      <trkpt lat="44.86929" lon="5.78449">
        <ele>896</ele>
        <time>2013-07-12T11:44:51Z</time>
      </trkpt>
      <trkpt lat="44.86945" lon="5.78458">
        <ele>897</ele>
        <time>2013-07-12T11:45:05Z</time>
      </trkpt>
      <trkpt lat="44.86946" lon="5.78459">
        <ele>897</ele>
        <time>2013-07-12T11:45:06Z</time>
      </trkpt>
      <trkpt lat="44.86974" lon="5.78465">
        <ele>899</ele>
        <time>2013-07-12T11:45:22Z</time>
      </trkpt>
      <trkpt lat="44.86991" lon="5.7847">
        <ele>899</ele>
        <time>2013-07-12T11:45:36Z</time>
      </trkpt>
      <trkpt lat="44.87006" lon="5.78484">
        <ele>901</ele>
        <time>2013-07-12T11:45:51Z</time>
      </trkpt>
      <trkpt lat="44.87026" lon="5.78497">
        <ele>904</ele>
        <time>2013-07-12T11:46:06Z</time>
      </trkpt>
      <trkpt lat="44.87039" lon="5.78509">
        <ele>907</ele>
        <time>2013-07-12T11:46:16Z</time>
      </trkpt>
      <trkpt lat="44.87052" lon="5.78531">
        <ele>910</ele>
        <time>2013-07-12T11:46:31Z</time>
      </trkpt>
      <trkpt lat="44.87065" lon="5.78547">
        <ele>911</ele>
        <time>2013-07-12T11:46:47Z</time>
      </trkpt>
      <trkpt lat="44.87077" lon="5.78563">
        <ele>913</ele>
        <time>2013-07-12T11:47:02Z</time>
      </trkpt>
      <trkpt lat="44.8708" lon="5.7857">
        <ele>914</ele>
        <time>2013-07-12T11:47:19Z</time>
      </trkpt>
      <trkpt lat="44.87087" lon="5.78582">
        <ele>915</ele>
        <time>2013-07-12T11:47:42Z</time>
      </trkpt>
      <trkpt lat="44.87086" lon="5.78582">
        <ele>916</ele>
        <time>2013-07-12T11:48:06Z</time>
      </trkpt>
      <trkpt lat="44.87088" lon="5.78585">
        <ele>916</ele>
        <time>2013-07-12T11:48:22Z</time>
      </trkpt>
      <trkpt lat="44.87096" lon="5.78599">
        <ele>916</ele>
        <time>2013-07-12T11:48:40Z</time>
      </trkpt>
      <trkpt lat="44.87118" lon="5.78629">
        <ele>918</ele>
        <time>2013-07-12T11:48:59Z</time>
      </trkpt>
      <trkpt lat="44.87133" lon="5.78649">
        <ele>918</ele>
        <time>2013-07-12T11:49:15Z</time>
      </trkpt>
      <trkpt lat="44.87155" lon="5.78676">
        <ele>917</ele>
        <time>2013-07-12T11:49:35Z</time>
      </trkpt>
      <trkpt lat="44.8717" lon="5.78697">
        <ele>919</ele>
        <time>2013-07-12T11:49:51Z</time>
      </trkpt>
      <trkpt lat="44.87189" lon="5.78711">
        <ele>920</ele>
        <time>2013-07-12T11:50:05Z</time>
      </trkpt>
      <trkpt lat="44.87205" lon="5.78726">
        <ele>922</ele>
        <time>2013-07-12T11:50:20Z</time>
      </trkpt>
      <trkpt lat="44.87222" lon="5.7874">
        <ele>923</ele>
        <time>2013-07-12T11:50:34Z</time>
      </trkpt>
      <trkpt lat="44.87228" lon="5.78752">
        <ele>926</ele>
        <time>2013-07-12T11:50:40Z</time>
      </trkpt>
      <trkpt lat="44.87228" lon="5.78753">
        <ele>926</ele>
        <time>2013-07-12T11:50:41Z</time>
      </trkpt>
      <trkpt lat="44.87237" lon="5.78765">
        <ele>929</ele>
        <time>2013-07-12T11:50:50Z</time>
      </trkpt>
      <trkpt lat="44.87254" lon="5.7878">
        <ele>932</ele>
        <time>2013-07-12T11:51:04Z</time>
      </trkpt>
      <trkpt lat="44.87255" lon="5.78782">
        <ele>932</ele>
        <time>2013-07-12T11:51:07Z</time>
      </trkpt>
      <trkpt lat="44.8726" lon="5.78803">
        <ele>936</ele>
        <time>2013-07-12T11:51:22Z</time>
      </trkpt>
      <trkpt lat="44.87267" lon="5.78814">
        <ele>937</ele>
        <time>2013-07-12T11:51:40Z</time>
      </trkpt>
      <trkpt lat="44.87272" lon="5.78822">
        <ele>939</ele>
        <time>2013-07-12T11:52:03Z</time>
      </trkpt>
      <trkpt lat="44.87261" lon="5.78829">
        <ele>939</ele>
        <time>2013-07-12T11:52:17Z</time>
      </trkpt>
      <trkpt lat="44.87252" lon="5.7884">
        <ele>942</ele>
        <time>2013-07-12T11:52:33Z</time>
      </trkpt>
      <trkpt lat="44.87253" lon="5.78853">
        <ele>944</ele>
        <time>2013-07-12T11:52:48Z</time>
      </trkpt>
      <trkpt lat="44.87254" lon="5.7886">
        <ele>944</ele>
        <time>2013-07-12T11:53:01Z</time>
      </trkpt>
      <trkpt lat="44.87254" lon="5.7886">
        <ele>948</ele>
        <time>2013-07-12T11:53:07Z</time>
      </trkpt>
      <trkpt lat="44.87254" lon="5.7886">
        <ele>944</ele>
        <time>2013-07-12T11:53:08Z</time>
      </trkpt>
      <trkpt lat="44.87254" lon="5.7886">
        <ele>943</ele>
        <time>2013-07-12T11:53:10Z</time>
      </trkpt>
      <trkpt lat="44.87252" lon="5.7886">
        <ele>942</ele>
        <time>2013-07-12T11:53:26Z</time>
      </trkpt>
      <trkpt lat="44.87252" lon="5.7886">
        <ele>943</ele>
        <time>2013-07-12T11:53:51Z</time>
      </trkpt>
      <trkpt lat="44.87252" lon="5.7886">
        <ele>943</ele>
        <time>2013-07-12T11:54:14Z</time>
      </trkpt>
      <trkpt lat="44.8725" lon="5.7886">
        <ele>942</ele>
        <time>2013-07-12T11:54:27Z</time>
      </trkpt>
      <trkpt lat="44.87249" lon="5.78861">
        <ele>943</ele>
        <time>2013-07-12T11:54:40Z</time>
      </trkpt>
      <trkpt lat="44.8725" lon="5.7886">
        <ele>943</ele>
        <time>2013-07-12T11:54:52Z</time>
      </trkpt>
      <trkpt lat="44.8725" lon="5.7886">
        <ele>943</ele>
        <time>2013-07-12T11:55:14Z</time>
      </trkpt>
      <trkpt lat="44.87251" lon="5.7886">
        <ele>943</ele>
        <time>2013-07-12T11:55:29Z</time>
      </trkpt>
      <trkpt lat="44.87249" lon="5.78857">
        <ele>943</ele>
        <time>2013-07-12T11:55:39Z</time>
      </trkpt>
      <trkpt lat="44.8725" lon="5.78859">
        <ele>943</ele>
        <time>2013-07-12T11:55:55Z</time>
      </trkpt>
      <trkpt lat="44.8725" lon="5.78859">
        <ele>943</ele>
        <time>2013-07-12T11:56:07Z</time>
      </trkpt>
      <trkpt lat="44.87251" lon="5.78859">
        <ele>943</ele>
        <time>2013-07-12T11:56:26Z</time>
      </trkpt>
      <trkpt lat="44.87251" lon="5.78859">
        <ele>943</ele>
        <time>2013-07-12T11:56:44Z</time>
      </trkpt>
      <trkpt lat="44.87251" lon="5.78859">
        <ele>943</ele>
        <time>2013-07-12T11:57:00Z</time>
      </trkpt>
      <trkpt lat="44.87256" lon="5.78862">
        <ele>943</ele>
        <time>2013-07-12T11:57:12Z</time>
      </trkpt>
      <trkpt lat="44.87259" lon="5.78863">
        <ele>943</ele>
        <time>2013-07-12T11:57:24Z</time>
      </trkpt>
      <trkpt lat="44.87259" lon="5.78863">
        <ele>944</ele>
        <time>2013-07-12T11:57:52Z</time>
      </trkpt>
      <trkpt lat="44.87259" lon="5.78863">
        <ele>943</ele>
        <time>2013-07-12T11:58:20Z</time>
      </trkpt>
      <trkpt lat="44.87259" lon="5.78863">
        <ele>944</ele>
        <time>2013-07-12T11:58:54Z</time>
      </trkpt>
      <trkpt lat="44.87259" lon="5.78862">
        <ele>943</ele>
        <time>2013-07-12T11:59:28Z</time>
      </trkpt>
      <trkpt lat="44.8726" lon="5.78862">
        <ele>944</ele>
        <time>2013-07-12T12:00:04Z</time>
      </trkpt>
      <trkpt lat="44.8726" lon="5.78862">
        <ele>945</ele>
        <time>2013-07-12T12:00:35Z</time>
      </trkpt>
      <trkpt lat="44.87259" lon="5.78863">
        <ele>944</ele>
        <time>2013-07-12T12:01:05Z</time>
      </trkpt>
      <trkpt lat="44.87259" lon="5.78863">
        <ele>944</ele>
        <time>2013-07-12T12:01:30Z</time>
      </trkpt>
      <trkpt lat="44.87259" lon="5.78863">
        <ele>944</ele>
        <time>2013-07-12T12:01:59Z</time>
      </trkpt>
      <trkpt lat="44.87259" lon="5.78863">
        <ele>944</ele>
        <time>2013-07-12T12:02:24Z</time>
      </trkpt>
      <trkpt lat="44.87259" lon="5.78863">
        <ele>945</ele>
        <time>2013-07-12T12:02:52Z</time>
      </trkpt>
      <trkpt lat="44.87259" lon="5.78863">
        <ele>944</ele>
        <time>2013-07-12T12:03:23Z</time>
      </trkpt>
      <trkpt lat="44.87259" lon="5.78863">
        <ele>945</ele>
        <time>2013-07-12T12:03:51Z</time>
      </trkpt>
      <trkpt lat="44.87259" lon="5.78863">
        <ele>945</ele>
        <time>2013-07-12T12:04:24Z</time>
      </trkpt>
      <trkpt lat="44.87259" lon="5.78863">
        <ele>945</ele>
        <time>2013-07-12T12:04:55Z</time>
      </trkpt>
      <trkpt lat="44.8726" lon="5.78864">
        <ele>945</ele>
        <time>2013-07-12T12:05:30Z</time>
      </trkpt>
      <trkpt lat="44.8726" lon="5.78863">
        <ele>945</ele>
        <time>2013-07-12T12:06:01Z</time>
      </trkpt>
      <trkpt lat="44.8726" lon="5.78863">
        <ele>945</ele>
        <time>2013-07-12T12:06:36Z</time>
      </trkpt>
      <trkpt lat="44.8726" lon="5.78863">
        <ele>945</ele>
        <time>2013-07-12T12:07:03Z</time>
      </trkpt>
      <trkpt lat="44.8726" lon="5.78863">
        <ele>945</ele>
        <time>2013-07-12T12:07:31Z</time>
      </trkpt>
      <trkpt lat="44.8726" lon="5.78863">
        <ele>945</ele>
        <time>2013-07-12T12:07:57Z</time>
      </trkpt>
      <trkpt lat="44.8726" lon="5.78862">
        <ele>945</ele>
        <time>2013-07-12T12:08:26Z</time>
      </trkpt>
      <trkpt lat="44.8726" lon="5.78863">
        <ele>945</ele>
        <time>2013-07-12T12:08:53Z</time>
      </trkpt>
      <trkpt lat="44.8726" lon="5.78863">
        <ele>945</ele>
        <time>2013-07-12T12:09:23Z</time>
      </trkpt>
      <trkpt lat="44.87261" lon="5.78863">
        <ele>945</ele>
        <time>2013-07-12T12:09:51Z</time>
      </trkpt>
      <trkpt lat="44.87262" lon="5.78863">
        <ele>945</ele>
        <time>2013-07-12T12:10:27Z</time>
      </trkpt>
      <trkpt lat="44.87262" lon="5.78863">
        <ele>946</ele>
        <time>2013-07-12T12:11:02Z</time>
      </trkpt>
      <trkpt lat="44.87262" lon="5.78863">
        <ele>946</ele>
        <time>2013-07-12T12:11:33Z</time>
      </trkpt>
      <trkpt lat="44.87262" lon="5.78863">
        <ele>946</ele>
        <time>2013-07-12T12:12:07Z</time>
      </trkpt>
      <trkpt lat="44.87262" lon="5.78863">
        <ele>946</ele>
        <time>2013-07-12T12:12:34Z</time>
      </trkpt>
      <trkpt lat="44.87262" lon="5.78863">
        <ele>945</ele>
        <time>2013-07-12T12:13:08Z</time>
      </trkpt>
      <trkpt lat="44.87262" lon="5.78863">
        <ele>946</ele>
        <time>2013-07-12T12:13:47Z</time>
      </trkpt>
      <trkpt lat="44.87262" lon="5.78863">
        <ele>946</ele>
        <time>2013-07-12T12:14:23Z</time>
      </trkpt>
      <trkpt lat="44.87262" lon="5.78863">
        <ele>946</ele>
        <time>2013-07-12T12:14:57Z</time>
      </trkpt>
      <trkpt lat="44.87262" lon="5.78862">
        <ele>946</ele>
        <time>2013-07-12T12:15:26Z</time>
      </trkpt>
      <trkpt lat="44.87262" lon="5.78862">
        <ele>947</ele>
        <time>2013-07-12T12:15:58Z</time>
      </trkpt>
      <trkpt lat="44.87262" lon="5.78863">
        <ele>947</ele>
        <time>2013-07-12T12:16:31Z</time>
      </trkpt>
      <trkpt lat="44.87262" lon="5.78863">
        <ele>947</ele>
        <time>2013-07-12T12:17:03Z</time>
      </trkpt>
      <trkpt lat="44.87262" lon="5.78863">
        <ele>947</ele>
        <time>2013-07-12T12:17:40Z</time>
      </trkpt>
      <trkpt lat="44.87262" lon="5.78862">
        <ele>947</ele>
        <time>2013-07-12T12:18:11Z</time>
      </trkpt>
      <trkpt lat="44.87262" lon="5.78862">
        <ele>947</ele>
        <time>2013-07-12T12:18:46Z</time>
      </trkpt>
      <trkpt lat="44.87262" lon="5.78862">
        <ele>947</ele>
        <time>2013-07-12T12:19:20Z</time>
      </trkpt>
      <trkpt lat="44.87262" lon="5.78862">
        <ele>947</ele>
        <time>2013-07-12T12:19:52Z</time>
      </trkpt>
      <trkpt lat="44.87262" lon="5.78862">
        <ele>947</ele>
        <time>2013-07-12T12:20:24Z</time>
      </trkpt>
      <trkpt lat="44.87262" lon="5.78863">
        <ele>947</ele>
        <time>2013-07-12T12:20:52Z</time>
      </trkpt>
      <trkpt lat="44.87262" lon="5.78863">
        <ele>948</ele>
        <time>2013-07-12T12:21:23Z</time>
      </trkpt>
      <trkpt lat="44.87262" lon="5.78863">
        <ele>947</ele>
        <time>2013-07-12T12:21:54Z</time>
      </trkpt>
      <trkpt lat="44.87262" lon="5.78863">
        <ele>947</ele>
        <time>2013-07-12T12:22:28Z</time>
      </trkpt>
      <trkpt lat="44.87262" lon="5.78864">
        <ele>947</ele>
        <time>2013-07-12T12:23:00Z</time>
      </trkpt>
      <trkpt lat="44.87262" lon="5.78864">
        <ele>948</ele>
        <time>2013-07-12T12:23:29Z</time>
      </trkpt>
      <trkpt lat="44.87262" lon="5.78864">
        <ele>948</ele>
        <time>2013-07-12T12:24:00Z</time>
      </trkpt>
      <trkpt lat="44.87262" lon="5.78864">
        <ele>948</ele>
        <time>2013-07-12T12:24:36Z</time>
      </trkpt>
      <trkpt lat="44.87261" lon="5.78864">
        <ele>948</ele>
        <time>2013-07-12T12:25:09Z</time>
      </trkpt>
      <trkpt lat="44.87262" lon="5.78864">
        <ele>948</ele>
        <time>2013-07-12T12:25:44Z</time>
      </trkpt>
      <trkpt lat="44.87261" lon="5.78865">
        <ele>948</ele>
        <time>2013-07-12T12:26:15Z</time>
      </trkpt>
      <trkpt lat="44.87261" lon="5.78865">
        <ele>948</ele>
        <time>2013-07-12T12:26:49Z</time>
      </trkpt>
      <trkpt lat="44.87261" lon="5.78865">
        <ele>948</ele>
        <time>2013-07-12T12:27:25Z</time>
      </trkpt>
      <trkpt lat="44.87261" lon="5.78865">
        <ele>948</ele>
        <time>2013-07-12T12:28:00Z</time>
      </trkpt>
      <trkpt lat="44.8726" lon="5.78865">
        <ele>948</ele>
        <time>2013-07-12T12:28:29Z</time>
      </trkpt>
      <trkpt lat="44.87259" lon="5.78868">
        <ele>948</ele>
        <time>2013-07-12T12:28:48Z</time>
      </trkpt>
      <trkpt lat="44.8726" lon="5.78867">
        <ele>948</ele>
        <time>2013-07-12T12:29:17Z</time>
      </trkpt>
      <trkpt lat="44.8726" lon="5.78867">
        <ele>948</ele>
        <time>2013-07-12T12:29:45Z</time>
      </trkpt>
      <trkpt lat="44.87261" lon="5.78867">
        <ele>948</ele>
        <time>2013-07-12T12:30:16Z</time>
      </trkpt>
      <trkpt lat="44.87261" lon="5.78867">
        <ele>948</ele>
        <time>2013-07-12T12:30:43Z</time>
      </trkpt>
      <trkpt lat="44.87261" lon="5.78867">
        <ele>948</ele>
        <time>2013-07-12T12:31:08Z</time>
      </trkpt>
      <trkpt lat="44.87261" lon="5.78866">
        <ele>948</ele>
        <time>2013-07-12T12:31:38Z</time>
      </trkpt>
      <trkpt lat="44.87261" lon="5.78866">
        <ele>948</ele>
        <time>2013-07-12T12:32:05Z</time>
      </trkpt>
      <trkpt lat="44.87261" lon="5.78866">
        <ele>948</ele>
        <time>2013-07-12T12:32:34Z</time>
      </trkpt>
      <trkpt lat="44.87261" lon="5.78867">
        <ele>948</ele>
        <time>2013-07-12T12:33:06Z</time>
      </trkpt>
      <trkpt lat="44.87261" lon="5.78866">
        <ele>948</ele>
        <time>2013-07-12T12:33:39Z</time>
      </trkpt>
      <trkpt lat="44.87261" lon="5.78865">
        <ele>948</ele>
        <time>2013-07-12T12:34:11Z</time>
      </trkpt>
      <trkpt lat="44.87261" lon="5.78865">
        <ele>948</ele>
        <time>2013-07-12T12:34:45Z</time>
      </trkpt>
      <trkpt lat="44.87261" lon="5.78864">
        <ele>948</ele>
        <time>2013-07-12T12:35:19Z</time>
      </trkpt>
      <trkpt lat="44.87261" lon="5.78864">
        <ele>948</ele>
        <time>2013-07-12T12:35:54Z</time>
      </trkpt>
      <trkpt lat="44.87261" lon="5.78865">
        <ele>948</ele>
        <time>2013-07-12T12:36:24Z</time>
      </trkpt>
      <trkpt lat="44.87261" lon="5.78865">
        <ele>949</ele>
        <time>2013-07-12T12:36:56Z</time>
      </trkpt>
      <trkpt lat="44.87261" lon="5.78865">
        <ele>949</ele>
        <time>2013-07-12T12:37:30Z</time>
      </trkpt>
      <trkpt lat="44.87261" lon="5.78865">
        <ele>949</ele>
        <time>2013-07-12T12:38:01Z</time>
      </trkpt>
      <trkpt lat="44.87261" lon="5.78865">
        <ele>949</ele>
        <time>2013-07-12T12:38:30Z</time>
      </trkpt>
      <trkpt lat="44.87261" lon="5.78864">
        <ele>950</ele>
        <time>2013-07-12T12:39:02Z</time>
      </trkpt>
      <trkpt lat="44.87261" lon="5.78865">
        <ele>949</ele>
        <time>2013-07-12T12:39:32Z</time>
      </trkpt>
      <trkpt lat="44.87261" lon="5.78865">
        <ele>950</ele>
        <time>2013-07-12T12:40:01Z</time>
      </trkpt>
      <trkpt lat="44.87261" lon="5.78864">
        <ele>949</ele>
        <time>2013-07-12T12:40:36Z</time>
      </trkpt>
      <trkpt lat="44.87261" lon="5.78864">
        <ele>949</ele>
        <time>2013-07-12T12:41:07Z</time>
      </trkpt>
      <trkpt lat="44.87261" lon="5.78865">
        <ele>949</ele>
        <time>2013-07-12T12:41:34Z</time>
      </trkpt>
      <trkpt lat="44.87261" lon="5.78865">
        <ele>950</ele>
        <time>2013-07-12T12:42:06Z</time>
      </trkpt>
      <trkpt lat="44.87261" lon="5.78865">
        <ele>950</ele>
        <time>2013-07-12T12:42:36Z</time>
      </trkpt>
      <trkpt lat="44.87261" lon="5.78865">
        <ele>949</ele>
        <time>2013-07-12T12:43:06Z</time>
      </trkpt>
      <trkpt lat="44.87261" lon="5.78864">
        <ele>949</ele>
        <time>2013-07-12T12:43:39Z</time>
      </trkpt>
      <trkpt lat="44.87261" lon="5.78864">
        <ele>950</ele>
        <time>2013-07-12T12:44:08Z</time>
      </trkpt>
      <trkpt lat="44.87261" lon="5.78864">
        <ele>950</ele>
        <time>2013-07-12T12:44:37Z</time>
      </trkpt>
      <trkpt lat="44.87261" lon="5.78864">
        <ele>950</ele>
        <time>2013-07-12T12:45:07Z</time>
      </trkpt>
      <trkpt lat="44.87261" lon="5.78866">
        <ele>950</ele>
        <time>2013-07-12T12:45:40Z</time>
      </trkpt>
      <trkpt lat="44.87261" lon="5.78865">
        <ele>950</ele>
        <time>2013-07-12T12:46:12Z</time>
      </trkpt>
      <trkpt lat="44.87261" lon="5.78865">
        <ele>950</ele>
        <time>2013-07-12T12:46:41Z</time>
      </trkpt>
      <trkpt lat="44.87261" lon="5.78865">
        <ele>950</ele>
        <time>2013-07-12T12:47:12Z</time>
      </trkpt>
      <trkpt lat="44.87261" lon="5.78864">
        <ele>950</ele>
        <time>2013-07-12T12:47:43Z</time>
      </trkpt>
      <trkpt lat="44.87261" lon="5.78864">
        <ele>950</ele>
        <time>2013-07-12T12:48:11Z</time>
      </trkpt>
      <trkpt lat="44.87261" lon="5.78865">
        <ele>950</ele>
        <time>2013-07-12T12:48:38Z</time>
      </trkpt>
      <trkpt lat="44.87261" lon="5.78865">
        <ele>950</ele>
        <time>2013-07-12T12:49:04Z</time>
      </trkpt>
      <trkpt lat="44.87261" lon="5.78865">
        <ele>950</ele>
        <time>2013-07-12T12:49:33Z</time>
      </trkpt>
      <trkpt lat="44.87261" lon="5.78865">
        <ele>950</ele>
        <time>2013-07-12T12:50:03Z</time>
      </trkpt>
      <trkpt lat="44.87261" lon="5.78865">
        <ele>950</ele>
        <time>2013-07-12T12:50:33Z</time>
      </trkpt>
      <trkpt lat="44.87261" lon="5.78865">
        <ele>950</ele>
        <time>2013-07-12T12:51:01Z</time>
      </trkpt>
      <trkpt lat="44.87261" lon="5.78864">
        <ele>950</ele>
        <time>2013-07-12T12:51:29Z</time>
      </trkpt>
      <trkpt lat="44.87261" lon="5.78865">
        <ele>950</ele>
        <time>2013-07-12T12:52:01Z</time>
      </trkpt>
      <trkpt lat="44.87261" lon="5.78864">
        <ele>950</ele>
        <time>2013-07-12T12:52:27Z</time>
      </trkpt>
      <trkpt lat="44.87257" lon="5.78863">
        <ele>950</ele>
        <time>2013-07-12T12:52:30Z</time>
      </trkpt>
      <trkpt lat="44.87248" lon="5.78862">
        <ele>951</ele>
        <time>2013-07-12T12:52:44Z</time>
      </trkpt>
      <trkpt lat="44.8725" lon="5.78862">
        <ele>950</ele>
        <time>2013-07-12T12:52:59Z</time>
      </trkpt>
      <trkpt lat="44.87251" lon="5.78865">
        <ele>950</ele>
        <time>2013-07-12T12:53:02Z</time>
      </trkpt>
      <trkpt lat="44.87251" lon="5.78885">
        <ele>949</ele>
        <time>2013-07-12T12:53:18Z</time>
      </trkpt>
      <trkpt lat="44.87252" lon="5.7889">
        <ele>948</ele>
        <time>2013-07-12T12:53:32Z</time>
      </trkpt>
      <trkpt lat="44.87253" lon="5.78892">
        <ele>948</ele>
        <time>2013-07-12T12:53:50Z</time>
      </trkpt>
      <trkpt lat="44.87253" lon="5.7889">
        <ele>948</ele>
        <time>2013-07-12T12:54:01Z</time>
      </trkpt>
      <trkpt lat="44.87252" lon="5.78885">
        <ele>948</ele>
        <time>2013-07-12T12:54:04Z</time>
      </trkpt>
      <trkpt lat="44.87251" lon="5.78878">
        <ele>949</ele>
        <time>2013-07-12T12:54:10Z</time>
      </trkpt>
      <trkpt lat="44.87252" lon="5.78864">
        <ele>950</ele>
        <time>2013-07-12T12:54:23Z</time>
      </trkpt>
      <trkpt lat="44.8725" lon="5.78864">
        <ele>950</ele>
        <time>2013-07-12T12:54:25Z</time>
      </trkpt>
      <trkpt lat="44.87248" lon="5.78863">
        <ele>950</ele>
        <time>2013-07-12T12:54:36Z</time>
      </trkpt>
      <trkpt lat="44.87249" lon="5.78865">
        <ele>950</ele>
        <time>2013-07-12T12:54:52Z</time>
      </trkpt>
      <trkpt lat="44.87247" lon="5.78862">
        <ele>950</ele>
        <time>2013-07-12T12:55:07Z</time>
      </trkpt>
      <trkpt lat="44.87248" lon="5.78863">
        <ele>950</ele>
        <time>2013-07-12T12:55:25Z</time>
      </trkpt>
      <trkpt lat="44.87249" lon="5.78862">
        <ele>950</ele>
        <time>2013-07-12T12:55:36Z</time>
      </trkpt>
      <trkpt lat="44.87249" lon="5.78862">
        <ele>950</ele>
        <time>2013-07-12T12:55:51Z</time>
      </trkpt>
      <trkpt lat="44.87249" lon="5.78862">
        <ele>950</ele>
        <time>2013-07-12T12:56:14Z</time>
      </trkpt>
      <trkpt lat="44.87249" lon="5.78862">
        <ele>950</ele>
        <time>2013-07-12T12:56:46Z</time>
      </trkpt>
      <trkpt lat="44.87249" lon="5.78862">
        <ele>950</ele>
        <time>2013-07-12T12:57:19Z</time>
      </trkpt>
      <trkpt lat="44.87249" lon="5.78862">
        <ele>950</ele>
        <time>2013-07-12T12:57:54Z</time>
      </trkpt>
      <trkpt lat="44.8725" lon="5.78862">
        <ele>950</ele>
        <time>2013-07-12T12:58:19Z</time>
      </trkpt>
      <trkpt lat="44.8725" lon="5.78862">
        <ele>951</ele>
        <time>2013-07-12T12:58:35Z</time>
      </trkpt>
      <trkpt lat="44.87249" lon="5.78862">
        <ele>950</ele>
        <time>2013-07-12T12:58:52Z</time>
      </trkpt>
      <trkpt lat="44.87249" lon="5.78862">
        <ele>951</ele>
        <time>2013-07-12T12:59:10Z</time>
      </trkpt>
      <trkpt lat="44.87249" lon="5.78861">
        <ele>951</ele>
        <time>2013-07-12T12:59:34Z</time>
      </trkpt>
      <trkpt lat="44.87249" lon="5.78864">
        <ele>950</ele>
        <time>2013-07-12T12:59:49Z</time>
      </trkpt>
      <trkpt lat="44.8725" lon="5.78864">
        <ele>950</ele>
        <time>2013-07-12T13:00:04Z</time>
      </trkpt>
      <trkpt lat="44.8725" lon="5.78864">
        <ele>950</ele>
        <time>2013-07-12T13:00:27Z</time>
      </trkpt>
      <trkpt lat="44.8725" lon="5.78864">
        <ele>950</ele>
        <time>2013-07-12T13:00:48Z</time>
      </trkpt>
      <trkpt lat="44.87249" lon="5.78864">
        <ele>951</ele>
        <time>2013-07-12T13:01:02Z</time>
      </trkpt>
      <trkpt lat="44.87247" lon="5.78864">
        <ele>950</ele>
        <time>2013-07-12T13:01:19Z</time>
      </trkpt>
      <trkpt lat="44.87247" lon="5.78864">
        <ele>951</ele>
        <time>2013-07-12T13:01:39Z</time>
      </trkpt>
      <trkpt lat="44.87247" lon="5.78864">
        <ele>951</ele>
        <time>2013-07-12T13:01:56Z</time>
      </trkpt>
      <trkpt lat="44.87248" lon="5.78863">
        <ele>951</ele>
        <time>2013-07-12T13:02:13Z</time>
      </trkpt>
      <trkpt lat="44.87247" lon="5.78861">
        <ele>951</ele>
        <time>2013-07-12T13:02:30Z</time>
      </trkpt>
      <trkpt lat="44.87247" lon="5.78861">
        <ele>951</ele>
        <time>2013-07-12T13:02:51Z</time>
      </trkpt>
      <trkpt lat="44.87247" lon="5.78861">
        <ele>950</ele>
        <time>2013-07-12T13:03:16Z</time>
      </trkpt>
      <trkpt lat="44.87248" lon="5.78859">
        <ele>950</ele>
        <time>2013-07-12T13:03:37Z</time>
      </trkpt>
      <trkpt lat="44.87248" lon="5.78859">
        <ele>951</ele>
        <time>2013-07-12T13:04:02Z</time>
      </trkpt>
      <trkpt lat="44.87248" lon="5.78859">
        <ele>951</ele>
        <time>2013-07-12T13:04:31Z</time>
      </trkpt>
      <trkpt lat="44.87248" lon="5.78859">
        <ele>951</ele>
        <time>2013-07-12T13:04:55Z</time>
      </trkpt>
      <trkpt lat="44.87257" lon="5.7886">
        <ele>951</ele>
        <time>2013-07-12T13:05:11Z</time>
      </trkpt>
      <trkpt lat="44.87258" lon="5.7886">
        <ele>950</ele>
        <time>2013-07-12T13:05:34Z</time>
      </trkpt>
      <trkpt lat="44.87259" lon="5.78857">
        <ele>951</ele>
        <time>2013-07-12T13:05:54Z</time>
      </trkpt>
      <trkpt lat="44.87258" lon="5.78857">
        <ele>951</ele>
        <time>2013-07-12T13:06:11Z</time>
      </trkpt>
      <trkpt lat="44.87258" lon="5.78857">
        <ele>951</ele>
        <time>2013-07-12T13:06:31Z</time>
      </trkpt>
      <trkpt lat="44.87256" lon="5.7886">
        <ele>951</ele>
        <time>2013-07-12T13:06:46Z</time>
      </trkpt>
      <trkpt lat="44.87264" lon="5.78876">
        <ele>952</ele>
        <time>2013-07-12T13:07:03Z</time>
      </trkpt>
      <trkpt lat="44.87265" lon="5.78876">
        <ele>952</ele>
        <time>2013-07-12T13:07:28Z</time>
      </trkpt>
      <trkpt lat="44.87265" lon="5.78873">
        <ele>952</ele>
        <time>2013-07-12T13:07:45Z</time>
      </trkpt>
      <trkpt lat="44.87254" lon="5.78859">
        <ele>951</ele>
        <time>2013-07-12T13:08:00Z</time>
      </trkpt>
      <trkpt lat="44.87251" lon="5.78856">
        <ele>951</ele>
        <time>2013-07-12T13:08:07Z</time>
      </trkpt>
      <trkpt lat="44.87249" lon="5.78854">
        <ele>951</ele>
        <time>2013-07-12T13:08:09Z</time>
      </trkpt>
      <trkpt lat="44.87233" lon="5.78839">
        <ele>950</ele>
        <time>2013-07-12T13:08:26Z</time>
      </trkpt>
      <trkpt lat="44.87229" lon="5.78837">
        <ele>950</ele>
        <time>2013-07-12T13:08:30Z</time>
      </trkpt>
      <trkpt lat="44.87226" lon="5.78834">
        <ele>950</ele>
        <time>2013-07-12T13:08:33Z</time>
      </trkpt>
      <trkpt lat="44.87222" lon="5.78832">
        <ele>950</ele>
        <time>2013-07-12T13:08:35Z</time>
      </trkpt>
      <trkpt lat="44.87212" lon="5.78829">
        <ele>949</ele>
        <time>2013-07-12T13:08:42Z</time>
      </trkpt>
      <trkpt lat="44.87209" lon="5.78824">
        <ele>948</ele>
        <time>2013-07-12T13:08:46Z</time>
      </trkpt>
      <trkpt lat="44.87206" lon="5.78821">
        <ele>948</ele>
        <time>2013-07-12T13:08:49Z</time>
      </trkpt>
      <trkpt lat="44.87202" lon="5.7882">
        <ele>948</ele>
        <time>2013-07-12T13:08:54Z</time>
      </trkpt>
      <trkpt lat="44.87197" lon="5.78816">
        <ele>948</ele>
        <time>2013-07-12T13:09:10Z</time>
      </trkpt>
      <trkpt lat="44.87185" lon="5.78804">
        <ele>947</ele>
        <time>2013-07-12T13:09:27Z</time>
      </trkpt>
      <trkpt lat="44.87177" lon="5.78803">
        <ele>948</ele>
        <time>2013-07-12T13:09:38Z</time>
      </trkpt>
      <trkpt lat="44.87175" lon="5.78802">
        <ele>947</ele>
        <time>2013-07-12T13:09:40Z</time>
      </trkpt>
      <trkpt lat="44.87154" lon="5.78792">
        <ele>946</ele>
        <time>2013-07-12T13:09:58Z</time>
      </trkpt>
      <trkpt lat="44.87131" lon="5.78778">
        <ele>946</ele>
        <time>2013-07-12T13:10:16Z</time>
      </trkpt>
      <trkpt lat="44.87107" lon="5.78767">
        <ele>946</ele>
        <time>2013-07-12T13:10:33Z</time>
      </trkpt>
      <trkpt lat="44.87085" lon="5.78755">
        <ele>946</ele>
        <time>2013-07-12T13:10:48Z</time>
      </trkpt>
      <trkpt lat="44.87057" lon="5.78742">
        <ele>946</ele>
        <time>2013-07-12T13:11:07Z</time>
      </trkpt>
      <trkpt lat="44.87035" lon="5.78732">
        <ele>946</ele>
        <time>2013-07-12T13:11:21Z</time>
      </trkpt>
      <trkpt lat="44.87009" lon="5.78721">
        <ele>945</ele>
        <time>2013-07-12T13:11:38Z</time>
      </trkpt>
      <trkpt lat="44.86988" lon="5.78707">
        <ele>945</ele>
        <time>2013-07-12T13:11:53Z</time>
      </trkpt>
      <trkpt lat="44.86966" lon="5.78689">
        <ele>943</ele>
        <time>2013-07-12T13:12:11Z</time>
      </trkpt>
      <trkpt lat="44.86944" lon="5.78673">
        <ele>941</ele>
        <time>2013-07-12T13:12:30Z</time>
      </trkpt>
      <trkpt lat="44.86943" lon="5.78673">
        <ele>941</ele>
        <time>2013-07-12T13:12:39Z</time>
      </trkpt>
      <trkpt lat="44.86925" lon="5.78654">
        <ele>940</ele>
        <time>2013-07-12T13:12:55Z</time>
      </trkpt>
      <trkpt lat="44.86914" lon="5.78644">
        <ele>940</ele>
        <time>2013-07-12T13:13:10Z</time>
      </trkpt>
      <trkpt lat="44.86913" lon="5.78644">
        <ele>940</ele>
        <time>2013-07-12T13:13:25Z</time>
      </trkpt>
      <trkpt lat="44.869" lon="5.78632">
        <ele>939</ele>
        <time>2013-07-12T13:13:40Z</time>
      </trkpt>
      <trkpt lat="44.86877" lon="5.7862">
        <ele>938</ele>
        <time>2013-07-12T13:13:57Z</time>
      </trkpt>
      <trkpt lat="44.8685" lon="5.78614">
        <ele>937</ele>
        <time>2013-07-12T13:14:17Z</time>
      </trkpt>
      <trkpt lat="44.86823" lon="5.78611">
        <ele>936</ele>
        <time>2013-07-12T13:14:35Z</time>
      </trkpt>
      <trkpt lat="44.86802" lon="5.7861">
        <ele>936</ele>
        <time>2013-07-12T13:14:48Z</time>
      </trkpt>
      <trkpt lat="44.86799" lon="5.78616">
        <ele>936</ele>
        <time>2013-07-12T13:14:53Z</time>
      </trkpt>
      <trkpt lat="44.86801" lon="5.78632">
        <ele>940</ele>
        <time>2013-07-12T13:15:06Z</time>
      </trkpt>
      <trkpt lat="44.86801" lon="5.78632">
        <ele>940</ele>
        <time>2013-07-12T13:15:10Z</time>
      </trkpt>
      <trkpt lat="44.86803" lon="5.78635">
        <ele>940</ele>
        <time>2013-07-12T13:15:12Z</time>
      </trkpt>
      <trkpt lat="44.86806" lon="5.78645">
        <ele>942</ele>
        <time>2013-07-12T13:15:17Z</time>
      </trkpt>
      <trkpt lat="44.86808" lon="5.78668">
        <ele>945</ele>
        <time>2013-07-12T13:15:29Z</time>
      </trkpt>
      <trkpt lat="44.86808" lon="5.78677">
        <ele>947</ele>
        <time>2013-07-12T13:15:34Z</time>
      </trkpt>
      <trkpt lat="44.86805" lon="5.78703">
        <ele>950</ele>
        <time>2013-07-12T13:15:46Z</time>
      </trkpt>
      <trkpt lat="44.86803" lon="5.78727">
        <ele>954</ele>
        <time>2013-07-12T13:16:00Z</time>
      </trkpt>
      <trkpt lat="44.86803" lon="5.78734">
        <ele>954</ele>
        <time>2013-07-12T13:16:05Z</time>
      </trkpt>
      <trkpt lat="44.86803" lon="5.78761">
        <ele>957</ele>
        <time>2013-07-12T13:16:20Z</time>
      </trkpt>
      <trkpt lat="44.86811" lon="5.78782">
        <ele>958</ele>
        <time>2013-07-12T13:16:35Z</time>
      </trkpt>
      <trkpt lat="44.86814" lon="5.7879">
        <ele>959</ele>
        <time>2013-07-12T13:16:40Z</time>
      </trkpt>
      <trkpt lat="44.86822" lon="5.78804">
        <ele>959</ele>
        <time>2013-07-12T13:16:50Z</time>
      </trkpt>
      <trkpt lat="44.86825" lon="5.78814">
        <ele>958</ele>
        <time>2013-07-12T13:17:07Z</time>
      </trkpt>
      <trkpt lat="44.86825" lon="5.78814">
        <ele>958</ele>
        <time>2013-07-12T13:17:31Z</time>
      </trkpt>
      <trkpt lat="44.86826" lon="5.78815">
        <ele>958</ele>
        <time>2013-07-12T13:17:51Z</time>
      </trkpt>
      <trkpt lat="44.86826" lon="5.78815">
        <ele>958</ele>
        <time>2013-07-12T13:18:15Z</time>
      </trkpt>
      <trkpt lat="44.86827" lon="5.78812">
        <ele>958</ele>
        <time>2013-07-12T13:18:34Z</time>
      </trkpt>
      <trkpt lat="44.8683" lon="5.78812">
        <ele>958</ele>
        <time>2013-07-12T13:18:36Z</time>
      </trkpt>
      <trkpt lat="44.86835" lon="5.78816">
        <ele>957</ele>
        <time>2013-07-12T13:18:40Z</time>
      </trkpt>
      <trkpt lat="44.86838" lon="5.7883">
        <ele>958</ele>
        <time>2013-07-12T13:18:54Z</time>
      </trkpt>
      <trkpt lat="44.8684" lon="5.78835">
        <ele>958</ele>
        <time>2013-07-12T13:18:57Z</time>
      </trkpt>
      <trkpt lat="44.86848" lon="5.78851">
        <ele>958</ele>
        <time>2013-07-12T13:19:07Z</time>
      </trkpt>
      <trkpt lat="44.86853" lon="5.78859">
        <ele>958</ele>
        <time>2013-07-12T13:19:12Z</time>
      </trkpt>
      <trkpt lat="44.86867" lon="5.78886">
        <ele>958</ele>
        <time>2013-07-12T13:19:29Z</time>
      </trkpt>
      <trkpt lat="44.86884" lon="5.78918">
        <ele>957</ele>
        <time>2013-07-12T13:19:45Z</time>
      </trkpt>
      <trkpt lat="44.86893" lon="5.78932">
        <ele>956</ele>
        <time>2013-07-12T13:19:54Z</time>
      </trkpt>
      <trkpt lat="44.86896" lon="5.78939">
        <ele>956</ele>
        <time>2013-07-12T13:19:59Z</time>
      </trkpt>
      <trkpt lat="44.86907" lon="5.78959">
        <ele>955</ele>
        <time>2013-07-12T13:20:12Z</time>
      </trkpt>
      <trkpt lat="44.86915" lon="5.78969">
        <ele>953</ele>
        <time>2013-07-12T13:20:20Z</time>
      </trkpt>
      <trkpt lat="44.86924" lon="5.78984">
        <ele>952</ele>
        <time>2013-07-12T13:20:30Z</time>
      </trkpt>
      <trkpt lat="44.86928" lon="5.78992">
        <ele>952</ele>
        <time>2013-07-12T13:20:35Z</time>
      </trkpt>
      <trkpt lat="44.86939" lon="5.79006">
        <ele>949</ele>
        <time>2013-07-12T13:20:48Z</time>
      </trkpt>
      <trkpt lat="44.8694" lon="5.79006">
        <ele>949</ele>
        <time>2013-07-12T13:20:52Z</time>
      </trkpt>
      <trkpt lat="44.86949" lon="5.79015">
        <ele>948</ele>
        <time>2013-07-12T13:21:00Z</time>
      </trkpt>
      <trkpt lat="44.86955" lon="5.79026">
        <ele>947</ele>
        <time>2013-07-12T13:21:07Z</time>
      </trkpt>
      <trkpt lat="44.86959" lon="5.79031">
        <ele>945</ele>
        <time>2013-07-12T13:21:11Z</time>
      </trkpt>
      <trkpt lat="44.86963" lon="5.79037">
        <ele>945</ele>
        <time>2013-07-12T13:21:15Z</time>
      </trkpt>
      <trkpt lat="44.8697" lon="5.7905">
        <ele>943</ele>
        <time>2013-07-12T13:21:21Z</time>
      </trkpt>
      <trkpt lat="44.86971" lon="5.79062">
        <ele>943</ele>
        <time>2013-07-12T13:21:28Z</time>
      </trkpt>
      <trkpt lat="44.86973" lon="5.79075">
        <ele>944</ele>
        <time>2013-07-12T13:21:34Z</time>
      </trkpt>
      <trkpt lat="44.86982" lon="5.79096">
        <ele>941</ele>
        <time>2013-07-12T13:21:48Z</time>
      </trkpt>
      <trkpt lat="44.86986" lon="5.79101">
        <ele>940</ele>
        <time>2013-07-12T13:21:51Z</time>
      </trkpt>
      <trkpt lat="44.86997" lon="5.7912">
        <ele>939</ele>
        <time>2013-07-12T13:22:03Z</time>
      </trkpt>
      <trkpt lat="44.87001" lon="5.79129">
        <ele>937</ele>
        <time>2013-07-12T13:22:09Z</time>
      </trkpt>
      <trkpt lat="44.8701" lon="5.79151">
        <ele>936</ele>
        <time>2013-07-12T13:22:23Z</time>
      </trkpt>
      <trkpt lat="44.87015" lon="5.79161">
        <ele>935</ele>
        <time>2013-07-12T13:22:29Z</time>
      </trkpt>
      <trkpt lat="44.87018" lon="5.79167">
        <ele>934</ele>
        <time>2013-07-12T13:22:34Z</time>
      </trkpt>
      <trkpt lat="44.87024" lon="5.79185">
        <ele>932</ele>
        <time>2013-07-12T13:22:46Z</time>
      </trkpt>
      <trkpt lat="44.8703" lon="5.79197">
        <ele>931</ele>
        <time>2013-07-12T13:22:52Z</time>
      </trkpt>
      <trkpt lat="44.87037" lon="5.79207">
        <ele>930</ele>
        <time>2013-07-12T13:22:58Z</time>
      </trkpt>
      <trkpt lat="44.87042" lon="5.79217">
        <ele>930</ele>
        <time>2013-07-12T13:23:03Z</time>
      </trkpt>
      <trkpt lat="44.87048" lon="5.7923">
        <ele>928</ele>
        <time>2013-07-12T13:23:10Z</time>
      </trkpt>
      <trkpt lat="44.87049" lon="5.79239">
        <ele>928</ele>
        <time>2013-07-12T13:23:15Z</time>
      </trkpt>
      <trkpt lat="44.87047" lon="5.79248">
        <ele>927</ele>
        <time>2013-07-12T13:23:21Z</time>
      </trkpt>
      <trkpt lat="44.87044" lon="5.79259">
        <ele>925</ele>
        <time>2013-07-12T13:23:30Z</time>
      </trkpt>
      <trkpt lat="44.87044" lon="5.79263">
        <ele>924</ele>
        <time>2013-07-12T13:23:32Z</time>
      </trkpt>
      <trkpt lat="44.87047" lon="5.79267">
        <ele>923</ele>
        <time>2013-07-12T13:23:35Z</time>
      </trkpt>
      <trkpt lat="44.87063" lon="5.79274">
        <ele>921</ele>
        <time>2013-07-12T13:23:48Z</time>
      </trkpt>
      <trkpt lat="44.87066" lon="5.79272">
        <ele>920</ele>
        <time>2013-07-12T13:23:50Z</time>
      </trkpt>
      <trkpt lat="44.87067" lon="5.79271">
        <ele>921</ele>
        <time>2013-07-12T13:23:51Z</time>
      </trkpt>
      <trkpt lat="44.87072" lon="5.7925">
        <ele>919</ele>
        <time>2013-07-12T13:24:04Z</time>
      </trkpt>
      <trkpt lat="44.87072" lon="5.79243">
        <ele>918</ele>
        <time>2013-07-12T13:24:08Z</time>
      </trkpt>
      <trkpt lat="44.87073" lon="5.79235">
        <ele>917</ele>
        <time>2013-07-12T13:24:12Z</time>
      </trkpt>
      <trkpt lat="44.87077" lon="5.79222">
        <ele>915</ele>
        <time>2013-07-12T13:24:20Z</time>
      </trkpt>
      <trkpt lat="44.87084" lon="5.79213">
        <ele>913</ele>
        <time>2013-07-12T13:24:34Z</time>
      </trkpt>
      <trkpt lat="44.87089" lon="5.79223">
        <ele>912</ele>
        <time>2013-07-12T13:24:41Z</time>
      </trkpt>
      <trkpt lat="44.8709" lon="5.79226">
        <ele>911</ele>
        <time>2013-07-12T13:24:43Z</time>
      </trkpt>
      <trkpt lat="44.87091" lon="5.79235">
        <ele>910</ele>
        <time>2013-07-12T13:24:50Z</time>
      </trkpt>
      <trkpt lat="44.87094" lon="5.79244">
        <ele>909</ele>
        <time>2013-07-12T13:24:55Z</time>
      </trkpt>
      <trkpt lat="44.87098" lon="5.79254">
        <ele>908</ele>
        <time>2013-07-12T13:25:03Z</time>
      </trkpt>
      <trkpt lat="44.871" lon="5.79257">
        <ele>907</ele>
        <time>2013-07-12T13:25:05Z</time>
      </trkpt>
      <trkpt lat="44.87113" lon="5.79281">
        <ele>904</ele>
        <time>2013-07-12T13:25:21Z</time>
      </trkpt>
      <trkpt lat="44.87116" lon="5.79307">
        <ele>902</ele>
        <time>2013-07-12T13:25:31Z</time>
      </trkpt>
      <trkpt lat="44.8712" lon="5.79337">
        <ele>904</ele>
        <time>2013-07-12T13:25:45Z</time>
      </trkpt>
      <trkpt lat="44.87117" lon="5.79354">
        <ele>904</ele>
        <time>2013-07-12T13:25:56Z</time>
      </trkpt>
      <trkpt lat="44.87098" lon="5.79359">
        <ele>903</ele>
        <time>2013-07-12T13:26:11Z</time>
      </trkpt>
      <trkpt lat="44.87077" lon="5.7935">
        <ele>903</ele>
        <time>2013-07-12T13:26:25Z</time>
      </trkpt>
      <trkpt lat="44.87061" lon="5.79344">
        <ele>904</ele>
        <time>2013-07-12T13:26:35Z</time>
      </trkpt>
      <trkpt lat="44.87056" lon="5.79338">
        <ele>904</ele>
        <time>2013-07-12T13:26:40Z</time>
      </trkpt>
      <trkpt lat="44.8705" lon="5.79332">
        <ele>905</ele>
        <time>2013-07-12T13:26:45Z</time>
      </trkpt>
      <trkpt lat="44.87023" lon="5.79314">
        <ele>906</ele>
        <time>2013-07-12T13:26:56Z</time>
      </trkpt>
      <trkpt lat="44.87003" lon="5.79299">
        <ele>908</ele>
        <time>2013-07-12T13:27:04Z</time>
      </trkpt>
      <trkpt lat="44.86987" lon="5.79289">
        <ele>908</ele>
        <time>2013-07-12T13:27:11Z</time>
      </trkpt>
      <trkpt lat="44.86959" lon="5.79265">
        <ele>910</ele>
        <time>2013-07-12T13:27:22Z</time>
      </trkpt>
      <trkpt lat="44.86936" lon="5.7924">
        <ele>912</ele>
        <time>2013-07-12T13:27:31Z</time>
      </trkpt>
      <trkpt lat="44.86907" lon="5.79205">
        <ele>912</ele>
        <time>2013-07-12T13:27:41Z</time>
      </trkpt>
      <trkpt lat="44.86882" lon="5.79176">
        <ele>914</ele>
        <time>2013-07-12T13:27:51Z</time>
      </trkpt>
      <trkpt lat="44.86856" lon="5.79145">
        <ele>915</ele>
        <time>2013-07-12T13:28:00Z</time>
      </trkpt>
      <trkpt lat="44.86826" lon="5.79118">
        <ele>917</ele>
        <time>2013-07-12T13:28:11Z</time>
      </trkpt>
      <trkpt lat="44.86803" lon="5.79094">
        <ele>918</ele>
        <time>2013-07-12T13:28:22Z</time>
      </trkpt>
      <trkpt lat="44.8677" lon="5.79091">
        <ele>917</ele>
        <time>2013-07-12T13:28:32Z</time>
      </trkpt>
      <trkpt lat="44.86737" lon="5.79083">
        <ele>917</ele>
        <time>2013-07-12T13:28:42Z</time>
      </trkpt>
      <trkpt lat="44.86705" lon="5.79076">
        <ele>916</ele>
        <time>2013-07-12T13:28:52Z</time>
      </trkpt>
      <trkpt lat="44.86668" lon="5.79077">
        <ele>915</ele>
        <time>2013-07-12T13:29:01Z</time>
      </trkpt>
      <trkpt lat="44.86646" lon="5.79089">
        <ele>918</ele>
        <time>2013-07-12T13:29:07Z</time>
      </trkpt>
      <trkpt lat="44.86627" lon="5.79094">
        <ele>920</ele>
        <time>2013-07-12T13:29:12Z</time>
      </trkpt>
      <trkpt lat="44.86612" lon="5.79096">
        <ele>922</ele>
        <time>2013-07-12T13:29:15Z</time>
      </trkpt>
      <trkpt lat="44.86607" lon="5.79096">
        <ele>922</ele>
        <time>2013-07-12T13:29:16Z</time>
      </trkpt>
      <trkpt lat="44.86603" lon="5.79096">
        <ele>923</ele>
        <time>2013-07-12T13:29:17Z</time>
      </trkpt>
      <trkpt lat="44.86599" lon="5.79097">
        <ele>923</ele>
        <time>2013-07-12T13:29:18Z</time>
      </trkpt>
      <trkpt lat="44.86594" lon="5.79097">
        <ele>923</ele>
        <time>2013-07-12T13:29:19Z</time>
      </trkpt>
      <trkpt lat="44.86589" lon="5.79097">
        <ele>923</ele>
        <time>2013-07-12T13:29:20Z</time>
      </trkpt>
      <trkpt lat="44.86584" lon="5.79097">
        <ele>923</ele>
        <time>2013-07-12T13:29:21Z</time>
      </trkpt>
      <trkpt lat="44.86568" lon="5.79096">
        <ele>926</ele>
        <time>2013-07-12T13:29:24Z</time>
      </trkpt>
      <trkpt lat="44.86557" lon="5.79098">
        <ele>926</ele>
        <time>2013-07-12T13:29:26Z</time>
      </trkpt>
      <trkpt lat="44.86552" lon="5.791">
        <ele>927</ele>
        <time>2013-07-12T13:29:27Z</time>
      </trkpt>
      <trkpt lat="44.86547" lon="5.79102">
        <ele>927</ele>
        <time>2013-07-12T13:29:28Z</time>
      </trkpt>
      <trkpt lat="44.86542" lon="5.79106">
        <ele>928</ele>
        <time>2013-07-12T13:29:29Z</time>
      </trkpt>
      <trkpt lat="44.86537" lon="5.7911">
        <ele>929</ele>
        <time>2013-07-12T13:29:30Z</time>
      </trkpt>
      <trkpt lat="44.86521" lon="5.79121">
        <ele>930</ele>
        <time>2013-07-12T13:29:33Z</time>
      </trkpt>
      <trkpt lat="44.86515" lon="5.79123">
        <ele>931</ele>
        <time>2013-07-12T13:29:34Z</time>
      </trkpt>
      <trkpt lat="44.86508" lon="5.79123">
        <ele>931</ele>
        <time>2013-07-12T13:29:35Z</time>
      </trkpt>
      <trkpt lat="44.86502" lon="5.79123">
        <ele>932</ele>
        <time>2013-07-12T13:29:36Z</time>
      </trkpt>
      <trkpt lat="44.86495" lon="5.79121">
        <ele>935</ele>
        <time>2013-07-12T13:29:37Z</time>
      </trkpt>
      <trkpt lat="44.86488" lon="5.79119">
        <ele>935</ele>
        <time>2013-07-12T13:29:38Z</time>
      </trkpt>
      <trkpt lat="44.86481" lon="5.79117">
        <ele>935</ele>
        <time>2013-07-12T13:29:39Z</time>
      </trkpt>
      <trkpt lat="44.86469" lon="5.79113">
        <ele>936</ele>
        <time>2013-07-12T13:29:41Z</time>
      </trkpt>
      <trkpt lat="44.86439" lon="5.79102">
        <ele>939</ele>
        <time>2013-07-12T13:29:46Z</time>
      </trkpt>
      <trkpt lat="44.86421" lon="5.79094">
        <ele>940</ele>
        <time>2013-07-12T13:29:49Z</time>
      </trkpt>
      <trkpt lat="44.86416" lon="5.79091">
        <ele>941</ele>
        <time>2013-07-12T13:29:50Z</time>
      </trkpt>
      <trkpt lat="44.86357" lon="5.79054">
        <ele>944</ele>
        <time>2013-07-12T13:30:00Z</time>
      </trkpt>
      <trkpt lat="44.86346" lon="5.79047">
        <ele>945</ele>
        <time>2013-07-12T13:30:02Z</time>
      </trkpt>
      <trkpt lat="44.86337" lon="5.79041">
        <ele>945</ele>
        <time>2013-07-12T13:30:04Z</time>
      </trkpt>
      <trkpt lat="44.86333" lon="5.79039">
        <ele>945</ele>
        <time>2013-07-12T13:30:05Z</time>
      </trkpt>
      <trkpt lat="44.86329" lon="5.79037">
        <ele>945</ele>
        <time>2013-07-12T13:30:06Z</time>
      </trkpt>
      <trkpt lat="44.86304" lon="5.7903">
        <ele>943</ele>
        <time>2013-07-12T13:30:16Z</time>
      </trkpt>
      <trkpt lat="44.86294" lon="5.79029">
        <ele>942</ele>
        <time>2013-07-12T13:30:21Z</time>
      </trkpt>
      <trkpt lat="44.86293" lon="5.79029">
        <ele>942</ele>
        <time>2013-07-12T13:30:22Z</time>
      </trkpt>
      <trkpt lat="44.8629" lon="5.79029">
        <ele>942</ele>
        <time>2013-07-12T13:30:24Z</time>
      </trkpt>
      <trkpt lat="44.86288" lon="5.79029">
        <ele>942</ele>
        <time>2013-07-12T13:30:25Z</time>
      </trkpt>
      <trkpt lat="44.86257" lon="5.79032">
        <ele>942</ele>
        <time>2013-07-12T13:30:42Z</time>
      </trkpt>
      <trkpt lat="44.86239" lon="5.79034">
        <ele>942</ele>
        <time>2013-07-12T13:30:54Z</time>
      </trkpt>
      <trkpt lat="44.86217" lon="5.7903">
        <ele>942</ele>
        <time>2013-07-12T13:31:06Z</time>
      </trkpt>
      <trkpt lat="44.86199" lon="5.79029">
        <ele>941</ele>
        <time>2013-07-12T13:31:17Z</time>
      </trkpt>
      <trkpt lat="44.86193" lon="5.7903">
        <ele>942</ele>
        <time>2013-07-12T13:31:20Z</time>
      </trkpt>
      <trkpt lat="44.86177" lon="5.79027">
        <ele>942</ele>
        <time>2013-07-12T13:31:30Z</time>
      </trkpt>
      <trkpt lat="44.86174" lon="5.79028">
        <ele>941</ele>
        <time>2013-07-12T13:31:32Z</time>
      </trkpt>
      <trkpt lat="44.86162" lon="5.79027">
        <ele>943</ele>
        <time>2013-07-12T13:31:41Z</time>
      </trkpt>
      <trkpt lat="44.86149" lon="5.79023">
        <ele>943</ele>
        <time>2013-07-12T13:31:52Z</time>
      </trkpt>
      <trkpt lat="44.86135" lon="5.79019">
        <ele>944</ele>
        <time>2013-07-12T13:32:02Z</time>
      </trkpt>
      <trkpt lat="44.86134" lon="5.79019">
        <ele>944</ele>
        <time>2013-07-12T13:32:03Z</time>
      </trkpt>
      <trkpt lat="44.86132" lon="5.79019">
        <ele>944</ele>
        <time>2013-07-12T13:32:04Z</time>
      </trkpt>
      <trkpt lat="44.86131" lon="5.79018">
        <ele>944</ele>
        <time>2013-07-12T13:32:05Z</time>
      </trkpt>
      <trkpt lat="44.86129" lon="5.79018">
        <ele>944</ele>
        <time>2013-07-12T13:32:06Z</time>
      </trkpt>
      <trkpt lat="44.86127" lon="5.79017">
        <ele>944</ele>
        <time>2013-07-12T13:32:07Z</time>
      </trkpt>
      <trkpt lat="44.86125" lon="5.79016">
        <ele>944</ele>
        <time>2013-07-12T13:32:08Z</time>
      </trkpt>
      <trkpt lat="44.86124" lon="5.79015">
        <ele>945</ele>
        <time>2013-07-12T13:32:09Z</time>
      </trkpt>
      <trkpt lat="44.86123" lon="5.79015">
        <ele>945</ele>
        <time>2013-07-12T13:32:10Z</time>
      </trkpt>
      <trkpt lat="44.86121" lon="5.79014">
        <ele>945</ele>
        <time>2013-07-12T13:32:11Z</time>
      </trkpt>
      <trkpt lat="44.86104" lon="5.79008">
        <ele>945</ele>
        <time>2013-07-12T13:32:25Z</time>
      </trkpt>
      <trkpt lat="44.86096" lon="5.79005">
        <ele>945</ele>
        <time>2013-07-12T13:32:32Z</time>
      </trkpt>
      <trkpt lat="44.86094" lon="5.79005">
        <ele>945</ele>
        <time>2013-07-12T13:32:33Z</time>
      </trkpt>
      <trkpt lat="44.86093" lon="5.79004">
        <ele>945</ele>
        <time>2013-07-12T13:32:34Z</time>
      </trkpt>
      <trkpt lat="44.86073" lon="5.78998">
        <ele>946</ele>
        <time>2013-07-12T13:32:46Z</time>
      </trkpt>
      <trkpt lat="44.86061" lon="5.78996">
        <ele>946</ele>
        <time>2013-07-12T13:32:53Z</time>
      </trkpt>
      <trkpt lat="44.86049" lon="5.78995">
        <ele>946</ele>
        <time>2013-07-12T13:32:59Z</time>
      </trkpt>
      <trkpt lat="44.86048" lon="5.78994">
        <ele>946</ele>
        <time>2013-07-12T13:33:00Z</time>
      </trkpt>
      <trkpt lat="44.86046" lon="5.78994">
        <ele>946</ele>
        <time>2013-07-12T13:33:01Z</time>
      </trkpt>
      <trkpt lat="44.86033" lon="5.78993">
        <ele>945</ele>
        <time>2013-07-12T13:33:10Z</time>
      </trkpt>
      <trkpt lat="44.86031" lon="5.78991">
        <ele>945</ele>
        <time>2013-07-12T13:33:11Z</time>
      </trkpt>
      <trkpt lat="44.86029" lon="5.78991">
        <ele>945</ele>
        <time>2013-07-12T13:33:12Z</time>
      </trkpt>
      <trkpt lat="44.86028" lon="5.78991">
        <ele>945</ele>
        <time>2013-07-12T13:33:13Z</time>
      </trkpt>
      <trkpt lat="44.86026" lon="5.78991">
        <ele>945</ele>
        <time>2013-07-12T13:33:14Z</time>
      </trkpt>
      <trkpt lat="44.86024" lon="5.78991">
        <ele>945</ele>
        <time>2013-07-12T13:33:15Z</time>
      </trkpt>
      <trkpt lat="44.86022" lon="5.78991">
        <ele>945</ele>
        <time>2013-07-12T13:33:16Z</time>
      </trkpt>
      <trkpt lat="44.8602" lon="5.78992">
        <ele>945</ele>
        <time>2013-07-12T13:33:17Z</time>
      </trkpt>
      <trkpt lat="44.86018" lon="5.78992">
        <ele>945</ele>
        <time>2013-07-12T13:33:18Z</time>
      </trkpt>
      <trkpt lat="44.86016" lon="5.78991">
        <ele>945</ele>
        <time>2013-07-12T13:33:19Z</time>
      </trkpt>
      <trkpt lat="44.86015" lon="5.78991">
        <ele>945</ele>
        <time>2013-07-12T13:33:20Z</time>
      </trkpt>
      <trkpt lat="44.86013" lon="5.78991">
        <ele>945</ele>
        <time>2013-07-12T13:33:21Z</time>
      </trkpt>
      <trkpt lat="44.85996" lon="5.78993">
        <ele>945</ele>
        <time>2013-07-12T13:33:30Z</time>
      </trkpt>
      <trkpt lat="44.85995" lon="5.78994">
        <ele>945</ele>
        <time>2013-07-12T13:33:31Z</time>
      </trkpt>
      <trkpt lat="44.85993" lon="5.78994">
        <ele>945</ele>
        <time>2013-07-12T13:33:32Z</time>
      </trkpt>
      <trkpt lat="44.85991" lon="5.78995">
        <ele>945</ele>
        <time>2013-07-12T13:33:33Z</time>
      </trkpt>
      <trkpt lat="44.8599" lon="5.78994">
        <ele>945</ele>
        <time>2013-07-12T13:33:34Z</time>
      </trkpt>
      <trkpt lat="44.85988" lon="5.78994">
        <ele>945</ele>
        <time>2013-07-12T13:33:35Z</time>
      </trkpt>
      <trkpt lat="44.85971" lon="5.7899">
        <ele>946</ele>
        <time>2013-07-12T13:33:45Z</time>
      </trkpt>
      <trkpt lat="44.85969" lon="5.78992">
        <ele>946</ele>
        <time>2013-07-12T13:33:46Z</time>
      </trkpt>
      <trkpt lat="44.85966" lon="5.78992">
        <ele>946</ele>
        <time>2013-07-12T13:33:47Z</time>
      </trkpt>
      <trkpt lat="44.85964" lon="5.78993">
        <ele>946</ele>
        <time>2013-07-12T13:33:48Z</time>
      </trkpt>
      <trkpt lat="44.85963" lon="5.78993">
        <ele>945</ele>
        <time>2013-07-12T13:33:49Z</time>
      </trkpt>
      <trkpt lat="44.85962" lon="5.78992">
        <ele>946</ele>
        <time>2013-07-12T13:33:50Z</time>
      </trkpt>
      <trkpt lat="44.8596" lon="5.78991">
        <ele>946</ele>
        <time>2013-07-12T13:33:51Z</time>
      </trkpt>
      <trkpt lat="44.85958" lon="5.78989">
        <ele>946</ele>
        <time>2013-07-12T13:33:52Z</time>
      </trkpt>
      <trkpt lat="44.85956" lon="5.78989">
        <ele>946</ele>
        <time>2013-07-12T13:33:53Z</time>
      </trkpt>
      <trkpt lat="44.85954" lon="5.7899">
        <ele>946</ele>
        <time>2013-07-12T13:33:54Z</time>
      </trkpt>
      <trkpt lat="44.85951" lon="5.7899">
        <ele>946</ele>
        <time>2013-07-12T13:33:56Z</time>
      </trkpt>
      <trkpt lat="44.85938" lon="5.78982">
        <ele>947</ele>
        <time>2013-07-12T13:34:07Z</time>
      </trkpt>
      <trkpt lat="44.85922" lon="5.78978">
        <ele>947</ele>
        <time>2013-07-12T13:34:17Z</time>
      </trkpt>
      <trkpt lat="44.85904" lon="5.78973">
        <ele>947</ele>
        <time>2013-07-12T13:34:28Z</time>
      </trkpt>
      <trkpt lat="44.859" lon="5.78969">
        <ele>948</ele>
        <time>2013-07-12T13:34:34Z</time>
      </trkpt>
      <trkpt lat="44.85884" lon="5.78961">
        <ele>947</ele>
        <time>2013-07-12T13:34:47Z</time>
      </trkpt>
      <trkpt lat="44.85872" lon="5.78956">
        <ele>946</ele>
        <time>2013-07-12T13:34:57Z</time>
      </trkpt>
      <trkpt lat="44.8585" lon="5.78956">
        <ele>946</ele>
        <time>2013-07-12T13:35:11Z</time>
      </trkpt>
      <trkpt lat="44.85835" lon="5.78952">
        <ele>946</ele>
        <time>2013-07-12T13:35:23Z</time>
      </trkpt>
      <trkpt lat="44.8581" lon="5.78949">
        <ele>945</ele>
        <time>2013-07-12T13:35:38Z</time>
      </trkpt>
      <trkpt lat="44.85805" lon="5.78945">
        <ele>945</ele>
        <time>2013-07-12T13:35:42Z</time>
      </trkpt>
      <trkpt lat="44.85788" lon="5.78936">
        <ele>944</ele>
        <time>2013-07-12T13:35:55Z</time>
      </trkpt>
      <trkpt lat="44.85782" lon="5.78929">
        <ele>944</ele>
        <time>2013-07-12T13:36:00Z</time>
      </trkpt>
      <trkpt lat="44.85775" lon="5.78924">
        <ele>944</ele>
        <time>2013-07-12T13:36:05Z</time>
      </trkpt>
      <trkpt lat="44.85771" lon="5.78921">
        <ele>944</ele>
        <time>2013-07-12T13:36:08Z</time>
      </trkpt>
      <trkpt lat="44.85764" lon="5.78913">
        <ele>944</ele>
        <time>2013-07-12T13:36:14Z</time>
      </trkpt>
      <trkpt lat="44.8575" lon="5.78907">
        <ele>943</ele>
        <time>2013-07-12T13:36:26Z</time>
      </trkpt>
      <trkpt lat="44.85737" lon="5.789">
        <ele>942</ele>
        <time>2013-07-12T13:36:35Z</time>
      </trkpt>
      <trkpt lat="44.85722" lon="5.78905">
        <ele>942</ele>
        <time>2013-07-12T13:36:47Z</time>
      </trkpt>
      <trkpt lat="44.85708" lon="5.78911">
        <ele>942</ele>
        <time>2013-07-12T13:36:59Z</time>
      </trkpt>
      <trkpt lat="44.8569" lon="5.78918">
        <ele>941</ele>
        <time>2013-07-12T13:37:13Z</time>
      </trkpt>
      <trkpt lat="44.85679" lon="5.78925">
        <ele>940</ele>
        <time>2013-07-12T13:37:22Z</time>
      </trkpt>
      <trkpt lat="44.85675" lon="5.78925">
        <ele>940</ele>
        <time>2013-07-12T13:37:26Z</time>
      </trkpt>
      <trkpt lat="44.85673" lon="5.78926">
        <ele>941</ele>
        <time>2013-07-12T13:37:28Z</time>
      </trkpt>
      <trkpt lat="44.85656" lon="5.78938">
        <ele>940</ele>
        <time>2013-07-12T13:37:43Z</time>
      </trkpt>
      <trkpt lat="44.85637" lon="5.78952">
        <ele>939</ele>
        <time>2013-07-12T13:37:58Z</time>
      </trkpt>
      <trkpt lat="44.85621" lon="5.78963">
        <ele>940</ele>
        <time>2013-07-12T13:38:10Z</time>
      </trkpt>
      <trkpt lat="44.85604" lon="5.78975">
        <ele>940</ele>
        <time>2013-07-12T13:38:24Z</time>
      </trkpt>
      <trkpt lat="44.85594" lon="5.7898">
        <ele>939</ele>
        <time>2013-07-12T13:38:32Z</time>
      </trkpt>
      <trkpt lat="44.85577" lon="5.78993">
        <ele>940</ele>
        <time>2013-07-12T13:38:45Z</time>
      </trkpt>
      <trkpt lat="44.8556" lon="5.79002">
        <ele>940</ele>
        <time>2013-07-12T13:38:57Z</time>
      </trkpt>
      <trkpt lat="44.85541" lon="5.79009">
        <ele>940</ele>
        <time>2013-07-12T13:39:09Z</time>
      </trkpt>
      <trkpt lat="44.85522" lon="5.79009">
        <ele>940</ele>
        <time>2013-07-12T13:39:22Z</time>
      </trkpt>
      <trkpt lat="44.85512" lon="5.79009">
        <ele>941</ele>
        <time>2013-07-12T13:39:29Z</time>
      </trkpt>
      <trkpt lat="44.85497" lon="5.79009">
        <ele>941</ele>
        <time>2013-07-12T13:39:38Z</time>
      </trkpt>
      <trkpt lat="44.85482" lon="5.79006">
        <ele>943</ele>
        <time>2013-07-12T13:39:49Z</time>
      </trkpt>
      <trkpt lat="44.8547" lon="5.79004">
        <ele>943</ele>
        <time>2013-07-12T13:39:57Z</time>
      </trkpt>
      <trkpt lat="44.85467" lon="5.79003">
        <ele>943</ele>
        <time>2013-07-12T13:40:00Z</time>
      </trkpt>
      <trkpt lat="44.85462" lon="5.79003">
        <ele>943</ele>
        <time>2013-07-12T13:40:05Z</time>
      </trkpt>
      <trkpt lat="44.85445" lon="5.79003">
        <ele>944</ele>
        <time>2013-07-12T13:40:18Z</time>
      </trkpt>
      <trkpt lat="44.85421" lon="5.79008">
        <ele>944</ele>
        <time>2013-07-12T13:40:32Z</time>
      </trkpt>
      <trkpt lat="44.85408" lon="5.7901">
        <ele>944</ele>
        <time>2013-07-12T13:40:39Z</time>
      </trkpt>
      <trkpt lat="44.85396" lon="5.79008">
        <ele>945</ele>
        <time>2013-07-12T13:40:48Z</time>
      </trkpt>
      <trkpt lat="44.85377" lon="5.78998">
        <ele>945</ele>
        <time>2013-07-12T13:41:00Z</time>
      </trkpt>
      <trkpt lat="44.85358" lon="5.78996">
        <ele>946</ele>
        <time>2013-07-12T13:41:16Z</time>
      </trkpt>
      <trkpt lat="44.85342" lon="5.78994">
        <ele>948</ele>
        <time>2013-07-12T13:41:29Z</time>
      </trkpt>
      <trkpt lat="44.85341" lon="5.78994">
        <ele>944</ele>
        <time>2013-07-12T13:41:30Z</time>
      </trkpt>
      <trkpt lat="44.85334" lon="5.78997">
        <ele>946</ele>
        <time>2013-07-12T13:41:36Z</time>
      </trkpt>
      <trkpt lat="44.85331" lon="5.78997">
        <ele>946</ele>
        <time>2013-07-12T13:41:39Z</time>
      </trkpt>
      <trkpt lat="44.85323" lon="5.79004">
        <ele>946</ele>
        <time>2013-07-12T13:41:47Z</time>
      </trkpt>
      <trkpt lat="44.8532" lon="5.79007">
        <ele>945</ele>
        <time>2013-07-12T13:41:50Z</time>
      </trkpt>
      <trkpt lat="44.85302" lon="5.79019">
        <ele>945</ele>
        <time>2013-07-12T13:42:04Z</time>
      </trkpt>
      <trkpt lat="44.85286" lon="5.79027">
        <ele>944</ele>
        <time>2013-07-12T13:42:16Z</time>
      </trkpt>
      <trkpt lat="44.85285" lon="5.79029">
        <ele>944</ele>
        <time>2013-07-12T13:42:18Z</time>
      </trkpt>
      <trkpt lat="44.8528" lon="5.79029">
        <ele>944</ele>
        <time>2013-07-12T13:42:22Z</time>
      </trkpt>
      <trkpt lat="44.85274" lon="5.7903">
        <ele>943</ele>
        <time>2013-07-12T13:42:26Z</time>
      </trkpt>
      <trkpt lat="44.85258" lon="5.79035">
        <ele>942</ele>
        <time>2013-07-12T13:42:37Z</time>
      </trkpt>
      <trkpt lat="44.85241" lon="5.79036">
        <ele>941</ele>
        <time>2013-07-12T13:42:50Z</time>
      </trkpt>
      <trkpt lat="44.85129" lon="5.79052">
        <ele>951</ele>
        <time>2013-07-12T13:44:17Z</time>
      </trkpt>
      <trkpt lat="44.85127" lon="5.7905">
        <ele>950</ele>
        <time>2013-07-12T13:44:18Z</time>
      </trkpt>
      <trkpt lat="44.85125" lon="5.79049">
        <ele>950</ele>
        <time>2013-07-12T13:44:19Z</time>
      </trkpt>
      <trkpt lat="44.85119" lon="5.79047">
        <ele>947</ele>
        <time>2013-07-12T13:44:22Z</time>
      </trkpt>
      <trkpt lat="44.85117" lon="5.79046">
        <ele>950</ele>
        <time>2013-07-12T13:44:23Z</time>
      </trkpt>
      <trkpt lat="44.85107" lon="5.79047">
        <ele>949</ele>
        <time>2013-07-12T13:44:30Z</time>
      </trkpt>
      <trkpt lat="44.85088" lon="5.79056">
        <ele>952</ele>
        <time>2013-07-12T13:44:45Z</time>
      </trkpt>
      <trkpt lat="44.85075" lon="5.79047">
        <ele>949</ele>
        <time>2013-07-12T13:44:57Z</time>
      </trkpt>
      <trkpt lat="44.8507" lon="5.79046">
        <ele>947</ele>
        <time>2013-07-12T13:45:01Z</time>
      </trkpt>
      <trkpt lat="44.85061" lon="5.7905">
        <ele>942</ele>
        <time>2013-07-12T13:45:09Z</time>
      </trkpt>
      <trkpt lat="44.8506" lon="5.7905">
        <ele>942</ele>
        <time>2013-07-12T13:45:10Z</time>
      </trkpt>
      <trkpt lat="44.85054" lon="5.79051">
        <ele>939</ele>
        <time>2013-07-12T13:45:15Z</time>
      </trkpt>
      <trkpt lat="44.85048" lon="5.79051">
        <ele>938</ele>
        <time>2013-07-12T13:45:19Z</time>
      </trkpt>
      <trkpt lat="44.85037" lon="5.79065">
        <ele>936</ele>
        <time>2013-07-12T13:45:29Z</time>
      </trkpt>
      <trkpt lat="44.85016" lon="5.7908">
        <ele>933</ele>
        <time>2013-07-12T13:45:47Z</time>
      </trkpt>
      <trkpt lat="44.85016" lon="5.7908">
        <ele>933</ele>
        <time>2013-07-12T13:45:48Z</time>
      </trkpt>
      <trkpt lat="44.85011" lon="5.79088">
        <ele>933</ele>
        <time>2013-07-12T13:46:00Z</time>
      </trkpt>
      <trkpt lat="44.85008" lon="5.79087">
        <ele>933</ele>
        <time>2013-07-12T13:46:04Z</time>
      </trkpt>
      <trkpt lat="44.84991" lon="5.79079">
        <ele>934</ele>
        <time>2013-07-12T13:46:18Z</time>
      </trkpt>
      <trkpt lat="44.8497" lon="5.79072">
        <ele>936</ele>
        <time>2013-07-12T13:46:33Z</time>
      </trkpt>
      <trkpt lat="44.84956" lon="5.79073">
        <ele>936</ele>
        <time>2013-07-12T13:46:46Z</time>
      </trkpt>
      <trkpt lat="44.84956" lon="5.79074">
        <ele>936</ele>
        <time>2013-07-12T13:46:47Z</time>
      </trkpt>
      <trkpt lat="44.84955" lon="5.79076">
        <ele>937</ele>
        <time>2013-07-12T13:46:49Z</time>
      </trkpt>
      <trkpt lat="44.84955" lon="5.79081">
        <ele>936</ele>
        <time>2013-07-12T13:47:02Z</time>
      </trkpt>
      <trkpt lat="44.84956" lon="5.79083">
        <ele>935</ele>
        <time>2013-07-12T13:47:15Z</time>
      </trkpt>
      <trkpt lat="44.84956" lon="5.79094">
        <ele>934</ele>
        <time>2013-07-12T13:47:23Z</time>
      </trkpt>
      <trkpt lat="44.84954" lon="5.79106">
        <ele>933</ele>
        <time>2013-07-12T13:47:31Z</time>
      </trkpt>
      <trkpt lat="44.84954" lon="5.79125">
        <ele>931</ele>
        <time>2013-07-12T13:47:42Z</time>
      </trkpt>
      <trkpt lat="44.84953" lon="5.79131">
        <ele>931</ele>
        <time>2013-07-12T13:47:46Z</time>
      </trkpt>
      <trkpt lat="44.84952" lon="5.79135">
        <ele>930</ele>
        <time>2013-07-12T13:47:48Z</time>
      </trkpt>
      <trkpt lat="44.84952" lon="5.79142">
        <ele>930</ele>
        <time>2013-07-12T13:47:52Z</time>
      </trkpt>
      <trkpt lat="44.84947" lon="5.79153">
        <ele>928</ele>
        <time>2013-07-12T13:48:01Z</time>
      </trkpt>
      <trkpt lat="44.84939" lon="5.79178">
        <ele>926</ele>
        <time>2013-07-12T13:48:16Z</time>
      </trkpt>
      <trkpt lat="44.84928" lon="5.79192">
        <ele>925</ele>
        <time>2013-07-12T13:48:27Z</time>
      </trkpt>
      <trkpt lat="44.84925" lon="5.79201">
        <ele>924</ele>
        <time>2013-07-12T13:48:33Z</time>
      </trkpt>
      <trkpt lat="44.84921" lon="5.7921">
        <ele>923</ele>
        <time>2013-07-12T13:48:48Z</time>
      </trkpt>
      <trkpt lat="44.84917" lon="5.79216">
        <ele>922</ele>
        <time>2013-07-12T13:48:52Z</time>
      </trkpt>
      <trkpt lat="44.84915" lon="5.79221">
        <ele>921</ele>
        <time>2013-07-12T13:48:55Z</time>
      </trkpt>
      <trkpt lat="44.84912" lon="5.79225">
        <ele>921</ele>
        <time>2013-07-12T13:49:00Z</time>
      </trkpt>
      <trkpt lat="44.84906" lon="5.79234">
        <ele>919</ele>
        <time>2013-07-12T13:49:15Z</time>
      </trkpt>
      <trkpt lat="44.84898" lon="5.79243">
        <ele>918</ele>
        <time>2013-07-12T13:49:26Z</time>
      </trkpt>
      <trkpt lat="44.84887" lon="5.79264">
        <ele>916</ele>
        <time>2013-07-12T13:49:42Z</time>
      </trkpt>
      <trkpt lat="44.84882" lon="5.79281">
        <ele>914</ele>
        <time>2013-07-12T13:49:51Z</time>
      </trkpt>
      <trkpt lat="44.84876" lon="5.79299">
        <ele>911</ele>
        <time>2013-07-12T13:50:03Z</time>
      </trkpt>
      <trkpt lat="44.84871" lon="5.79317">
        <ele>908</ele>
        <time>2013-07-12T13:50:16Z</time>
      </trkpt>
      <trkpt lat="44.84868" lon="5.79336">
        <ele>906</ele>
        <time>2013-07-12T13:50:28Z</time>
      </trkpt>
      <trkpt lat="44.84866" lon="5.79344">
        <ele>905</ele>
        <time>2013-07-12T13:50:33Z</time>
      </trkpt>
      <trkpt lat="44.84863" lon="5.79357">
        <ele>903</ele>
        <time>2013-07-12T13:50:44Z</time>
      </trkpt>
      <trkpt lat="44.84856" lon="5.79369">
        <ele>901</ele>
        <time>2013-07-12T13:50:52Z</time>
      </trkpt>
      <trkpt lat="44.84853" lon="5.79383">
        <ele>900</ele>
        <time>2013-07-12T13:51:04Z</time>
      </trkpt>
      <trkpt lat="44.84842" lon="5.79397">
        <ele>899</ele>
        <time>2013-07-12T13:51:15Z</time>
      </trkpt>
      <trkpt lat="44.8484" lon="5.794">
        <ele>898</ele>
        <time>2013-07-12T13:51:19Z</time>
      </trkpt>
      <trkpt lat="44.84831" lon="5.79405">
        <ele>897</ele>
        <time>2013-07-12T13:51:30Z</time>
      </trkpt>
      <trkpt lat="44.84823" lon="5.79416">
        <ele>895</ele>
        <time>2013-07-12T13:51:37Z</time>
      </trkpt>
      <trkpt lat="44.84817" lon="5.79422">
        <ele>895</ele>
        <time>2013-07-12T13:51:44Z</time>
      </trkpt>
      <trkpt lat="44.84813" lon="5.79428">
        <ele>894</ele>
        <time>2013-07-12T13:51:49Z</time>
      </trkpt>
      <trkpt lat="44.84808" lon="5.79439">
        <ele>892</ele>
        <time>2013-07-12T13:51:57Z</time>
      </trkpt>
      <trkpt lat="44.84801" lon="5.79452">
        <ele>889</ele>
        <time>2013-07-12T13:52:07Z</time>
      </trkpt>
      <trkpt lat="44.84801" lon="5.7946">
        <ele>889</ele>
        <time>2013-07-12T13:52:11Z</time>
      </trkpt>
      <trkpt lat="44.84799" lon="5.79463">
        <ele>888</ele>
        <time>2013-07-12T13:52:13Z</time>
      </trkpt>
      <trkpt lat="44.84798" lon="5.79466">
        <ele>888</ele>
        <time>2013-07-12T13:52:16Z</time>
      </trkpt>
      <trkpt lat="44.8479" lon="5.79487">
        <ele>887</ele>
        <time>2013-07-12T13:52:29Z</time>
      </trkpt>
      <trkpt lat="44.84787" lon="5.79494">
        <ele>886</ele>
        <time>2013-07-12T13:52:35Z</time>
      </trkpt>
      <trkpt lat="44.84786" lon="5.79496">
        <ele>886</ele>
        <time>2013-07-12T13:52:37Z</time>
      </trkpt>
      <trkpt lat="44.84785" lon="5.79499">
        <ele>886</ele>
        <time>2013-07-12T13:52:39Z</time>
      </trkpt>
      <trkpt lat="44.84787" lon="5.79519">
        <ele>884</ele>
        <time>2013-07-12T13:52:52Z</time>
      </trkpt>
      <trkpt lat="44.84789" lon="5.79521">
        <ele>884</ele>
        <time>2013-07-12T13:52:54Z</time>
      </trkpt>
      <trkpt lat="44.8479" lon="5.79526">
        <ele>884</ele>
        <time>2013-07-12T13:52:57Z</time>
      </trkpt>
      <trkpt lat="44.84794" lon="5.79558">
        <ele>882</ele>
        <time>2013-07-12T13:53:14Z</time>
      </trkpt>
      <trkpt lat="44.84796" lon="5.79571">
        <ele>882</ele>
        <time>2013-07-12T13:53:21Z</time>
      </trkpt>
      <trkpt lat="44.84799" lon="5.79581">
        <ele>881</ele>
        <time>2013-07-12T13:53:25Z</time>
      </trkpt>
      <trkpt lat="44.84801" lon="5.79602">
        <ele>880</ele>
        <time>2013-07-12T13:53:37Z</time>
      </trkpt>
      <trkpt lat="44.84802" lon="5.79618">
        <ele>880</ele>
        <time>2013-07-12T13:53:45Z</time>
      </trkpt>
      <trkpt lat="44.848" lon="5.79628">
        <ele>880</ele>
        <time>2013-07-12T13:53:59Z</time>
      </trkpt>
      <trkpt lat="44.848" lon="5.79628">
        <ele>880</ele>
        <time>2013-07-12T13:54:21Z</time>
      </trkpt>
      <trkpt lat="44.84798" lon="5.79627">
        <ele>880</ele>
        <time>2013-07-12T13:54:29Z</time>
      </trkpt>
      <trkpt lat="44.848" lon="5.79626">
        <ele>880</ele>
        <time>2013-07-12T13:54:39Z</time>
      </trkpt>
      <trkpt lat="44.848" lon="5.79626">
        <ele>880</ele>
        <time>2013-07-12T13:55:01Z</time>
      </trkpt>
      <trkpt lat="44.84799" lon="5.79626">
        <ele>880</ele>
        <time>2013-07-12T13:55:19Z</time>
      </trkpt>
      <trkpt lat="44.84799" lon="5.79628">
        <ele>879</ele>
        <time>2013-07-12T13:55:38Z</time>
      </trkpt>
      <trkpt lat="44.848" lon="5.79623">
        <ele>880</ele>
        <time>2013-07-12T13:55:44Z</time>
      </trkpt>
      <trkpt lat="44.84803" lon="5.79621">
        <ele>880</ele>
        <time>2013-07-12T13:56:00Z</time>
      </trkpt>
      <trkpt lat="44.84803" lon="5.79621">
        <ele>880</ele>
        <time>2013-07-12T13:56:03Z</time>
      </trkpt>
      <trkpt lat="44.84805" lon="5.79633">
        <ele>879</ele>
        <time>2013-07-12T13:56:15Z</time>
      </trkpt>
      <trkpt lat="44.84805" lon="5.79637">
        <ele>879</ele>
        <time>2013-07-12T13:56:18Z</time>
      </trkpt>
      <trkpt lat="44.84817" lon="5.79662">
        <ele>879</ele>
        <time>2013-07-12T13:56:33Z</time>
      </trkpt>
      <trkpt lat="44.84818" lon="5.79664">
        <ele>878</ele>
        <time>2013-07-12T13:56:34Z</time>
      </trkpt>
      <trkpt lat="44.84822" lon="5.79681">
        <ele>878</ele>
        <time>2013-07-12T13:56:44Z</time>
      </trkpt>
      <trkpt lat="44.84821" lon="5.79686">
        <ele>878</ele>
        <time>2013-07-12T13:56:48Z</time>
      </trkpt>
      <trkpt lat="44.8482" lon="5.79706">
        <ele>878</ele>
        <time>2013-07-12T13:56:58Z</time>
      </trkpt>
      <trkpt lat="44.84819" lon="5.7971">
        <ele>878</ele>
        <time>2013-07-12T13:57:00Z</time>
      </trkpt>
      <trkpt lat="44.84814" lon="5.79728">
        <ele>878</ele>
        <time>2013-07-12T13:57:11Z</time>
      </trkpt>
      <trkpt lat="44.84814" lon="5.7973">
        <ele>878</ele>
        <time>2013-07-12T13:57:12Z</time>
      </trkpt>
      <trkpt lat="44.84811" lon="5.79739">
        <ele>878</ele>
        <time>2013-07-12T13:57:17Z</time>
      </trkpt>
      <trkpt lat="44.84805" lon="5.79766">
        <ele>878</ele>
        <time>2013-07-12T13:57:31Z</time>
      </trkpt>
      <trkpt lat="44.84806" lon="5.79769">
        <ele>878</ele>
        <time>2013-07-12T13:57:32Z</time>
      </trkpt>
      <trkpt lat="44.84803" lon="5.79785">
        <ele>878</ele>
        <time>2013-07-12T13:57:40Z</time>
      </trkpt>
      <trkpt lat="44.84801" lon="5.79799">
        <ele>879</ele>
        <time>2013-07-12T13:57:48Z</time>
      </trkpt>
      <trkpt lat="44.848" lon="5.79809">
        <ele>879</ele>
        <time>2013-07-12T13:57:53Z</time>
      </trkpt>
      <trkpt lat="44.848" lon="5.79816">
        <ele>879</ele>
        <time>2013-07-12T13:57:57Z</time>
      </trkpt>
      <trkpt lat="44.84799" lon="5.79829">
        <ele>879</ele>
        <time>2013-07-12T13:58:04Z</time>
      </trkpt>
      <trkpt lat="44.84799" lon="5.79838">
        <ele>879</ele>
        <time>2013-07-12T13:58:09Z</time>
      </trkpt>
      <trkpt lat="44.84806" lon="5.79865">
        <ele>879</ele>
        <time>2013-07-12T13:58:23Z</time>
      </trkpt>
      <trkpt lat="44.84811" lon="5.7989">
        <ele>879</ele>
        <time>2013-07-12T13:58:38Z</time>
      </trkpt>
      <trkpt lat="44.84807" lon="5.7991">
        <ele>879</ele>
        <time>2013-07-12T13:58:50Z</time>
      </trkpt>
      <trkpt lat="44.84806" lon="5.79914">
        <ele>879</ele>
        <time>2013-07-12T13:58:52Z</time>
      </trkpt>
      <trkpt lat="44.84803" lon="5.79926">
        <ele>880</ele>
        <time>2013-07-12T13:58:59Z</time>
      </trkpt>
      <trkpt lat="44.84791" lon="5.79942">
        <ele>880</ele>
        <time>2013-07-12T13:59:12Z</time>
      </trkpt>
      <trkpt lat="44.84775" lon="5.79953">
        <ele>880</ele>
        <time>2013-07-12T13:59:22Z</time>
      </trkpt>
      <trkpt lat="44.84758" lon="5.79955">
        <ele>881</ele>
        <time>2013-07-12T13:59:34Z</time>
      </trkpt>
      <trkpt lat="44.84746" lon="5.79949">
        <ele>881</ele>
        <time>2013-07-12T13:59:42Z</time>
      </trkpt>
      <trkpt lat="44.84736" lon="5.79946">
        <ele>882</ele>
        <time>2013-07-12T13:59:50Z</time>
      </trkpt>
      <trkpt lat="44.84722" lon="5.79942">
        <ele>882</ele>
        <time>2013-07-12T14:00:01Z</time>
      </trkpt>
      <trkpt lat="44.8471" lon="5.79933">
        <ele>881</ele>
        <time>2013-07-12T14:00:12Z</time>
      </trkpt>
      <trkpt lat="44.84702" lon="5.79928">
        <ele>880</ele>
        <time>2013-07-12T14:00:17Z</time>
      </trkpt>
      <trkpt lat="44.84699" lon="5.79924">
        <ele>880</ele>
        <time>2013-07-12T14:00:31Z</time>
      </trkpt>
      <trkpt lat="44.84699" lon="5.79924">
        <ele>880</ele>
        <time>2013-07-12T14:00:52Z</time>
      </trkpt>
      <trkpt lat="44.84699" lon="5.79924">
        <ele>879</ele>
        <time>2013-07-12T14:01:16Z</time>
      </trkpt>
      <trkpt lat="44.84701" lon="5.7992">
        <ele>880</ele>
        <time>2013-07-12T14:01:28Z</time>
      </trkpt>
      <trkpt lat="44.84703" lon="5.7992">
        <ele>880</ele>
        <time>2013-07-12T14:01:34Z</time>
      </trkpt>
      <trkpt lat="44.84705" lon="5.79924">
        <ele>880</ele>
        <time>2013-07-12T14:01:47Z</time>
      </trkpt>
      <trkpt lat="44.84706" lon="5.79923">
        <ele>879</ele>
        <time>2013-07-12T14:01:59Z</time>
      </trkpt>
      <trkpt lat="44.84706" lon="5.79924">
        <ele>880</ele>
        <time>2013-07-12T14:02:15Z</time>
      </trkpt>
      <trkpt lat="44.84706" lon="5.79925">
        <ele>880</ele>
        <time>2013-07-12T14:02:36Z</time>
      </trkpt>
      <trkpt lat="44.84704" lon="5.79924">
        <ele>880</ele>
        <time>2013-07-12T14:02:38Z</time>
      </trkpt>
      <trkpt lat="44.84691" lon="5.79912">
        <ele>880</ele>
        <time>2013-07-12T14:02:48Z</time>
      </trkpt>
      <trkpt lat="44.84684" lon="5.79906">
        <ele>880</ele>
        <time>2013-07-12T14:02:56Z</time>
      </trkpt>
      <trkpt lat="44.84671" lon="5.79902">
        <ele>880</ele>
        <time>2013-07-12T14:03:06Z</time>
      </trkpt>
      <trkpt lat="44.84662" lon="5.79902">
        <ele>880</ele>
        <time>2013-07-12T14:03:13Z</time>
      </trkpt>
      <trkpt lat="44.8464" lon="5.79897">
        <ele>880</ele>
        <time>2013-07-12T14:03:26Z</time>
      </trkpt>
      <trkpt lat="44.84624" lon="5.79894">
        <ele>880</ele>
        <time>2013-07-12T14:03:37Z</time>
      </trkpt>
      <trkpt lat="44.8461" lon="5.79898">
        <ele>881</ele>
        <time>2013-07-12T14:03:48Z</time>
      </trkpt>
      <trkpt lat="44.84588" lon="5.79897">
        <ele>881</ele>
        <time>2013-07-12T14:04:01Z</time>
      </trkpt>
      <trkpt lat="44.84569" lon="5.79894">
        <ele>882</ele>
        <time>2013-07-12T14:04:14Z</time>
      </trkpt>
      <trkpt lat="44.84546" lon="5.7989">
        <ele>882</ele>
        <time>2013-07-12T14:04:28Z</time>
      </trkpt>
      <trkpt lat="44.84535" lon="5.79881">
        <ele>883</ele>
        <time>2013-07-12T14:04:37Z</time>
      </trkpt>
      <trkpt lat="44.84514" lon="5.79862">
        <ele>884</ele>
        <time>2013-07-12T14:04:50Z</time>
      </trkpt>
      <trkpt lat="44.84505" lon="5.79854">
        <ele>885</ele>
        <time>2013-07-12T14:04:56Z</time>
      </trkpt>
      <trkpt lat="44.84502" lon="5.79849">
        <ele>885</ele>
        <time>2013-07-12T14:05:00Z</time>
      </trkpt>
      <trkpt lat="44.84497" lon="5.79844">
        <ele>885</ele>
        <time>2013-07-12T14:05:04Z</time>
      </trkpt>
      <trkpt lat="44.84481" lon="5.79827">
        <ele>885</ele>
        <time>2013-07-12T14:05:17Z</time>
      </trkpt>
      <trkpt lat="44.84466" lon="5.7981">
        <ele>886</ele>
        <time>2013-07-12T14:05:29Z</time>
      </trkpt>
      <trkpt lat="44.84449" lon="5.79786">
        <ele>886</ele>
        <time>2013-07-12T14:05:43Z</time>
      </trkpt>
      <trkpt lat="44.84439" lon="5.79764">
        <ele>887</ele>
        <time>2013-07-12T14:05:55Z</time>
      </trkpt>
      <trkpt lat="44.84429" lon="5.79735">
        <ele>887</ele>
        <time>2013-07-12T14:06:09Z</time>
      </trkpt>
      <trkpt lat="44.84429" lon="5.79733">
        <ele>887</ele>
        <time>2013-07-12T14:06:10Z</time>
      </trkpt>
      <trkpt lat="44.84424" lon="5.79699">
        <ele>888</ele>
        <time>2013-07-12T14:06:25Z</time>
      </trkpt>
      <trkpt lat="44.8442" lon="5.79678">
        <ele>889</ele>
        <time>2013-07-12T14:06:35Z</time>
      </trkpt>
      <trkpt lat="44.8442" lon="5.79674">
        <ele>889</ele>
        <time>2013-07-12T14:06:38Z</time>
      </trkpt>
      <trkpt lat="44.84418" lon="5.79664">
        <ele>889</ele>
        <time>2013-07-12T14:06:42Z</time>
      </trkpt>
      <trkpt lat="44.84412" lon="5.79629">
        <ele>890</ele>
        <time>2013-07-12T14:06:57Z</time>
      </trkpt>
      <trkpt lat="44.84408" lon="5.796">
        <ele>891</ele>
        <time>2013-07-12T14:07:11Z</time>
      </trkpt>
      <trkpt lat="44.844" lon="5.79569">
        <ele>892</ele>
        <time>2013-07-12T14:07:26Z</time>
      </trkpt>
      <trkpt lat="44.84384" lon="5.79554">
        <ele>894</ele>
        <time>2013-07-12T14:07:40Z</time>
      </trkpt>
      <trkpt lat="44.84383" lon="5.79552">
        <ele>893</ele>
        <time>2013-07-12T14:07:41Z</time>
      </trkpt>
      <trkpt lat="44.84363" lon="5.79541">
        <ele>894</ele>
        <time>2013-07-12T14:07:55Z</time>
      </trkpt>
      <trkpt lat="44.84343" lon="5.79527">
        <ele>895</ele>
        <time>2013-07-12T14:08:08Z</time>
      </trkpt>
      <trkpt lat="44.84331" lon="5.79509">
        <ele>897</ele>
        <time>2013-07-12T14:08:20Z</time>
      </trkpt>
      <trkpt lat="44.84318" lon="5.79492">
        <ele>900</ele>
        <time>2013-07-12T14:08:32Z</time>
      </trkpt>
      <trkpt lat="44.84315" lon="5.79486">
        <ele>898</ele>
        <time>2013-07-12T14:08:35Z</time>
      </trkpt>
      <trkpt lat="44.84307" lon="5.79468">
        <ele>900</ele>
        <time>2013-07-12T14:08:45Z</time>
      </trkpt>
      <trkpt lat="44.84302" lon="5.79445">
        <ele>902</ele>
        <time>2013-07-12T14:08:54Z</time>
      </trkpt>
      <trkpt lat="44.84303" lon="5.79434">
        <ele>903</ele>
        <time>2013-07-12T14:08:58Z</time>
      </trkpt>
      <trkpt lat="44.84304" lon="5.79424">
        <ele>904</ele>
        <time>2013-07-12T14:09:02Z</time>
      </trkpt>
      <trkpt lat="44.84304" lon="5.79418">
        <ele>904</ele>
        <time>2013-07-12T14:09:04Z</time>
      </trkpt>
      <trkpt lat="44.84304" lon="5.79413">
        <ele>905</ele>
        <time>2013-07-12T14:09:06Z</time>
      </trkpt>
      <trkpt lat="44.84304" lon="5.79405">
        <ele>905</ele>
        <time>2013-07-12T14:09:10Z</time>
      </trkpt>
      <trkpt lat="44.84299" lon="5.79378">
        <ele>908</ele>
        <time>2013-07-12T14:09:23Z</time>
      </trkpt>
      <trkpt lat="44.84298" lon="5.79371">
        <ele>909</ele>
        <time>2013-07-12T14:09:27Z</time>
      </trkpt>
      <trkpt lat="44.84296" lon="5.79365">
        <ele>909</ele>
        <time>2013-07-12T14:09:31Z</time>
      </trkpt>
      <trkpt lat="44.84296" lon="5.79358">
        <ele>910</ele>
        <time>2013-07-12T14:09:34Z</time>
      </trkpt>
      <trkpt lat="44.84294" lon="5.79348">
        <ele>911</ele>
        <time>2013-07-12T14:09:38Z</time>
      </trkpt>
      <trkpt lat="44.84292" lon="5.7934">
        <ele>912</ele>
        <time>2013-07-12T14:09:42Z</time>
      </trkpt>
      <trkpt lat="44.84289" lon="5.79309">
        <ele>914</ele>
        <time>2013-07-12T14:09:54Z</time>
      </trkpt>
      <trkpt lat="44.84287" lon="5.79285">
        <ele>917</ele>
        <time>2013-07-12T14:10:05Z</time>
      </trkpt>
      <trkpt lat="44.84289" lon="5.7926">
        <ele>919</ele>
        <time>2013-07-12T14:10:16Z</time>
      </trkpt>
      <trkpt lat="44.84293" lon="5.79241">
        <ele>921</ele>
        <time>2013-07-12T14:10:25Z</time>
      </trkpt>
      <trkpt lat="44.843" lon="5.79218">
        <ele>923</ele>
        <time>2013-07-12T14:10:36Z</time>
      </trkpt>
      <trkpt lat="44.84305" lon="5.79196">
        <ele>923</ele>
        <time>2013-07-12T14:10:48Z</time>
      </trkpt>
      <trkpt lat="44.84304" lon="5.79173">
        <ele>926</ele>
        <time>2013-07-12T14:10:58Z</time>
      </trkpt>
      <trkpt lat="44.84305" lon="5.79163">
        <ele>928</ele>
        <time>2013-07-12T14:11:02Z</time>
      </trkpt>
      <trkpt lat="44.84307" lon="5.79159">
        <ele>928</ele>
        <time>2013-07-12T14:11:04Z</time>
      </trkpt>
      <trkpt lat="44.84309" lon="5.79148">
        <ele>929</ele>
        <time>2013-07-12T14:11:09Z</time>
      </trkpt>
      <trkpt lat="44.84308" lon="5.79129">
        <ele>931</ele>
        <time>2013-07-12T14:11:19Z</time>
      </trkpt>
      <trkpt lat="44.84313" lon="5.79105">
        <ele>934</ele>
        <time>2013-07-12T14:11:33Z</time>
      </trkpt>
      <trkpt lat="44.84314" lon="5.79077">
        <ele>936</ele>
        <time>2013-07-12T14:11:47Z</time>
      </trkpt>
      <trkpt lat="44.84312" lon="5.79058">
        <ele>938</ele>
        <time>2013-07-12T14:11:58Z</time>
      </trkpt>
      <trkpt lat="44.84307" lon="5.79037">
        <ele>940</ele>
        <time>2013-07-12T14:12:08Z</time>
      </trkpt>
      <trkpt lat="44.84306" lon="5.79024">
        <ele>941</ele>
        <time>2013-07-12T14:12:14Z</time>
      </trkpt>
      <trkpt lat="44.84306" lon="5.79017">
        <ele>942</ele>
        <time>2013-07-12T14:12:18Z</time>
      </trkpt>
      <trkpt lat="44.84298" lon="5.79002">
        <ele>945</ele>
        <time>2013-07-12T14:12:27Z</time>
      </trkpt>
      <trkpt lat="44.84293" lon="5.78986">
        <ele>947</ele>
        <time>2013-07-12T14:12:38Z</time>
      </trkpt>
      <trkpt lat="44.84292" lon="5.78985">
        <ele>947</ele>
        <time>2013-07-12T14:12:40Z</time>
      </trkpt>
      <trkpt lat="44.84289" lon="5.78972">
        <ele>948</ele>
        <time>2013-07-12T14:12:47Z</time>
      </trkpt>
      <trkpt lat="44.84291" lon="5.78966">
        <ele>949</ele>
        <time>2013-07-12T14:13:01Z</time>
      </trkpt>
      <trkpt lat="44.84291" lon="5.78965">
        <ele>949</ele>
        <time>2013-07-12T14:13:03Z</time>
      </trkpt>
      <trkpt lat="44.8429" lon="5.78941">
        <ele>951</ele>
        <time>2013-07-12T14:13:14Z</time>
      </trkpt>
      <trkpt lat="44.84288" lon="5.78931">
        <ele>952</ele>
        <time>2013-07-12T14:13:22Z</time>
      </trkpt>
      <trkpt lat="44.84283" lon="5.78922">
        <ele>954</ele>
        <time>2013-07-12T14:13:36Z</time>
      </trkpt>
      <trkpt lat="44.84282" lon="5.78922">
        <ele>954</ele>
        <time>2013-07-12T14:13:37Z</time>
      </trkpt>
      <trkpt lat="44.84275" lon="5.78923">
        <ele>956</ele>
        <time>2013-07-12T14:13:47Z</time>
      </trkpt>
      <trkpt lat="44.84274" lon="5.78922">
        <ele>957</ele>
        <time>2013-07-12T14:13:50Z</time>
      </trkpt>
      <trkpt lat="44.84271" lon="5.78918">
        <ele>957</ele>
        <time>2013-07-12T14:14:04Z</time>
      </trkpt>
      <trkpt lat="44.8427" lon="5.78913">
        <ele>957</ele>
        <time>2013-07-12T14:14:07Z</time>
      </trkpt>
      <trkpt lat="44.84268" lon="5.78906">
        <ele>958</ele>
        <time>2013-07-12T14:14:21Z</time>
      </trkpt>
      <trkpt lat="44.84266" lon="5.78901">
        <ele>960</ele>
        <time>2013-07-12T14:14:25Z</time>
      </trkpt>
      <trkpt lat="44.84263" lon="5.78882">
        <ele>963</ele>
        <time>2013-07-12T14:14:38Z</time>
      </trkpt>
      <trkpt lat="44.84263" lon="5.78882">
        <ele>963</ele>
        <time>2013-07-12T14:14:58Z</time>
      </trkpt>
      <trkpt lat="44.84265" lon="5.78882">
        <ele>961</ele>
        <time>2013-07-12T14:15:13Z</time>
      </trkpt>
      <trkpt lat="44.84266" lon="5.78883">
        <ele>962</ele>
        <time>2013-07-12T14:15:25Z</time>
      </trkpt>
      <trkpt lat="44.84264" lon="5.78885">
        <ele>961</ele>
        <time>2013-07-12T14:15:27Z</time>
      </trkpt>
      <trkpt lat="44.84259" lon="5.78877">
        <ele>964</ele>
        <time>2013-07-12T14:15:34Z</time>
      </trkpt>
      <trkpt lat="44.84259" lon="5.78863">
        <ele>965</ele>
        <time>2013-07-12T14:15:47Z</time>
      </trkpt>
      <trkpt lat="44.84258" lon="5.78861">
        <ele>965</ele>
        <time>2013-07-12T14:15:49Z</time>
      </trkpt>
      <trkpt lat="44.84256" lon="5.78858">
        <ele>965</ele>
        <time>2013-07-12T14:15:53Z</time>
      </trkpt>
      <trkpt lat="44.84248" lon="5.78847">
        <ele>968</ele>
        <time>2013-07-12T14:16:07Z</time>
      </trkpt>
      <trkpt lat="44.84245" lon="5.78831">
        <ele>972</ele>
        <time>2013-07-12T14:16:18Z</time>
      </trkpt>
      <trkpt lat="44.84243" lon="5.78817">
        <ele>973</ele>
        <time>2013-07-12T14:16:32Z</time>
      </trkpt>
      <trkpt lat="44.84243" lon="5.78817">
        <ele>972</ele>
        <time>2013-07-12T14:16:35Z</time>
      </trkpt>
      <trkpt lat="44.84242" lon="5.78811">
        <ele>973</ele>
        <time>2013-07-12T14:16:52Z</time>
      </trkpt>
      <trkpt lat="44.84238" lon="5.78799">
        <ele>975</ele>
        <time>2013-07-12T14:17:07Z</time>
      </trkpt>
      <trkpt lat="44.84236" lon="5.78785">
        <ele>976</ele>
        <time>2013-07-12T14:17:23Z</time>
      </trkpt>
      <trkpt lat="44.84233" lon="5.7877">
        <ele>979</ele>
        <time>2013-07-12T14:17:38Z</time>
      </trkpt>
      <trkpt lat="44.84233" lon="5.7877">
        <ele>980</ele>
        <time>2013-07-12T14:17:54Z</time>
      </trkpt>
      <trkpt lat="44.84229" lon="5.78769">
        <ele>979</ele>
        <time>2013-07-12T14:18:16Z</time>
      </trkpt>
      <trkpt lat="44.84225" lon="5.78767">
        <ele>980</ele>
        <time>2013-07-12T14:18:42Z</time>
      </trkpt>
      <trkpt lat="44.84225" lon="5.78766">
        <ele>980</ele>
        <time>2013-07-12T14:19:00Z</time>
      </trkpt>
      <trkpt lat="44.84215" lon="5.78744">
        <ele>982</ele>
        <time>2013-07-12T14:19:13Z</time>
      </trkpt>
      <trkpt lat="44.84213" lon="5.78741">
        <ele>983</ele>
        <time>2013-07-12T14:19:20Z</time>
      </trkpt>
      <trkpt lat="44.84209" lon="5.78736">
        <ele>984</ele>
        <time>2013-07-12T14:19:25Z</time>
      </trkpt>
      <trkpt lat="44.84205" lon="5.78732">
        <ele>985</ele>
        <time>2013-07-12T14:19:30Z</time>
      </trkpt>
      <trkpt lat="44.84196" lon="5.78728">
        <ele>987</ele>
        <time>2013-07-12T14:19:42Z</time>
      </trkpt>
      <trkpt lat="44.84193" lon="5.78725">
        <ele>987</ele>
        <time>2013-07-12T14:19:46Z</time>
      </trkpt>
      <trkpt lat="44.8418" lon="5.78711">
        <ele>987</ele>
        <time>2013-07-12T14:20:01Z</time>
      </trkpt>
      <trkpt lat="44.84162" lon="5.78693">
        <ele>988</ele>
        <time>2013-07-12T14:20:20Z</time>
      </trkpt>
      <trkpt lat="44.8416" lon="5.78693">
        <ele>988</ele>
        <time>2013-07-12T14:20:22Z</time>
      </trkpt>
      <trkpt lat="44.84158" lon="5.78692">
        <ele>988</ele>
        <time>2013-07-12T14:20:24Z</time>
      </trkpt>
      <trkpt lat="44.84151" lon="5.78694">
        <ele>988</ele>
        <time>2013-07-12T14:20:39Z</time>
      </trkpt>
      <trkpt lat="44.84151" lon="5.78694">
        <ele>989</ele>
        <time>2013-07-12T14:21:04Z</time>
      </trkpt>
      <trkpt lat="44.84152" lon="5.78694">
        <ele>988</ele>
        <time>2013-07-12T14:21:25Z</time>
      </trkpt>
      <trkpt lat="44.84152" lon="5.78694">
        <ele>988</ele>
        <time>2013-07-12T14:21:47Z</time>
      </trkpt>
      <trkpt lat="44.84152" lon="5.78694">
        <ele>988</ele>
        <time>2013-07-12T14:21:55Z</time>
      </trkpt>
      <trkpt lat="44.84159" lon="5.78669">
        <ele>987</ele>
        <time>2013-07-12T14:22:08Z</time>
      </trkpt>
      <trkpt lat="44.8416" lon="5.78665">
        <ele>987</ele>
        <time>2013-07-12T14:22:10Z</time>
      </trkpt>
      <trkpt lat="44.84159" lon="5.78655">
        <ele>987</ele>
        <time>2013-07-12T14:22:17Z</time>
      </trkpt>
      <trkpt lat="44.84159" lon="5.78636">
        <ele>986</ele>
        <time>2013-07-12T14:22:26Z</time>
      </trkpt>
      <trkpt lat="44.84152" lon="5.78618">
        <ele>985</ele>
        <time>2013-07-12T14:22:38Z</time>
      </trkpt>
      <trkpt lat="44.84146" lon="5.78607">
        <ele>985</ele>
        <time>2013-07-12T14:22:46Z</time>
      </trkpt>
      <trkpt lat="44.84132" lon="5.78591">
        <ele>983</ele>
        <time>2013-07-12T14:23:02Z</time>
      </trkpt>
      <trkpt lat="44.84131" lon="5.78589">
        <ele>983</ele>
        <time>2013-07-12T14:23:04Z</time>
      </trkpt>
      <trkpt lat="44.84122" lon="5.78571">
        <ele>981</ele>
        <time>2013-07-12T14:23:16Z</time>
      </trkpt>
      <trkpt lat="44.84119" lon="5.78567">
        <ele>982</ele>
        <time>2013-07-12T14:23:19Z</time>
      </trkpt>
      <trkpt lat="44.84116" lon="5.78561">
        <ele>982</ele>
        <time>2013-07-12T14:23:23Z</time>
      </trkpt>
      <trkpt lat="44.84111" lon="5.7854">
        <ele>980</ele>
        <time>2013-07-12T14:23:35Z</time>
      </trkpt>
      <trkpt lat="44.84111" lon="5.78537">
        <ele>980</ele>
        <time>2013-07-12T14:23:37Z</time>
      </trkpt>
      <trkpt lat="44.84118" lon="5.78509">
        <ele>978</ele>
        <time>2013-07-12T14:23:49Z</time>
      </trkpt>
      <trkpt lat="44.84128" lon="5.78496">
        <ele>977</ele>
        <time>2013-07-12T14:23:57Z</time>
      </trkpt>
      <trkpt lat="44.84134" lon="5.78491">
        <ele>977</ele>
        <time>2013-07-12T14:24:02Z</time>
      </trkpt>
      <trkpt lat="44.84142" lon="5.78484">
        <ele>976</ele>
        <time>2013-07-12T14:24:09Z</time>
      </trkpt>
      <trkpt lat="44.84145" lon="5.7848">
        <ele>976</ele>
        <time>2013-07-12T14:24:13Z</time>
      </trkpt>
      <trkpt lat="44.84148" lon="5.7848">
        <ele>975</ele>
        <time>2013-07-12T14:24:15Z</time>
      </trkpt>
      <trkpt lat="44.84167" lon="5.78478">
        <ele>974</ele>
        <time>2013-07-12T14:24:28Z</time>
      </trkpt>
      <trkpt lat="44.84176" lon="5.78473">
        <ele>974</ele>
        <time>2013-07-12T14:24:35Z</time>
      </trkpt>
      <trkpt lat="44.8418" lon="5.78471">
        <ele>973</ele>
        <time>2013-07-12T14:24:38Z</time>
      </trkpt>
      <trkpt lat="44.84194" lon="5.78457">
        <ele>973</ele>
        <time>2013-07-12T14:24:50Z</time>
      </trkpt>
      <trkpt lat="44.84204" lon="5.78442">
        <ele>971</ele>
        <time>2013-07-12T14:25:01Z</time>
      </trkpt>
      <trkpt lat="44.84219" lon="5.78419">
        <ele>970</ele>
        <time>2013-07-12T14:25:15Z</time>
      </trkpt>
      <trkpt lat="44.8422" lon="5.78418">
        <ele>970</ele>
        <time>2013-07-12T14:25:16Z</time>
      </trkpt>
      <trkpt lat="44.84224" lon="5.78407">
        <ele>970</ele>
        <time>2013-07-12T14:25:23Z</time>
      </trkpt>
      <trkpt lat="44.84229" lon="5.78403">
        <ele>970</ele>
        <time>2013-07-12T14:25:28Z</time>
      </trkpt>
      <trkpt lat="44.84235" lon="5.78393">
        <ele>968</ele>
        <time>2013-07-12T14:25:36Z</time>
      </trkpt>
      <trkpt lat="44.84245" lon="5.78381">
        <ele>971</ele>
        <time>2013-07-12T14:25:50Z</time>
      </trkpt>
      <trkpt lat="44.84255" lon="5.78372">
        <ele>973</ele>
        <time>2013-07-12T14:26:02Z</time>
      </trkpt>
      <trkpt lat="44.84256" lon="5.78369">
        <ele>973</ele>
        <time>2013-07-12T14:26:16Z</time>
      </trkpt>
      <trkpt lat="44.84256" lon="5.78369">
        <ele>973</ele>
        <time>2013-07-12T14:26:38Z</time>
      </trkpt>
      <trkpt lat="44.84257" lon="5.78368">
        <ele>973</ele>
        <time>2013-07-12T14:26:53Z</time>
      </trkpt>
      <trkpt lat="44.84258" lon="5.78367">
        <ele>973</ele>
        <time>2013-07-12T14:27:07Z</time>
      </trkpt>
      <trkpt lat="44.84258" lon="5.78366">
        <ele>973</ele>
        <time>2013-07-12T14:27:11Z</time>
      </trkpt>
      <trkpt lat="44.84259" lon="5.7836">
        <ele>974</ele>
        <time>2013-07-12T14:27:18Z</time>
      </trkpt>
      <trkpt lat="44.84261" lon="5.78356">
        <ele>974</ele>
        <time>2013-07-12T14:27:21Z</time>
      </trkpt>
      <trkpt lat="44.84265" lon="5.78349">
        <ele>974</ele>
        <time>2013-07-12T14:27:26Z</time>
      </trkpt>
      <trkpt lat="44.84266" lon="5.78343">
        <ele>975</ele>
        <time>2013-07-12T14:27:29Z</time>
      </trkpt>
      <trkpt lat="44.84275" lon="5.78322">
        <ele>978</ele>
        <time>2013-07-12T14:27:43Z</time>
      </trkpt>
      <trkpt lat="44.84277" lon="5.78319">
        <ele>979</ele>
        <time>2013-07-12T14:27:46Z</time>
      </trkpt>
      <trkpt lat="44.84283" lon="5.78306">
        <ele>981</ele>
        <time>2013-07-12T14:27:56Z</time>
      </trkpt>
      <trkpt lat="44.84285" lon="5.78286">
        <ele>983</ele>
        <time>2013-07-12T14:28:08Z</time>
      </trkpt>
      <trkpt lat="44.84285" lon="5.78285">
        <ele>983</ele>
        <time>2013-07-12T14:28:09Z</time>
      </trkpt>
      <trkpt lat="44.84282" lon="5.78266">
        <ele>985</ele>
        <time>2013-07-12T14:28:20Z</time>
      </trkpt>
      <trkpt lat="44.84281" lon="5.7826">
        <ele>985</ele>
        <time>2013-07-12T14:28:23Z</time>
      </trkpt>
      <trkpt lat="44.84278" lon="5.7824">
        <ele>987</ele>
        <time>2013-07-12T14:28:35Z</time>
      </trkpt>
      <trkpt lat="44.84277" lon="5.78233">
        <ele>988</ele>
        <time>2013-07-12T14:28:38Z</time>
      </trkpt>
      <trkpt lat="44.84275" lon="5.78227">
        <ele>989</ele>
        <time>2013-07-12T14:28:44Z</time>
      </trkpt>
      <trkpt lat="44.84273" lon="5.7822">
        <ele>990</ele>
        <time>2013-07-12T14:28:49Z</time>
      </trkpt>
      <trkpt lat="44.84274" lon="5.78213">
        <ele>991</ele>
        <time>2013-07-12T14:29:03Z</time>
      </trkpt>
      <trkpt lat="44.84274" lon="5.78213">
        <ele>990</ele>
        <time>2013-07-12T14:29:18Z</time>
      </trkpt>
      <trkpt lat="44.84274" lon="5.78213">
        <ele>990</ele>
        <time>2013-07-12T14:29:33Z</time>
      </trkpt>
      <trkpt lat="44.84275" lon="5.78212">
        <ele>992</ele>
        <time>2013-07-12T14:29:46Z</time>
      </trkpt>
      <trkpt lat="44.84274" lon="5.78211">
        <ele>991</ele>
        <time>2013-07-12T14:30:04Z</time>
      </trkpt>
      <trkpt lat="44.84265" lon="5.782">
        <ele>990</ele>
        <time>2013-07-12T14:30:14Z</time>
      </trkpt>
      <trkpt lat="44.84254" lon="5.78178">
        <ele>989</ele>
        <time>2013-07-12T14:30:29Z</time>
      </trkpt>
      <trkpt lat="44.84256" lon="5.78171">
        <ele>988</ele>
        <time>2013-07-12T14:30:34Z</time>
      </trkpt>
      <trkpt lat="44.84256" lon="5.78158">
        <ele>988</ele>
        <time>2013-07-12T14:30:49Z</time>
      </trkpt>
      <trkpt lat="44.84252" lon="5.78151">
        <ele>989</ele>
        <time>2013-07-12T14:31:10Z</time>
      </trkpt>
      <trkpt lat="44.84242" lon="5.78139">
        <ele>992</ele>
        <time>2013-07-12T14:31:24Z</time>
      </trkpt>
      <trkpt lat="44.84237" lon="5.78131">
        <ele>994</ele>
        <time>2013-07-12T14:31:27Z</time>
      </trkpt>
      <trkpt lat="44.84228" lon="5.78125">
        <ele>995</ele>
        <time>2013-07-12T14:31:37Z</time>
      </trkpt>
      <trkpt lat="44.84216" lon="5.78107">
        <ele>998</ele>
        <time>2013-07-12T14:31:51Z</time>
      </trkpt>
      <trkpt lat="44.84211" lon="5.78103">
        <ele>999</ele>
        <time>2013-07-12T14:31:54Z</time>
      </trkpt>
      <trkpt lat="44.84204" lon="5.78088">
        <ele>1003</ele>
        <time>2013-07-12T14:32:01Z</time>
      </trkpt>
      <trkpt lat="44.84203" lon="5.78086">
        <ele>1003</ele>
        <time>2013-07-12T14:32:02Z</time>
      </trkpt>
      <trkpt lat="44.84201" lon="5.78077">
        <ele>1004</ele>
        <time>2013-07-12T14:32:16Z</time>
      </trkpt>
      <trkpt lat="44.84201" lon="5.78074">
        <ele>1004</ele>
        <time>2013-07-12T14:32:26Z</time>
      </trkpt>
      <trkpt lat="44.84201" lon="5.78074">
        <ele>1009</ele>
        <time>2013-07-12T14:32:28Z</time>
      </trkpt>
      <trkpt lat="44.84201" lon="5.78074">
        <ele>1004</ele>
        <time>2013-07-12T14:32:29Z</time>
      </trkpt>
      <trkpt lat="44.84201" lon="5.78073">
        <ele>1004</ele>
        <time>2013-07-12T14:32:46Z</time>
      </trkpt>
      <trkpt lat="44.84201" lon="5.78073">
        <ele>992</ele>
        <time>2013-07-12T14:33:01Z</time>
      </trkpt>
      <trkpt lat="44.84201" lon="5.78073">
        <ele>999</ele>
        <time>2013-07-12T14:33:02Z</time>
      </trkpt>
      <trkpt lat="44.84201" lon="5.78073">
        <ele>992</ele>
        <time>2013-07-12T14:33:03Z</time>
      </trkpt>
      <trkpt lat="44.84201" lon="5.78073">
        <ele>1007</ele>
        <time>2013-07-12T14:33:04Z</time>
      </trkpt>
      <trkpt lat="44.84201" lon="5.78073">
        <ele>1005</ele>
        <time>2013-07-12T14:33:05Z</time>
      </trkpt>
      <trkpt lat="44.84201" lon="5.78073">
        <ele>1004</ele>
        <time>2013-07-12T14:33:24Z</time>
      </trkpt>
      <trkpt lat="44.84201" lon="5.78073">
        <ele>1004</ele>
        <time>2013-07-12T14:33:49Z</time>
      </trkpt>
      <trkpt lat="44.84201" lon="5.78073">
        <ele>1004</ele>
        <time>2013-07-12T14:34:11Z</time>
      </trkpt>
      <trkpt lat="44.84199" lon="5.78065">
        <ele>1006</ele>
        <time>2013-07-12T14:34:19Z</time>
      </trkpt>
      <trkpt lat="44.84198" lon="5.78061">
        <ele>1007</ele>
        <time>2013-07-12T14:34:21Z</time>
      </trkpt>
      <trkpt lat="44.84197" lon="5.78055">
        <ele>1008</ele>
        <time>2013-07-12T14:34:24Z</time>
      </trkpt>
      <trkpt lat="44.84194" lon="5.78042">
        <ele>1011</ele>
        <time>2013-07-12T14:34:32Z</time>
      </trkpt>
      <trkpt lat="44.84193" lon="5.78025">
        <ele>1014</ele>
        <time>2013-07-12T14:34:46Z</time>
      </trkpt>
      <trkpt lat="44.84193" lon="5.78022">
        <ele>1015</ele>
        <time>2013-07-12T14:34:48Z</time>
      </trkpt>
      <trkpt lat="44.84193" lon="5.78">
        <ele>1018</ele>
        <time>2013-07-12T14:35:03Z</time>
      </trkpt>
      <trkpt lat="44.84189" lon="5.77981">
        <ele>1020</ele>
        <time>2013-07-12T14:35:20Z</time>
      </trkpt>
      <trkpt lat="44.84189" lon="5.77981">
        <ele>1020</ele>
        <time>2013-07-12T14:35:22Z</time>
      </trkpt>
      <trkpt lat="44.84182" lon="5.7796">
        <ele>1021</ele>
        <time>2013-07-12T14:35:35Z</time>
      </trkpt>
      <trkpt lat="44.84179" lon="5.77947">
        <ele>1020</ele>
        <time>2013-07-12T14:35:44Z</time>
      </trkpt>
      <trkpt lat="44.84171" lon="5.77933">
        <ele>1022</ele>
        <time>2013-07-12T14:36:00Z</time>
      </trkpt>
      <trkpt lat="44.84162" lon="5.77917">
        <ele>1023</ele>
        <time>2013-07-12T14:36:11Z</time>
      </trkpt>
      <trkpt lat="44.84158" lon="5.77906">
        <ele>1024</ele>
        <time>2013-07-12T14:36:17Z</time>
      </trkpt>
      <trkpt lat="44.84157" lon="5.77902">
        <ele>1026</ele>
        <time>2013-07-12T14:36:22Z</time>
      </trkpt>
      <trkpt lat="44.84153" lon="5.77896">
        <ele>1025</ele>
        <time>2013-07-12T14:36:26Z</time>
      </trkpt>
      <trkpt lat="44.84151" lon="5.7789">
        <ele>1025</ele>
        <time>2013-07-12T14:36:30Z</time>
      </trkpt>
      <trkpt lat="44.84148" lon="5.77886">
        <ele>1027</ele>
        <time>2013-07-12T14:36:44Z</time>
      </trkpt>
      <trkpt lat="44.84148" lon="5.77886">
        <ele>1025</ele>
        <time>2013-07-12T14:37:02Z</time>
      </trkpt>
      <trkpt lat="44.84148" lon="5.77886">
        <ele>1025</ele>
        <time>2013-07-12T14:37:27Z</time>
      </trkpt>
      <trkpt lat="44.84148" lon="5.77886">
        <ele>1025</ele>
        <time>2013-07-12T14:37:47Z</time>
      </trkpt>
      <trkpt lat="44.84148" lon="5.77886">
        <ele>1025</ele>
        <time>2013-07-12T14:38:08Z</time>
      </trkpt>
      <trkpt lat="44.84148" lon="5.77886">
        <ele>1025</ele>
        <time>2013-07-12T14:38:32Z</time>
      </trkpt>
      <trkpt lat="44.84148" lon="5.77886">
        <ele>1025</ele>
        <time>2013-07-12T14:38:54Z</time>
      </trkpt>
      <trkpt lat="44.84148" lon="5.77886">
        <ele>1025</ele>
        <time>2013-07-12T14:39:15Z</time>
      </trkpt>
      <trkpt lat="44.84148" lon="5.77886">
        <ele>1025</ele>
        <time>2013-07-12T14:39:35Z</time>
      </trkpt>
      <trkpt lat="44.84149" lon="5.77885">
        <ele>1025</ele>
        <time>2013-07-12T14:39:58Z</time>
      </trkpt>
      <trkpt lat="44.84148" lon="5.77884">
        <ele>1025</ele>
        <time>2013-07-12T14:40:14Z</time>
      </trkpt>
      <trkpt lat="44.84148" lon="5.77884">
        <ele>1025</ele>
        <time>2013-07-12T14:40:38Z</time>
      </trkpt>
      <trkpt lat="44.84148" lon="5.77884">
        <ele>1025</ele>
        <time>2013-07-12T14:40:57Z</time>
      </trkpt>
      <trkpt lat="44.84148" lon="5.77884">
        <ele>1024</ele>
        <time>2013-07-12T14:41:21Z</time>
      </trkpt>
      <trkpt lat="44.84149" lon="5.77882">
        <ele>1024</ele>
        <time>2013-07-12T14:41:34Z</time>
      </trkpt>
      <trkpt lat="44.84148" lon="5.77884">
        <ele>1024</ele>
        <time>2013-07-12T14:41:54Z</time>
      </trkpt>
      <trkpt lat="44.84149" lon="5.77885">
        <ele>1025</ele>
        <time>2013-07-12T14:42:05Z</time>
      </trkpt>
      <trkpt lat="44.84149" lon="5.77885">
        <ele>1025</ele>
        <time>2013-07-12T14:42:28Z</time>
      </trkpt>
      <trkpt lat="44.84149" lon="5.77885">
        <ele>1025</ele>
        <time>2013-07-12T14:42:55Z</time>
      </trkpt>
      <trkpt lat="44.84149" lon="5.77883">
        <ele>1025</ele>
        <time>2013-07-12T14:43:20Z</time>
      </trkpt>
      <trkpt lat="44.84148" lon="5.77882">
        <ele>1025</ele>
        <time>2013-07-12T14:43:21Z</time>
      </trkpt>
      <trkpt lat="44.8414" lon="5.77873">
        <ele>1025</ele>
        <time>2013-07-12T14:43:35Z</time>
      </trkpt>
      <trkpt lat="44.84126" lon="5.77848">
        <ele>1027</ele>
        <time>2013-07-12T14:43:49Z</time>
      </trkpt>
      <trkpt lat="44.84112" lon="5.77828">
        <ele>1028</ele>
        <time>2013-07-12T14:44:03Z</time>
      </trkpt>
      <trkpt lat="44.84108" lon="5.77818">
        <ele>1030</ele>
        <time>2013-07-12T14:44:10Z</time>
      </trkpt>
      <trkpt lat="44.84095" lon="5.778">
        <ele>1032</ele>
        <time>2013-07-12T14:44:24Z</time>
      </trkpt>
      <trkpt lat="44.8409" lon="5.77794">
        <ele>1033</ele>
        <time>2013-07-12T14:44:29Z</time>
      </trkpt>
      <trkpt lat="44.84072" lon="5.77783">
        <ele>1034</ele>
        <time>2013-07-12T14:44:44Z</time>
      </trkpt>
      <trkpt lat="44.84066" lon="5.77776">
        <ele>1034</ele>
        <time>2013-07-12T14:44:49Z</time>
      </trkpt>
      <trkpt lat="44.84055" lon="5.77762">
        <ele>1035</ele>
        <time>2013-07-12T14:45:01Z</time>
      </trkpt>
      <trkpt lat="44.84043" lon="5.7774">
        <ele>1037</ele>
        <time>2013-07-12T14:45:16Z</time>
      </trkpt>
      <trkpt lat="44.8403" lon="5.77714">
        <ele>1037</ele>
        <time>2013-07-12T14:45:31Z</time>
      </trkpt>
      <trkpt lat="44.84022" lon="5.77694">
        <ele>1038</ele>
        <time>2013-07-12T14:45:42Z</time>
      </trkpt>
      <trkpt lat="44.84019" lon="5.77685">
        <ele>1039</ele>
        <time>2013-07-12T14:45:48Z</time>
      </trkpt>
      <trkpt lat="44.84013" lon="5.77668">
        <ele>1039</ele>
        <time>2013-07-12T14:45:57Z</time>
      </trkpt>
      <trkpt lat="44.84008" lon="5.77652">
        <ele>1039</ele>
        <time>2013-07-12T14:46:07Z</time>
      </trkpt>
      <trkpt lat="44.84007" lon="5.77647">
        <ele>1040</ele>
        <time>2013-07-12T14:46:09Z</time>
      </trkpt>
      <trkpt lat="44.84" lon="5.77617">
        <ele>1040</ele>
        <time>2013-07-12T14:46:24Z</time>
      </trkpt>
      <trkpt lat="44.83993" lon="5.77592">
        <ele>1041</ele>
        <time>2013-07-12T14:46:38Z</time>
      </trkpt>
      <trkpt lat="44.8399" lon="5.77578">
        <ele>1042</ele>
        <time>2013-07-12T14:46:46Z</time>
      </trkpt>
      <trkpt lat="44.83986" lon="5.77566">
        <ele>1042</ele>
        <time>2013-07-12T14:46:52Z</time>
      </trkpt>
      <trkpt lat="44.83976" lon="5.77542">
        <ele>1043</ele>
        <time>2013-07-12T14:47:06Z</time>
      </trkpt>
      <trkpt lat="44.83958" lon="5.77516">
        <ele>1043</ele>
        <time>2013-07-12T14:47:24Z</time>
      </trkpt>
      <trkpt lat="44.83949" lon="5.77505">
        <ele>1042</ele>
        <time>2013-07-12T14:47:36Z</time>
      </trkpt>
      <trkpt lat="44.83937" lon="5.77491">
        <ele>1041</ele>
        <time>2013-07-12T14:47:50Z</time>
      </trkpt>
      <trkpt lat="44.83935" lon="5.77489">
        <ele>1041</ele>
        <time>2013-07-12T14:48:03Z</time>
      </trkpt>
      <trkpt lat="44.83935" lon="5.7749">
        <ele>1041</ele>
        <time>2013-07-12T14:48:21Z</time>
      </trkpt>
      <trkpt lat="44.83935" lon="5.7749">
        <ele>1042</ele>
        <time>2013-07-12T14:48:47Z</time>
      </trkpt>
      <trkpt lat="44.83935" lon="5.7749">
        <ele>1042</ele>
        <time>2013-07-12T14:49:15Z</time>
      </trkpt>
      <trkpt lat="44.83936" lon="5.77484">
        <ele>1042</ele>
        <time>2013-07-12T14:49:37Z</time>
      </trkpt>
      <trkpt lat="44.83925" lon="5.77475">
        <ele>1041</ele>
        <time>2013-07-12T14:49:56Z</time>
      </trkpt>
      <trkpt lat="44.83915" lon="5.77455">
        <ele>1040</ele>
        <time>2013-07-12T14:50:10Z</time>
      </trkpt>
      <trkpt lat="44.83904" lon="5.77435">
        <ele>1039</ele>
        <time>2013-07-12T14:50:25Z</time>
      </trkpt>
      <trkpt lat="44.83894" lon="5.77419">
        <ele>1039</ele>
        <time>2013-07-12T14:50:35Z</time>
      </trkpt>
      <trkpt lat="44.83889" lon="5.77409">
        <ele>1038</ele>
        <time>2013-07-12T14:50:42Z</time>
      </trkpt>
      <trkpt lat="44.8388" lon="5.77391">
        <ele>1038</ele>
        <time>2013-07-12T14:50:53Z</time>
      </trkpt>
      <trkpt lat="44.83871" lon="5.77369">
        <ele>1036</ele>
        <time>2013-07-12T14:51:06Z</time>
      </trkpt>
      <trkpt lat="44.83868" lon="5.77364">
        <ele>1036</ele>
        <time>2013-07-12T14:51:10Z</time>
      </trkpt>
      <trkpt lat="44.83862" lon="5.77352">
        <ele>1036</ele>
        <time>2013-07-12T14:51:16Z</time>
      </trkpt>
      <trkpt lat="44.83859" lon="5.77345">
        <ele>1036</ele>
        <time>2013-07-12T14:51:20Z</time>
      </trkpt>
      <trkpt lat="44.83856" lon="5.77339">
        <ele>1036</ele>
        <time>2013-07-12T14:51:24Z</time>
      </trkpt>
      <trkpt lat="44.83843" lon="5.77311">
        <ele>1035</ele>
        <time>2013-07-12T14:51:41Z</time>
      </trkpt>
      <trkpt lat="44.83834" lon="5.77295">
        <ele>1035</ele>
        <time>2013-07-12T14:51:51Z</time>
      </trkpt>
      <trkpt lat="44.83824" lon="5.77267">
        <ele>1034</ele>
        <time>2013-07-12T14:52:07Z</time>
      </trkpt>
      <trkpt lat="44.8382" lon="5.77257">
        <ele>1033</ele>
        <time>2013-07-12T14:52:14Z</time>
      </trkpt>
      <trkpt lat="44.83817" lon="5.77246">
        <ele>1033</ele>
        <time>2013-07-12T14:52:19Z</time>
      </trkpt>
      <trkpt lat="44.83803" lon="5.77225">
        <ele>1031</ele>
        <time>2013-07-12T14:52:32Z</time>
      </trkpt>
      <trkpt lat="44.83787" lon="5.77202">
        <ele>1031</ele>
        <time>2013-07-12T14:52:46Z</time>
      </trkpt>
      <trkpt lat="44.83775" lon="5.77182">
        <ele>1030</ele>
        <time>2013-07-12T14:52:59Z</time>
      </trkpt>
      <trkpt lat="44.83763" lon="5.77162">
        <ele>1028</ele>
        <time>2013-07-12T14:53:14Z</time>
      </trkpt>
      <trkpt lat="44.83745" lon="5.77141">
        <ele>1027</ele>
        <time>2013-07-12T14:53:30Z</time>
      </trkpt>
      <trkpt lat="44.83726" lon="5.77122">
        <ele>1025</ele>
        <time>2013-07-12T14:53:46Z</time>
      </trkpt>
      <trkpt lat="44.83724" lon="5.7712">
        <ele>1025</ele>
        <time>2013-07-12T14:53:48Z</time>
      </trkpt>
      <trkpt lat="44.8372" lon="5.7711">
        <ele>1024</ele>
        <time>2013-07-12T14:53:53Z</time>
      </trkpt>
      <trkpt lat="44.83717" lon="5.77099">
        <ele>1023</ele>
        <time>2013-07-12T14:54:01Z</time>
      </trkpt>
      <trkpt lat="44.83713" lon="5.77086">
        <ele>1023</ele>
        <time>2013-07-12T14:54:08Z</time>
      </trkpt>
      <trkpt lat="44.83709" lon="5.77069">
        <ele>1023</ele>
        <time>2013-07-12T14:54:15Z</time>
      </trkpt>
      <trkpt lat="44.83703" lon="5.77038">
        <ele>1023</ele>
        <time>2013-07-12T14:54:30Z</time>
      </trkpt>
      <trkpt lat="44.837" lon="5.77012">
        <ele>1022</ele>
        <time>2013-07-12T14:54:43Z</time>
      </trkpt>
      <trkpt lat="44.837" lon="5.7701">
        <ele>1022</ele>
        <time>2013-07-12T14:54:44Z</time>
      </trkpt>
      <trkpt lat="44.83698" lon="5.76997">
        <ele>1021</ele>
        <time>2013-07-12T14:54:52Z</time>
      </trkpt>
      <trkpt lat="44.83698" lon="5.76978">
        <ele>1020</ele>
        <time>2013-07-12T14:55:03Z</time>
      </trkpt>
      <trkpt lat="44.83693" lon="5.76949">
        <ele>1019</ele>
        <time>2013-07-12T14:55:16Z</time>
      </trkpt>
      <trkpt lat="44.83684" lon="5.76927">
        <ele>1017</ele>
        <time>2013-07-12T14:55:29Z</time>
      </trkpt>
      <trkpt lat="44.83677" lon="5.76907">
        <ele>1016</ele>
        <time>2013-07-12T14:55:42Z</time>
      </trkpt>
      <trkpt lat="44.83666" lon="5.76893">
        <ele>1015</ele>
        <time>2013-07-12T14:55:53Z</time>
      </trkpt>
      <trkpt lat="44.83662" lon="5.76884">
        <ele>1014</ele>
        <time>2013-07-12T14:55:58Z</time>
      </trkpt>
      <trkpt lat="44.83658" lon="5.76874">
        <ele>1014</ele>
        <time>2013-07-12T14:56:02Z</time>
      </trkpt>
      <trkpt lat="44.83654" lon="5.76866">
        <ele>1014</ele>
        <time>2013-07-12T14:56:06Z</time>
      </trkpt>
      <trkpt lat="44.83645" lon="5.7684">
        <ele>1013</ele>
        <time>2013-07-12T14:56:20Z</time>
      </trkpt>
      <trkpt lat="44.83639" lon="5.76814">
        <ele>1012</ele>
        <time>2013-07-12T14:56:34Z</time>
      </trkpt>
      <trkpt lat="44.83632" lon="5.76788">
        <ele>1011</ele>
        <time>2013-07-12T14:56:47Z</time>
      </trkpt>
      <trkpt lat="44.83626" lon="5.76764">
        <ele>1010</ele>
        <time>2013-07-12T14:57:01Z</time>
      </trkpt>
      <trkpt lat="44.83622" lon="5.76746">
        <ele>1009</ele>
        <time>2013-07-12T14:57:10Z</time>
      </trkpt>
      <trkpt lat="44.8362" lon="5.7673">
        <ele>1009</ele>
        <time>2013-07-12T14:57:18Z</time>
      </trkpt>
      <trkpt lat="44.83618" lon="5.76719">
        <ele>1008</ele>
        <time>2013-07-12T14:57:26Z</time>
      </trkpt>
      <trkpt lat="44.83614" lon="5.76704">
        <ele>1007</ele>
        <time>2013-07-12T14:57:34Z</time>
      </trkpt>
      <trkpt lat="44.83616" lon="5.76691">
        <ele>1007</ele>
        <time>2013-07-12T14:57:48Z</time>
      </trkpt>
      <trkpt lat="44.83615" lon="5.7669">
        <ele>1006</ele>
        <time>2013-07-12T14:58:01Z</time>
      </trkpt>
      <trkpt lat="44.83615" lon="5.76686">
        <ele>1006</ele>
        <time>2013-07-12T14:58:23Z</time>
      </trkpt>
      <trkpt lat="44.83615" lon="5.76684">
        <ele>1006</ele>
        <time>2013-07-12T14:58:24Z</time>
      </trkpt>
      <trkpt lat="44.8361" lon="5.76673">
        <ele>1006</ele>
        <time>2013-07-12T14:58:29Z</time>
      </trkpt>
      <trkpt lat="44.83603" lon="5.76665">
        <ele>1004</ele>
        <time>2013-07-12T14:58:37Z</time>
      </trkpt>
      <trkpt lat="44.83591" lon="5.76647">
        <ele>1003</ele>
        <time>2013-07-12T14:58:51Z</time>
      </trkpt>
      <trkpt lat="44.83586" lon="5.76642">
        <ele>1003</ele>
        <time>2013-07-12T14:58:55Z</time>
      </trkpt>
      <trkpt lat="44.83578" lon="5.76628">
        <ele>1003</ele>
        <time>2013-07-12T14:59:04Z</time>
      </trkpt>
      <trkpt lat="44.83568" lon="5.76607">
        <ele>1004</ele>
        <time>2013-07-12T14:59:17Z</time>
      </trkpt>
      <trkpt lat="44.83559" lon="5.7659">
        <ele>1004</ele>
        <time>2013-07-12T14:59:31Z</time>
      </trkpt>
      <trkpt lat="44.83548" lon="5.76571">
        <ele>1003</ele>
        <time>2013-07-12T14:59:43Z</time>
      </trkpt>
      <trkpt lat="44.83545" lon="5.76565">
        <ele>1002</ele>
        <time>2013-07-12T14:59:47Z</time>
      </trkpt>
      <trkpt lat="44.83541" lon="5.76558">
        <ele>1002</ele>
        <time>2013-07-12T14:59:51Z</time>
      </trkpt>
      <trkpt lat="44.83528" lon="5.76533">
        <ele>1004</ele>
        <time>2013-07-12T15:00:06Z</time>
      </trkpt>
      <trkpt lat="44.83527" lon="5.76532">
        <ele>1004</ele>
        <time>2013-07-12T15:00:07Z</time>
      </trkpt>
      <trkpt lat="44.83517" lon="5.76507">
        <ele>1005</ele>
        <time>2013-07-12T15:00:22Z</time>
      </trkpt>
      <trkpt lat="44.83513" lon="5.76493">
        <ele>1005</ele>
        <time>2013-07-12T15:00:31Z</time>
      </trkpt>
      <trkpt lat="44.83511" lon="5.76488">
        <ele>1005</ele>
        <time>2013-07-12T15:00:34Z</time>
      </trkpt>
      <trkpt lat="44.83501" lon="5.76457">
        <ele>1006</ele>
        <time>2013-07-12T15:00:50Z</time>
      </trkpt>
      <trkpt lat="44.83497" lon="5.76447">
        <ele>1007</ele>
        <time>2013-07-12T15:00:55Z</time>
      </trkpt>
      <trkpt lat="44.83492" lon="5.76422">
        <ele>1006</ele>
        <time>2013-07-12T15:01:08Z</time>
      </trkpt>
      <trkpt lat="44.8349" lon="5.76401">
        <ele>1005</ele>
        <time>2013-07-12T15:01:21Z</time>
      </trkpt>
      <trkpt lat="44.83489" lon="5.76398">
        <ele>1004</ele>
        <time>2013-07-12T15:01:25Z</time>
      </trkpt>
      <trkpt lat="44.83489" lon="5.76386">
        <ele>1003</ele>
        <time>2013-07-12T15:01:31Z</time>
      </trkpt>
      <trkpt lat="44.83487" lon="5.76364">
        <ele>1002</ele>
        <time>2013-07-12T15:01:41Z</time>
      </trkpt>
      <trkpt lat="44.83484" lon="5.76336">
        <ele>1002</ele>
        <time>2013-07-12T15:01:56Z</time>
      </trkpt>
      <trkpt lat="44.83487" lon="5.76313">
        <ele>1000</ele>
        <time>2013-07-12T15:02:09Z</time>
      </trkpt>
      <trkpt lat="44.83487" lon="5.76286">
        <ele>999</ele>
        <time>2013-07-12T15:02:22Z</time>
      </trkpt>
      <trkpt lat="44.83482" lon="5.76266">
        <ele>999</ele>
        <time>2013-07-12T15:02:34Z</time>
      </trkpt>
      <trkpt lat="44.83481" lon="5.76264">
        <ele>998</ele>
        <time>2013-07-12T15:02:36Z</time>
      </trkpt>
      <trkpt lat="44.83481" lon="5.76232">
        <ele>997</ele>
        <time>2013-07-12T15:02:50Z</time>
      </trkpt>
      <trkpt lat="44.8348" lon="5.76217">
        <ele>996</ele>
        <time>2013-07-12T15:02:56Z</time>
      </trkpt>
      <trkpt lat="44.8348" lon="5.762">
        <ele>992</ele>
        <time>2013-07-12T15:03:09Z</time>
      </trkpt>
      <trkpt lat="44.8348" lon="5.76196">
        <ele>992</ele>
        <time>2013-07-12T15:03:12Z</time>
      </trkpt>
      <trkpt lat="44.8348" lon="5.76185">
        <ele>990</ele>
        <time>2013-07-12T15:03:17Z</time>
      </trkpt>
      <trkpt lat="44.83482" lon="5.76177">
        <ele>989</ele>
        <time>2013-07-12T15:03:21Z</time>
      </trkpt>
      <trkpt lat="44.83481" lon="5.76167">
        <ele>989</ele>
        <time>2013-07-12T15:03:25Z</time>
      </trkpt>
      <trkpt lat="44.83477" lon="5.76158">
        <ele>986</ele>
        <time>2013-07-12T15:03:31Z</time>
      </trkpt>
      <trkpt lat="44.83476" lon="5.76155">
        <ele>986</ele>
        <time>2013-07-12T15:03:33Z</time>
      </trkpt>
      <trkpt lat="44.83474" lon="5.76152">
        <ele>986</ele>
        <time>2013-07-12T15:03:35Z</time>
      </trkpt>
      <trkpt lat="44.83473" lon="5.76146">
        <ele>985</ele>
        <time>2013-07-12T15:03:38Z</time>
      </trkpt>
      <trkpt lat="44.83469" lon="5.76139">
        <ele>984</ele>
        <time>2013-07-12T15:03:43Z</time>
      </trkpt>
      <trkpt lat="44.83469" lon="5.76137">
        <ele>984</ele>
        <time>2013-07-12T15:03:44Z</time>
      </trkpt>
      <trkpt lat="44.83467" lon="5.76131">
        <ele>982</ele>
        <time>2013-07-12T15:03:48Z</time>
      </trkpt>
      <trkpt lat="44.83463" lon="5.76123">
        <ele>981</ele>
        <time>2013-07-12T15:03:54Z</time>
      </trkpt>
      <trkpt lat="44.83464" lon="5.76104">
        <ele>978</ele>
        <time>2013-07-12T15:04:05Z</time>
      </trkpt>
      <trkpt lat="44.83465" lon="5.76102">
        <ele>977</ele>
        <time>2013-07-12T15:04:07Z</time>
      </trkpt>
      <trkpt lat="44.83466" lon="5.76097">
        <ele>976</ele>
        <time>2013-07-12T15:04:10Z</time>
      </trkpt>
      <trkpt lat="44.83469" lon="5.7608">
        <ele>974</ele>
        <time>2013-07-12T15:04:19Z</time>
      </trkpt>
      <trkpt lat="44.83474" lon="5.76061">
        <ele>971</ele>
        <time>2013-07-12T15:04:31Z</time>
      </trkpt>
      <trkpt lat="44.83475" lon="5.76057">
        <ele>970</ele>
        <time>2013-07-12T15:04:34Z</time>
      </trkpt>
      <trkpt lat="44.83479" lon="5.76033">
        <ele>968</ele>
        <time>2013-07-12T15:04:50Z</time>
      </trkpt>
      <trkpt lat="44.83486" lon="5.76009">
        <ele>967</ele>
        <time>2013-07-12T15:05:05Z</time>
      </trkpt>
      <trkpt lat="44.83486" lon="5.76006">
        <ele>967</ele>
        <time>2013-07-12T15:05:06Z</time>
      </trkpt>
      <trkpt lat="44.83487" lon="5.75996">
        <ele>966</ele>
        <time>2013-07-12T15:05:10Z</time>
      </trkpt>
      <trkpt lat="44.83487" lon="5.75985">
        <ele>965</ele>
        <time>2013-07-12T15:05:13Z</time>
      </trkpt>
      <trkpt lat="44.83487" lon="5.75981">
        <ele>966</ele>
        <time>2013-07-12T15:05:15Z</time>
      </trkpt>
      <trkpt lat="44.83488" lon="5.75972">
        <ele>966</ele>
        <time>2013-07-12T15:05:18Z</time>
      </trkpt>
      <trkpt lat="44.83493" lon="5.75941">
        <ele>964</ele>
        <time>2013-07-12T15:05:35Z</time>
      </trkpt>
      <trkpt lat="44.83493" lon="5.7594">
        <ele>964</ele>
        <time>2013-07-12T15:05:36Z</time>
      </trkpt>
      <trkpt lat="44.83493" lon="5.75918">
        <ele>964</ele>
        <time>2013-07-12T15:05:46Z</time>
      </trkpt>
      <trkpt lat="44.83497" lon="5.75889">
        <ele>964</ele>
        <time>2013-07-12T15:06:00Z</time>
      </trkpt>
      <trkpt lat="44.835" lon="5.75878">
        <ele>964</ele>
        <time>2013-07-12T15:06:09Z</time>
      </trkpt>
      <trkpt lat="44.8351" lon="5.75843">
        <ele>964</ele>
        <time>2013-07-12T15:06:24Z</time>
      </trkpt>
      <trkpt lat="44.83511" lon="5.75829">
        <ele>964</ele>
        <time>2013-07-12T15:06:38Z</time>
      </trkpt>
      <trkpt lat="44.83511" lon="5.75825">
        <ele>964</ele>
        <time>2013-07-12T15:06:46Z</time>
      </trkpt>
      <trkpt lat="44.83512" lon="5.75811">
        <ele>963</ele>
        <time>2013-07-12T15:06:53Z</time>
      </trkpt>
      <trkpt lat="44.83518" lon="5.75779">
        <ele>963</ele>
        <time>2013-07-12T15:07:08Z</time>
      </trkpt>
      <trkpt lat="44.83519" lon="5.75774">
        <ele>962</ele>
        <time>2013-07-12T15:07:11Z</time>
      </trkpt>
      <trkpt lat="44.83526" lon="5.75753">
        <ele>961</ele>
        <time>2013-07-12T15:07:23Z</time>
      </trkpt>
      <trkpt lat="44.83532" lon="5.75728">
        <ele>958</ele>
        <time>2013-07-12T15:07:36Z</time>
      </trkpt>
      <trkpt lat="44.83536" lon="5.7571">
        <ele>956</ele>
        <time>2013-07-12T15:07:46Z</time>
      </trkpt>
      <trkpt lat="44.83539" lon="5.75699">
        <ele>955</ele>
        <time>2013-07-12T15:07:52Z</time>
      </trkpt>
      <trkpt lat="44.83552" lon="5.75672">
        <ele>953</ele>
        <time>2013-07-12T15:08:07Z</time>
      </trkpt>
      <trkpt lat="44.83561" lon="5.75641">
        <ele>951</ele>
        <time>2013-07-12T15:08:21Z</time>
      </trkpt>
      <trkpt lat="44.83574" lon="5.75619">
        <ele>950</ele>
        <time>2013-07-12T15:08:36Z</time>
      </trkpt>
      <trkpt lat="44.83574" lon="5.75618">
        <ele>949</ele>
        <time>2013-07-12T15:08:37Z</time>
      </trkpt>
      <trkpt lat="44.83577" lon="5.75617">
        <ele>949</ele>
        <time>2013-07-12T15:08:39Z</time>
      </trkpt>
      <trkpt lat="44.83579" lon="5.75614">
        <ele>948</ele>
        <time>2013-07-12T15:08:41Z</time>
      </trkpt>
      <trkpt lat="44.83591" lon="5.75595">
        <ele>947</ele>
        <time>2013-07-12T15:08:55Z</time>
      </trkpt>
      <trkpt lat="44.83599" lon="5.75587">
        <ele>944</ele>
        <time>2013-07-12T15:09:03Z</time>
      </trkpt>
      <trkpt lat="44.8361" lon="5.75582">
        <ele>942</ele>
        <time>2013-07-12T15:09:11Z</time>
      </trkpt>
      <trkpt lat="44.83615" lon="5.75577">
        <ele>942</ele>
        <time>2013-07-12T15:09:16Z</time>
      </trkpt>
      <trkpt lat="44.83623" lon="5.75573">
        <ele>941</ele>
        <time>2013-07-12T15:09:22Z</time>
      </trkpt>
      <trkpt lat="44.83645" lon="5.75567">
        <ele>938</ele>
        <time>2013-07-12T15:09:37Z</time>
      </trkpt>
      <trkpt lat="44.83663" lon="5.75545">
        <ele>937</ele>
        <time>2013-07-12T15:09:52Z</time>
      </trkpt>
      <trkpt lat="44.83672" lon="5.75533">
        <ele>936</ele>
        <time>2013-07-12T15:10:03Z</time>
      </trkpt>
      <trkpt lat="44.83672" lon="5.75533">
        <ele>936</ele>
        <time>2013-07-12T15:10:05Z</time>
      </trkpt>
      <trkpt lat="44.83684" lon="5.75517">
        <ele>936</ele>
        <time>2013-07-12T15:10:14Z</time>
      </trkpt>
      <trkpt lat="44.83695" lon="5.75505">
        <ele>936</ele>
        <time>2013-07-12T15:10:22Z</time>
      </trkpt>
      <trkpt lat="44.83704" lon="5.75493">
        <ele>936</ele>
        <time>2013-07-12T15:10:31Z</time>
      </trkpt>
      <trkpt lat="44.83707" lon="5.75482">
        <ele>936</ele>
        <time>2013-07-12T15:10:40Z</time>
      </trkpt>
      <trkpt lat="44.83714" lon="5.7548">
        <ele>936</ele>
        <time>2013-07-12T15:10:46Z</time>
      </trkpt>
      <trkpt lat="44.83726" lon="5.75464">
        <ele>935</ele>
        <time>2013-07-12T15:10:57Z</time>
      </trkpt>
      <trkpt lat="44.83738" lon="5.75436">
        <ele>936</ele>
        <time>2013-07-12T15:11:11Z</time>
      </trkpt>
      <trkpt lat="44.83755" lon="5.75417">
        <ele>937</ele>
        <time>2013-07-12T15:11:24Z</time>
      </trkpt>
      <trkpt lat="44.83758" lon="5.75415">
        <ele>937</ele>
        <time>2013-07-12T15:11:26Z</time>
      </trkpt>
      <trkpt lat="44.83766" lon="5.75405">
        <ele>938</ele>
        <time>2013-07-12T15:11:33Z</time>
      </trkpt>
      <trkpt lat="44.83783" lon="5.7539">
        <ele>939</ele>
        <time>2013-07-12T15:11:47Z</time>
      </trkpt>
      <trkpt lat="44.83804" lon="5.75382">
        <ele>942</ele>
        <time>2013-07-12T15:12:00Z</time>
      </trkpt>
      <trkpt lat="44.83809" lon="5.75378">
        <ele>944</ele>
        <time>2013-07-12T15:12:04Z</time>
      </trkpt>
      <trkpt lat="44.83818" lon="5.75357">
        <ele>947</ele>
        <time>2013-07-12T15:12:18Z</time>
      </trkpt>
      <trkpt lat="44.83819" lon="5.75347">
        <ele>948</ele>
        <time>2013-07-12T15:12:27Z</time>
      </trkpt>
      <trkpt lat="44.83827" lon="5.75312">
        <ele>950</ele>
        <time>2013-07-12T15:12:43Z</time>
      </trkpt>
      <trkpt lat="44.83835" lon="5.7529">
        <ele>952</ele>
        <time>2013-07-12T15:12:56Z</time>
      </trkpt>
      <trkpt lat="44.83838" lon="5.75274">
        <ele>953</ele>
        <time>2013-07-12T15:13:05Z</time>
      </trkpt>
      <trkpt lat="44.83844" lon="5.75242">
        <ele>958</ele>
        <time>2013-07-12T15:13:19Z</time>
      </trkpt>
      <trkpt lat="44.83844" lon="5.75241">
        <ele>956</ele>
        <time>2013-07-12T15:13:20Z</time>
      </trkpt>
      <trkpt lat="44.83845" lon="5.75233">
        <ele>959</ele>
        <time>2013-07-12T15:13:27Z</time>
      </trkpt>
      <trkpt lat="44.83845" lon="5.75232">
        <ele>959</ele>
        <time>2013-07-12T15:13:28Z</time>
      </trkpt>
      <trkpt lat="44.83845" lon="5.75229">
        <ele>955</ele>
        <time>2013-07-12T15:13:31Z</time>
      </trkpt>
      <trkpt lat="44.83844" lon="5.75229">
        <ele>960</ele>
        <time>2013-07-12T15:13:32Z</time>
      </trkpt>
      <trkpt lat="44.83844" lon="5.75229">
        <ele>960</ele>
        <time>2013-07-12T15:13:33Z</time>
      </trkpt>
      <trkpt lat="44.83845" lon="5.75203">
        <ele>957</ele>
        <time>2013-07-12T15:13:44Z</time>
      </trkpt>
      <trkpt lat="44.83845" lon="5.75201">
        <ele>961</ele>
        <time>2013-07-12T15:13:45Z</time>
      </trkpt>
      <trkpt lat="44.83845" lon="5.75199">
        <ele>957</ele>
        <time>2013-07-12T15:13:46Z</time>
      </trkpt>
      <trkpt lat="44.83846" lon="5.75194">
        <ele>965</ele>
        <time>2013-07-12T15:13:48Z</time>
      </trkpt>
      <trkpt lat="44.83846" lon="5.75192">
        <ele>960</ele>
        <time>2013-07-12T15:13:49Z</time>
      </trkpt>
      <trkpt lat="44.83846" lon="5.75185">
        <ele>957</ele>
        <time>2013-07-12T15:13:52Z</time>
      </trkpt>
      <trkpt lat="44.83847" lon="5.75182">
        <ele>965</ele>
        <time>2013-07-12T15:13:53Z</time>
      </trkpt>
      <trkpt lat="44.83847" lon="5.7518">
        <ele>961</ele>
        <time>2013-07-12T15:13:54Z</time>
      </trkpt>
      <trkpt lat="44.83853" lon="5.75145">
        <ele>963</ele>
        <time>2013-07-12T15:14:09Z</time>
      </trkpt>
      <trkpt lat="44.83853" lon="5.75117">
        <ele>960</ele>
        <time>2013-07-12T15:14:22Z</time>
      </trkpt>
      <trkpt lat="44.83854" lon="5.75087">
        <ele>960</ele>
        <time>2013-07-12T15:14:36Z</time>
      </trkpt>
      <trkpt lat="44.83853" lon="5.75082">
        <ele>960</ele>
        <time>2013-07-12T15:14:38Z</time>
      </trkpt>
      <trkpt lat="44.83849" lon="5.75061">
        <ele>959</ele>
        <time>2013-07-12T15:14:46Z</time>
      </trkpt>
      <trkpt lat="44.83846" lon="5.75053">
        <ele>959</ele>
        <time>2013-07-12T15:14:50Z</time>
      </trkpt>
      <trkpt lat="44.83846" lon="5.75043">
        <ele>958</ele>
        <time>2013-07-12T15:14:56Z</time>
      </trkpt>
      <trkpt lat="44.83847" lon="5.75037">
        <ele>958</ele>
        <time>2013-07-12T15:14:58Z</time>
      </trkpt>
      <trkpt lat="44.83846" lon="5.75026">
        <ele>957</ele>
        <time>2013-07-12T15:15:02Z</time>
      </trkpt>
      <trkpt lat="44.83844" lon="5.74987">
        <ele>957</ele>
        <time>2013-07-12T15:15:17Z</time>
      </trkpt>
      <trkpt lat="44.83844" lon="5.74972">
        <ele>956</ele>
        <time>2013-07-12T15:15:23Z</time>
      </trkpt>
      <trkpt lat="44.83841" lon="5.74961">
        <ele>956</ele>
        <time>2013-07-12T15:15:40Z</time>
      </trkpt>
      <trkpt lat="44.83841" lon="5.74961">
        <ele>956</ele>
        <time>2013-07-12T15:16:01Z</time>
      </trkpt>
      <trkpt lat="44.83841" lon="5.74958">
        <ele>956</ele>
        <time>2013-07-12T15:16:10Z</time>
      </trkpt>
      <trkpt lat="44.83845" lon="5.74947">
        <ele>955</ele>
        <time>2013-07-12T15:16:15Z</time>
      </trkpt>
      <trkpt lat="44.83854" lon="5.74917">
        <ele>956</ele>
        <time>2013-07-12T15:16:31Z</time>
      </trkpt>
      <trkpt lat="44.83853" lon="5.7491">
        <ele>957</ele>
        <time>2013-07-12T15:16:35Z</time>
      </trkpt>
      <trkpt lat="44.83852" lon="5.74896">
        <ele>959</ele>
        <time>2013-07-12T15:16:38Z</time>
      </trkpt>
      <trkpt lat="44.83852" lon="5.74839">
        <ele>960</ele>
        <time>2013-07-12T15:16:50Z</time>
      </trkpt>
      <trkpt lat="44.83854" lon="5.7479">
        <ele>964</ele>
        <time>2013-07-12T15:17:02Z</time>
      </trkpt>
      <trkpt lat="44.83865" lon="5.7475">
        <ele>966</ele>
        <time>2013-07-12T15:17:12Z</time>
      </trkpt>
      <trkpt lat="44.83881" lon="5.74723">
        <ele>966</ele>
        <time>2013-07-12T15:17:23Z</time>
      </trkpt>
      <trkpt lat="44.83884" lon="5.7472">
        <ele>966</ele>
        <time>2013-07-12T15:17:26Z</time>
      </trkpt>
      <trkpt lat="44.83893" lon="5.7469">
        <ele>962</ele>
        <time>2013-07-12T15:17:37Z</time>
      </trkpt>
      <trkpt lat="44.83909" lon="5.74665">
        <ele>961</ele>
        <time>2013-07-12T15:17:53Z</time>
      </trkpt>
      <trkpt lat="44.83935" lon="5.74639">
        <ele>961</ele>
        <time>2013-07-12T15:18:08Z</time>
      </trkpt>
      <trkpt lat="44.83943" lon="5.74632">
        <ele>961</ele>
        <time>2013-07-12T15:18:12Z</time>
      </trkpt>
      <trkpt lat="44.83967" lon="5.74609">
        <ele>961</ele>
        <time>2013-07-12T15:18:28Z</time>
      </trkpt>
      <trkpt lat="44.83988" lon="5.7459">
        <ele>961</ele>
        <time>2013-07-12T15:18:42Z</time>
      </trkpt>
      <trkpt lat="44.84002" lon="5.74578">
        <ele>961</ele>
        <time>2013-07-12T15:18:53Z</time>
      </trkpt>
      <trkpt lat="44.84026" lon="5.74563">
        <ele>959</ele>
        <time>2013-07-12T15:19:11Z</time>
      </trkpt>
      <trkpt lat="44.8405" lon="5.74565">
        <ele>958</ele>
        <time>2013-07-12T15:19:24Z</time>
      </trkpt>
      <trkpt lat="44.8407" lon="5.74569">
        <ele>958</ele>
        <time>2013-07-12T15:19:36Z</time>
      </trkpt>
      <trkpt lat="44.84081" lon="5.74571">
        <ele>956</ele>
        <time>2013-07-12T15:19:44Z</time>
      </trkpt>
      <trkpt lat="44.84091" lon="5.74573">
        <ele>954</ele>
        <time>2013-07-12T15:19:51Z</time>
      </trkpt>
      <trkpt lat="44.84106" lon="5.74569">
        <ele>954</ele>
        <time>2013-07-12T15:20:01Z</time>
      </trkpt>
      <trkpt lat="44.84116" lon="5.74562">
        <ele>953</ele>
        <time>2013-07-12T15:20:08Z</time>
      </trkpt>
      <trkpt lat="44.84137" lon="5.74545">
        <ele>951</ele>
        <time>2013-07-12T15:20:24Z</time>
      </trkpt>
      <trkpt lat="44.8415" lon="5.74535">
        <ele>949</ele>
        <time>2013-07-12T15:20:34Z</time>
      </trkpt>
      <trkpt lat="44.84167" lon="5.74525">
        <ele>947</ele>
        <time>2013-07-12T15:20:48Z</time>
      </trkpt>
      <trkpt lat="44.8417" lon="5.74524">
        <ele>946</ele>
        <time>2013-07-12T15:20:51Z</time>
      </trkpt>
      <trkpt lat="44.84186" lon="5.74512">
        <ele>943</ele>
        <time>2013-07-12T15:21:05Z</time>
      </trkpt>
      <trkpt lat="44.84205" lon="5.74493">
        <ele>940</ele>
        <time>2013-07-12T15:21:20Z</time>
      </trkpt>
      <trkpt lat="44.84218" lon="5.74482">
        <ele>936</ele>
        <time>2013-07-12T15:21:31Z</time>
      </trkpt>
      <trkpt lat="44.84227" lon="5.74471">
        <ele>935</ele>
        <time>2013-07-12T15:21:39Z</time>
      </trkpt>
      <trkpt lat="44.84239" lon="5.74452">
        <ele>931</ele>
        <time>2013-07-12T15:21:53Z</time>
      </trkpt>
      <trkpt lat="44.84241" lon="5.7445">
        <ele>930</ele>
        <time>2013-07-12T15:21:55Z</time>
      </trkpt>
      <trkpt lat="44.84246" lon="5.74438">
        <ele>927</ele>
        <time>2013-07-12T15:22:06Z</time>
      </trkpt>
      <trkpt lat="44.84252" lon="5.74427">
        <ele>924</ele>
        <time>2013-07-12T15:22:17Z</time>
      </trkpt>
      <trkpt lat="44.84253" lon="5.74425">
        <ele>924</ele>
        <time>2013-07-12T15:22:18Z</time>
      </trkpt>
      <trkpt lat="44.84255" lon="5.74424">
        <ele>923</ele>
        <time>2013-07-12T15:22:19Z</time>
      </trkpt>
      <trkpt lat="44.84261" lon="5.74416">
        <ele>921</ele>
        <time>2013-07-12T15:22:26Z</time>
      </trkpt>
      <trkpt lat="44.8427" lon="5.74405">
        <ele>918</ele>
        <time>2013-07-12T15:22:36Z</time>
      </trkpt>
      <trkpt lat="44.8428" lon="5.74394">
        <ele>915</ele>
        <time>2013-07-12T15:22:48Z</time>
      </trkpt>
      <trkpt lat="44.8428" lon="5.74393">
        <ele>914</ele>
        <time>2013-07-12T15:22:49Z</time>
      </trkpt>
      <trkpt lat="44.84288" lon="5.74385">
        <ele>913</ele>
        <time>2013-07-12T15:22:55Z</time>
      </trkpt>
      <trkpt lat="44.84299" lon="5.74381">
        <ele>910</ele>
        <time>2013-07-12T15:23:05Z</time>
      </trkpt>
      <trkpt lat="44.84298" lon="5.74374">
        <ele>909</ele>
        <time>2013-07-12T15:23:12Z</time>
      </trkpt>
      <trkpt lat="44.84293" lon="5.7437">
        <ele>910</ele>
        <time>2013-07-12T15:23:16Z</time>
      </trkpt>
      <trkpt lat="44.84273" lon="5.74357">
        <ele>908</ele>
        <time>2013-07-12T15:23:32Z</time>
      </trkpt>
      <trkpt lat="44.84258" lon="5.74355">
        <ele>906</ele>
        <time>2013-07-12T15:23:46Z</time>
      </trkpt>
      <trkpt lat="44.84258" lon="5.74354">
        <ele>906</ele>
        <time>2013-07-12T15:23:47Z</time>
      </trkpt>
      <trkpt lat="44.84249" lon="5.74355">
        <ele>905</ele>
        <time>2013-07-12T15:23:53Z</time>
      </trkpt>
      <trkpt lat="44.84224" lon="5.74363">
        <ele>905</ele>
        <time>2013-07-12T15:24:05Z</time>
      </trkpt>
      <trkpt lat="44.84198" lon="5.74352">
        <ele>904</ele>
        <time>2013-07-12T15:24:20Z</time>
      </trkpt>
      <trkpt lat="44.84183" lon="5.74343">
        <ele>902</ele>
        <time>2013-07-12T15:24:30Z</time>
      </trkpt>
      <trkpt lat="44.84175" lon="5.74311">
        <ele>902</ele>
        <time>2013-07-12T15:24:46Z</time>
      </trkpt>
      <trkpt lat="44.8417" lon="5.74281">
        <ele>900</ele>
        <time>2013-07-12T15:25:00Z</time>
      </trkpt>
      <trkpt lat="44.84167" lon="5.74269">
        <ele>898</ele>
        <time>2013-07-12T15:25:07Z</time>
      </trkpt>
      <trkpt lat="44.84164" lon="5.74258">
        <ele>906</ele>
        <time>2013-07-12T15:25:21Z</time>
      </trkpt>
      <trkpt lat="44.84164" lon="5.74258">
        <ele>898</ele>
        <time>2013-07-12T15:25:22Z</time>
      </trkpt>
      <trkpt lat="44.84164" lon="5.74257">
        <ele>897</ele>
        <time>2013-07-12T15:25:24Z</time>
      </trkpt>
      <trkpt lat="44.84164" lon="5.74256">
        <ele>896</ele>
        <time>2013-07-12T15:25:38Z</time>
      </trkpt>
      <trkpt lat="44.84165" lon="5.74254">
        <ele>896</ele>
        <time>2013-07-12T15:25:55Z</time>
      </trkpt>
      <trkpt lat="44.84171" lon="5.7424">
        <ele>894</ele>
        <time>2013-07-12T15:26:03Z</time>
      </trkpt>
      <trkpt lat="44.84174" lon="5.74231">
        <ele>892</ele>
        <time>2013-07-12T15:26:08Z</time>
      </trkpt>
      <trkpt lat="44.84175" lon="5.74228">
        <ele>892</ele>
        <time>2013-07-12T15:26:10Z</time>
      </trkpt>
      <trkpt lat="44.84176" lon="5.74223">
        <ele>890</ele>
        <time>2013-07-12T15:26:13Z</time>
      </trkpt>
      <trkpt lat="44.84183" lon="5.74211">
        <ele>888</ele>
        <time>2013-07-12T15:26:23Z</time>
      </trkpt>
      <trkpt lat="44.84186" lon="5.74206">
        <ele>887</ele>
        <time>2013-07-12T15:26:27Z</time>
      </trkpt>
      <trkpt lat="44.84188" lon="5.74204">
        <ele>886</ele>
        <time>2013-07-12T15:26:29Z</time>
      </trkpt>
      <trkpt lat="44.8419" lon="5.74199">
        <ele>886</ele>
        <time>2013-07-12T15:26:32Z</time>
      </trkpt>
      <trkpt lat="44.84191" lon="5.7419">
        <ele>884</ele>
        <time>2013-07-12T15:26:37Z</time>
      </trkpt>
      <trkpt lat="44.84192" lon="5.7418">
        <ele>882</ele>
        <time>2013-07-12T15:26:48Z</time>
      </trkpt>
      <trkpt lat="44.84196" lon="5.74172">
        <ele>880</ele>
        <time>2013-07-12T15:26:59Z</time>
      </trkpt>
      <trkpt lat="44.84194" lon="5.74165">
        <ele>877</ele>
        <time>2013-07-12T15:27:10Z</time>
      </trkpt>
      <trkpt lat="44.84194" lon="5.74164">
        <ele>877</ele>
        <time>2013-07-12T15:27:11Z</time>
      </trkpt>
      <trkpt lat="44.84192" lon="5.7416">
        <ele>877</ele>
        <time>2013-07-12T15:27:14Z</time>
      </trkpt>
      <trkpt lat="44.84194" lon="5.74149">
        <ele>876</ele>
        <time>2013-07-12T15:27:20Z</time>
      </trkpt>
      <trkpt lat="44.84196" lon="5.74146">
        <ele>876</ele>
        <time>2013-07-12T15:27:22Z</time>
      </trkpt>
      <trkpt lat="44.842" lon="5.74142">
        <ele>876</ele>
        <time>2013-07-12T15:27:25Z</time>
      </trkpt>
      <trkpt lat="44.84209" lon="5.74134">
        <ele>876</ele>
        <time>2013-07-12T15:27:35Z</time>
      </trkpt>
      <trkpt lat="44.84211" lon="5.74137">
        <ele>876</ele>
        <time>2013-07-12T15:27:38Z</time>
      </trkpt>
      <trkpt lat="44.84216" lon="5.74141">
        <ele>874</ele>
        <time>2013-07-12T15:27:53Z</time>
      </trkpt>
      <trkpt lat="44.84218" lon="5.74129">
        <ele>873</ele>
        <time>2013-07-12T15:28:12Z</time>
      </trkpt>
      <trkpt lat="44.84221" lon="5.74123">
        <ele>869</ele>
        <time>2013-07-12T15:28:21Z</time>
      </trkpt>
      <trkpt lat="44.84232" lon="5.74115">
        <ele>866</ele>
        <time>2013-07-12T15:28:34Z</time>
      </trkpt>
      <trkpt lat="44.84237" lon="5.74103">
        <ele>863</ele>
        <time>2013-07-12T15:28:47Z</time>
      </trkpt>
      <trkpt lat="44.84237" lon="5.74086">
        <ele>862</ele>
        <time>2013-07-12T15:28:59Z</time>
      </trkpt>
      <trkpt lat="44.84238" lon="5.74075">
        <ele>862</ele>
        <time>2013-07-12T15:29:11Z</time>
      </trkpt>
      <trkpt lat="44.84237" lon="5.74049">
        <ele>861</ele>
        <time>2013-07-12T15:29:26Z</time>
      </trkpt>
      <trkpt lat="44.84231" lon="5.74028">
        <ele>860</ele>
        <time>2013-07-12T15:29:40Z</time>
      </trkpt>
      <trkpt lat="44.8423" lon="5.74025">
        <ele>860</ele>
        <time>2013-07-12T15:29:44Z</time>
      </trkpt>
      <trkpt lat="44.84224" lon="5.74015">
        <ele>860</ele>
        <time>2013-07-12T15:29:58Z</time>
      </trkpt>
      <trkpt lat="44.84216" lon="5.74005">
        <ele>858</ele>
        <time>2013-07-12T15:30:11Z</time>
      </trkpt>
      <trkpt lat="44.84206" lon="5.73995">
        <ele>855</ele>
        <time>2013-07-12T15:30:23Z</time>
      </trkpt>
      <trkpt lat="44.84193" lon="5.73978">
        <ele>853</ele>
        <time>2013-07-12T15:30:37Z</time>
      </trkpt>
      <trkpt lat="44.84191" lon="5.73972">
        <ele>852</ele>
        <time>2013-07-12T15:30:51Z</time>
      </trkpt>
      <trkpt lat="44.84192" lon="5.73971">
        <ele>851</ele>
        <time>2013-07-12T15:30:53Z</time>
      </trkpt>
      <trkpt lat="44.84194" lon="5.73956">
        <ele>848</ele>
        <time>2013-07-12T15:31:06Z</time>
      </trkpt>
      <trkpt lat="44.84197" lon="5.7394">
        <ele>846</ele>
        <time>2013-07-12T15:31:19Z</time>
      </trkpt>
      <trkpt lat="44.84194" lon="5.73927">
        <ele>843</ele>
        <time>2013-07-12T15:31:31Z</time>
      </trkpt>
      <trkpt lat="44.84185" lon="5.73924">
        <ele>842</ele>
        <time>2013-07-12T15:31:44Z</time>
      </trkpt>
      <trkpt lat="44.84184" lon="5.7392">
        <ele>841</ele>
        <time>2013-07-12T15:31:49Z</time>
      </trkpt>
      <trkpt lat="44.84181" lon="5.73908">
        <ele>840</ele>
        <time>2013-07-12T15:32:00Z</time>
      </trkpt>
      <trkpt lat="44.84174" lon="5.73907">
        <ele>839</ele>
        <time>2013-07-12T15:32:04Z</time>
      </trkpt>
      <trkpt lat="44.84142" lon="5.739">
        <ele>837</ele>
        <time>2013-07-12T15:32:20Z</time>
      </trkpt>
      <trkpt lat="44.84137" lon="5.7389">
        <ele>836</ele>
        <time>2013-07-12T15:32:26Z</time>
      </trkpt>
      <trkpt lat="44.84127" lon="5.73873">
        <ele>835</ele>
        <time>2013-07-12T15:32:41Z</time>
      </trkpt>
      <trkpt lat="44.84117" lon="5.73854">
        <ele>833</ele>
        <time>2013-07-12T15:32:58Z</time>
      </trkpt>
      <trkpt lat="44.84118" lon="5.7384">
        <ele>831</ele>
        <time>2013-07-12T15:33:14Z</time>
      </trkpt>
      <trkpt lat="44.84117" lon="5.73826">
        <ele>829</ele>
        <time>2013-07-12T15:33:29Z</time>
      </trkpt>
      <trkpt lat="44.8411" lon="5.73804">
        <ele>827</ele>
        <time>2013-07-12T15:33:43Z</time>
      </trkpt>
      <trkpt lat="44.84099" lon="5.73777">
        <ele>826</ele>
        <time>2013-07-12T15:34:01Z</time>
      </trkpt>
      <trkpt lat="44.84089" lon="5.73749">
        <ele>825</ele>
        <time>2013-07-12T15:34:14Z</time>
      </trkpt>
      <trkpt lat="44.84079" lon="5.73737">
        <ele>824</ele>
        <time>2013-07-12T15:34:28Z</time>
      </trkpt>
      <trkpt lat="44.8408" lon="5.73732">
        <ele>823</ele>
        <time>2013-07-12T15:34:36Z</time>
      </trkpt>
      <trkpt lat="44.84084" lon="5.73726">
        <ele>821</ele>
        <time>2013-07-12T15:34:52Z</time>
      </trkpt>
      <trkpt lat="44.84088" lon="5.73728">
        <ele>820</ele>
        <time>2013-07-12T15:35:06Z</time>
      </trkpt>
      <trkpt lat="44.84089" lon="5.73728">
        <ele>821</ele>
        <time>2013-07-12T15:35:09Z</time>
      </trkpt>
      <trkpt lat="44.84104" lon="5.7373">
        <ele>819</ele>
        <time>2013-07-12T15:35:20Z</time>
      </trkpt>
      <trkpt lat="44.84116" lon="5.73735">
        <ele>816</ele>
        <time>2013-07-12T15:35:33Z</time>
      </trkpt>
      <trkpt lat="44.84133" lon="5.73737">
        <ele>814</ele>
        <time>2013-07-12T15:35:45Z</time>
      </trkpt>
      <trkpt lat="44.8414" lon="5.7374">
        <ele>813</ele>
        <time>2013-07-12T15:35:50Z</time>
      </trkpt>
      <trkpt lat="44.84155" lon="5.73747">
        <ele>811</ele>
        <time>2013-07-12T15:36:05Z</time>
      </trkpt>
      <trkpt lat="44.84158" lon="5.73748">
        <ele>811</ele>
        <time>2013-07-12T15:36:07Z</time>
      </trkpt>
      <trkpt lat="44.84172" lon="5.73756">
        <ele>809</ele>
        <time>2013-07-12T15:36:20Z</time>
      </trkpt>
      <trkpt lat="44.84176" lon="5.73754">
        <ele>808</ele>
        <time>2013-07-12T15:36:26Z</time>
      </trkpt>
      <trkpt lat="44.84179" lon="5.73752">
        <ele>808</ele>
        <time>2013-07-12T15:36:29Z</time>
      </trkpt>
      <trkpt lat="44.84195" lon="5.73752">
        <ele>805</ele>
        <time>2013-07-12T15:36:44Z</time>
      </trkpt>
      <trkpt lat="44.84204" lon="5.73751">
        <ele>804</ele>
        <time>2013-07-12T15:36:55Z</time>
      </trkpt>
      <trkpt lat="44.84216" lon="5.73746">
        <ele>801</ele>
        <time>2013-07-12T15:37:04Z</time>
      </trkpt>
      <trkpt lat="44.84216" lon="5.73745">
        <ele>792</ele>
        <time>2013-07-12T15:37:06Z</time>
      </trkpt>
      <trkpt lat="44.84216" lon="5.73745">
        <ele>799</ele>
        <time>2013-07-12T15:37:07Z</time>
      </trkpt>
      <trkpt lat="44.84216" lon="5.73745">
        <ele>805</ele>
        <time>2013-07-12T15:37:09Z</time>
      </trkpt>
      <trkpt lat="44.84216" lon="5.73745">
        <ele>803</ele>
        <time>2013-07-12T15:37:10Z</time>
      </trkpt>
      <trkpt lat="44.84227" lon="5.73742">
        <ele>801</ele>
        <time>2013-07-12T15:37:25Z</time>
      </trkpt>
      <trkpt lat="44.84227" lon="5.73741">
        <ele>802</ele>
        <time>2013-07-12T15:37:44Z</time>
      </trkpt>
      <trkpt lat="44.84227" lon="5.7374">
        <ele>801</ele>
        <time>2013-07-12T15:38:02Z</time>
      </trkpt>
      <trkpt lat="44.8423" lon="5.73739">
        <ele>802</ele>
        <time>2013-07-12T15:38:19Z</time>
      </trkpt>
      <trkpt lat="44.8423" lon="5.73738">
        <ele>803</ele>
        <time>2013-07-12T15:38:35Z</time>
      </trkpt>
      <trkpt lat="44.84229" lon="5.73737">
        <ele>804</ele>
        <time>2013-07-12T15:38:48Z</time>
      </trkpt>
      <trkpt lat="44.84227" lon="5.7374">
        <ele>803</ele>
        <time>2013-07-12T15:39:06Z</time>
      </trkpt>
      <trkpt lat="44.84227" lon="5.7374">
        <ele>804</ele>
        <time>2013-07-12T15:39:34Z</time>
      </trkpt>
      <trkpt lat="44.84227" lon="5.73741">
        <ele>804</ele>
        <time>2013-07-12T15:39:54Z</time>
      </trkpt>
      <trkpt lat="44.84228" lon="5.7374">
        <ele>804</ele>
        <time>2013-07-12T15:40:14Z</time>
      </trkpt>
      <trkpt lat="44.84229" lon="5.73738">
        <ele>803</ele>
        <time>2013-07-12T15:40:31Z</time>
      </trkpt>
      <trkpt lat="44.84242" lon="5.73732">
        <ele>802</ele>
        <time>2013-07-12T15:40:45Z</time>
      </trkpt>
      <trkpt lat="44.84248" lon="5.73729">
        <ele>800</ele>
        <time>2013-07-12T15:40:58Z</time>
      </trkpt>
      <trkpt lat="44.84258" lon="5.7373">
        <ele>799</ele>
        <time>2013-07-12T15:41:11Z</time>
      </trkpt>
      <trkpt lat="44.84269" lon="5.73727">
        <ele>798</ele>
        <time>2013-07-12T15:41:21Z</time>
      </trkpt>
      <trkpt lat="44.84283" lon="5.7373">
        <ele>797</ele>
        <time>2013-07-12T15:41:37Z</time>
      </trkpt>
      <trkpt lat="44.8429" lon="5.73741">
        <ele>795</ele>
        <time>2013-07-12T15:41:46Z</time>
      </trkpt>
      <trkpt lat="44.84307" lon="5.7375">
        <ele>794</ele>
        <time>2013-07-12T15:41:56Z</time>
      </trkpt>
      <trkpt lat="44.84321" lon="5.73754">
        <ele>794</ele>
        <time>2013-07-12T15:42:13Z</time>
      </trkpt>
      <trkpt lat="44.84324" lon="5.73752">
        <ele>793</ele>
        <time>2013-07-12T15:42:27Z</time>
      </trkpt>
      <trkpt lat="44.84324" lon="5.73752">
        <ele>793</ele>
        <time>2013-07-12T15:42:48Z</time>
      </trkpt>
      <trkpt lat="44.84324" lon="5.73752">
        <ele>793</ele>
        <time>2013-07-12T15:43:09Z</time>
      </trkpt>
      <trkpt lat="44.84325" lon="5.73751">
        <ele>793</ele>
        <time>2013-07-12T15:43:30Z</time>
      </trkpt>
      <trkpt lat="44.84327" lon="5.73751">
        <ele>792</ele>
        <time>2013-07-12T15:43:37Z</time>
      </trkpt>
      <trkpt lat="44.84334" lon="5.73746">
        <ele>791</ele>
        <time>2013-07-12T15:43:48Z</time>
      </trkpt>
      <trkpt lat="44.84341" lon="5.73745">
        <ele>790</ele>
        <time>2013-07-12T15:43:55Z</time>
      </trkpt>
      <trkpt lat="44.8435" lon="5.7374">
        <ele>789</ele>
        <time>2013-07-12T15:44:03Z</time>
      </trkpt>
      <trkpt lat="44.84354" lon="5.73739">
        <ele>788</ele>
        <time>2013-07-12T15:44:06Z</time>
      </trkpt>
      <trkpt lat="44.84357" lon="5.73738">
        <ele>787</ele>
        <time>2013-07-12T15:44:12Z</time>
      </trkpt>
      <trkpt lat="44.84363" lon="5.73735">
        <ele>787</ele>
        <time>2013-07-12T15:44:17Z</time>
      </trkpt>
      <trkpt lat="44.84373" lon="5.73723">
        <ele>785</ele>
        <time>2013-07-12T15:44:29Z</time>
      </trkpt>
      <trkpt lat="44.84381" lon="5.73717">
        <ele>784</ele>
        <time>2013-07-12T15:44:44Z</time>
      </trkpt>
      <trkpt lat="44.84385" lon="5.73714">
        <ele>784</ele>
        <time>2013-07-12T15:44:59Z</time>
      </trkpt>
      <trkpt lat="44.84397" lon="5.73704">
        <ele>783</ele>
        <time>2013-07-12T15:45:10Z</time>
      </trkpt>
      <trkpt lat="44.84401" lon="5.737">
        <ele>782</ele>
        <time>2013-07-12T15:45:14Z</time>
      </trkpt>
      <trkpt lat="44.8441" lon="5.73679">
        <ele>781</ele>
        <time>2013-07-12T15:45:26Z</time>
      </trkpt>
      <trkpt lat="44.84413" lon="5.73658">
        <ele>780</ele>
        <time>2013-07-12T15:45:39Z</time>
      </trkpt>
      <trkpt lat="44.84413" lon="5.73639">
        <ele>780</ele>
        <time>2013-07-12T15:45:53Z</time>
      </trkpt>
      <trkpt lat="44.84413" lon="5.73635">
        <ele>780</ele>
        <time>2013-07-12T15:45:55Z</time>
      </trkpt>
      <trkpt lat="44.84416" lon="5.73613">
        <ele>780</ele>
        <time>2013-07-12T15:46:09Z</time>
      </trkpt>
      <trkpt lat="44.84415" lon="5.73611">
        <ele>781</ele>
        <time>2013-07-12T15:46:26Z</time>
      </trkpt>
      <trkpt lat="44.84415" lon="5.73606">
        <ele>781</ele>
        <time>2013-07-12T15:46:43Z</time>
      </trkpt>
      <trkpt lat="44.84419" lon="5.73601">
        <ele>781</ele>
        <time>2013-07-12T15:47:04Z</time>
      </trkpt>
      <trkpt lat="44.84418" lon="5.73597">
        <ele>782</ele>
        <time>2013-07-12T15:47:08Z</time>
      </trkpt>
      <trkpt lat="44.84416" lon="5.73594">
        <ele>782</ele>
        <time>2013-07-12T15:47:21Z</time>
      </trkpt>
      <trkpt lat="44.84417" lon="5.73594">
        <ele>782</ele>
        <time>2013-07-12T15:47:36Z</time>
      </trkpt>
      <trkpt lat="44.84418" lon="5.73594">
        <ele>781</ele>
        <time>2013-07-12T15:47:42Z</time>
      </trkpt>
      <trkpt lat="44.8442" lon="5.73593">
        <ele>780</ele>
        <time>2013-07-12T15:47:44Z</time>
      </trkpt>
      <trkpt lat="44.84435" lon="5.73594">
        <ele>779</ele>
        <time>2013-07-12T15:47:58Z</time>
      </trkpt>
      <trkpt lat="44.84436" lon="5.73594">
        <ele>779</ele>
        <time>2013-07-12T15:48:02Z</time>
      </trkpt>
      <trkpt lat="44.84456" lon="5.73593">
        <ele>778</ele>
        <time>2013-07-12T15:48:16Z</time>
      </trkpt>
      <trkpt lat="44.84459" lon="5.73595">
        <ele>778</ele>
        <time>2013-07-12T15:48:20Z</time>
      </trkpt>
      <trkpt lat="44.84466" lon="5.73594">
        <ele>777</ele>
        <time>2013-07-12T15:48:26Z</time>
      </trkpt>
      <trkpt lat="44.84482" lon="5.73593">
        <ele>776</ele>
        <time>2013-07-12T15:48:40Z</time>
      </trkpt>
      <trkpt lat="44.845" lon="5.73585">
        <ele>776</ele>
        <time>2013-07-12T15:48:57Z</time>
      </trkpt>
      <trkpt lat="44.84514" lon="5.73576">
        <ele>774</ele>
        <time>2013-07-12T15:49:11Z</time>
      </trkpt>
      <trkpt lat="44.84532" lon="5.73564">
        <ele>772</ele>
        <time>2013-07-12T15:49:26Z</time>
      </trkpt>
      <trkpt lat="44.84545" lon="5.73554">
        <ele>770</ele>
        <time>2013-07-12T15:49:40Z</time>
      </trkpt>
      <trkpt lat="44.84556" lon="5.73547">
        <ele>768</ele>
        <time>2013-07-12T15:49:51Z</time>
      </trkpt>
      <trkpt lat="44.84571" lon="5.73535">
        <ele>766</ele>
        <time>2013-07-12T15:50:07Z</time>
      </trkpt>
      <trkpt lat="44.84585" lon="5.73523">
        <ele>764</ele>
        <time>2013-07-12T15:50:23Z</time>
      </trkpt>
      <trkpt lat="44.84598" lon="5.73514">
        <ele>761</ele>
        <time>2013-07-12T15:50:39Z</time>
      </trkpt>
      <trkpt lat="44.84614" lon="5.73504">
        <ele>760</ele>
        <time>2013-07-12T15:50:55Z</time>
      </trkpt>
      <trkpt lat="44.84632" lon="5.73487">
        <ele>759</ele>
        <time>2013-07-12T15:51:09Z</time>
      </trkpt>
      <trkpt lat="44.84646" lon="5.73483">
        <ele>759</ele>
        <time>2013-07-12T15:51:26Z</time>
      </trkpt>
      <trkpt lat="44.84652" lon="5.73484">
        <ele>759</ele>
        <time>2013-07-12T15:51:42Z</time>
      </trkpt>
      <trkpt lat="44.84656" lon="5.73482">
        <ele>759</ele>
        <time>2013-07-12T15:51:57Z</time>
      </trkpt>
      <trkpt lat="44.84658" lon="5.73481">
        <ele>759</ele>
        <time>2013-07-12T15:52:18Z</time>
      </trkpt>
      <trkpt lat="44.84672" lon="5.7347">
        <ele>759</ele>
        <time>2013-07-12T15:52:33Z</time>
      </trkpt>
      <trkpt lat="44.84671" lon="5.73471">
        <ele>751</ele>
        <time>2013-07-12T15:52:42Z</time>
      </trkpt>
      <trkpt lat="44.84671" lon="5.73471">
        <ele>760</ele>
        <time>2013-07-12T15:52:43Z</time>
      </trkpt>
      <trkpt lat="44.84671" lon="5.73471">
        <ele>758</ele>
        <time>2013-07-12T15:53:04Z</time>
      </trkpt>
      <trkpt lat="44.84673" lon="5.73472">
        <ele>759</ele>
        <time>2013-07-12T15:53:29Z</time>
      </trkpt>
      <trkpt lat="44.84673" lon="5.73472">
        <ele>759</ele>
        <time>2013-07-12T15:53:30Z</time>
      </trkpt>
      <trkpt lat="44.8467" lon="5.73476">
        <ele>758</ele>
        <time>2013-07-12T15:53:34Z</time>
      </trkpt>
      <trkpt lat="44.8466" lon="5.73481">
        <ele>759</ele>
        <time>2013-07-12T15:53:50Z</time>
      </trkpt>
      <trkpt lat="44.84659" lon="5.73481">
        <ele>758</ele>
        <time>2013-07-12T15:54:04Z</time>
      </trkpt>
      <trkpt lat="44.8466" lon="5.73479">
        <ele>758</ele>
        <time>2013-07-12T15:54:19Z</time>
      </trkpt>
      <trkpt lat="44.8466" lon="5.73479">
        <ele>759</ele>
        <time>2013-07-12T15:54:41Z</time>
      </trkpt>
      <trkpt lat="44.84661" lon="5.73477">
        <ele>759</ele>
        <time>2013-07-12T15:54:49Z</time>
      </trkpt>
      <trkpt lat="44.84685" lon="5.73464">
        <ele>760</ele>
        <time>2013-07-12T15:55:05Z</time>
      </trkpt>
      <trkpt lat="44.84701" lon="5.73446">
        <ele>762</ele>
        <time>2013-07-12T15:55:19Z</time>
      </trkpt>
      <trkpt lat="44.84701" lon="5.7342">
        <ele>762</ele>
        <time>2013-07-12T15:55:28Z</time>
      </trkpt>
      <trkpt lat="44.84688" lon="5.73395">
        <ele>764</ele>
        <time>2013-07-12T15:55:41Z</time>
      </trkpt>
      <trkpt lat="44.84687" lon="5.73394">
        <ele>763</ele>
        <time>2013-07-12T15:55:42Z</time>
      </trkpt>
      <trkpt lat="44.84671" lon="5.73372">
        <ele>765</ele>
        <time>2013-07-12T15:55:58Z</time>
      </trkpt>
      <trkpt lat="44.84655" lon="5.73346">
        <ele>766</ele>
        <time>2013-07-12T15:56:13Z</time>
      </trkpt>
      <trkpt lat="44.84636" lon="5.73321">
        <ele>767</ele>
        <time>2013-07-12T15:56:27Z</time>
      </trkpt>
      <trkpt lat="44.84623" lon="5.73293">
        <ele>768</ele>
        <time>2013-07-12T15:56:43Z</time>
      </trkpt>
      <trkpt lat="44.84616" lon="5.73274">
        <ele>767</ele>
        <time>2013-07-12T15:56:51Z</time>
      </trkpt>
      <trkpt lat="44.84615" lon="5.73264">
        <ele>768</ele>
        <time>2013-07-12T15:56:55Z</time>
      </trkpt>
      <trkpt lat="44.84607" lon="5.73224">
        <ele>769</ele>
        <time>2013-07-12T15:57:13Z</time>
      </trkpt>
      <trkpt lat="44.84607" lon="5.73218">
        <ele>769</ele>
        <time>2013-07-12T15:57:16Z</time>
      </trkpt>
      <trkpt lat="44.84607" lon="5.73202">
        <ele>769</ele>
        <time>2013-07-12T15:57:22Z</time>
      </trkpt>
      <trkpt lat="44.846" lon="5.73177">
        <ele>771</ele>
        <time>2013-07-12T15:57:35Z</time>
      </trkpt>
      <trkpt lat="44.84575" lon="5.73141">
        <ele>773</ele>
        <time>2013-07-12T15:57:54Z</time>
      </trkpt>
      <trkpt lat="44.84569" lon="5.7312">
        <ele>773</ele>
        <time>2013-07-12T15:58:12Z</time>
      </trkpt>
      <trkpt lat="44.8457" lon="5.73114">
        <ele>774</ele>
        <time>2013-07-12T15:58:17Z</time>
      </trkpt>
      <trkpt lat="44.84571" lon="5.73107">
        <ele>774</ele>
        <time>2013-07-12T15:58:21Z</time>
      </trkpt>
      <trkpt lat="44.84559" lon="5.73074">
        <ele>775</ele>
        <time>2013-07-12T15:58:37Z</time>
      </trkpt>
      <trkpt lat="44.84544" lon="5.73035">
        <ele>777</ele>
        <time>2013-07-12T15:58:54Z</time>
      </trkpt>
      <trkpt lat="44.84538" lon="5.72994">
        <ele>778</ele>
        <time>2013-07-12T15:59:09Z</time>
      </trkpt>
      <trkpt lat="44.84521" lon="5.72944">
        <ele>781</ele>
        <time>2013-07-12T15:59:20Z</time>
      </trkpt>
      <trkpt lat="44.84504" lon="5.72909">
        <ele>785</ele>
        <time>2013-07-12T15:59:27Z</time>
      </trkpt>
      <trkpt lat="44.84503" lon="5.72905">
        <ele>785</ele>
        <time>2013-07-12T15:59:28Z</time>
      </trkpt>
      <trkpt lat="44.84487" lon="5.72843">
        <ele>788</ele>
        <time>2013-07-12T15:59:42Z</time>
      </trkpt>
      <trkpt lat="44.84463" lon="5.72788">
        <ele>792</ele>
        <time>2013-07-12T15:59:54Z</time>
      </trkpt>
      <trkpt lat="44.8446" lon="5.72782">
        <ele>792</ele>
        <time>2013-07-12T15:59:55Z</time>
      </trkpt>
      <trkpt lat="44.84449" lon="5.72766">
        <ele>793</ele>
        <time>2013-07-12T15:59:58Z</time>
      </trkpt>
      <trkpt lat="44.84446" lon="5.72759">
        <ele>793</ele>
        <time>2013-07-12T15:59:59Z</time>
      </trkpt>
      <trkpt lat="44.84445" lon="5.72753">
        <ele>794</ele>
        <time>2013-07-12T16:00:00Z</time>
      </trkpt>
      <trkpt lat="44.84436" lon="5.72729">
        <ele>795</ele>
        <time>2013-07-12T16:00:04Z</time>
      </trkpt>
      <trkpt lat="44.84425" lon="5.72713">
        <ele>799</ele>
        <time>2013-07-12T16:00:09Z</time>
      </trkpt>
      <trkpt lat="44.84413" lon="5.7269">
        <ele>801</ele>
        <time>2013-07-12T16:00:16Z</time>
      </trkpt>
      <trkpt lat="44.84411" lon="5.72686">
        <ele>802</ele>
        <time>2013-07-12T16:00:17Z</time>
      </trkpt>
      <trkpt lat="44.84403" lon="5.72644">
        <ele>805</ele>
        <time>2013-07-12T16:00:26Z</time>
      </trkpt>
      <trkpt lat="44.84396" lon="5.72614">
        <ele>808</ele>
        <time>2013-07-12T16:00:31Z</time>
      </trkpt>
      <trkpt lat="44.84381" lon="5.72581">
        <ele>811</ele>
        <time>2013-07-12T16:00:42Z</time>
      </trkpt>
      <trkpt lat="44.8437" lon="5.72557">
        <ele>814</ele>
        <time>2013-07-12T16:00:55Z</time>
      </trkpt>
      <trkpt lat="44.84367" lon="5.72546">
        <ele>816</ele>
        <time>2013-07-12T16:01:12Z</time>
      </trkpt>
      <trkpt lat="44.84368" lon="5.72545">
        <ele>816</ele>
        <time>2013-07-12T16:01:13Z</time>
      </trkpt>
      <trkpt lat="44.84372" lon="5.72533">
        <ele>819</ele>
        <time>2013-07-12T16:01:23Z</time>
      </trkpt>
      <trkpt lat="44.84372" lon="5.72531">
        <ele>820</ele>
        <time>2013-07-12T16:01:24Z</time>
      </trkpt>
      <trkpt lat="44.84367" lon="5.72524">
        <ele>820</ele>
        <time>2013-07-12T16:01:28Z</time>
      </trkpt>
      <trkpt lat="44.84347" lon="5.72494">
        <ele>823</ele>
        <time>2013-07-12T16:01:42Z</time>
      </trkpt>
      <trkpt lat="44.84346" lon="5.72493">
        <ele>823</ele>
        <time>2013-07-12T16:01:43Z</time>
      </trkpt>
      <trkpt lat="44.84344" lon="5.7249">
        <ele>823</ele>
        <time>2013-07-12T16:01:44Z</time>
      </trkpt>
      <trkpt lat="44.84342" lon="5.72489">
        <ele>823</ele>
        <time>2013-07-12T16:01:45Z</time>
      </trkpt>
      <trkpt lat="44.84318" lon="5.72464">
        <ele>825</ele>
        <time>2013-07-12T16:02:03Z</time>
      </trkpt>
      <trkpt lat="44.8432" lon="5.72463">
        <ele>826</ele>
        <time>2013-07-12T16:02:19Z</time>
      </trkpt>
      <trkpt lat="44.84321" lon="5.72469">
        <ele>825</ele>
        <time>2013-07-12T16:02:37Z</time>
      </trkpt>
      <trkpt lat="44.84322" lon="5.72467">
        <ele>826</ele>
        <time>2013-07-12T16:02:54Z</time>
      </trkpt>
      <trkpt lat="44.84315" lon="5.72458">
        <ele>827</ele>
        <time>2013-07-12T16:03:05Z</time>
      </trkpt>
      <trkpt lat="44.84313" lon="5.72456">
        <ele>828</ele>
        <time>2013-07-12T16:03:07Z</time>
      </trkpt>
      <trkpt lat="44.84288" lon="5.72437">
        <ele>830</ele>
        <time>2013-07-12T16:03:24Z</time>
      </trkpt>
      <trkpt lat="44.84275" lon="5.72419">
        <ele>832</ele>
        <time>2013-07-12T16:03:36Z</time>
      </trkpt>
      <trkpt lat="44.84273" lon="5.72415">
        <ele>833</ele>
        <time>2013-07-12T16:03:38Z</time>
      </trkpt>
      <trkpt lat="44.84271" lon="5.72407">
        <ele>834</ele>
        <time>2013-07-12T16:03:42Z</time>
      </trkpt>
      <trkpt lat="44.84266" lon="5.72386">
        <ele>837</ele>
        <time>2013-07-12T16:03:52Z</time>
      </trkpt>
      <trkpt lat="44.84256" lon="5.72359">
        <ele>839</ele>
        <time>2013-07-12T16:04:07Z</time>
      </trkpt>
      <trkpt lat="44.84245" lon="5.72336">
        <ele>842</ele>
        <time>2013-07-12T16:04:22Z</time>
      </trkpt>
      <trkpt lat="44.84243" lon="5.72335">
        <ele>842</ele>
        <time>2013-07-12T16:04:40Z</time>
      </trkpt>
      <trkpt lat="44.84242" lon="5.72334">
        <ele>841</ele>
        <time>2013-07-12T16:04:51Z</time>
      </trkpt>
      <trkpt lat="44.84233" lon="5.72322">
        <ele>843</ele>
        <time>2013-07-12T16:05:02Z</time>
      </trkpt>
      <trkpt lat="44.84233" lon="5.72322">
        <ele>842</ele>
        <time>2013-07-12T16:05:03Z</time>
      </trkpt>
      <trkpt lat="44.84227" lon="5.72307">
        <ele>843</ele>
        <time>2013-07-12T16:05:13Z</time>
      </trkpt>
      <trkpt lat="44.84208" lon="5.72294">
        <ele>845</ele>
        <time>2013-07-12T16:05:24Z</time>
      </trkpt>
      <trkpt lat="44.84181" lon="5.72269">
        <ele>847</ele>
        <time>2013-07-12T16:05:43Z</time>
      </trkpt>
      <trkpt lat="44.84157" lon="5.72249">
        <ele>849</ele>
        <time>2013-07-12T16:05:59Z</time>
      </trkpt>
      <trkpt lat="44.84138" lon="5.72227">
        <ele>849</ele>
        <time>2013-07-12T16:06:14Z</time>
      </trkpt>
      <trkpt lat="44.84121" lon="5.72204">
        <ele>851</ele>
        <time>2013-07-12T16:06:28Z</time>
      </trkpt>
      <trkpt lat="44.84107" lon="5.72181">
        <ele>852</ele>
        <time>2013-07-12T16:06:41Z</time>
      </trkpt>
      <trkpt lat="44.84092" lon="5.72156">
        <ele>852</ele>
        <time>2013-07-12T16:06:56Z</time>
      </trkpt>
      <trkpt lat="44.84074" lon="5.7213">
        <ele>852</ele>
        <time>2013-07-12T16:07:13Z</time>
      </trkpt>
      <trkpt lat="44.84055" lon="5.72102">
        <ele>853</ele>
        <time>2013-07-12T16:07:31Z</time>
      </trkpt>
      <trkpt lat="44.8405" lon="5.72094">
        <ele>853</ele>
        <time>2013-07-12T16:07:37Z</time>
      </trkpt>
      <trkpt lat="44.84036" lon="5.72078">
        <ele>854</ele>
        <time>2013-07-12T16:07:49Z</time>
      </trkpt>
      <trkpt lat="44.84024" lon="5.72055">
        <ele>854</ele>
        <time>2013-07-12T16:08:04Z</time>
      </trkpt>
      <trkpt lat="44.84012" lon="5.72037">
        <ele>854</ele>
        <time>2013-07-12T16:08:19Z</time>
      </trkpt>
      <trkpt lat="44.84002" lon="5.72024">
        <ele>854</ele>
        <time>2013-07-12T16:08:31Z</time>
      </trkpt>
      <trkpt lat="44.8399" lon="5.72005">
        <ele>854</ele>
        <time>2013-07-12T16:08:45Z</time>
      </trkpt>
      <trkpt lat="44.83978" lon="5.71984">
        <ele>855</ele>
        <time>2013-07-12T16:09:00Z</time>
      </trkpt>
      <trkpt lat="44.83972" lon="5.71978">
        <ele>855</ele>
        <time>2013-07-12T16:09:06Z</time>
      </trkpt>
      <trkpt lat="44.83951" lon="5.71973">
        <ele>856</ele>
        <time>2013-07-12T16:09:22Z</time>
      </trkpt>
      <trkpt lat="44.83935" lon="5.7196">
        <ele>856</ele>
        <time>2013-07-12T16:09:37Z</time>
      </trkpt>
      <trkpt lat="44.83923" lon="5.7195">
        <ele>855</ele>
        <time>2013-07-12T16:09:48Z</time>
      </trkpt>
      <trkpt lat="44.83914" lon="5.71945">
        <ele>855</ele>
        <time>2013-07-12T16:09:56Z</time>
      </trkpt>
      <trkpt lat="44.83905" lon="5.71938">
        <ele>855</ele>
        <time>2013-07-12T16:10:03Z</time>
      </trkpt>
      <trkpt lat="44.83889" lon="5.71926">
        <ele>854</ele>
        <time>2013-07-12T16:10:17Z</time>
      </trkpt>
      <trkpt lat="44.83869" lon="5.71915">
        <ele>855</ele>
        <time>2013-07-12T16:10:34Z</time>
      </trkpt>
      <trkpt lat="44.83845" lon="5.7191">
        <ele>854</ele>
        <time>2013-07-12T16:10:51Z</time>
      </trkpt>
      <trkpt lat="44.83826" lon="5.71901">
        <ele>854</ele>
        <time>2013-07-12T16:11:05Z</time>
      </trkpt>
      <trkpt lat="44.83811" lon="5.71894">
        <ele>854</ele>
        <time>2013-07-12T16:11:19Z</time>
      </trkpt>
      <trkpt lat="44.83801" lon="5.71888">
        <ele>853</ele>
        <time>2013-07-12T16:11:26Z</time>
      </trkpt>
      <trkpt lat="44.83799" lon="5.71887">
        <ele>853</ele>
        <time>2013-07-12T16:11:28Z</time>
      </trkpt>
      <trkpt lat="44.83775" lon="5.71879">
        <ele>852</ele>
        <time>2013-07-12T16:11:45Z</time>
      </trkpt>
      <trkpt lat="44.83749" lon="5.71869">
        <ele>852</ele>
        <time>2013-07-12T16:12:04Z</time>
      </trkpt>
      <trkpt lat="44.83729" lon="5.71863">
        <ele>851</ele>
        <time>2013-07-12T16:12:19Z</time>
      </trkpt>
      <trkpt lat="44.83707" lon="5.71862">
        <ele>851</ele>
        <time>2013-07-12T16:12:34Z</time>
      </trkpt>
      <trkpt lat="44.83686" lon="5.71858">
        <ele>849</ele>
        <time>2013-07-12T16:12:49Z</time>
      </trkpt>
      <trkpt lat="44.8366" lon="5.71858">
        <ele>849</ele>
        <time>2013-07-12T16:13:06Z</time>
      </trkpt>
      <trkpt lat="44.83634" lon="5.71857">
        <ele>848</ele>
        <time>2013-07-12T16:13:21Z</time>
      </trkpt>
      <trkpt lat="44.83609" lon="5.71854">
        <ele>848</ele>
        <time>2013-07-12T16:13:37Z</time>
      </trkpt>
      <trkpt lat="44.83581" lon="5.71854">
        <ele>848</ele>
        <time>2013-07-12T16:13:55Z</time>
      </trkpt>
      <trkpt lat="44.83556" lon="5.71853">
        <ele>848</ele>
        <time>2013-07-12T16:14:10Z</time>
      </trkpt>
      <trkpt lat="44.83534" lon="5.71844">
        <ele>847</ele>
        <time>2013-07-12T16:14:25Z</time>
      </trkpt>
      <trkpt lat="44.83524" lon="5.71839">
        <ele>846</ele>
        <time>2013-07-12T16:14:32Z</time>
      </trkpt>
      <trkpt lat="44.83516" lon="5.71835">
        <ele>846</ele>
        <time>2013-07-12T16:14:37Z</time>
      </trkpt>
      <trkpt lat="44.83497" lon="5.71822">
        <ele>845</ele>
        <time>2013-07-12T16:14:51Z</time>
      </trkpt>
      <trkpt lat="44.83478" lon="5.71802">
        <ele>844</ele>
        <time>2013-07-12T16:15:06Z</time>
      </trkpt>
      <trkpt lat="44.83472" lon="5.71796">
        <ele>844</ele>
        <time>2013-07-12T16:15:10Z</time>
      </trkpt>
      <trkpt lat="44.83449" lon="5.71778">
        <ele>843</ele>
        <time>2013-07-12T16:15:27Z</time>
      </trkpt>
      <trkpt lat="44.83442" lon="5.71774">
        <ele>843</ele>
        <time>2013-07-12T16:15:35Z</time>
      </trkpt>
      <trkpt lat="44.83438" lon="5.71769">
        <ele>843</ele>
        <time>2013-07-12T16:15:40Z</time>
      </trkpt>
      <trkpt lat="44.83424" lon="5.71748">
        <ele>842</ele>
        <time>2013-07-12T16:15:57Z</time>
      </trkpt>
      <trkpt lat="44.83424" lon="5.71741">
        <ele>841</ele>
        <time>2013-07-12T16:16:01Z</time>
      </trkpt>
      <trkpt lat="44.83422" lon="5.71719">
        <ele>842</ele>
        <time>2013-07-12T16:16:10Z</time>
      </trkpt>
      <trkpt lat="44.83428" lon="5.7169">
        <ele>843</ele>
        <time>2013-07-12T16:16:25Z</time>
      </trkpt>
      <trkpt lat="44.83428" lon="5.7169">
        <ele>839</ele>
        <time>2013-07-12T16:16:31Z</time>
      </trkpt>
      <trkpt lat="44.83428" lon="5.7169">
        <ele>843</ele>
        <time>2013-07-12T16:16:32Z</time>
      </trkpt>
      <trkpt lat="44.83428" lon="5.71691">
        <ele>834</ele>
        <time>2013-07-12T16:16:33Z</time>
      </trkpt>
      <trkpt lat="44.83428" lon="5.71691">
        <ele>837</ele>
        <time>2013-07-12T16:16:34Z</time>
      </trkpt>
      <trkpt lat="44.83428" lon="5.71691">
        <ele>844</ele>
        <time>2013-07-12T16:16:35Z</time>
      </trkpt>
      <trkpt lat="44.83428" lon="5.71691">
        <ele>842</ele>
        <time>2013-07-12T16:16:36Z</time>
      </trkpt>
      <trkpt lat="44.83431" lon="5.71697">
        <ele>840</ele>
        <time>2013-07-12T16:16:52Z</time>
      </trkpt>
      <trkpt lat="44.8343" lon="5.71696">
        <ele>841</ele>
        <time>2013-07-12T16:17:10Z</time>
      </trkpt>
      <trkpt lat="44.8343" lon="5.71687">
        <ele>842</ele>
        <time>2013-07-12T16:17:24Z</time>
      </trkpt>
      <trkpt lat="44.83431" lon="5.71685">
        <ele>841</ele>
        <time>2013-07-12T16:17:38Z</time>
      </trkpt>
      <trkpt lat="44.83432" lon="5.71683">
        <ele>842</ele>
        <time>2013-07-12T16:17:42Z</time>
      </trkpt>
      <trkpt lat="44.83433" lon="5.71679">
        <ele>842</ele>
        <time>2013-07-12T16:17:45Z</time>
      </trkpt>
      <trkpt lat="44.83435" lon="5.71666">
        <ele>842</ele>
        <time>2013-07-12T16:17:53Z</time>
      </trkpt>
      <trkpt lat="44.83434" lon="5.71656">
        <ele>843</ele>
        <time>2013-07-12T16:17:57Z</time>
      </trkpt>
      <trkpt lat="44.83433" lon="5.71631">
        <ele>844</ele>
        <time>2013-07-12T16:18:11Z</time>
      </trkpt>
      <trkpt lat="44.83434" lon="5.71603">
        <ele>846</ele>
        <time>2013-07-12T16:18:26Z</time>
      </trkpt>
      <trkpt lat="44.83436" lon="5.71591">
        <ele>847</ele>
        <time>2013-07-12T16:18:33Z</time>
      </trkpt>
      <trkpt lat="44.83437" lon="5.71569">
        <ele>849</ele>
        <time>2013-07-12T16:18:48Z</time>
      </trkpt>
      <trkpt lat="44.83437" lon="5.71567">
        <ele>848</ele>
        <time>2013-07-12T16:18:50Z</time>
      </trkpt>
      <trkpt lat="44.83437" lon="5.71565">
        <ele>848</ele>
        <time>2013-07-12T16:18:51Z</time>
      </trkpt>
      <trkpt lat="44.8344" lon="5.71536">
        <ele>851</ele>
        <time>2013-07-12T16:19:06Z</time>
      </trkpt>
      <trkpt lat="44.83436" lon="5.71505">
        <ele>850</ele>
        <time>2013-07-12T16:19:18Z</time>
      </trkpt>
      <trkpt lat="44.83435" lon="5.7148">
        <ele>852</ele>
        <time>2013-07-12T16:19:30Z</time>
      </trkpt>
      <trkpt lat="44.83431" lon="5.71447">
        <ele>852</ele>
        <time>2013-07-12T16:19:46Z</time>
      </trkpt>
      <trkpt lat="44.83426" lon="5.71421">
        <ele>853</ele>
        <time>2013-07-12T16:20:00Z</time>
      </trkpt>
      <trkpt lat="44.83428" lon="5.714">
        <ele>854</ele>
        <time>2013-07-12T16:20:11Z</time>
      </trkpt>
      <trkpt lat="44.83427" lon="5.71369">
        <ele>854</ele>
        <time>2013-07-12T16:20:27Z</time>
      </trkpt>
      <trkpt lat="44.83431" lon="5.71338">
        <ele>855</ele>
        <time>2013-07-12T16:20:42Z</time>
      </trkpt>
      <trkpt lat="44.83436" lon="5.7131">
        <ele>857</ele>
        <time>2013-07-12T16:20:56Z</time>
      </trkpt>
      <trkpt lat="44.83436" lon="5.71296">
        <ele>858</ele>
        <time>2013-07-12T16:21:05Z</time>
      </trkpt>
      <trkpt lat="44.83435" lon="5.71262">
        <ele>857</ele>
        <time>2013-07-12T16:21:22Z</time>
      </trkpt>
      <trkpt lat="44.83435" lon="5.7126">
        <ele>858</ele>
        <time>2013-07-12T16:21:24Z</time>
      </trkpt>
      <trkpt lat="44.83436" lon="5.71248">
        <ele>858</ele>
        <time>2013-07-12T16:21:32Z</time>
      </trkpt>
      <trkpt lat="44.83436" lon="5.71237">
        <ele>858</ele>
        <time>2013-07-12T16:21:36Z</time>
      </trkpt>
      <trkpt lat="44.83435" lon="5.71232">
        <ele>858</ele>
        <time>2013-07-12T16:21:39Z</time>
      </trkpt>
      <trkpt lat="44.83438" lon="5.71196">
        <ele>858</ele>
        <time>2013-07-12T16:21:54Z</time>
      </trkpt>
      <trkpt lat="44.83438" lon="5.71193">
        <ele>858</ele>
        <time>2013-07-12T16:21:56Z</time>
      </trkpt>
      <trkpt lat="44.83447" lon="5.71158">
        <ele>860</ele>
        <time>2013-07-12T16:22:10Z</time>
      </trkpt>
      <trkpt lat="44.83448" lon="5.71136">
        <ele>860</ele>
        <time>2013-07-12T16:22:21Z</time>
      </trkpt>
      <trkpt lat="44.83439" lon="5.71124">
        <ele>859</ele>
        <time>2013-07-12T16:22:27Z</time>
      </trkpt>
      <trkpt lat="44.8343" lon="5.71105">
        <ele>859</ele>
        <time>2013-07-12T16:22:41Z</time>
      </trkpt>
      <trkpt lat="44.83425" lon="5.71097">
        <ele>859</ele>
        <time>2013-07-12T16:22:47Z</time>
      </trkpt>
      <trkpt lat="44.83416" lon="5.71076">
        <ele>860</ele>
        <time>2013-07-12T16:22:59Z</time>
      </trkpt>
      <trkpt lat="44.83409" lon="5.71059">
        <ele>860</ele>
        <time>2013-07-12T16:23:08Z</time>
      </trkpt>
      <trkpt lat="44.83407" lon="5.71055">
        <ele>860</ele>
        <time>2013-07-12T16:23:10Z</time>
      </trkpt>
      <trkpt lat="44.83405" lon="5.71048">
        <ele>860</ele>
        <time>2013-07-12T16:23:13Z</time>
      </trkpt>
      <trkpt lat="44.83405" lon="5.71026">
        <ele>860</ele>
        <time>2013-07-12T16:23:25Z</time>
      </trkpt>
      <trkpt lat="44.83408" lon="5.71002">
        <ele>862</ele>
        <time>2013-07-12T16:23:40Z</time>
      </trkpt>
      <trkpt lat="44.8342" lon="5.70974">
        <ele>864</ele>
        <time>2013-07-12T16:23:58Z</time>
      </trkpt>
      <trkpt lat="44.83423" lon="5.70951">
        <ele>866</ele>
        <time>2013-07-12T16:24:10Z</time>
      </trkpt>
      <trkpt lat="44.83428" lon="5.70932">
        <ele>867</ele>
        <time>2013-07-12T16:24:20Z</time>
      </trkpt>
      <trkpt lat="44.83433" lon="5.70909">
        <ele>868</ele>
        <time>2013-07-12T16:24:33Z</time>
      </trkpt>
      <trkpt lat="44.83431" lon="5.70907">
        <ele>869</ele>
        <time>2013-07-12T16:24:35Z</time>
      </trkpt>
      <trkpt lat="44.83419" lon="5.70893">
        <ele>870</ele>
        <time>2013-07-12T16:24:49Z</time>
      </trkpt>
      <trkpt lat="44.83412" lon="5.70885">
        <ele>870</ele>
        <time>2013-07-12T16:24:56Z</time>
      </trkpt>
      <trkpt lat="44.83402" lon="5.70873">
        <ele>869</ele>
        <time>2013-07-12T16:25:12Z</time>
      </trkpt>
      <trkpt lat="44.83401" lon="5.70872">
        <ele>869</ele>
        <time>2013-07-12T16:25:26Z</time>
      </trkpt>
      <trkpt lat="44.83401" lon="5.70872">
        <ele>869</ele>
        <time>2013-07-12T16:25:47Z</time>
      </trkpt>
    </trkseg>
  </trk>
  <trk>
    <name><![CDATA[Cornillon B2 32km  v2]]></name>
    <trkseg>
      <trkpt lat="44.83396" lon="5.70884">
        <ele>841</ele>
      </trkpt>
      <trkpt lat="44.83401" lon="5.70873">
        <ele>868</ele>
      </trkpt>
      <trkpt lat="44.83401" lon="5.70861">
        <ele>869</ele>
      </trkpt>
      <trkpt lat="44.83413" lon="5.70869">
        <ele>870</ele>
      </trkpt>
      <trkpt lat="44.83413" lon="5.70847">
        <ele>870</ele>
      </trkpt>
      <trkpt lat="44.83401" lon="5.70876">
        <ele>869</ele>
      </trkpt>
      <trkpt lat="44.83419" lon="5.70891">
        <ele>870</ele>
      </trkpt>
      <trkpt lat="44.83435" lon="5.70921">
        <ele>869</ele>
      </trkpt>
      <trkpt lat="44.83425" lon="5.70961">
        <ele>866</ele>
      </trkpt>
      <trkpt lat="44.83412" lon="5.71">
        <ele>863</ele>
      </trkpt>
      <trkpt lat="44.83401" lon="5.71036">
        <ele>861</ele>
      </trkpt>
      <trkpt lat="44.83381" lon="5.71066">
        <ele>859</ele>
      </trkpt>
      <trkpt lat="44.8336" lon="5.71081">
        <ele>857</ele>
      </trkpt>
      <trkpt lat="44.83334" lon="5.711">
        <ele>855</ele>
      </trkpt>
      <trkpt lat="44.8331" lon="5.71115">
        <ele>853</ele>
      </trkpt>
      <trkpt lat="44.83281" lon="5.71129">
        <ele>851</ele>
      </trkpt>
      <trkpt lat="44.83247" lon="5.71134">
        <ele>850</ele>
      </trkpt>
      <trkpt lat="44.83224" lon="5.71132">
        <ele>848</ele>
      </trkpt>
      <trkpt lat="44.83206" lon="5.71151">
        <ele>846</ele>
      </trkpt>
      <trkpt lat="44.83185" lon="5.71182">
        <ele>842</ele>
      </trkpt>
      <trkpt lat="44.83162" lon="5.7122">
        <ele>836</ele>
      </trkpt>
      <trkpt lat="44.83141" lon="5.7124">
        <ele>833</ele>
      </trkpt>
      <trkpt lat="44.83124" lon="5.71259">
        <ele>829</ele>
      </trkpt>
      <trkpt lat="44.83108" lon="5.71286">
        <ele>827</ele>
      </trkpt>
      <trkpt lat="44.8309" lon="5.71313">
        <ele>824</ele>
      </trkpt>
      <trkpt lat="44.8308" lon="5.71355">
        <ele>819</ele>
      </trkpt>
      <trkpt lat="44.83078" lon="5.71391">
        <ele>816</ele>
      </trkpt>
      <trkpt lat="44.83076" lon="5.71424">
        <ele>815</ele>
      </trkpt>
      <trkpt lat="44.83076" lon="5.71429">
        <ele>814</ele>
      </trkpt>
      <trkpt lat="44.83082" lon="5.71446">
        <ele>814</ele>
      </trkpt>
      <trkpt lat="44.83071" lon="5.71488">
        <ele>813</ele>
      </trkpt>
      <trkpt lat="44.83063" lon="5.71518">
        <ele>813</ele>
      </trkpt>
      <trkpt lat="44.83053" lon="5.71545">
        <ele>812</ele>
      </trkpt>
      <trkpt lat="44.8303" lon="5.71584">
        <ele>811</ele>
      </trkpt>
      <trkpt lat="44.83007" lon="5.71585">
        <ele>808</ele>
      </trkpt>
      <trkpt lat="44.82982" lon="5.71568">
        <ele>803</ele>
      </trkpt>
      <trkpt lat="44.82961" lon="5.71562">
        <ele>802</ele>
      </trkpt>
      <trkpt lat="44.82939" lon="5.71562">
        <ele>801</ele>
      </trkpt>
      <trkpt lat="44.82917" lon="5.7156">
        <ele>800</ele>
      </trkpt>
      <trkpt lat="44.82884" lon="5.71554">
        <ele>799</ele>
      </trkpt>
      <trkpt lat="44.8285" lon="5.71551">
        <ele>799</ele>
      </trkpt>
      <trkpt lat="44.82811" lon="5.71548">
        <ele>799</ele>
      </trkpt>
      <trkpt lat="44.82784" lon="5.71545">
        <ele>799</ele>
      </trkpt>
      <trkpt lat="44.82757" lon="5.71536">
        <ele>799</ele>
      </trkpt>
      <trkpt lat="44.82722" lon="5.71518">
        <ele>797</ele>
      </trkpt>
      <trkpt lat="44.82702" lon="5.71504">
        <ele>795</ele>
      </trkpt>
      <trkpt lat="44.82685" lon="5.71486">
        <ele>791</ele>
      </trkpt>
      <trkpt lat="44.82659" lon="5.71468">
        <ele>786</ele>
      </trkpt>
      <trkpt lat="44.8263" lon="5.71452">
        <ele>783</ele>
      </trkpt>
      <trkpt lat="44.82605" lon="5.71443">
        <ele>781</ele>
      </trkpt>
      <trkpt lat="44.82581" lon="5.71442">
        <ele>778</ele>
      </trkpt>
      <trkpt lat="44.82551" lon="5.71436">
        <ele>776</ele>
      </trkpt>
      <trkpt lat="44.8253" lon="5.71419">
        <ele>775</ele>
      </trkpt>
      <trkpt lat="44.82491" lon="5.71395">
        <ele>774</ele>
      </trkpt>
      <trkpt lat="44.82458" lon="5.71391">
        <ele>774</ele>
      </trkpt>
      <trkpt lat="44.82422" lon="5.71398">
        <ele>772</ele>
      </trkpt>
      <trkpt lat="44.82403" lon="5.71384">
        <ele>769</ele>
      </trkpt>
      <trkpt lat="44.82383" lon="5.71357">
        <ele>767</ele>
      </trkpt>
      <trkpt lat="44.82379" lon="5.71316">
        <ele>769</ele>
      </trkpt>
      <trkpt lat="44.82375" lon="5.71283">
        <ele>768</ele>
      </trkpt>
      <trkpt lat="44.8237" lon="5.7125">
        <ele>766</ele>
      </trkpt>
      <trkpt lat="44.82372" lon="5.71219">
        <ele>767</ele>
      </trkpt>
      <trkpt lat="44.82371" lon="5.71187">
        <ele>768</ele>
      </trkpt>
      <trkpt lat="44.82371" lon="5.71155">
        <ele>768</ele>
      </trkpt>
      <trkpt lat="44.82367" lon="5.71125">
        <ele>767</ele>
      </trkpt>
      <trkpt lat="44.8235" lon="5.71079">
        <ele>764</ele>
      </trkpt>
      <trkpt lat="44.82338" lon="5.71055">
        <ele>762</ele>
      </trkpt>
      <trkpt lat="44.82329" lon="5.71027">
        <ele>762</ele>
      </trkpt>
      <trkpt lat="44.82324" lon="5.70982">
        <ele>760</ele>
      </trkpt>
      <trkpt lat="44.82316" lon="5.70941">
        <ele>759</ele>
      </trkpt>
      <trkpt lat="44.82314" lon="5.70892">
        <ele>757</ele>
      </trkpt>
      <trkpt lat="44.82307" lon="5.70846">
        <ele>755</ele>
      </trkpt>
      <trkpt lat="44.8231" lon="5.70814">
        <ele>753</ele>
      </trkpt>
      <trkpt lat="44.82317" lon="5.70769">
        <ele>751</ele>
      </trkpt>
      <trkpt lat="44.8232" lon="5.70724">
        <ele>751</ele>
      </trkpt>
      <trkpt lat="44.82313" lon="5.70692">
        <ele>752</ele>
      </trkpt>
      <trkpt lat="44.82295" lon="5.70666">
        <ele>750</ele>
      </trkpt>
      <trkpt lat="44.82282" lon="5.70643">
        <ele>749</ele>
      </trkpt>
      <trkpt lat="44.82277" lon="5.70609">
        <ele>747</ele>
      </trkpt>
      <trkpt lat="44.82265" lon="5.70581">
        <ele>746</ele>
      </trkpt>
      <trkpt lat="44.82241" lon="5.70522">
        <ele>746</ele>
      </trkpt>
      <trkpt lat="44.82233" lon="5.70485">
        <ele>748</ele>
      </trkpt>
      <trkpt lat="44.82224" lon="5.70455">
        <ele>748</ele>
      </trkpt>
      <trkpt lat="44.8223" lon="5.70427">
        <ele>748</ele>
      </trkpt>
      <trkpt lat="44.82241" lon="5.70389">
        <ele>749</ele>
      </trkpt>
      <trkpt lat="44.82225" lon="5.70363">
        <ele>751</ele>
      </trkpt>
      <trkpt lat="44.82209" lon="5.70344">
        <ele>751</ele>
      </trkpt>
      <trkpt lat="44.82192" lon="5.70307">
        <ele>754</ele>
      </trkpt>
      <trkpt lat="44.82177" lon="5.70286">
        <ele>756</ele>
      </trkpt>
      <trkpt lat="44.82148" lon="5.70243">
        <ele>755</ele>
      </trkpt>
      <trkpt lat="44.8213" lon="5.7021">
        <ele>754</ele>
      </trkpt>
      <trkpt lat="44.82113" lon="5.70171">
        <ele>755</ele>
      </trkpt>
      <trkpt lat="44.82104" lon="5.70142">
        <ele>758</ele>
      </trkpt>
      <trkpt lat="44.82105" lon="5.70182">
        <ele>751</ele>
      </trkpt>
      <trkpt lat="44.82073" lon="5.70262">
        <ele>738</ele>
      </trkpt>
      <trkpt lat="44.81959" lon="5.70306">
        <ele>720</ele>
      </trkpt>
      <trkpt lat="44.81983" lon="5.70127">
        <ele>717</ele>
      </trkpt>
      <trkpt lat="44.82007" lon="5.70008">
        <ele>712</ele>
      </trkpt>
      <trkpt lat="44.81921" lon="5.69854">
        <ele>713</ele>
      </trkpt>
      <trkpt lat="44.81806" lon="5.69734">
        <ele>706</ele>
      </trkpt>
      <trkpt lat="44.81749" lon="5.6961">
        <ele>700</ele>
      </trkpt>
      <trkpt lat="44.81883" lon="5.69482">
        <ele>704</ele>
      </trkpt>
      <trkpt lat="44.81859" lon="5.69307">
        <ele>709</ele>
      </trkpt>
      <trkpt lat="44.8175" lon="5.69272">
        <ele>694</ele>
      </trkpt>
      <trkpt lat="44.81745" lon="5.69214">
        <ele>687</ele>
      </trkpt>
      <trkpt lat="44.81854" lon="5.6912">
        <ele>696</ele>
      </trkpt>
      <trkpt lat="44.81885" lon="5.68983">
        <ele>690</ele>
      </trkpt>
      <trkpt lat="44.81979" lon="5.68859">
        <ele>684</ele>
      </trkpt>
      <trkpt lat="44.82049" lon="5.68774">
        <ele>682</ele>
      </trkpt>
      <trkpt lat="44.8212" lon="5.68646">
        <ele>685</ele>
      </trkpt>
      <trkpt lat="44.82133" lon="5.68654">
        <ele>705</ele>
      </trkpt>
      <trkpt lat="44.82118" lon="5.6862">
        <ele>702</ele>
      </trkpt>
      <trkpt lat="44.82115" lon="5.68572">
        <ele>699</ele>
      </trkpt>
      <trkpt lat="44.82094" lon="5.68536">
        <ele>697</ele>
      </trkpt>
      <trkpt lat="44.82078" lon="5.68511">
        <ele>696</ele>
      </trkpt>
      <trkpt lat="44.82058" lon="5.68458">
        <ele>692</ele>
      </trkpt>
      <trkpt lat="44.82043" lon="5.68426">
        <ele>691</ele>
      </trkpt>
      <trkpt lat="44.82029" lon="5.68402">
        <ele>688</ele>
      </trkpt>
      <trkpt lat="44.82014" lon="5.68361">
        <ele>681</ele>
      </trkpt>
      <trkpt lat="44.81985" lon="5.68367">
        <ele>675</ele>
      </trkpt>
      <trkpt lat="44.81969" lon="5.6835">
        <ele>673</ele>
      </trkpt>
      <trkpt lat="44.81947" lon="5.6832">
        <ele>666</ele>
      </trkpt>
      <trkpt lat="44.81934" lon="5.68283">
        <ele>662</ele>
      </trkpt>
      <trkpt lat="44.81926" lon="5.68254">
        <ele>659</ele>
      </trkpt>
      <trkpt lat="44.81905" lon="5.68247">
        <ele>654</ele>
      </trkpt>
      <trkpt lat="44.81879" lon="5.68221">
        <ele>649</ele>
      </trkpt>
      <trkpt lat="44.81872" lon="5.68196">
        <ele>644</ele>
      </trkpt>
      <trkpt lat="44.81884" lon="5.68172">
        <ele>639</ele>
      </trkpt>
      <trkpt lat="44.81875" lon="5.68149">
        <ele>634</ele>
      </trkpt>
      <trkpt lat="44.81855" lon="5.68147">
        <ele>629</ele>
      </trkpt>
      <trkpt lat="44.81832" lon="5.68146">
        <ele>628</ele>
      </trkpt>
      <trkpt lat="44.81801" lon="5.68132">
        <ele>625</ele>
      </trkpt>
      <trkpt lat="44.81782" lon="5.68111">
        <ele>623</ele>
      </trkpt>
      <trkpt lat="44.81758" lon="5.681">
        <ele>619</ele>
      </trkpt>
      <trkpt lat="44.81739" lon="5.6809">
        <ele>614</ele>
      </trkpt>
      <trkpt lat="44.81734" lon="5.68075">
        <ele>612</ele>
      </trkpt>
      <trkpt lat="44.81754" lon="5.68049">
        <ele>612</ele>
      </trkpt>
      <trkpt lat="44.81779" lon="5.68022">
        <ele>612</ele>
      </trkpt>
      <trkpt lat="44.818" lon="5.67995">
        <ele>611</ele>
      </trkpt>
      <trkpt lat="44.81818" lon="5.67977">
        <ele>610</ele>
      </trkpt>
      <trkpt lat="44.81825" lon="5.67946">
        <ele>606</ele>
      </trkpt>
      <trkpt lat="44.81841" lon="5.6792">
        <ele>605</ele>
      </trkpt>
      <trkpt lat="44.81855" lon="5.67887">
        <ele>605</ele>
      </trkpt>
      <trkpt lat="44.81866" lon="5.67852">
        <ele>605</ele>
      </trkpt>
      <trkpt lat="44.81881" lon="5.67822">
        <ele>605</ele>
      </trkpt>
      <trkpt lat="44.81903" lon="5.67771">
        <ele>604</ele>
      </trkpt>
      <trkpt lat="44.81914" lon="5.67736">
        <ele>603</ele>
      </trkpt>
      <trkpt lat="44.81914" lon="5.67708">
        <ele>603</ele>
      </trkpt>
      <trkpt lat="44.81921" lon="5.67664">
        <ele>603</ele>
      </trkpt>
      <trkpt lat="44.81931" lon="5.67636">
        <ele>603</ele>
      </trkpt>
      <trkpt lat="44.81949" lon="5.67601">
        <ele>602</ele>
      </trkpt>
      <trkpt lat="44.81966" lon="5.67571">
        <ele>601</ele>
      </trkpt>
      <trkpt lat="44.81979" lon="5.67543">
        <ele>602</ele>
      </trkpt>
      <trkpt lat="44.82002" lon="5.67517">
        <ele>601</ele>
      </trkpt>
      <trkpt lat="44.82017" lon="5.67494">
        <ele>601</ele>
      </trkpt>
      <trkpt lat="44.82042" lon="5.6745">
        <ele>600</ele>
      </trkpt>
      <trkpt lat="44.82067" lon="5.67421">
        <ele>600</ele>
      </trkpt>
      <trkpt lat="44.82088" lon="5.67408">
        <ele>600</ele>
      </trkpt>
      <trkpt lat="44.82108" lon="5.67402">
        <ele>600</ele>
      </trkpt>
      <trkpt lat="44.82146" lon="5.67393">
        <ele>598</ele>
      </trkpt>
      <trkpt lat="44.82169" lon="5.67367">
        <ele>598</ele>
      </trkpt>
      <trkpt lat="44.82157" lon="5.67319">
        <ele>597</ele>
      </trkpt>
      <trkpt lat="44.82168" lon="5.67293">
        <ele>598</ele>
      </trkpt>
      <trkpt lat="44.82176" lon="5.67267">
        <ele>599</ele>
      </trkpt>
      <trkpt lat="44.82178" lon="5.67239">
        <ele>600</ele>
      </trkpt>
      <trkpt lat="44.82167" lon="5.67211">
        <ele>603</ele>
      </trkpt>
      <trkpt lat="44.82146" lon="5.67213">
        <ele>605</ele>
      </trkpt>
      <trkpt lat="44.82126" lon="5.67232">
        <ele>607</ele>
      </trkpt>
      <trkpt lat="44.82105" lon="5.67255">
        <ele>609</ele>
      </trkpt>
      <trkpt lat="44.82084" lon="5.67256">
        <ele>611</ele>
      </trkpt>
      <trkpt lat="44.82062" lon="5.6728">
        <ele>616</ele>
      </trkpt>
      <trkpt lat="44.82042" lon="5.67301">
        <ele>618</ele>
      </trkpt>
      <trkpt lat="44.82028" lon="5.6733">
        <ele>620</ele>
      </trkpt>
      <trkpt lat="44.82013" lon="5.67351">
        <ele>621</ele>
      </trkpt>
      <trkpt lat="44.81992" lon="5.67375">
        <ele>624</ele>
      </trkpt>
      <trkpt lat="44.81966" lon="5.67396">
        <ele>628</ele>
      </trkpt>
      <trkpt lat="44.81929" lon="5.67395">
        <ele>632</ele>
      </trkpt>
      <trkpt lat="44.81907" lon="5.67398">
        <ele>634</ele>
      </trkpt>
      <trkpt lat="44.81834" lon="5.67395">
        <ele>639</ele>
      </trkpt>
      <trkpt lat="44.81804" lon="5.67405">
        <ele>642</ele>
      </trkpt>
      <trkpt lat="44.81787" lon="5.67422">
        <ele>643</ele>
      </trkpt>
      <trkpt lat="44.81768" lon="5.67444">
        <ele>646</ele>
      </trkpt>
      <trkpt lat="44.81765" lon="5.67391">
        <ele>650</ele>
      </trkpt>
      <trkpt lat="44.81771" lon="5.67356">
        <ele>652</ele>
      </trkpt>
      <trkpt lat="44.81773" lon="5.67323">
        <ele>655</ele>
      </trkpt>
      <trkpt lat="44.81767" lon="5.67289">
        <ele>656</ele>
      </trkpt>
      <trkpt lat="44.81731" lon="5.67277">
        <ele>660</ele>
      </trkpt>
      <trkpt lat="44.81703" lon="5.67293">
        <ele>662</ele>
      </trkpt>
      <trkpt lat="44.81683" lon="5.6732">
        <ele>664</ele>
      </trkpt>
      <trkpt lat="44.81666" lon="5.67332">
        <ele>666</ele>
      </trkpt>
      <trkpt lat="44.81626" lon="5.67337">
        <ele>669</ele>
      </trkpt>
      <trkpt lat="44.816" lon="5.67343">
        <ele>671</ele>
      </trkpt>
      <trkpt lat="44.81581" lon="5.67358">
        <ele>673</ele>
      </trkpt>
      <trkpt lat="44.81559" lon="5.67375">
        <ele>674</ele>
      </trkpt>
      <trkpt lat="44.81541" lon="5.67393">
        <ele>677</ele>
      </trkpt>
      <trkpt lat="44.8152" lon="5.67402">
        <ele>679</ele>
      </trkpt>
      <trkpt lat="44.81475" lon="5.67404">
        <ele>681</ele>
      </trkpt>
      <trkpt lat="44.81437" lon="5.67409">
        <ele>683</ele>
      </trkpt>
      <trkpt lat="44.81404" lon="5.67422">
        <ele>686</ele>
      </trkpt>
      <trkpt lat="44.81378" lon="5.67433">
        <ele>687</ele>
      </trkpt>
      <trkpt lat="44.81323" lon="5.67468">
        <ele>691</ele>
      </trkpt>
      <trkpt lat="44.81286" lon="5.67504">
        <ele>694</ele>
      </trkpt>
      <trkpt lat="44.81267" lon="5.67531">
        <ele>697</ele>
      </trkpt>
      <trkpt lat="44.81223" lon="5.67579">
        <ele>700</ele>
      </trkpt>
      <trkpt lat="44.81192" lon="5.67611">
        <ele>701</ele>
      </trkpt>
      <trkpt lat="44.81163" lon="5.67631">
        <ele>701</ele>
      </trkpt>
      <trkpt lat="44.81122" lon="5.67651">
        <ele>702</ele>
      </trkpt>
      <trkpt lat="44.81102" lon="5.6766">
        <ele>703</ele>
      </trkpt>
      <trkpt lat="44.81066" lon="5.67668">
        <ele>704</ele>
      </trkpt>
      <trkpt lat="44.81027" lon="5.67681">
        <ele>706</ele>
      </trkpt>
      <trkpt lat="44.80999" lon="5.67685">
        <ele>706</ele>
      </trkpt>
      <trkpt lat="44.80961" lon="5.67694">
        <ele>708</ele>
      </trkpt>
      <trkpt lat="44.80938" lon="5.67699">
        <ele>709</ele>
      </trkpt>
      <trkpt lat="44.80899" lon="5.67709">
        <ele>712</ele>
      </trkpt>
      <trkpt lat="44.80879" lon="5.67717">
        <ele>712</ele>
      </trkpt>
      <trkpt lat="44.80853" lon="5.67719">
        <ele>713</ele>
      </trkpt>
      <trkpt lat="44.80811" lon="5.67725">
        <ele>715</ele>
      </trkpt>
      <trkpt lat="44.80761" lon="5.67731">
        <ele>716</ele>
      </trkpt>
      <trkpt lat="44.80719" lon="5.67742">
        <ele>718</ele>
      </trkpt>
      <trkpt lat="44.80674" lon="5.67731">
        <ele>717</ele>
      </trkpt>
      <trkpt lat="44.80631" lon="5.67705">
        <ele>718</ele>
      </trkpt>
      <trkpt lat="44.80605" lon="5.6769">
        <ele>718</ele>
      </trkpt>
      <trkpt lat="44.80555" lon="5.67656">
        <ele>720</ele>
      </trkpt>
      <trkpt lat="44.80538" lon="5.67645">
        <ele>718</ele>
      </trkpt>
      <trkpt lat="44.80501" lon="5.67642">
        <ele>715</ele>
      </trkpt>
      <trkpt lat="44.80467" lon="5.67629">
        <ele>712</ele>
      </trkpt>
      <trkpt lat="44.80445" lon="5.67618">
        <ele>711</ele>
      </trkpt>
      <trkpt lat="44.80409" lon="5.6762">
        <ele>707</ele>
      </trkpt>
      <trkpt lat="44.80385" lon="5.67615">
        <ele>705</ele>
      </trkpt>
      <trkpt lat="44.80369" lon="5.67599">
        <ele>703</ele>
      </trkpt>
      <trkpt lat="44.80366" lon="5.67548">
        <ele>700</ele>
      </trkpt>
      <trkpt lat="44.80353" lon="5.67525">
        <ele>697</ele>
      </trkpt>
      <trkpt lat="44.80329" lon="5.67527">
        <ele>695</ele>
      </trkpt>
      <trkpt lat="44.80298" lon="5.67522">
        <ele>693</ele>
      </trkpt>
      <trkpt lat="44.80267" lon="5.67519">
        <ele>690</ele>
      </trkpt>
      <trkpt lat="44.80242" lon="5.67518">
        <ele>690</ele>
      </trkpt>
      <trkpt lat="44.80218" lon="5.67505">
        <ele>690</ele>
      </trkpt>
      <trkpt lat="44.80199" lon="5.67482">
        <ele>690</ele>
      </trkpt>
      <trkpt lat="44.80187" lon="5.6746">
        <ele>691</ele>
      </trkpt>
      <trkpt lat="44.80177" lon="5.67433">
        <ele>692</ele>
      </trkpt>
      <trkpt lat="44.80169" lon="5.67408">
        <ele>692</ele>
      </trkpt>
      <trkpt lat="44.80162" lon="5.67372">
        <ele>694</ele>
      </trkpt>
      <trkpt lat="44.80145" lon="5.67349">
        <ele>698</ele>
      </trkpt>
      <trkpt lat="44.80122" lon="5.67319">
        <ele>702</ele>
      </trkpt>
      <trkpt lat="44.80112" lon="5.67283">
        <ele>708</ele>
      </trkpt>
      <trkpt lat="44.80098" lon="5.67256">
        <ele>710</ele>
      </trkpt>
      <trkpt lat="44.80106" lon="5.67229">
        <ele>712</ele>
      </trkpt>
      <trkpt lat="44.80112" lon="5.67189">
        <ele>713</ele>
      </trkpt>
      <trkpt lat="44.80098" lon="5.67169">
        <ele>715</ele>
      </trkpt>
      <trkpt lat="44.80084" lon="5.67147">
        <ele>717</ele>
      </trkpt>
      <trkpt lat="44.80067" lon="5.67119">
        <ele>719</ele>
      </trkpt>
      <trkpt lat="44.80042" lon="5.67106">
        <ele>717</ele>
      </trkpt>
      <trkpt lat="44.80022" lon="5.67095">
        <ele>720</ele>
      </trkpt>
      <trkpt lat="44.80028" lon="5.67064">
        <ele>727</ele>
      </trkpt>
      <trkpt lat="44.80032" lon="5.67033">
        <ele>731</ele>
      </trkpt>
      <trkpt lat="44.8003" lon="5.67004">
        <ele>737</ele>
      </trkpt>
      <trkpt lat="44.80016" lon="5.66973">
        <ele>743</ele>
      </trkpt>
      <trkpt lat="44.80011" lon="5.66932">
        <ele>749</ele>
      </trkpt>
      <trkpt lat="44.79995" lon="5.66909">
        <ele>754</ele>
      </trkpt>
      <trkpt lat="44.79978" lon="5.66894">
        <ele>757</ele>
      </trkpt>
      <trkpt lat="44.79967" lon="5.6687">
        <ele>761</ele>
      </trkpt>
      <trkpt lat="44.79947" lon="5.66836">
        <ele>764</ele>
      </trkpt>
      <trkpt lat="44.79936" lon="5.66813">
        <ele>766</ele>
      </trkpt>
      <trkpt lat="44.79921" lon="5.66774">
        <ele>769</ele>
      </trkpt>
      <trkpt lat="44.79902" lon="5.66738">
        <ele>772</ele>
      </trkpt>
      <trkpt lat="44.79888" lon="5.66715">
        <ele>772</ele>
      </trkpt>
      <trkpt lat="44.79869" lon="5.66676">
        <ele>773</ele>
      </trkpt>
      <trkpt lat="44.79843" lon="5.66628">
        <ele>774</ele>
      </trkpt>
      <trkpt lat="44.79835" lon="5.66603">
        <ele>774</ele>
      </trkpt>
      <trkpt lat="44.79824" lon="5.66565">
        <ele>774</ele>
      </trkpt>
      <trkpt lat="44.79802" lon="5.66536">
        <ele>775</ele>
      </trkpt>
      <trkpt lat="44.7979" lon="5.66515">
        <ele>776</ele>
      </trkpt>
      <trkpt lat="44.79778" lon="5.66481">
        <ele>777</ele>
      </trkpt>
      <trkpt lat="44.79769" lon="5.66448">
        <ele>777</ele>
      </trkpt>
      <trkpt lat="44.79749" lon="5.66419">
        <ele>778</ele>
      </trkpt>
      <trkpt lat="44.79725" lon="5.66391">
        <ele>778</ele>
      </trkpt>
      <trkpt lat="44.79703" lon="5.66373">
        <ele>779</ele>
      </trkpt>
      <trkpt lat="44.79693" lon="5.66327">
        <ele>779</ele>
      </trkpt>
      <trkpt lat="44.79683" lon="5.66294">
        <ele>780</ele>
      </trkpt>
      <trkpt lat="44.7967" lon="5.66263">
        <ele>781</ele>
      </trkpt>
      <trkpt lat="44.79653" lon="5.66233">
        <ele>781</ele>
      </trkpt>
      <trkpt lat="44.79633" lon="5.66208">
        <ele>782</ele>
      </trkpt>
      <trkpt lat="44.79617" lon="5.66184">
        <ele>783</ele>
      </trkpt>
      <trkpt lat="44.79599" lon="5.66165">
        <ele>784</ele>
      </trkpt>
      <trkpt lat="44.79584" lon="5.66138">
        <ele>785</ele>
      </trkpt>
      <trkpt lat="44.7956" lon="5.66086">
        <ele>786</ele>
      </trkpt>
      <trkpt lat="44.7954" lon="5.66062">
        <ele>786</ele>
      </trkpt>
      <trkpt lat="44.79525" lon="5.66042">
        <ele>787</ele>
      </trkpt>
      <trkpt lat="44.79507" lon="5.66027">
        <ele>788</ele>
      </trkpt>
      <trkpt lat="44.7948" lon="5.66">
        <ele>789</ele>
      </trkpt>
      <trkpt lat="44.79455" lon="5.65949">
        <ele>792</ele>
      </trkpt>
      <trkpt lat="44.7944" lon="5.65925">
        <ele>794</ele>
      </trkpt>
      <trkpt lat="44.79429" lon="5.65894">
        <ele>795</ele>
      </trkpt>
      <trkpt lat="44.79409" lon="5.65887">
        <ele>795</ele>
      </trkpt>
      <trkpt lat="44.7942" lon="5.65892">
        <ele>794</ele>
      </trkpt>
      <trkpt lat="44.79436" lon="5.65918">
        <ele>794</ele>
      </trkpt>
      <trkpt lat="44.79445" lon="5.65942">
        <ele>792</ele>
      </trkpt>
      <trkpt lat="44.79418" lon="5.65962">
        <ele>791</ele>
      </trkpt>
      <trkpt lat="44.7938" lon="5.65969">
        <ele>788</ele>
      </trkpt>
      <trkpt lat="44.79357" lon="5.65956">
        <ele>787</ele>
      </trkpt>
      <trkpt lat="44.79323" lon="5.65949">
        <ele>782</ele>
      </trkpt>
      <trkpt lat="44.79304" lon="5.65933">
        <ele>779</ele>
      </trkpt>
      <trkpt lat="44.79288" lon="5.65915">
        <ele>777</ele>
      </trkpt>
      <trkpt lat="44.79263" lon="5.65892">
        <ele>774</ele>
      </trkpt>
      <trkpt lat="44.7924" lon="5.65859">
        <ele>770</ele>
      </trkpt>
      <trkpt lat="44.79227" lon="5.6584">
        <ele>768</ele>
      </trkpt>
      <trkpt lat="44.79209" lon="5.65815">
        <ele>766</ele>
      </trkpt>
      <trkpt lat="44.79192" lon="5.65792">
        <ele>763</ele>
      </trkpt>
      <trkpt lat="44.79177" lon="5.65763">
        <ele>761</ele>
      </trkpt>
      <trkpt lat="44.7917" lon="5.65735">
        <ele>759</ele>
      </trkpt>
      <trkpt lat="44.79158" lon="5.65709">
        <ele>757</ele>
      </trkpt>
      <trkpt lat="44.79143" lon="5.65689">
        <ele>754</ele>
      </trkpt>
      <trkpt lat="44.79132" lon="5.65667">
        <ele>753</ele>
      </trkpt>
      <trkpt lat="44.79107" lon="5.65655">
        <ele>751</ele>
      </trkpt>
      <trkpt lat="44.79076" lon="5.65646">
        <ele>752</ele>
      </trkpt>
      <trkpt lat="44.79058" lon="5.65648">
        <ele>753</ele>
      </trkpt>
      <trkpt lat="44.79062" lon="5.6568">
        <ele>756</ele>
      </trkpt>
      <trkpt lat="44.7907" lon="5.65705">
        <ele>758</ele>
      </trkpt>
      <trkpt lat="44.79073" lon="5.65739">
        <ele>761</ele>
      </trkpt>
      <trkpt lat="44.79073" lon="5.6578">
        <ele>762</ele>
      </trkpt>
      <trkpt lat="44.79057" lon="5.65801">
        <ele>763</ele>
      </trkpt>
      <trkpt lat="44.79034" lon="5.65799">
        <ele>763</ele>
      </trkpt>
      <trkpt lat="44.79009" lon="5.65788">
        <ele>762</ele>
      </trkpt>
      <trkpt lat="44.78984" lon="5.65777">
        <ele>760</ele>
      </trkpt>
      <trkpt lat="44.78961" lon="5.65772">
        <ele>758</ele>
      </trkpt>
      <trkpt lat="44.78938" lon="5.65768">
        <ele>758</ele>
      </trkpt>
      <trkpt lat="44.7892" lon="5.65784">
        <ele>757</ele>
      </trkpt>
      <trkpt lat="44.78918" lon="5.65814">
        <ele>757</ele>
      </trkpt>
      <trkpt lat="44.78921" lon="5.6585">
        <ele>759</ele>
      </trkpt>
      <trkpt lat="44.78921" lon="5.65889">
        <ele>761</ele>
      </trkpt>
      <trkpt lat="44.7892" lon="5.65919">
        <ele>762</ele>
      </trkpt>
      <trkpt lat="44.78923" lon="5.65946">
        <ele>762</ele>
      </trkpt>
      <trkpt lat="44.78921" lon="5.65984">
        <ele>762</ele>
      </trkpt>
      <trkpt lat="44.78918" lon="5.66026">
        <ele>760</ele>
      </trkpt>
      <trkpt lat="44.78906" lon="5.66058">
        <ele>760</ele>
      </trkpt>
      <trkpt lat="44.789" lon="5.66089">
        <ele>762</ele>
      </trkpt>
      <trkpt lat="44.78896" lon="5.66142">
        <ele>763</ele>
      </trkpt>
      <trkpt lat="44.78895" lon="5.66172">
        <ele>764</ele>
      </trkpt>
      <trkpt lat="44.78895" lon="5.66198">
        <ele>764</ele>
      </trkpt>
      <trkpt lat="44.78902" lon="5.66229">
        <ele>765</ele>
      </trkpt>
      <trkpt lat="44.78908" lon="5.66267">
        <ele>765</ele>
      </trkpt>
      <trkpt lat="44.78905" lon="5.66301">
        <ele>766</ele>
      </trkpt>
      <trkpt lat="44.78894" lon="5.66341">
        <ele>767</ele>
      </trkpt>
      <trkpt lat="44.78891" lon="5.66417">
        <ele>771</ele>
      </trkpt>
      <trkpt lat="44.78871" lon="5.66443">
        <ele>770</ele>
      </trkpt>
      <trkpt lat="44.7885" lon="5.66456">
        <ele>770</ele>
      </trkpt>
      <trkpt lat="44.78832" lon="5.66483">
        <ele>770</ele>
      </trkpt>
      <trkpt lat="44.78808" lon="5.66505">
        <ele>770</ele>
      </trkpt>
      <trkpt lat="44.78789" lon="5.66526">
        <ele>771</ele>
      </trkpt>
      <trkpt lat="44.78776" lon="5.66548">
        <ele>772</ele>
      </trkpt>
      <trkpt lat="44.78762" lon="5.66584">
        <ele>774</ele>
      </trkpt>
      <trkpt lat="44.78753" lon="5.66613">
        <ele>776</ele>
      </trkpt>
      <trkpt lat="44.78747" lon="5.66649">
        <ele>778</ele>
      </trkpt>
      <trkpt lat="44.78738" lon="5.66682">
        <ele>780</ele>
      </trkpt>
      <trkpt lat="44.78736" lon="5.66714">
        <ele>781</ele>
      </trkpt>
      <trkpt lat="44.7873" lon="5.66747">
        <ele>783</ele>
      </trkpt>
      <trkpt lat="44.78737" lon="5.66806">
        <ele>786</ele>
      </trkpt>
      <trkpt lat="44.78742" lon="5.66834">
        <ele>788</ele>
      </trkpt>
      <trkpt lat="44.7874" lon="5.66859">
        <ele>787</ele>
      </trkpt>
      <trkpt lat="44.78734" lon="5.66885">
        <ele>784</ele>
      </trkpt>
      <trkpt lat="44.78728" lon="5.6693">
        <ele>780</ele>
      </trkpt>
      <trkpt lat="44.7872" lon="5.66959">
        <ele>777</ele>
      </trkpt>
      <trkpt lat="44.78712" lon="5.66986">
        <ele>774</ele>
      </trkpt>
      <trkpt lat="44.78697" lon="5.6701">
        <ele>771</ele>
      </trkpt>
      <trkpt lat="44.78685" lon="5.67036">
        <ele>767</ele>
      </trkpt>
      <trkpt lat="44.78677" lon="5.67074">
        <ele>761</ele>
      </trkpt>
      <trkpt lat="44.78674" lon="5.67113">
        <ele>755</ele>
      </trkpt>
      <trkpt lat="44.78669" lon="5.67147">
        <ele>751</ele>
      </trkpt>
      <trkpt lat="44.78661" lon="5.67185">
        <ele>747</ele>
      </trkpt>
      <trkpt lat="44.78662" lon="5.67211">
        <ele>744</ele>
      </trkpt>
      <trkpt lat="44.78669" lon="5.67238">
        <ele>742</ele>
      </trkpt>
      <trkpt lat="44.78673" lon="5.67266">
        <ele>743</ele>
      </trkpt>
      <trkpt lat="44.78684" lon="5.67305">
        <ele>741</ele>
      </trkpt>
      <trkpt lat="44.78684" lon="5.67322">
        <ele>741</ele>
      </trkpt>
      <trkpt lat="44.78672" lon="5.67289">
        <ele>742</ele>
      </trkpt>
      <trkpt lat="44.78662" lon="5.6725">
        <ele>742</ele>
      </trkpt>
      <trkpt lat="44.78645" lon="5.67223">
        <ele>743</ele>
      </trkpt>
      <trkpt lat="44.78652" lon="5.67183">
        <ele>749</ele>
      </trkpt>
      <trkpt lat="44.78655" lon="5.67158">
        <ele>750</ele>
      </trkpt>
      <trkpt lat="44.78654" lon="5.67143">
        <ele>748</ele>
      </trkpt>
      <trkpt lat="44.78658" lon="5.67136">
        <ele>748</ele>
      </trkpt>
      <trkpt lat="44.78656" lon="5.67124">
        <ele>748</ele>
      </trkpt>
      <trkpt lat="44.78663" lon="5.6713">
        <ele>748</ele>
      </trkpt>
      <trkpt lat="44.78666" lon="5.67159">
        <ele>747</ele>
      </trkpt>
      <trkpt lat="44.78656" lon="5.67198">
        <ele>743</ele>
      </trkpt>
      <trkpt lat="44.78662" lon="5.67225">
        <ele>740</ele>
      </trkpt>
      <trkpt lat="44.78667" lon="5.67249">
        <ele>739</ele>
      </trkpt>
      <trkpt lat="44.78679" lon="5.67292">
        <ele>739</ele>
      </trkpt>
      <trkpt lat="44.78684" lon="5.67317">
        <ele>738</ele>
      </trkpt>
      <trkpt lat="44.78693" lon="5.67343">
        <ele>737</ele>
      </trkpt>
      <trkpt lat="44.78708" lon="5.67363">
        <ele>737</ele>
      </trkpt>
      <trkpt lat="44.78722" lon="5.6738">
        <ele>735</ele>
      </trkpt>
      <trkpt lat="44.78716" lon="5.67395">
        <ele>731</ele>
      </trkpt>
      <trkpt lat="44.7869" lon="5.67423">
        <ele>729</ele>
      </trkpt>
      <trkpt lat="44.7869" lon="5.67462">
        <ele>725</ele>
      </trkpt>
      <trkpt lat="44.78702" lon="5.6749">
        <ele>723</ele>
      </trkpt>
      <trkpt lat="44.78714" lon="5.67525">
        <ele>720</ele>
      </trkpt>
      <trkpt lat="44.78718" lon="5.6755">
        <ele>719</ele>
      </trkpt>
      <trkpt lat="44.78723" lon="5.67588">
        <ele>716</ele>
      </trkpt>
      <trkpt lat="44.78722" lon="5.67637">
        <ele>714</ele>
      </trkpt>
      <trkpt lat="44.78712" lon="5.67678">
        <ele>713</ele>
      </trkpt>
      <trkpt lat="44.7873" lon="5.67724">
        <ele>713</ele>
      </trkpt>
      <trkpt lat="44.78739" lon="5.67748">
        <ele>713</ele>
      </trkpt>
      <trkpt lat="44.78735" lon="5.67779">
        <ele>714</ele>
      </trkpt>
      <trkpt lat="44.78723" lon="5.67806">
        <ele>714</ele>
      </trkpt>
      <trkpt lat="44.78712" lon="5.67829">
        <ele>715</ele>
      </trkpt>
      <trkpt lat="44.78703" lon="5.67854">
        <ele>715</ele>
      </trkpt>
      <trkpt lat="44.78698" lon="5.67909">
        <ele>715</ele>
      </trkpt>
      <trkpt lat="44.7869" lon="5.67936">
        <ele>715</ele>
      </trkpt>
      <trkpt lat="44.78675" lon="5.67954">
        <ele>716</ele>
      </trkpt>
      <trkpt lat="44.7865" lon="5.67972">
        <ele>716</ele>
      </trkpt>
      <trkpt lat="44.78625" lon="5.67989">
        <ele>715</ele>
      </trkpt>
      <trkpt lat="44.78605" lon="5.68001">
        <ele>716</ele>
      </trkpt>
      <trkpt lat="44.78588" lon="5.68012">
        <ele>716</ele>
      </trkpt>
      <trkpt lat="44.78569" lon="5.68023">
        <ele>717</ele>
      </trkpt>
      <trkpt lat="44.78553" lon="5.68037">
        <ele>717</ele>
      </trkpt>
      <trkpt lat="44.78538" lon="5.68039">
        <ele>716</ele>
      </trkpt>
      <trkpt lat="44.78514" lon="5.68028">
        <ele>715</ele>
      </trkpt>
      <trkpt lat="44.78498" lon="5.68019">
        <ele>714</ele>
      </trkpt>
      <trkpt lat="44.78469" lon="5.68023">
        <ele>712</ele>
      </trkpt>
      <trkpt lat="44.78452" lon="5.68032">
        <ele>711</ele>
      </trkpt>
      <trkpt lat="44.78439" lon="5.68054">
        <ele>709</ele>
      </trkpt>
      <trkpt lat="44.78444" lon="5.68083">
        <ele>706</ele>
      </trkpt>
      <trkpt lat="44.78461" lon="5.68084">
        <ele>704</ele>
      </trkpt>
      <trkpt lat="44.78478" lon="5.68092">
        <ele>700</ele>
      </trkpt>
      <trkpt lat="44.78489" lon="5.68113">
        <ele>697</ele>
      </trkpt>
      <trkpt lat="44.78478" lon="5.68132">
        <ele>697</ele>
      </trkpt>
      <trkpt lat="44.78467" lon="5.68152">
        <ele>694</ele>
      </trkpt>
      <trkpt lat="44.78454" lon="5.68186">
        <ele>690</ele>
      </trkpt>
      <trkpt lat="44.78481" lon="5.68172">
        <ele>689</ele>
      </trkpt>
      <trkpt lat="44.78504" lon="5.68166">
        <ele>688</ele>
      </trkpt>
      <trkpt lat="44.78527" lon="5.68166">
        <ele>688</ele>
      </trkpt>
      <trkpt lat="44.7855" lon="5.6817">
        <ele>688</ele>
      </trkpt>
      <trkpt lat="44.78575" lon="5.68177">
        <ele>688</ele>
      </trkpt>
      <trkpt lat="44.78596" lon="5.68192">
        <ele>688</ele>
      </trkpt>
      <trkpt lat="44.78601" lon="5.68222">
        <ele>691</ele>
      </trkpt>
      <trkpt lat="44.78593" lon="5.68253">
        <ele>693</ele>
      </trkpt>
      <trkpt lat="44.7861" lon="5.68276">
        <ele>697</ele>
      </trkpt>
      <trkpt lat="44.78636" lon="5.6827">
        <ele>700</ele>
      </trkpt>
      <trkpt lat="44.78648" lon="5.6829">
        <ele>702</ele>
      </trkpt>
      <trkpt lat="44.78657" lon="5.68323">
        <ele>705</ele>
      </trkpt>
      <trkpt lat="44.78664" lon="5.68355">
        <ele>710</ele>
      </trkpt>
      <trkpt lat="44.78675" lon="5.68381">
        <ele>715</ele>
      </trkpt>
      <trkpt lat="44.787" lon="5.68407">
        <ele>719</ele>
      </trkpt>
      <trkpt lat="44.78713" lon="5.68428">
        <ele>722</ele>
      </trkpt>
      <trkpt lat="44.78728" lon="5.68444">
        <ele>725</ele>
      </trkpt>
      <trkpt lat="44.78741" lon="5.68459">
        <ele>727</ele>
      </trkpt>
      <trkpt lat="44.78759" lon="5.68474">
        <ele>731</ele>
      </trkpt>
      <trkpt lat="44.78777" lon="5.68483">
        <ele>733</ele>
      </trkpt>
      <trkpt lat="44.78791" lon="5.68504">
        <ele>736</ele>
      </trkpt>
      <trkpt lat="44.78776" lon="5.68516">
        <ele>738</ele>
      </trkpt>
      <trkpt lat="44.78767" lon="5.68548">
        <ele>741</ele>
      </trkpt>
      <trkpt lat="44.78762" lon="5.68572">
        <ele>743</ele>
      </trkpt>
      <trkpt lat="44.78751" lon="5.68601">
        <ele>744</ele>
      </trkpt>
      <trkpt lat="44.78739" lon="5.68631">
        <ele>745</ele>
      </trkpt>
      <trkpt lat="44.78721" lon="5.68661">
        <ele>745</ele>
      </trkpt>
      <trkpt lat="44.78704" lon="5.68684">
        <ele>745</ele>
      </trkpt>
      <trkpt lat="44.78686" lon="5.68709">
        <ele>745</ele>
      </trkpt>
      <trkpt lat="44.78669" lon="5.68731">
        <ele>746</ele>
      </trkpt>
      <trkpt lat="44.78651" lon="5.68756">
        <ele>747</ele>
      </trkpt>
      <trkpt lat="44.78629" lon="5.68779">
        <ele>748</ele>
      </trkpt>
      <trkpt lat="44.78618" lon="5.68791">
        <ele>748</ele>
      </trkpt>
      <trkpt lat="44.78582" lon="5.6882">
        <ele>749</ele>
      </trkpt>
      <trkpt lat="44.78562" lon="5.6883">
        <ele>749</ele>
      </trkpt>
      <trkpt lat="44.78525" lon="5.68849">
        <ele>750</ele>
      </trkpt>
      <trkpt lat="44.78503" lon="5.68854">
        <ele>750</ele>
      </trkpt>
      <trkpt lat="44.78483" lon="5.68863">
        <ele>751</ele>
      </trkpt>
      <trkpt lat="44.78461" lon="5.68875">
        <ele>751</ele>
      </trkpt>
      <trkpt lat="44.78442" lon="5.6889">
        <ele>752</ele>
      </trkpt>
      <trkpt lat="44.78422" lon="5.68902">
        <ele>752</ele>
      </trkpt>
      <trkpt lat="44.78396" lon="5.68914">
        <ele>753</ele>
      </trkpt>
      <trkpt lat="44.78374" lon="5.68929">
        <ele>754</ele>
      </trkpt>
      <trkpt lat="44.78347" lon="5.68948">
        <ele>755</ele>
      </trkpt>
      <trkpt lat="44.7832" lon="5.68958">
        <ele>755</ele>
      </trkpt>
      <trkpt lat="44.78305" lon="5.68997">
        <ele>755</ele>
      </trkpt>
      <trkpt lat="44.78307" lon="5.6904">
        <ele>755</ele>
      </trkpt>
      <trkpt lat="44.78302" lon="5.69089">
        <ele>756</ele>
      </trkpt>
      <trkpt lat="44.78295" lon="5.6913">
        <ele>756</ele>
      </trkpt>
      <trkpt lat="44.78289" lon="5.69172">
        <ele>757</ele>
      </trkpt>
      <trkpt lat="44.78289" lon="5.69214">
        <ele>758</ele>
      </trkpt>
      <trkpt lat="44.78292" lon="5.69254">
        <ele>758</ele>
      </trkpt>
      <trkpt lat="44.78293" lon="5.69297">
        <ele>759</ele>
      </trkpt>
      <trkpt lat="44.78296" lon="5.69327">
        <ele>759</ele>
      </trkpt>
      <trkpt lat="44.78289" lon="5.69375">
        <ele>761</ele>
      </trkpt>
      <trkpt lat="44.78277" lon="5.69406">
        <ele>762</ele>
      </trkpt>
      <trkpt lat="44.78255" lon="5.69433">
        <ele>762</ele>
      </trkpt>
      <trkpt lat="44.78239" lon="5.69443">
        <ele>762</ele>
      </trkpt>
      <trkpt lat="44.78231" lon="5.6947">
        <ele>764</ele>
      </trkpt>
      <trkpt lat="44.78233" lon="5.69502">
        <ele>766</ele>
      </trkpt>
      <trkpt lat="44.78234" lon="5.69535">
        <ele>768</ele>
      </trkpt>
      <trkpt lat="44.78228" lon="5.69564">
        <ele>771</ele>
      </trkpt>
      <trkpt lat="44.78209" lon="5.6957">
        <ele>772</ele>
      </trkpt>
      <trkpt lat="44.78188" lon="5.69585">
        <ele>774</ele>
      </trkpt>
      <trkpt lat="44.78167" lon="5.69597">
        <ele>775</ele>
      </trkpt>
      <trkpt lat="44.78143" lon="5.69612">
        <ele>778</ele>
      </trkpt>
      <trkpt lat="44.7812" lon="5.69627">
        <ele>780</ele>
      </trkpt>
      <trkpt lat="44.78096" lon="5.69645">
        <ele>783</ele>
      </trkpt>
      <trkpt lat="44.78077" lon="5.69698">
        <ele>787</ele>
      </trkpt>
      <trkpt lat="44.78071" lon="5.69729">
        <ele>790</ele>
      </trkpt>
      <trkpt lat="44.78068" lon="5.69764">
        <ele>792</ele>
      </trkpt>
      <trkpt lat="44.78074" lon="5.69797">
        <ele>793</ele>
      </trkpt>
      <trkpt lat="44.78078" lon="5.69833">
        <ele>796</ele>
      </trkpt>
      <trkpt lat="44.78077" lon="5.69866">
        <ele>798</ele>
      </trkpt>
      <trkpt lat="44.78075" lon="5.69897">
        <ele>799</ele>
      </trkpt>
      <trkpt lat="44.78064" lon="5.69932">
        <ele>799</ele>
      </trkpt>
      <trkpt lat="44.78054" lon="5.69962">
        <ele>800</ele>
      </trkpt>
      <trkpt lat="44.78045" lon="5.69991">
        <ele>800</ele>
      </trkpt>
      <trkpt lat="44.78037" lon="5.70026">
        <ele>801</ele>
      </trkpt>
      <trkpt lat="44.78032" lon="5.70063">
        <ele>802</ele>
      </trkpt>
      <trkpt lat="44.78029" lon="5.70094">
        <ele>802</ele>
      </trkpt>
      <trkpt lat="44.78017" lon="5.70127">
        <ele>803</ele>
      </trkpt>
      <trkpt lat="44.78005" lon="5.70157">
        <ele>803</ele>
      </trkpt>
      <trkpt lat="44.77996" lon="5.70185">
        <ele>804</ele>
      </trkpt>
      <trkpt lat="44.77986" lon="5.70221">
        <ele>804</ele>
      </trkpt>
      <trkpt lat="44.7798" lon="5.70251">
        <ele>804</ele>
      </trkpt>
      <trkpt lat="44.7798" lon="5.70278">
        <ele>805</ele>
      </trkpt>
      <trkpt lat="44.77981" lon="5.70312">
        <ele>805</ele>
      </trkpt>
      <trkpt lat="44.77979" lon="5.70347">
        <ele>806</ele>
      </trkpt>
      <trkpt lat="44.77977" lon="5.70373">
        <ele>806</ele>
      </trkpt>
      <trkpt lat="44.77976" lon="5.70402">
        <ele>807</ele>
      </trkpt>
      <trkpt lat="44.77975" lon="5.70428">
        <ele>807</ele>
      </trkpt>
      <trkpt lat="44.77973" lon="5.70443">
        <ele>808</ele>
      </trkpt>
      <trkpt lat="44.77974" lon="5.70419">
        <ele>808</ele>
      </trkpt>
      <trkpt lat="44.78" lon="5.70409">
        <ele>807</ele>
      </trkpt>
      <trkpt lat="44.7802" lon="5.70416">
        <ele>808</ele>
      </trkpt>
      <trkpt lat="44.78011" lon="5.70425">
        <ele>808</ele>
      </trkpt>
      <trkpt lat="44.77983" lon="5.70425">
        <ele>808</ele>
      </trkpt>
      <trkpt lat="44.77978" lon="5.70453">
        <ele>809</ele>
      </trkpt>
      <trkpt lat="44.77981" lon="5.7049">
        <ele>809</ele>
      </trkpt>
      <trkpt lat="44.77983" lon="5.70523">
        <ele>809</ele>
      </trkpt>
      <trkpt lat="44.77984" lon="5.70547">
        <ele>810</ele>
      </trkpt>
      <trkpt lat="44.77984" lon="5.70595">
        <ele>810</ele>
      </trkpt>
      <trkpt lat="44.7799" lon="5.70628">
        <ele>811</ele>
      </trkpt>
      <trkpt lat="44.78016" lon="5.70651">
        <ele>812</ele>
      </trkpt>
      <trkpt lat="44.78034" lon="5.70667">
        <ele>812</ele>
      </trkpt>
      <trkpt lat="44.78056" lon="5.70689">
        <ele>812</ele>
      </trkpt>
      <trkpt lat="44.78074" lon="5.70702">
        <ele>813</ele>
      </trkpt>
      <trkpt lat="44.78096" lon="5.70709">
        <ele>812</ele>
      </trkpt>
      <trkpt lat="44.78101" lon="5.70725">
        <ele>813</ele>
      </trkpt>
      <trkpt lat="44.78095" lon="5.70751">
        <ele>814</ele>
      </trkpt>
      <trkpt lat="44.78086" lon="5.70786">
        <ele>815</ele>
      </trkpt>
      <trkpt lat="44.78074" lon="5.70804">
        <ele>817</ele>
      </trkpt>
      <trkpt lat="44.7806" lon="5.70823">
        <ele>818</ele>
      </trkpt>
      <trkpt lat="44.78049" lon="5.70843">
        <ele>819</ele>
      </trkpt>
      <trkpt lat="44.78036" lon="5.70867">
        <ele>821</ele>
      </trkpt>
      <trkpt lat="44.78023" lon="5.70893">
        <ele>823</ele>
      </trkpt>
      <trkpt lat="44.78008" lon="5.70931">
        <ele>826</ele>
      </trkpt>
      <trkpt lat="44.78001" lon="5.70969">
        <ele>830</ele>
      </trkpt>
      <trkpt lat="44.77996" lon="5.70991">
        <ele>831</ele>
      </trkpt>
      <trkpt lat="44.7799" lon="5.71017">
        <ele>833</ele>
      </trkpt>
      <trkpt lat="44.77983" lon="5.71043">
        <ele>836</ele>
      </trkpt>
      <trkpt lat="44.77971" lon="5.71069">
        <ele>838</ele>
      </trkpt>
      <trkpt lat="44.77964" lon="5.71093">
        <ele>840</ele>
      </trkpt>
      <trkpt lat="44.77957" lon="5.71118">
        <ele>842</ele>
      </trkpt>
      <trkpt lat="44.77934" lon="5.71128">
        <ele>843</ele>
      </trkpt>
      <trkpt lat="44.77914" lon="5.71138">
        <ele>847</ele>
      </trkpt>
      <trkpt lat="44.77896" lon="5.71136">
        <ele>849</ele>
      </trkpt>
      <trkpt lat="44.77877" lon="5.71144">
        <ele>852</ele>
      </trkpt>
      <trkpt lat="44.77864" lon="5.71158">
        <ele>856</ele>
      </trkpt>
      <trkpt lat="44.77858" lon="5.71184">
        <ele>859</ele>
      </trkpt>
      <trkpt lat="44.77855" lon="5.71207">
        <ele>860</ele>
      </trkpt>
      <trkpt lat="44.77845" lon="5.71235">
        <ele>863</ele>
      </trkpt>
      <trkpt lat="44.77831" lon="5.7127">
        <ele>865</ele>
      </trkpt>
      <trkpt lat="44.77832" lon="5.71317">
        <ele>869</ele>
      </trkpt>
      <trkpt lat="44.77839" lon="5.71344">
        <ele>873</ele>
      </trkpt>
      <trkpt lat="44.77846" lon="5.71367">
        <ele>874</ele>
      </trkpt>
      <trkpt lat="44.77838" lon="5.71387">
        <ele>876</ele>
      </trkpt>
      <trkpt lat="44.77831" lon="5.71425">
        <ele>876</ele>
      </trkpt>
      <trkpt lat="44.77815" lon="5.71445">
        <ele>877</ele>
      </trkpt>
      <trkpt lat="44.77801" lon="5.7147">
        <ele>879</ele>
      </trkpt>
      <trkpt lat="44.77793" lon="5.71494">
        <ele>880</ele>
      </trkpt>
      <trkpt lat="44.77775" lon="5.71519">
        <ele>882</ele>
      </trkpt>
      <trkpt lat="44.77756" lon="5.71534">
        <ele>882</ele>
      </trkpt>
      <trkpt lat="44.77737" lon="5.71549">
        <ele>883</ele>
      </trkpt>
      <trkpt lat="44.77721" lon="5.71568">
        <ele>883</ele>
      </trkpt>
      <trkpt lat="44.77705" lon="5.71601">
        <ele>884</ele>
      </trkpt>
      <trkpt lat="44.77692" lon="5.71625">
        <ele>884</ele>
      </trkpt>
      <trkpt lat="44.77676" lon="5.71658">
        <ele>884</ele>
      </trkpt>
      <trkpt lat="44.77659" lon="5.71689">
        <ele>884</ele>
      </trkpt>
      <trkpt lat="44.77645" lon="5.71713">
        <ele>884</ele>
      </trkpt>
      <trkpt lat="44.7763" lon="5.71732">
        <ele>885</ele>
      </trkpt>
      <trkpt lat="44.77613" lon="5.71755">
        <ele>886</ele>
      </trkpt>
      <trkpt lat="44.776" lon="5.71777">
        <ele>886</ele>
      </trkpt>
      <trkpt lat="44.77587" lon="5.71797">
        <ele>888</ele>
      </trkpt>
      <trkpt lat="44.7758" lon="5.71839">
        <ele>889</ele>
      </trkpt>
      <trkpt lat="44.77581" lon="5.71863">
        <ele>892</ele>
      </trkpt>
      <trkpt lat="44.77587" lon="5.71899">
        <ele>897</ele>
      </trkpt>
      <trkpt lat="44.77589" lon="5.71923">
        <ele>898</ele>
      </trkpt>
      <trkpt lat="44.77584" lon="5.71977">
        <ele>899</ele>
      </trkpt>
      <trkpt lat="44.77577" lon="5.72012">
        <ele>900</ele>
      </trkpt>
      <trkpt lat="44.77569" lon="5.72045">
        <ele>899</ele>
      </trkpt>
      <trkpt lat="44.7756" lon="5.72073">
        <ele>900</ele>
      </trkpt>
      <trkpt lat="44.7755" lon="5.72108">
        <ele>900</ele>
      </trkpt>
      <trkpt lat="44.7754" lon="5.72136">
        <ele>901</ele>
      </trkpt>
      <trkpt lat="44.77529" lon="5.72161">
        <ele>901</ele>
      </trkpt>
      <trkpt lat="44.77513" lon="5.72185">
        <ele>903</ele>
      </trkpt>
      <trkpt lat="44.775" lon="5.7221">
        <ele>904</ele>
      </trkpt>
      <trkpt lat="44.77488" lon="5.72239">
        <ele>905</ele>
      </trkpt>
      <trkpt lat="44.7748" lon="5.72268">
        <ele>906</ele>
      </trkpt>
      <trkpt lat="44.77473" lon="5.72296">
        <ele>906</ele>
      </trkpt>
      <trkpt lat="44.77463" lon="5.72329">
        <ele>907</ele>
      </trkpt>
      <trkpt lat="44.77449" lon="5.72371">
        <ele>908</ele>
      </trkpt>
      <trkpt lat="44.77444" lon="5.72397">
        <ele>908</ele>
      </trkpt>
      <trkpt lat="44.7744" lon="5.72427">
        <ele>909</ele>
      </trkpt>
      <trkpt lat="44.77435" lon="5.72467">
        <ele>912</ele>
      </trkpt>
      <trkpt lat="44.77433" lon="5.72491">
        <ele>914</ele>
      </trkpt>
      <trkpt lat="44.77442" lon="5.72529">
        <ele>917</ele>
      </trkpt>
      <trkpt lat="44.77453" lon="5.72548">
        <ele>915</ele>
      </trkpt>
      <trkpt lat="44.77461" lon="5.72579">
        <ele>914</ele>
      </trkpt>
      <trkpt lat="44.77462" lon="5.72622">
        <ele>912</ele>
      </trkpt>
      <trkpt lat="44.77465" lon="5.72657">
        <ele>911</ele>
      </trkpt>
      <trkpt lat="44.77468" lon="5.72689">
        <ele>908</ele>
      </trkpt>
      <trkpt lat="44.77477" lon="5.72702">
        <ele>908</ele>
      </trkpt>
      <trkpt lat="44.77462" lon="5.72754">
        <ele>907</ele>
      </trkpt>
      <trkpt lat="44.7746" lon="5.72779">
        <ele>908</ele>
      </trkpt>
      <trkpt lat="44.7746" lon="5.72812">
        <ele>908</ele>
      </trkpt>
      <trkpt lat="44.77459" lon="5.72845">
        <ele>907</ele>
      </trkpt>
      <trkpt lat="44.77456" lon="5.72872">
        <ele>906</ele>
      </trkpt>
      <trkpt lat="44.77456" lon="5.72899">
        <ele>904</ele>
      </trkpt>
      <trkpt lat="44.77458" lon="5.72933">
        <ele>904</ele>
      </trkpt>
      <trkpt lat="44.77467" lon="5.72934">
        <ele>903</ele>
      </trkpt>
      <trkpt lat="44.77475" lon="5.72956">
        <ele>901</ele>
      </trkpt>
      <trkpt lat="44.77481" lon="5.72976">
        <ele>898</ele>
      </trkpt>
      <trkpt lat="44.77494" lon="5.73004">
        <ele>894</ele>
      </trkpt>
      <trkpt lat="44.77506" lon="5.73019">
        <ele>892</ele>
      </trkpt>
      <trkpt lat="44.77515" lon="5.73037">
        <ele>888</ele>
      </trkpt>
      <trkpt lat="44.77524" lon="5.73078">
        <ele>884</ele>
      </trkpt>
      <trkpt lat="44.77547" lon="5.73103">
        <ele>882</ele>
      </trkpt>
      <trkpt lat="44.77566" lon="5.73107">
        <ele>880</ele>
      </trkpt>
      <trkpt lat="44.77579" lon="5.73124">
        <ele>877</ele>
      </trkpt>
      <trkpt lat="44.77594" lon="5.73141">
        <ele>874</ele>
      </trkpt>
      <trkpt lat="44.7762" lon="5.73167">
        <ele>869</ele>
      </trkpt>
      <trkpt lat="44.77638" lon="5.73192">
        <ele>866</ele>
      </trkpt>
      <trkpt lat="44.77651" lon="5.73212">
        <ele>863</ele>
      </trkpt>
      <trkpt lat="44.77672" lon="5.73234">
        <ele>859</ele>
      </trkpt>
      <trkpt lat="44.77689" lon="5.73242">
        <ele>856</ele>
      </trkpt>
      <trkpt lat="44.77697" lon="5.73261">
        <ele>854</ele>
      </trkpt>
      <trkpt lat="44.77705" lon="5.73293">
        <ele>851</ele>
      </trkpt>
      <trkpt lat="44.77724" lon="5.73308">
        <ele>848</ele>
      </trkpt>
      <trkpt lat="44.7774" lon="5.73317">
        <ele>847</ele>
      </trkpt>
      <trkpt lat="44.77755" lon="5.73333">
        <ele>844</ele>
      </trkpt>
      <trkpt lat="44.77742" lon="5.73323">
        <ele>847</ele>
      </trkpt>
      <trkpt lat="44.7775" lon="5.73301">
        <ele>843</ele>
      </trkpt>
      <trkpt lat="44.77769" lon="5.73304">
        <ele>842</ele>
      </trkpt>
      <trkpt lat="44.77795" lon="5.73309">
        <ele>839</ele>
      </trkpt>
      <trkpt lat="44.77813" lon="5.733">
        <ele>836</ele>
      </trkpt>
      <trkpt lat="44.7784" lon="5.73288">
        <ele>834</ele>
      </trkpt>
      <trkpt lat="44.77859" lon="5.7327">
        <ele>828</ele>
      </trkpt>
      <trkpt lat="44.77873" lon="5.73263">
        <ele>827</ele>
      </trkpt>
      <trkpt lat="44.77901" lon="5.73184">
        <ele>822</ele>
      </trkpt>
      <trkpt lat="44.77916" lon="5.73159">
        <ele>820</ele>
      </trkpt>
      <trkpt lat="44.77935" lon="5.73144">
        <ele>812</ele>
      </trkpt>
      <trkpt lat="44.77959" lon="5.73126">
        <ele>812</ele>
      </trkpt>
      <trkpt lat="44.77977" lon="5.73122">
        <ele>809</ele>
      </trkpt>
      <trkpt lat="44.78004" lon="5.73123">
        <ele>805</ele>
      </trkpt>
      <trkpt lat="44.78029" lon="5.73101">
        <ele>800</ele>
      </trkpt>
      <trkpt lat="44.78045" lon="5.7311">
        <ele>799</ele>
      </trkpt>
      <trkpt lat="44.78059" lon="5.73126">
        <ele>798</ele>
      </trkpt>
      <trkpt lat="44.78088" lon="5.73142">
        <ele>798</ele>
      </trkpt>
      <trkpt lat="44.78099" lon="5.73161">
        <ele>798</ele>
      </trkpt>
      <trkpt lat="44.78107" lon="5.73182">
        <ele>799</ele>
      </trkpt>
      <trkpt lat="44.78108" lon="5.73212">
        <ele>799</ele>
      </trkpt>
      <trkpt lat="44.78103" lon="5.73237">
        <ele>800</ele>
      </trkpt>
      <trkpt lat="44.781" lon="5.73267">
        <ele>801</ele>
      </trkpt>
      <trkpt lat="44.78101" lon="5.73288">
        <ele>802</ele>
      </trkpt>
      <trkpt lat="44.78116" lon="5.73285">
        <ele>803</ele>
      </trkpt>
      <trkpt lat="44.78134" lon="5.73277">
        <ele>803</ele>
      </trkpt>
      <trkpt lat="44.78158" lon="5.73273">
        <ele>802</ele>
      </trkpt>
      <trkpt lat="44.7816" lon="5.73271">
        <ele>801</ele>
      </trkpt>
      <trkpt lat="44.78175" lon="5.7328">
        <ele>800</ele>
      </trkpt>
      <trkpt lat="44.78201" lon="5.73281">
        <ele>797</ele>
      </trkpt>
      <trkpt lat="44.78227" lon="5.73291">
        <ele>794</ele>
      </trkpt>
      <trkpt lat="44.78257" lon="5.73306">
        <ele>792</ele>
      </trkpt>
      <trkpt lat="44.78272" lon="5.73325">
        <ele>793</ele>
      </trkpt>
      <trkpt lat="44.78298" lon="5.7335">
        <ele>794</ele>
      </trkpt>
      <trkpt lat="44.78334" lon="5.73357">
        <ele>797</ele>
      </trkpt>
      <trkpt lat="44.78357" lon="5.73357">
        <ele>799</ele>
      </trkpt>
      <trkpt lat="44.78384" lon="5.73359">
        <ele>799</ele>
      </trkpt>
      <trkpt lat="44.78404" lon="5.73363">
        <ele>799</ele>
      </trkpt>
      <trkpt lat="44.78431" lon="5.73368">
        <ele>798</ele>
      </trkpt>
      <trkpt lat="44.78452" lon="5.73377">
        <ele>797</ele>
      </trkpt>
      <trkpt lat="44.78471" lon="5.73385">
        <ele>795</ele>
      </trkpt>
      <trkpt lat="44.78496" lon="5.73398">
        <ele>793</ele>
      </trkpt>
      <trkpt lat="44.78514" lon="5.73407">
        <ele>791</ele>
      </trkpt>
      <trkpt lat="44.78532" lon="5.73423">
        <ele>789</ele>
      </trkpt>
      <trkpt lat="44.78551" lon="5.73438">
        <ele>789</ele>
      </trkpt>
      <trkpt lat="44.78569" lon="5.73458">
        <ele>788</ele>
      </trkpt>
      <trkpt lat="44.78595" lon="5.73506">
        <ele>788</ele>
      </trkpt>
      <trkpt lat="44.78613" lon="5.73528">
        <ele>789</ele>
      </trkpt>
      <trkpt lat="44.78625" lon="5.73542">
        <ele>789</ele>
      </trkpt>
      <trkpt lat="44.78641" lon="5.73556">
        <ele>788</ele>
      </trkpt>
      <trkpt lat="44.78655" lon="5.73596">
        <ele>790</ele>
      </trkpt>
      <trkpt lat="44.78663" lon="5.73632">
        <ele>793</ele>
      </trkpt>
      <trkpt lat="44.78679" lon="5.73664">
        <ele>795</ele>
      </trkpt>
      <trkpt lat="44.78701" lon="5.73691">
        <ele>796</ele>
      </trkpt>
      <trkpt lat="44.78718" lon="5.73718">
        <ele>798</ele>
      </trkpt>
      <trkpt lat="44.78736" lon="5.73755">
        <ele>798</ele>
      </trkpt>
      <trkpt lat="44.78751" lon="5.73773">
        <ele>797</ele>
      </trkpt>
      <trkpt lat="44.78769" lon="5.73801">
        <ele>798</ele>
      </trkpt>
      <trkpt lat="44.78784" lon="5.73818">
        <ele>797</ele>
      </trkpt>
      <trkpt lat="44.78802" lon="5.7383">
        <ele>796</ele>
      </trkpt>
      <trkpt lat="44.78825" lon="5.7385">
        <ele>794</ele>
      </trkpt>
      <trkpt lat="44.78842" lon="5.73868">
        <ele>792</ele>
      </trkpt>
      <trkpt lat="44.78859" lon="5.73884">
        <ele>791</ele>
      </trkpt>
      <trkpt lat="44.78875" lon="5.73894">
        <ele>789</ele>
      </trkpt>
      <trkpt lat="44.78895" lon="5.73904">
        <ele>786</ele>
      </trkpt>
      <trkpt lat="44.78912" lon="5.739">
        <ele>783</ele>
      </trkpt>
      <trkpt lat="44.78927" lon="5.73899">
        <ele>783</ele>
      </trkpt>
      <trkpt lat="44.78952" lon="5.73882">
        <ele>781</ele>
      </trkpt>
      <trkpt lat="44.78974" lon="5.7388">
        <ele>778</ele>
      </trkpt>
      <trkpt lat="44.79" lon="5.73876">
        <ele>775</ele>
      </trkpt>
      <trkpt lat="44.79024" lon="5.73862">
        <ele>775</ele>
      </trkpt>
      <trkpt lat="44.79048" lon="5.73856">
        <ele>779</ele>
      </trkpt>
      <trkpt lat="44.79071" lon="5.7386">
        <ele>784</ele>
      </trkpt>
      <trkpt lat="44.79089" lon="5.73866">
        <ele>786</ele>
      </trkpt>
      <trkpt lat="44.79111" lon="5.73868">
        <ele>790</ele>
      </trkpt>
      <trkpt lat="44.79127" lon="5.7386">
        <ele>794</ele>
      </trkpt>
      <trkpt lat="44.79144" lon="5.73852">
        <ele>797</ele>
      </trkpt>
      <trkpt lat="44.79161" lon="5.73839">
        <ele>799</ele>
      </trkpt>
      <trkpt lat="44.7918" lon="5.73825">
        <ele>801</ele>
      </trkpt>
      <trkpt lat="44.79201" lon="5.73813">
        <ele>804</ele>
      </trkpt>
      <trkpt lat="44.79221" lon="5.73806">
        <ele>806</ele>
      </trkpt>
      <trkpt lat="44.79255" lon="5.73789">
        <ele>809</ele>
      </trkpt>
      <trkpt lat="44.79275" lon="5.73792">
        <ele>811</ele>
      </trkpt>
      <trkpt lat="44.79298" lon="5.73794">
        <ele>814</ele>
      </trkpt>
      <trkpt lat="44.79316" lon="5.73794">
        <ele>817</ele>
      </trkpt>
      <trkpt lat="44.79343" lon="5.7379">
        <ele>822</ele>
      </trkpt>
      <trkpt lat="44.7936" lon="5.73787">
        <ele>824</ele>
      </trkpt>
      <trkpt lat="44.79379" lon="5.73775">
        <ele>824</ele>
      </trkpt>
      <trkpt lat="44.79397" lon="5.73753">
        <ele>824</ele>
      </trkpt>
      <trkpt lat="44.79413" lon="5.73738">
        <ele>825</ele>
      </trkpt>
      <trkpt lat="44.7943" lon="5.73723">
        <ele>826</ele>
      </trkpt>
      <trkpt lat="44.79449" lon="5.73712">
        <ele>826</ele>
      </trkpt>
      <trkpt lat="44.7947" lon="5.73713">
        <ele>827</ele>
      </trkpt>
      <trkpt lat="44.79486" lon="5.73709">
        <ele>828</ele>
      </trkpt>
      <trkpt lat="44.79502" lon="5.73706">
        <ele>827</ele>
      </trkpt>
      <trkpt lat="44.79518" lon="5.73704">
        <ele>828</ele>
      </trkpt>
      <trkpt lat="44.79538" lon="5.73699">
        <ele>827</ele>
      </trkpt>
      <trkpt lat="44.7956" lon="5.73693">
        <ele>827</ele>
      </trkpt>
      <trkpt lat="44.79578" lon="5.73683">
        <ele>825</ele>
      </trkpt>
      <trkpt lat="44.79596" lon="5.73682">
        <ele>824</ele>
      </trkpt>
      <trkpt lat="44.79624" lon="5.73685">
        <ele>823</ele>
      </trkpt>
      <trkpt lat="44.7964" lon="5.73687">
        <ele>823</ele>
      </trkpt>
      <trkpt lat="44.79674" lon="5.73688">
        <ele>822</ele>
      </trkpt>
      <trkpt lat="44.7969" lon="5.7369">
        <ele>821</ele>
      </trkpt>
      <trkpt lat="44.79711" lon="5.73693">
        <ele>822</ele>
      </trkpt>
      <trkpt lat="44.7973" lon="5.73694">
        <ele>822</ele>
      </trkpt>
      <trkpt lat="44.7975" lon="5.73699">
        <ele>821</ele>
      </trkpt>
      <trkpt lat="44.79777" lon="5.73703">
        <ele>821</ele>
      </trkpt>
      <trkpt lat="44.79808" lon="5.73701">
        <ele>821</ele>
      </trkpt>
      <trkpt lat="44.79825" lon="5.73702">
        <ele>821</ele>
      </trkpt>
      <trkpt lat="44.79844" lon="5.73703">
        <ele>821</ele>
      </trkpt>
      <trkpt lat="44.79859" lon="5.73714">
        <ele>823</ele>
      </trkpt>
      <trkpt lat="44.79885" lon="5.73716">
        <ele>823</ele>
      </trkpt>
      <trkpt lat="44.79906" lon="5.73726">
        <ele>824</ele>
      </trkpt>
      <trkpt lat="44.79931" lon="5.73731">
        <ele>824</ele>
      </trkpt>
      <trkpt lat="44.79947" lon="5.73728">
        <ele>824</ele>
      </trkpt>
      <trkpt lat="44.79982" lon="5.73735">
        <ele>825</ele>
      </trkpt>
      <trkpt lat="44.80001" lon="5.73739">
        <ele>825</ele>
      </trkpt>
      <trkpt lat="44.80033" lon="5.73739">
        <ele>827</ele>
      </trkpt>
      <trkpt lat="44.80055" lon="5.73743">
        <ele>826</ele>
      </trkpt>
      <trkpt lat="44.80083" lon="5.73754">
        <ele>824</ele>
      </trkpt>
      <trkpt lat="44.80097" lon="5.7376">
        <ele>824</ele>
      </trkpt>
      <trkpt lat="44.80125" lon="5.73773">
        <ele>821</ele>
      </trkpt>
      <trkpt lat="44.8014" lon="5.73782">
        <ele>819</ele>
      </trkpt>
      <trkpt lat="44.80158" lon="5.73803">
        <ele>815</ele>
      </trkpt>
      <trkpt lat="44.80179" lon="5.73829">
        <ele>810</ele>
      </trkpt>
      <trkpt lat="44.80194" lon="5.73854">
        <ele>805</ele>
      </trkpt>
      <trkpt lat="44.80208" lon="5.73871">
        <ele>801</ele>
      </trkpt>
      <trkpt lat="44.80221" lon="5.73883">
        <ele>798</ele>
      </trkpt>
      <trkpt lat="44.80237" lon="5.73903">
        <ele>794</ele>
      </trkpt>
      <trkpt lat="44.8025" lon="5.73922">
        <ele>792</ele>
      </trkpt>
      <trkpt lat="44.8028" lon="5.73926">
        <ele>791</ele>
      </trkpt>
      <trkpt lat="44.8028" lon="5.73942">
        <ele>787</ele>
      </trkpt>
      <trkpt lat="44.80294" lon="5.73956">
        <ele>781</ele>
      </trkpt>
      <trkpt lat="44.80304" lon="5.73967">
        <ele>778</ele>
      </trkpt>
      <trkpt lat="44.80319" lon="5.73962">
        <ele>775</ele>
      </trkpt>
      <trkpt lat="44.80336" lon="5.73958">
        <ele>774</ele>
      </trkpt>
      <trkpt lat="44.80361" lon="5.73951">
        <ele>771</ele>
      </trkpt>
      <trkpt lat="44.80379" lon="5.73955">
        <ele>769</ele>
      </trkpt>
      <trkpt lat="44.80399" lon="5.73949">
        <ele>768</ele>
      </trkpt>
      <trkpt lat="44.80412" lon="5.73948">
        <ele>766</ele>
      </trkpt>
      <trkpt lat="44.8043" lon="5.73946">
        <ele>765</ele>
      </trkpt>
      <trkpt lat="44.80448" lon="5.73945">
        <ele>763</ele>
      </trkpt>
      <trkpt lat="44.80462" lon="5.73943">
        <ele>762</ele>
      </trkpt>
      <trkpt lat="44.80477" lon="5.73951">
        <ele>760</ele>
      </trkpt>
      <trkpt lat="44.80498" lon="5.7396">
        <ele>758</ele>
      </trkpt>
      <trkpt lat="44.80509" lon="5.73968">
        <ele>759</ele>
      </trkpt>
      <trkpt lat="44.80523" lon="5.73991">
        <ele>756</ele>
      </trkpt>
      <trkpt lat="44.80501" lon="5.74039">
        <ele>754</ele>
      </trkpt>
      <trkpt lat="44.8048" lon="5.74068">
        <ele>753</ele>
      </trkpt>
      <trkpt lat="44.80473" lon="5.74087">
        <ele>751</ele>
      </trkpt>
      <trkpt lat="44.80477" lon="5.74105">
        <ele>749</ele>
      </trkpt>
      <trkpt lat="44.80496" lon="5.74111">
        <ele>749</ele>
      </trkpt>
      <trkpt lat="44.80519" lon="5.74114">
        <ele>747</ele>
      </trkpt>
      <trkpt lat="44.8054" lon="5.74119">
        <ele>745</ele>
      </trkpt>
      <trkpt lat="44.80564" lon="5.74121">
        <ele>744</ele>
      </trkpt>
      <trkpt lat="44.80586" lon="5.74123">
        <ele>745</ele>
      </trkpt>
      <trkpt lat="44.806" lon="5.74105">
        <ele>746</ele>
      </trkpt>
      <trkpt lat="44.80613" lon="5.74084">
        <ele>748</ele>
      </trkpt>
      <trkpt lat="44.80631" lon="5.74072">
        <ele>749</ele>
      </trkpt>
      <trkpt lat="44.80646" lon="5.74065">
        <ele>750</ele>
      </trkpt>
      <trkpt lat="44.8067" lon="5.74048">
        <ele>752</ele>
      </trkpt>
      <trkpt lat="44.80694" lon="5.74032">
        <ele>752</ele>
      </trkpt>
      <trkpt lat="44.80716" lon="5.74017">
        <ele>755</ele>
      </trkpt>
      <trkpt lat="44.8073" lon="5.74013">
        <ele>754</ele>
      </trkpt>
      <trkpt lat="44.80718" lon="5.74015">
        <ele>754</ele>
      </trkpt>
      <trkpt lat="44.80702" lon="5.7403">
        <ele>753</ele>
      </trkpt>
      <trkpt lat="44.80716" lon="5.74017">
        <ele>754</ele>
      </trkpt>
      <trkpt lat="44.80744" lon="5.74">
        <ele>755</ele>
      </trkpt>
      <trkpt lat="44.80767" lon="5.73991">
        <ele>755</ele>
      </trkpt>
      <trkpt lat="44.80802" lon="5.73986">
        <ele>757</ele>
      </trkpt>
      <trkpt lat="44.80815" lon="5.73997">
        <ele>762</ele>
      </trkpt>
      <trkpt lat="44.80833" lon="5.74005">
        <ele>764</ele>
      </trkpt>
      <trkpt lat="44.80852" lon="5.74017">
        <ele>767</ele>
      </trkpt>
      <trkpt lat="44.80875" lon="5.7403">
        <ele>770</ele>
      </trkpt>
      <trkpt lat="44.80887" lon="5.74038">
        <ele>771</ele>
      </trkpt>
      <trkpt lat="44.80916" lon="5.74051">
        <ele>774</ele>
      </trkpt>
      <trkpt lat="44.8094" lon="5.74063">
        <ele>776</ele>
      </trkpt>
      <trkpt lat="44.80954" lon="5.74071">
        <ele>777</ele>
      </trkpt>
      <trkpt lat="44.80987" lon="5.74091">
        <ele>780</ele>
      </trkpt>
      <trkpt lat="44.81016" lon="5.74106">
        <ele>781</ele>
      </trkpt>
      <trkpt lat="44.8103" lon="5.74109">
        <ele>781</ele>
      </trkpt>
      <trkpt lat="44.81049" lon="5.74114">
        <ele>780</ele>
      </trkpt>
      <trkpt lat="44.81068" lon="5.74123">
        <ele>780</ele>
      </trkpt>
      <trkpt lat="44.81075" lon="5.74137">
        <ele>779</ele>
      </trkpt>
      <trkpt lat="44.8108" lon="5.7415">
        <ele>778</ele>
      </trkpt>
      <trkpt lat="44.81071" lon="5.74139">
        <ele>778</ele>
      </trkpt>
      <trkpt lat="44.81101" lon="5.74135">
        <ele>776</ele>
      </trkpt>
      <trkpt lat="44.81118" lon="5.74131">
        <ele>774</ele>
      </trkpt>
      <trkpt lat="44.81132" lon="5.74123">
        <ele>772</ele>
      </trkpt>
      <trkpt lat="44.81149" lon="5.74109">
        <ele>770</ele>
      </trkpt>
      <trkpt lat="44.81163" lon="5.74097">
        <ele>768</ele>
      </trkpt>
      <trkpt lat="44.8118" lon="5.74121">
        <ele>765</ele>
      </trkpt>
      <trkpt lat="44.81192" lon="5.74141">
        <ele>764</ele>
      </trkpt>
      <trkpt lat="44.81211" lon="5.74157">
        <ele>763</ele>
      </trkpt>
      <trkpt lat="44.81236" lon="5.74177">
        <ele>760</ele>
      </trkpt>
      <trkpt lat="44.81253" lon="5.74187">
        <ele>760</ele>
      </trkpt>
      <trkpt lat="44.81277" lon="5.7422">
        <ele>758</ele>
      </trkpt>
      <trkpt lat="44.81291" lon="5.74243">
        <ele>758</ele>
      </trkpt>
      <trkpt lat="44.81313" lon="5.74266">
        <ele>759</ele>
      </trkpt>
      <trkpt lat="44.81335" lon="5.74286">
        <ele>760</ele>
      </trkpt>
      <trkpt lat="44.81359" lon="5.74301">
        <ele>762</ele>
      </trkpt>
      <trkpt lat="44.81373" lon="5.7431">
        <ele>762</ele>
      </trkpt>
      <trkpt lat="44.81382" lon="5.74328">
        <ele>766</ele>
      </trkpt>
      <trkpt lat="44.81391" lon="5.74359">
        <ele>769</ele>
      </trkpt>
      <trkpt lat="44.81414" lon="5.74381">
        <ele>771</ele>
      </trkpt>
      <trkpt lat="44.81429" lon="5.744">
        <ele>772</ele>
      </trkpt>
      <trkpt lat="44.81445" lon="5.74423">
        <ele>774</ele>
      </trkpt>
      <trkpt lat="44.81456" lon="5.74438">
        <ele>774</ele>
      </trkpt>
      <trkpt lat="44.81468" lon="5.74448">
        <ele>774</ele>
      </trkpt>
      <trkpt lat="44.8149" lon="5.74475">
        <ele>776</ele>
      </trkpt>
      <trkpt lat="44.81517" lon="5.74489">
        <ele>777</ele>
      </trkpt>
      <trkpt lat="44.81546" lon="5.7449">
        <ele>777</ele>
      </trkpt>
      <trkpt lat="44.8158" lon="5.74488">
        <ele>777</ele>
      </trkpt>
      <trkpt lat="44.81605" lon="5.74487">
        <ele>777</ele>
      </trkpt>
      <trkpt lat="44.81619" lon="5.7449">
        <ele>777</ele>
      </trkpt>
      <trkpt lat="44.81625" lon="5.74512">
        <ele>777</ele>
      </trkpt>
      <trkpt lat="44.81631" lon="5.74538">
        <ele>777</ele>
      </trkpt>
      <trkpt lat="44.81633" lon="5.74578">
        <ele>778</ele>
      </trkpt>
      <trkpt lat="44.81633" lon="5.74603">
        <ele>778</ele>
      </trkpt>
      <trkpt lat="44.81633" lon="5.74621">
        <ele>779</ele>
      </trkpt>
      <trkpt lat="44.81632" lon="5.74644">
        <ele>779</ele>
      </trkpt>
      <trkpt lat="44.81639" lon="5.74678">
        <ele>780</ele>
      </trkpt>
      <trkpt lat="44.81645" lon="5.74709">
        <ele>780</ele>
      </trkpt>
      <trkpt lat="44.81654" lon="5.74737">
        <ele>780</ele>
      </trkpt>
      <trkpt lat="44.8166" lon="5.74769">
        <ele>781</ele>
      </trkpt>
      <trkpt lat="44.81664" lon="5.74793">
        <ele>782</ele>
      </trkpt>
      <trkpt lat="44.81666" lon="5.74815">
        <ele>782</ele>
      </trkpt>
      <trkpt lat="44.81673" lon="5.74857">
        <ele>783</ele>
      </trkpt>
      <trkpt lat="44.81673" lon="5.74873">
        <ele>784</ele>
      </trkpt>
      <trkpt lat="44.81676" lon="5.74913">
        <ele>784</ele>
      </trkpt>
      <trkpt lat="44.81678" lon="5.74944">
        <ele>784</ele>
      </trkpt>
      <trkpt lat="44.81681" lon="5.74963">
        <ele>785</ele>
      </trkpt>
      <trkpt lat="44.81686" lon="5.74993">
        <ele>785</ele>
      </trkpt>
      <trkpt lat="44.81689" lon="5.75015">
        <ele>786</ele>
      </trkpt>
      <trkpt lat="44.81694" lon="5.75046">
        <ele>787</ele>
      </trkpt>
      <trkpt lat="44.81704" lon="5.75048">
        <ele>789</ele>
      </trkpt>
      <trkpt lat="44.81719" lon="5.75033">
        <ele>788</ele>
      </trkpt>
      <trkpt lat="44.81735" lon="5.75023">
        <ele>788</ele>
      </trkpt>
      <trkpt lat="44.81746" lon="5.75018">
        <ele>787</ele>
      </trkpt>
      <trkpt lat="44.81758" lon="5.75">
        <ele>787</ele>
      </trkpt>
      <trkpt lat="44.81772" lon="5.74982">
        <ele>786</ele>
      </trkpt>
      <trkpt lat="44.81781" lon="5.74973">
        <ele>783</ele>
      </trkpt>
      <trkpt lat="44.818" lon="5.74963">
        <ele>780</ele>
      </trkpt>
      <trkpt lat="44.81819" lon="5.74957">
        <ele>777</ele>
      </trkpt>
      <trkpt lat="44.81835" lon="5.74951">
        <ele>774</ele>
      </trkpt>
      <trkpt lat="44.81862" lon="5.74946">
        <ele>770</ele>
      </trkpt>
      <trkpt lat="44.81881" lon="5.74938">
        <ele>769</ele>
      </trkpt>
      <trkpt lat="44.819" lon="5.74927">
        <ele>768</ele>
      </trkpt>
      <trkpt lat="44.81918" lon="5.7492">
        <ele>767</ele>
      </trkpt>
      <trkpt lat="44.81921" lon="5.74897">
        <ele>766</ele>
      </trkpt>
      <trkpt lat="44.81909" lon="5.74867">
        <ele>767</ele>
      </trkpt>
      <trkpt lat="44.81897" lon="5.74826">
        <ele>769</ele>
      </trkpt>
      <trkpt lat="44.81889" lon="5.74806">
        <ele>771</ele>
      </trkpt>
      <trkpt lat="44.81877" lon="5.74783">
        <ele>770</ele>
      </trkpt>
      <trkpt lat="44.81864" lon="5.74759">
        <ele>769</ele>
      </trkpt>
      <trkpt lat="44.8187" lon="5.74714">
        <ele>769</ele>
      </trkpt>
      <trkpt lat="44.81874" lon="5.74675">
        <ele>771</ele>
      </trkpt>
      <trkpt lat="44.81877" lon="5.74638">
        <ele>771</ele>
      </trkpt>
      <trkpt lat="44.81883" lon="5.74607">
        <ele>771</ele>
      </trkpt>
      <trkpt lat="44.81888" lon="5.74579">
        <ele>771</ele>
      </trkpt>
      <trkpt lat="44.81894" lon="5.74547">
        <ele>771</ele>
      </trkpt>
      <trkpt lat="44.81896" lon="5.74533">
        <ele>770</ele>
      </trkpt>
      <trkpt lat="44.819" lon="5.74515">
        <ele>769</ele>
      </trkpt>
      <trkpt lat="44.81906" lon="5.74491">
        <ele>766</ele>
      </trkpt>
      <trkpt lat="44.81916" lon="5.74468">
        <ele>764</ele>
      </trkpt>
      <trkpt lat="44.81935" lon="5.74456">
        <ele>763</ele>
      </trkpt>
      <trkpt lat="44.81953" lon="5.74453">
        <ele>762</ele>
      </trkpt>
      <trkpt lat="44.81968" lon="5.74445">
        <ele>764</ele>
      </trkpt>
      <trkpt lat="44.81944" lon="5.74429">
        <ele>769</ele>
      </trkpt>
      <trkpt lat="44.81928" lon="5.744">
        <ele>771</ele>
      </trkpt>
      <trkpt lat="44.81913" lon="5.74377">
        <ele>770</ele>
      </trkpt>
      <trkpt lat="44.81908" lon="5.74359">
        <ele>769</ele>
      </trkpt>
      <trkpt lat="44.81905" lon="5.74316">
        <ele>771</ele>
      </trkpt>
      <trkpt lat="44.81896" lon="5.74285">
        <ele>772</ele>
      </trkpt>
      <trkpt lat="44.81884" lon="5.74254">
        <ele>773</ele>
      </trkpt>
      <trkpt lat="44.81884" lon="5.74221">
        <ele>774</ele>
      </trkpt>
      <trkpt lat="44.81899" lon="5.74194">
        <ele>775</ele>
      </trkpt>
      <trkpt lat="44.81919" lon="5.74166">
        <ele>776</ele>
      </trkpt>
      <trkpt lat="44.81939" lon="5.74138">
        <ele>777</ele>
      </trkpt>
      <trkpt lat="44.81955" lon="5.74115">
        <ele>778</ele>
      </trkpt>
      <trkpt lat="44.81968" lon="5.74091">
        <ele>778</ele>
      </trkpt>
      <trkpt lat="44.81979" lon="5.74053">
        <ele>780</ele>
      </trkpt>
      <trkpt lat="44.81983" lon="5.74013">
        <ele>781</ele>
      </trkpt>
      <trkpt lat="44.81988" lon="5.73979">
        <ele>782</ele>
      </trkpt>
      <trkpt lat="44.81994" lon="5.73944">
        <ele>784</ele>
      </trkpt>
      <trkpt lat="44.82007" lon="5.73913">
        <ele>785</ele>
      </trkpt>
      <trkpt lat="44.82025" lon="5.73889">
        <ele>785</ele>
      </trkpt>
      <trkpt lat="44.82033" lon="5.73879">
        <ele>786</ele>
      </trkpt>
      <trkpt lat="44.8204" lon="5.73862">
        <ele>786</ele>
      </trkpt>
      <trkpt lat="44.8205" lon="5.73846">
        <ele>785</ele>
      </trkpt>
      <trkpt lat="44.82068" lon="5.73821">
        <ele>784</ele>
      </trkpt>
      <trkpt lat="44.82087" lon="5.73794">
        <ele>783</ele>
      </trkpt>
      <trkpt lat="44.821" lon="5.73776">
        <ele>782</ele>
      </trkpt>
      <trkpt lat="44.8211" lon="5.73761">
        <ele>782</ele>
      </trkpt>
      <trkpt lat="44.82124" lon="5.73738">
        <ele>780</ele>
      </trkpt>
      <trkpt lat="44.82141" lon="5.73707">
        <ele>779</ele>
      </trkpt>
      <trkpt lat="44.82153" lon="5.73671">
        <ele>778</ele>
      </trkpt>
      <trkpt lat="44.82163" lon="5.7364">
        <ele>778</ele>
      </trkpt>
      <trkpt lat="44.82174" lon="5.73604">
        <ele>777</ele>
      </trkpt>
      <trkpt lat="44.82183" lon="5.73575">
        <ele>777</ele>
      </trkpt>
      <trkpt lat="44.82191" lon="5.73549">
        <ele>776</ele>
      </trkpt>
      <trkpt lat="44.822" lon="5.73516">
        <ele>776</ele>
      </trkpt>
      <trkpt lat="44.82209" lon="5.73479">
        <ele>776</ele>
      </trkpt>
      <trkpt lat="44.82223" lon="5.73458">
        <ele>776</ele>
      </trkpt>
      <trkpt lat="44.82237" lon="5.73433">
        <ele>777</ele>
      </trkpt>
      <trkpt lat="44.82243" lon="5.73423">
        <ele>777</ele>
      </trkpt>
      <trkpt lat="44.82248" lon="5.7341">
        <ele>778</ele>
      </trkpt>
      <trkpt lat="44.82261" lon="5.73376">
        <ele>779</ele>
      </trkpt>
      <trkpt lat="44.82268" lon="5.7336">
        <ele>781</ele>
      </trkpt>
      <trkpt lat="44.82275" lon="5.73326">
        <ele>783</ele>
      </trkpt>
      <trkpt lat="44.82284" lon="5.73288">
        <ele>785</ele>
      </trkpt>
      <trkpt lat="44.82292" lon="5.73263">
        <ele>787</ele>
      </trkpt>
      <trkpt lat="44.82299" lon="5.73245">
        <ele>790</ele>
      </trkpt>
      <trkpt lat="44.82304" lon="5.73232">
        <ele>793</ele>
      </trkpt>
      <trkpt lat="44.82319" lon="5.73218">
        <ele>796</ele>
      </trkpt>
      <trkpt lat="44.8233" lon="5.73207">
        <ele>800</ele>
      </trkpt>
      <trkpt lat="44.82341" lon="5.73194">
        <ele>802</ele>
      </trkpt>
      <trkpt lat="44.82349" lon="5.7318">
        <ele>805</ele>
      </trkpt>
      <trkpt lat="44.82352" lon="5.73152">
        <ele>809</ele>
      </trkpt>
      <trkpt lat="44.82365" lon="5.73137">
        <ele>809</ele>
      </trkpt>
      <trkpt lat="44.82371" lon="5.73112">
        <ele>812</ele>
      </trkpt>
      <trkpt lat="44.82368" lon="5.73088">
        <ele>815</ele>
      </trkpt>
      <trkpt lat="44.82386" lon="5.73074">
        <ele>816</ele>
      </trkpt>
      <trkpt lat="44.82396" lon="5.73059">
        <ele>818</ele>
      </trkpt>
      <trkpt lat="44.82402" lon="5.73048">
        <ele>820</ele>
      </trkpt>
      <trkpt lat="44.82408" lon="5.73036">
        <ele>822</ele>
      </trkpt>
      <trkpt lat="44.82424" lon="5.73023">
        <ele>825</ele>
      </trkpt>
      <trkpt lat="44.82432" lon="5.73006">
        <ele>829</ele>
      </trkpt>
      <trkpt lat="44.82439" lon="5.72994">
        <ele>830</ele>
      </trkpt>
      <trkpt lat="44.82451" lon="5.72977">
        <ele>835</ele>
      </trkpt>
      <trkpt lat="44.82456" lon="5.72956">
        <ele>837</ele>
      </trkpt>
      <trkpt lat="44.82459" lon="5.72934">
        <ele>839</ele>
      </trkpt>
      <trkpt lat="44.82464" lon="5.72905">
        <ele>841</ele>
      </trkpt>
      <trkpt lat="44.82465" lon="5.72881">
        <ele>843</ele>
      </trkpt>
      <trkpt lat="44.82473" lon="5.72855">
        <ele>846</ele>
      </trkpt>
      <trkpt lat="44.82473" lon="5.7284">
        <ele>848</ele>
      </trkpt>
      <trkpt lat="44.82477" lon="5.72826">
        <ele>850</ele>
      </trkpt>
      <trkpt lat="44.82481" lon="5.7281">
        <ele>853</ele>
      </trkpt>
      <trkpt lat="44.82484" lon="5.72788">
        <ele>857</ele>
      </trkpt>
      <trkpt lat="44.82485" lon="5.72776">
        <ele>861</ele>
      </trkpt>
      <trkpt lat="44.82486" lon="5.72747">
        <ele>864</ele>
      </trkpt>
      <trkpt lat="44.82488" lon="5.7273">
        <ele>867</ele>
      </trkpt>
      <trkpt lat="44.82494" lon="5.72705">
        <ele>870</ele>
      </trkpt>
      <trkpt lat="44.82497" lon="5.72682">
        <ele>873</ele>
      </trkpt>
      <trkpt lat="44.82501" lon="5.72667">
        <ele>874</ele>
      </trkpt>
      <trkpt lat="44.82502" lon="5.72651">
        <ele>875</ele>
      </trkpt>
      <trkpt lat="44.82502" lon="5.72631">
        <ele>877</ele>
      </trkpt>
      <trkpt lat="44.82504" lon="5.72612">
        <ele>880</ele>
      </trkpt>
      <trkpt lat="44.82505" lon="5.72584">
        <ele>884</ele>
      </trkpt>
      <trkpt lat="44.82506" lon="5.72568">
        <ele>886</ele>
      </trkpt>
      <trkpt lat="44.8251" lon="5.72544">
        <ele>891</ele>
      </trkpt>
      <trkpt lat="44.82518" lon="5.72518">
        <ele>891</ele>
      </trkpt>
      <trkpt lat="44.82521" lon="5.72504">
        <ele>890</ele>
      </trkpt>
      <trkpt lat="44.82523" lon="5.72475">
        <ele>888</ele>
      </trkpt>
      <trkpt lat="44.8253" lon="5.72446">
        <ele>886</ele>
      </trkpt>
      <trkpt lat="44.82532" lon="5.72437">
        <ele>886</ele>
      </trkpt>
      <trkpt lat="44.82542" lon="5.72417">
        <ele>884</ele>
      </trkpt>
      <trkpt lat="44.82556" lon="5.72404">
        <ele>882</ele>
      </trkpt>
      <trkpt lat="44.82562" lon="5.72397">
        <ele>882</ele>
      </trkpt>
      <trkpt lat="44.82581" lon="5.72373">
        <ele>880</ele>
      </trkpt>
      <trkpt lat="44.82589" lon="5.72349">
        <ele>877</ele>
      </trkpt>
      <trkpt lat="44.82591" lon="5.72339">
        <ele>876</ele>
      </trkpt>
      <trkpt lat="44.826" lon="5.72307">
        <ele>874</ele>
      </trkpt>
      <trkpt lat="44.82603" lon="5.72293">
        <ele>873</ele>
      </trkpt>
      <trkpt lat="44.82607" lon="5.72279">
        <ele>872</ele>
      </trkpt>
      <trkpt lat="44.82619" lon="5.72262">
        <ele>870</ele>
      </trkpt>
      <trkpt lat="44.82636" lon="5.72238">
        <ele>868</ele>
      </trkpt>
      <trkpt lat="44.82645" lon="5.72223">
        <ele>867</ele>
      </trkpt>
      <trkpt lat="44.82658" lon="5.72201">
        <ele>865</ele>
      </trkpt>
      <trkpt lat="44.82673" lon="5.72177">
        <ele>864</ele>
      </trkpt>
      <trkpt lat="44.82686" lon="5.72155">
        <ele>863</ele>
      </trkpt>
      <trkpt lat="44.82699" lon="5.72128">
        <ele>861</ele>
      </trkpt>
      <trkpt lat="44.82708" lon="5.72104">
        <ele>861</ele>
      </trkpt>
      <trkpt lat="44.82715" lon="5.72081">
        <ele>861</ele>
      </trkpt>
      <trkpt lat="44.82729" lon="5.72044">
        <ele>861</ele>
      </trkpt>
      <trkpt lat="44.82745" lon="5.72001">
        <ele>861</ele>
      </trkpt>
      <trkpt lat="44.82753" lon="5.71978">
        <ele>860</ele>
      </trkpt>
      <trkpt lat="44.82767" lon="5.71934">
        <ele>860</ele>
      </trkpt>
      <trkpt lat="44.82776" lon="5.71884">
        <ele>860</ele>
      </trkpt>
      <trkpt lat="44.82789" lon="5.71859">
        <ele>859</ele>
      </trkpt>
      <trkpt lat="44.82793" lon="5.71855">
        <ele>858</ele>
      </trkpt>
      <trkpt lat="44.82798" lon="5.71851">
        <ele>857</ele>
      </trkpt>
      <trkpt lat="44.82802" lon="5.71846">
        <ele>856</ele>
      </trkpt>
      <trkpt lat="44.82816" lon="5.71834">
        <ele>853</ele>
      </trkpt>
      <trkpt lat="44.82834" lon="5.71822">
        <ele>850</ele>
      </trkpt>
      <trkpt lat="44.82852" lon="5.71813">
        <ele>848</ele>
      </trkpt>
      <trkpt lat="44.8287" lon="5.71806">
        <ele>845</ele>
      </trkpt>
      <trkpt lat="44.82889" lon="5.71801">
        <ele>842</ele>
      </trkpt>
      <trkpt lat="44.82908" lon="5.71801">
        <ele>840</ele>
      </trkpt>
      <trkpt lat="44.82923" lon="5.718">
        <ele>838</ele>
      </trkpt>
      <trkpt lat="44.8293" lon="5.718">
        <ele>836</ele>
      </trkpt>
      <trkpt lat="44.82946" lon="5.71796">
        <ele>834</ele>
      </trkpt>
      <trkpt lat="44.82954" lon="5.71791">
        <ele>832</ele>
      </trkpt>
      <trkpt lat="44.8296" lon="5.71786">
        <ele>831</ele>
      </trkpt>
      <trkpt lat="44.82975" lon="5.71768">
        <ele>828</ele>
      </trkpt>
      <trkpt lat="44.82976" lon="5.71757">
        <ele>827</ele>
      </trkpt>
      <trkpt lat="44.82978" lon="5.71751">
        <ele>826</ele>
      </trkpt>
      <trkpt lat="44.82981" lon="5.71741">
        <ele>825</ele>
      </trkpt>
      <trkpt lat="44.82986" lon="5.71727">
        <ele>824</ele>
      </trkpt>
      <trkpt lat="44.82989" lon="5.71719">
        <ele>825</ele>
      </trkpt>
      <trkpt lat="44.83" lon="5.71698">
        <ele>824</ele>
      </trkpt>
      <trkpt lat="44.83009" lon="5.71684">
        <ele>823</ele>
      </trkpt>
      <trkpt lat="44.83017" lon="5.7167">
        <ele>822</ele>
      </trkpt>
      <trkpt lat="44.83034" lon="5.71646">
        <ele>820</ele>
      </trkpt>
      <trkpt lat="44.8305" lon="5.71623">
        <ele>820</ele>
      </trkpt>
      <trkpt lat="44.8304" lon="5.71601">
        <ele>818</ele>
      </trkpt>
      <trkpt lat="44.83032" lon="5.71594">
        <ele>817</ele>
      </trkpt>
      <trkpt lat="44.83036" lon="5.71571">
        <ele>817</ele>
      </trkpt>
      <trkpt lat="44.83047" lon="5.71552">
        <ele>817</ele>
      </trkpt>
      <trkpt lat="44.83054" lon="5.7153">
        <ele>818</ele>
      </trkpt>
      <trkpt lat="44.83056" lon="5.71525">
        <ele>818</ele>
      </trkpt>
      <trkpt lat="44.83059" lon="5.71504">
        <ele>819</ele>
      </trkpt>
      <trkpt lat="44.83065" lon="5.71483">
        <ele>820</ele>
      </trkpt>
      <trkpt lat="44.83072" lon="5.71455">
        <ele>821</ele>
      </trkpt>
      <trkpt lat="44.83069" lon="5.71432">
        <ele>822</ele>
      </trkpt>
      <trkpt lat="44.83069" lon="5.71401">
        <ele>824</ele>
      </trkpt>
      <trkpt lat="44.83069" lon="5.71382">
        <ele>825</ele>
      </trkpt>
      <trkpt lat="44.83067" lon="5.71364">
        <ele>827</ele>
      </trkpt>
      <trkpt lat="44.83069" lon="5.71356">
        <ele>828</ele>
      </trkpt>
      <trkpt lat="44.83078" lon="5.7133">
        <ele>830</ele>
      </trkpt>
      <trkpt lat="44.83089" lon="5.71307">
        <ele>834</ele>
      </trkpt>
      <trkpt lat="44.83094" lon="5.71296">
        <ele>835</ele>
      </trkpt>
      <trkpt lat="44.83104" lon="5.71272">
        <ele>836</ele>
      </trkpt>
      <trkpt lat="44.83116" lon="5.71255">
        <ele>838</ele>
      </trkpt>
      <trkpt lat="44.83119" lon="5.71252">
        <ele>839</ele>
      </trkpt>
      <trkpt lat="44.83142" lon="5.71231">
        <ele>841</ele>
      </trkpt>
      <trkpt lat="44.8316" lon="5.71211">
        <ele>843</ele>
      </trkpt>
      <trkpt lat="44.83169" lon="5.71199">
        <ele>846</ele>
      </trkpt>
      <trkpt lat="44.83173" lon="5.7119">
        <ele>848</ele>
      </trkpt>
      <trkpt lat="44.83186" lon="5.7117">
        <ele>850</ele>
      </trkpt>
      <trkpt lat="44.83195" lon="5.71157">
        <ele>852</ele>
      </trkpt>
      <trkpt lat="44.83203" lon="5.7115">
        <ele>852</ele>
      </trkpt>
      <trkpt lat="44.83205" lon="5.71148">
        <ele>853</ele>
      </trkpt>
      <trkpt lat="44.83212" lon="5.71141">
        <ele>854</ele>
      </trkpt>
      <trkpt lat="44.83218" lon="5.71132">
        <ele>855</ele>
      </trkpt>
      <trkpt lat="44.83233" lon="5.71126">
        <ele>856</ele>
      </trkpt>
      <trkpt lat="44.83249" lon="5.71133">
        <ele>857</ele>
      </trkpt>
      <trkpt lat="44.83251" lon="5.71134">
        <ele>857</ele>
      </trkpt>
      <trkpt lat="44.83253" lon="5.71134">
        <ele>857</ele>
      </trkpt>
      <trkpt lat="44.83268" lon="5.71131">
        <ele>857</ele>
      </trkpt>
      <trkpt lat="44.83274" lon="5.71128">
        <ele>858</ele>
      </trkpt>
      <trkpt lat="44.83287" lon="5.71123">
        <ele>860</ele>
      </trkpt>
      <trkpt lat="44.83294" lon="5.7112">
        <ele>860</ele>
      </trkpt>
      <trkpt lat="44.83301" lon="5.71116">
        <ele>860</ele>
      </trkpt>
      <trkpt lat="44.83304" lon="5.71113">
        <ele>861</ele>
      </trkpt>
      <trkpt lat="44.83307" lon="5.71112">
        <ele>861</ele>
      </trkpt>
      <trkpt lat="44.8331" lon="5.7111">
        <ele>861</ele>
      </trkpt>
      <trkpt lat="44.83329" lon="5.71097">
        <ele>862</ele>
      </trkpt>
      <trkpt lat="44.83331" lon="5.71096">
        <ele>863</ele>
      </trkpt>
      <trkpt lat="44.8334" lon="5.71092">
        <ele>864</ele>
      </trkpt>
      <trkpt lat="44.83355" lon="5.71081">
        <ele>865</ele>
      </trkpt>
      <trkpt lat="44.8336" lon="5.71078">
        <ele>866</ele>
      </trkpt>
      <trkpt lat="44.83376" lon="5.71067">
        <ele>866</ele>
      </trkpt>
      <trkpt lat="44.83384" lon="5.7106">
        <ele>867</ele>
      </trkpt>
      <trkpt lat="44.8339" lon="5.71056">
        <ele>868</ele>
      </trkpt>
      <trkpt lat="44.83394" lon="5.71052">
        <ele>868</ele>
      </trkpt>
      <trkpt lat="44.83399" lon="5.71044">
        <ele>869</ele>
      </trkpt>
      <trkpt lat="44.83405" lon="5.71021">
        <ele>869</ele>
      </trkpt>
      <trkpt lat="44.83406" lon="5.71018">
        <ele>869</ele>
      </trkpt>
      <trkpt lat="44.83408" lon="5.71008">
        <ele>870</ele>
      </trkpt>
      <trkpt lat="44.83411" lon="5.71003">
        <ele>870</ele>
      </trkpt>
      <trkpt lat="44.83413" lon="5.70995">
        <ele>872</ele>
      </trkpt>
      <trkpt lat="44.83418" lon="5.70978">
        <ele>873</ele>
      </trkpt>
      <trkpt lat="44.83422" lon="5.70968">
        <ele>873</ele>
      </trkpt>
      <trkpt lat="44.8343" lon="5.70942">
        <ele>875</ele>
      </trkpt>
      <trkpt lat="44.83435" lon="5.70922">
        <ele>876</ele>
      </trkpt>
      <trkpt lat="44.83424" lon="5.70902">
        <ele>877</ele>
      </trkpt>
      <trkpt lat="44.8341" lon="5.70883">
        <ele>878</ele>
      </trkpt>
      <trkpt lat="44.83401" lon="5.70875">
        <ele>877</ele>
      </trkpt>
      <trkpt lat="44.834" lon="5.70875">
        <ele>877</ele>
      </trkpt>
    </trkseg>
  </trk>
</gpx>